<?xml version='1.0' encoding='UTF-8'?><gpx version="1.1" creator="JPX - https://github.com/jenetics/jpx" xmlns="http://www.topografix.com/GPX/1/1"><trk><trkseg><trkpt lat="42.015797568907196" lon="12.061466597087882"><ele>38.5</ele><time>2026-04-12T07:19:40Z</time></trkpt><trkpt lat="42.015865927992564" lon="12.06141342693815"><ele>39.0</ele><time>2026-04-12T07:19:41Z</time></trkpt><trkpt lat="42.015919497865895" lon="12.061347997916503"><ele>39.5</ele><time>2026-04-12T07:19:42Z</time></trkpt><trkpt lat="42.016032067215825" lon="12.061225742360984"><ele>40.0</ele><time>2026-04-12T07:19:43Z</time></trkpt><trkpt lat="42.01616006598176" lon="12.06108865717584"><ele>40.0</ele><time>2026-04-12T07:19:44Z</time></trkpt><trkpt lat="42.0162463933439" lon="12.060992717429565"><ele>40.0</ele><time>2026-04-12T07:19:45Z</time></trkpt><trkpt lat="42.01635785326959" lon="12.060874578171589"><ele>40.0</ele><time>2026-04-12T07:19:46Z</time></trkpt><trkpt lat="42.01646954691542" lon="12.060754856667769"><ele>40.0</ele><time>2026-04-12T07:19:47Z</time></trkpt><trkpt lat="42.016605884329365" lon="12.060614577608433"><ele>40.66666666666667</ele><time>2026-04-12T07:19:48Z</time></trkpt><trkpt lat="42.01673780428555" lon="12.060455938751758"><ele>41.333333333333336</ele><time>2026-04-12T07:19:49Z</time></trkpt><trkpt lat="42.01687201761872" lon="12.060299188649047"><ele>42.0</ele><time>2026-04-12T07:19:50Z</time></trkpt><trkpt lat="42.01699870289362" lon="12.060159055830223"><ele>42.0</ele><time>2026-04-12T07:19:51Z</time></trkpt><trkpt lat="42.017126507648136" lon="12.060017742394702"><ele>42.0</ele><time>2026-04-12T07:19:52Z</time></trkpt><trkpt lat="42.017253747956836" lon="12.059873436103619"><ele>42.0</ele><time>2026-04-12T07:19:53Z</time></trkpt><trkpt lat="42.01738173231241" lon="12.059728976384795"><ele>43.0</ele><time>2026-04-12T07:19:54Z</time></trkpt><trkpt lat="42.01751032371863" lon="12.059595307679096"><ele>44.0</ele><time>2026-04-12T07:19:55Z</time></trkpt><trkpt lat="42.017631373078906" lon="12.059455691845136"><ele>45.0</ele><time>2026-04-12T07:19:56Z</time></trkpt><trkpt lat="42.01775923210509" lon="12.059318983168373"><ele>45.0</ele><time>2026-04-12T07:19:57Z</time></trkpt><trkpt lat="42.017891182560376" lon="12.05918626172188"><ele>45.0</ele><time>2026-04-12T07:19:58Z</time></trkpt><trkpt lat="42.01801990462456" lon="12.05904555619776"><ele>45.0</ele><time>2026-04-12T07:19:59Z</time></trkpt><trkpt lat="42.01814583751743" lon="12.0588977625091"><ele>45.333333333333336</ele><time>2026-04-12T07:20:00Z</time></trkpt><trkpt lat="42.01827345626709" lon="12.058759395030238"><ele>45.66666666666667</ele><time>2026-04-12T07:20:01Z</time></trkpt><trkpt lat="42.01839903456143" lon="12.058621403078071"><ele>46.0</ele><time>2026-04-12T07:20:02Z</time></trkpt><trkpt lat="42.0185198281854" lon="12.058477590432053"><ele>46.0</ele><time>2026-04-12T07:20:03Z</time></trkpt><trkpt lat="42.0186386221494" lon="12.05832011916807"><ele>46.0</ele><time>2026-04-12T07:20:04Z</time></trkpt><trkpt lat="42.01875030997881" lon="12.058152868701985"><ele>46.0</ele><time>2026-04-12T07:20:05Z</time></trkpt><trkpt lat="42.018851943526336" lon="12.057964192142515"><ele>46.0</ele><time>2026-04-12T07:20:06Z</time></trkpt><trkpt lat="42.01895638411865" lon="12.057767338627748"><ele>46.0</ele><time>2026-04-12T07:20:07Z</time></trkpt><trkpt lat="42.019063396600586" lon="12.05758121631212"><ele>46.0</ele><time>2026-04-12T07:20:08Z</time></trkpt><trkpt lat="42.01915994642636" lon="12.05739520842323"><ele>45.333333333333336</ele><time>2026-04-12T07:20:09Z</time></trkpt><trkpt lat="42.01926263927426" lon="12.0572089917483"><ele>44.666666666666664</ele><time>2026-04-12T07:20:10Z</time></trkpt><trkpt lat="42.01936233290031" lon="12.057030893619102"><ele>44.0</ele><time>2026-04-12T07:20:11Z</time></trkpt><trkpt lat="42.01945445311488" lon="12.056850582224628"><ele>44.0</ele><time>2026-04-12T07:20:12Z</time></trkpt><trkpt lat="42.01954930484124" lon="12.056669532182068"><ele>44.0</ele><time>2026-04-12T07:20:13Z</time></trkpt><trkpt lat="42.01963899207421" lon="12.056491130735163"><ele>44.0</ele><time>2026-04-12T07:20:14Z</time></trkpt><trkpt lat="42.01974116235949" lon="12.056316862019344"><ele>44.666666666666664</ele><time>2026-04-12T07:20:15Z</time></trkpt><trkpt lat="42.019828307471" lon="12.056135940814501"><ele>45.333333333333336</ele><time>2026-04-12T07:20:16Z</time></trkpt><trkpt lat="42.01993143058729" lon="12.055952601533612"><ele>46.0</ele><time>2026-04-12T07:20:17Z</time></trkpt><trkpt lat="42.02002964221303" lon="12.055770071271414"><ele>46.0</ele><time>2026-04-12T07:20:18Z</time></trkpt><trkpt lat="42.02012986640978" lon="12.055594197427649"><ele>46.0</ele><time>2026-04-12T07:20:19Z</time></trkpt><trkpt lat="42.02022417096422" lon="12.055417873310248"><ele>46.0</ele><time>2026-04-12T07:20:20Z</time></trkpt><trkpt lat="42.020319387074856" lon="12.055237639629219"><ele>46.0</ele><time>2026-04-12T07:20:21Z</time></trkpt><trkpt lat="42.02041421576852" lon="12.05506018100418"><ele>46.0</ele><time>2026-04-12T07:20:22Z</time></trkpt><trkpt lat="42.020506159389484" lon="12.054884112161192"><ele>46.0</ele><time>2026-04-12T07:20:23Z</time></trkpt><trkpt lat="42.02061081064516" lon="12.054700980503846"><ele>45.66666666666667</ele><time>2026-04-12T07:20:24Z</time></trkpt><trkpt lat="42.020713480866185" lon="12.05451534459022"><ele>45.333333333333336</ele><time>2026-04-12T07:20:25Z</time></trkpt><trkpt lat="42.02081534221344" lon="12.054335047691014"><ele>45.0</ele><time>2026-04-12T07:20:26Z</time></trkpt><trkpt lat="42.02091313950369" lon="12.054150338031803"><ele>45.333333333333336</ele><time>2026-04-12T07:20:27Z</time></trkpt><trkpt lat="42.02100914847698" lon="12.053973450771688"><ele>45.66666666666667</ele><time>2026-04-12T07:20:27.999Z</time></trkpt><trkpt lat="42.02109720486776" lon="12.053773969889962"><ele>46.0</ele><time>2026-04-12T07:20:28.999Z</time></trkpt><trkpt lat="42.02117920760596" lon="12.053559954648076"><ele>46.0</ele><time>2026-04-12T07:20:29.999Z</time></trkpt><trkpt lat="42.02126021193065" lon="12.053357113690033"><ele>46.0</ele><time>2026-04-12T07:20:30.999Z</time></trkpt><trkpt lat="42.02132958304726" lon="12.053156536995848"><ele>46.0</ele><time>2026-04-12T07:20:31.999Z</time></trkpt><trkpt lat="42.02139971128456" lon="12.052952839661005"><ele>46.66666666666667</ele><time>2026-04-12T07:20:32.999Z</time></trkpt><trkpt lat="42.02145591554267" lon="12.052758744352902"><ele>47.333333333333336</ele><time>2026-04-12T07:20:33.999Z</time></trkpt><trkpt lat="42.02151577454681" lon="12.052567329923209"><ele>48.0</ele><time>2026-04-12T07:20:34.999Z</time></trkpt><trkpt lat="42.02157770535774" lon="12.052371358849626"><ele>48.0</ele><time>2026-04-12T07:20:35.999Z</time></trkpt><trkpt lat="42.02163506234926" lon="12.052169311512577"><ele>48.0</ele><time>2026-04-12T07:20:36.999Z</time></trkpt><trkpt lat="42.021700989973645" lon="12.051959197492723"><ele>48.0</ele><time>2026-04-12T07:20:37.999Z</time></trkpt><trkpt lat="42.02176580560272" lon="12.051753881666546"><ele>49.0</ele><time>2026-04-12T07:20:38.999Z</time></trkpt><trkpt lat="42.021824351135116" lon="12.051539660408272"><ele>50.0</ele><time>2026-04-12T07:20:39.999Z</time></trkpt><trkpt lat="42.021883049260374" lon="12.051331766171753"><ele>51.0</ele><time>2026-04-12T07:20:40.999Z</time></trkpt><trkpt lat="42.02194412325242" lon="12.051114734928595"><ele>51.0</ele><time>2026-04-12T07:20:41.999Z</time></trkpt><trkpt lat="42.02200057039203" lon="12.05090721978385"><ele>51.0</ele><time>2026-04-12T07:20:42.999Z</time></trkpt><trkpt lat="42.02205899054781" lon="12.050696805706577"><ele>51.0</ele><time>2026-04-12T07:20:43.999Z</time></trkpt><trkpt lat="42.02211338228717" lon="12.05047978399917"><ele>51.0</ele><time>2026-04-12T07:20:44.999Z</time></trkpt><trkpt lat="42.0221741731292" lon="12.050264881923384"><ele>51.0</ele><time>2026-04-12T07:20:45.999Z</time></trkpt><trkpt lat="42.02223296679226" lon="12.05004762710511"><ele>51.0</ele><time>2026-04-12T07:20:46.999Z</time></trkpt><trkpt lat="42.02228498115203" lon="12.049827905393553"><ele>50.33333333333333</ele><time>2026-04-12T07:20:47.999Z</time></trkpt><trkpt lat="42.0223270684341" lon="12.049605398234613"><ele>49.666666666666664</ele><time>2026-04-12T07:20:48.999Z</time></trkpt><trkpt lat="42.02235657358946" lon="12.049366015518093"><ele>49.0</ele><time>2026-04-12T07:20:49.999Z</time></trkpt><trkpt lat="42.02237331424551" lon="12.049116389775193"><ele>49.0</ele><time>2026-04-12T07:20:50.999Z</time></trkpt><trkpt lat="42.02238351570666" lon="12.04887522002586"><ele>49.0</ele><time>2026-04-12T07:20:51.999Z</time></trkpt><trkpt lat="42.0224020746193" lon="12.048640890019655"><ele>49.0</ele><time>2026-04-12T07:20:52.999Z</time></trkpt><trkpt lat="42.02242059131381" lon="12.048405542093006"><ele>48.33333333333333</ele><time>2026-04-12T07:20:53.999Z</time></trkpt><trkpt lat="42.02243915342354" lon="12.048174439503939"><ele>47.666666666666664</ele><time>2026-04-12T07:20:54.999Z</time></trkpt><trkpt lat="42.02245838667186" lon="12.047937599977319"><ele>47.0</ele><time>2026-04-12T07:20:55.999Z</time></trkpt><trkpt lat="42.02248102150405" lon="12.04771656570528"><ele>47.666666666666664</ele><time>2026-04-12T07:20:56.999Z</time></trkpt><trkpt lat="42.022498478809034" lon="12.04750784954954"><ele>48.33333333333333</ele><time>2026-04-12T07:20:57.999Z</time></trkpt><trkpt lat="42.02252360421468" lon="12.047287691643334"><ele>49.0</ele><time>2026-04-12T07:20:58.999Z</time></trkpt><trkpt lat="42.02254158912556" lon="12.047064329668572"><ele>49.0</ele><time>2026-04-12T07:20:59.999Z</time></trkpt><trkpt lat="42.02255883274483" lon="12.046833059043236"><ele>49.0</ele><time>2026-04-12T07:21:00.999Z</time></trkpt><trkpt lat="42.0225734621271" lon="12.046601811484438"><ele>49.0</ele><time>2026-04-12T07:21:01.999Z</time></trkpt><trkpt lat="42.02259331454" lon="12.046377498337645"><ele>49.0</ele><time>2026-04-12T07:21:02.999Z</time></trkpt><trkpt lat="42.022615360544485" lon="12.046152262621122"><ele>49.0</ele><time>2026-04-12T07:21:03.999Z</time></trkpt><trkpt lat="42.022640324674285" lon="12.045922411842584"><ele>49.0</ele><time>2026-04-12T07:21:04.999Z</time></trkpt><trkpt lat="42.02266073779526" lon="12.045691655514801"><ele>49.33333333333333</ele><time>2026-04-12T07:21:05.999Z</time></trkpt><trkpt lat="42.022677588470366" lon="12.045459350515843"><ele>49.66666666666667</ele><time>2026-04-12T07:21:06.999Z</time></trkpt><trkpt lat="42.02271138378015" lon="12.045226590361159"><ele>50.0</ele><time>2026-04-12T07:21:07.999Z</time></trkpt><trkpt lat="42.02271598295549" lon="12.045002741371944"><ele>50.333333333333336</ele><time>2026-04-12T07:21:08.999Z</time></trkpt><trkpt lat="42.02274866080192" lon="12.04479314239551"><ele>50.66666666666667</ele><time>2026-04-12T07:21:09.999Z</time></trkpt><trkpt lat="42.02276431555713" lon="12.044598714109643"><ele>51.0</ele><time>2026-04-12T07:21:10.999Z</time></trkpt><trkpt lat="42.0227812059234" lon="12.04438893993551"><ele>51.0</ele><time>2026-04-12T07:21:11.999Z</time></trkpt><trkpt lat="42.02279793068952" lon="12.044181222446753"><ele>51.0</ele><time>2026-04-12T07:21:12.999Z</time></trkpt><trkpt lat="42.02280019638613" lon="12.043975088476556"><ele>51.0</ele><time>2026-04-12T07:21:13.999Z</time></trkpt><trkpt lat="42.02281113984059" lon="12.04376908760593"><ele>52.0</ele><time>2026-04-12T07:21:14.999Z</time></trkpt><trkpt lat="42.022829385514505" lon="12.043567309671156"><ele>53.0</ele><time>2026-04-12T07:21:15.999Z</time></trkpt><trkpt lat="42.022831020517756" lon="12.043378627560088"><ele>54.0</ele><time>2026-04-12T07:21:16.999Z</time></trkpt><trkpt lat="42.022826301609356" lon="12.043176549655305"><ele>55.0</ele><time>2026-04-12T07:21:17.999Z</time></trkpt><trkpt lat="42.022816634467475" lon="12.042975612598608"><ele>55.33333333333333</ele><time>2026-04-12T07:21:18.999Z</time></trkpt><trkpt lat="42.02280615652749" lon="12.042780253632598"><ele>55.66666666666667</ele><time>2026-04-12T07:21:19.999Z</time></trkpt><trkpt lat="42.02279545733463" lon="12.042573089040793"><ele>56.0</ele><time>2026-04-12T07:21:20.999Z</time></trkpt><trkpt lat="42.022785427911266" lon="12.042361717042082"><ele>55.0</ele><time>2026-04-12T07:21:21.999Z</time></trkpt><trkpt lat="42.022775104977825" lon="12.0421441592611"><ele>54.0</ele><time>2026-04-12T07:21:22.999Z</time></trkpt><trkpt lat="42.022764371583456" lon="12.041917950966086"><ele>53.0</ele><time>2026-04-12T07:21:23.999Z</time></trkpt><trkpt lat="42.02275333276065" lon="12.041689890282745"><ele>52.333333333333336</ele><time>2026-04-12T07:21:24.999Z</time></trkpt><trkpt lat="42.02274172099361" lon="12.04145505124197"><ele>51.66666666666667</ele><time>2026-04-12T07:21:25.999Z</time></trkpt><trkpt lat="42.02273013151689" lon="12.041220662904676"><ele>51.0</ele><time>2026-04-12T07:21:26.999Z</time></trkpt><trkpt lat="42.02271855174138" lon="12.040986367228472"><ele>49.666666666666664</ele><time>2026-04-12T07:21:27.999Z</time></trkpt><trkpt lat="42.02269091450987" lon="12.040758666845194"><ele>48.33333333333333</ele><time>2026-04-12T07:21:28.999Z</time></trkpt><trkpt lat="42.02268241158981" lon="12.040526555599321"><ele>47.0</ele><time>2026-04-12T07:21:29.999Z</time></trkpt><trkpt lat="42.02267323726746" lon="12.040293046387907"><ele>47.0</ele><time>2026-04-12T07:21:30.999Z</time></trkpt><trkpt lat="42.02265895029386" lon="12.040063020814426"><ele>47.0</ele><time>2026-04-12T07:21:31.999Z</time></trkpt><trkpt lat="42.02265101586331" lon="12.039816762516065"><ele>47.0</ele><time>2026-04-12T07:21:32.999Z</time></trkpt><trkpt lat="42.02264048143209" lon="12.039570756732523"><ele>46.33333333333333</ele><time>2026-04-12T07:21:33.999Z</time></trkpt><trkpt lat="42.022644488450716" lon="12.039344148160376"><ele>45.666666666666664</ele><time>2026-04-12T07:21:35Z</time></trkpt><trkpt lat="42.02263388789593" lon="12.039121247781518"><ele>45.0</ele><time>2026-04-12T07:21:36Z</time></trkpt><trkpt lat="42.02260854081701" lon="12.038891018723717"><ele>45.0</ele><time>2026-04-12T07:21:37Z</time></trkpt><trkpt lat="42.02259525007315" lon="12.038657192429199"><ele>45.0</ele><time>2026-04-12T07:21:38Z</time></trkpt><trkpt lat="42.02258504969096" lon="12.03842139300788"><ele>45.0</ele><time>2026-04-12T07:21:39Z</time></trkpt><trkpt lat="42.022570193080455" lon="12.038178794600958"><ele>45.333333333333336</ele><time>2026-04-12T07:21:40Z</time></trkpt><trkpt lat="42.02257370921985" lon="12.037931076320637"><ele>45.66666666666667</ele><time>2026-04-12T07:21:41Z</time></trkpt><trkpt lat="42.022546830224734" lon="12.03769486956678"><ele>46.0</ele><time>2026-04-12T07:21:42Z</time></trkpt><trkpt lat="42.02251867949918" lon="12.037447926264242"><ele>46.66666666666667</ele><time>2026-04-12T07:21:43Z</time></trkpt><trkpt lat="42.022505499614425" lon="12.037200664958137"><ele>47.333333333333336</ele><time>2026-04-12T07:21:44Z</time></trkpt><trkpt lat="42.02245867639672" lon="12.036966379782152"><ele>48.0</ele><time>2026-04-12T07:21:45Z</time></trkpt><trkpt lat="42.02242376554638" lon="12.036721398490382"><ele>46.333333333333336</ele><time>2026-04-12T07:21:46Z</time></trkpt><trkpt lat="42.02239153074516" lon="12.036480587160787"><ele>44.66666666666667</ele><time>2026-04-12T07:21:47Z</time></trkpt><trkpt lat="42.02235821613975" lon="12.03625238439825"><ele>43.0</ele><time>2026-04-12T07:21:48Z</time></trkpt><trkpt lat="42.022322836036935" lon="12.036026218012859"><ele>43.333333333333336</ele><time>2026-04-12T07:21:49Z</time></trkpt><trkpt lat="42.02228937941046" lon="12.035798944623068"><ele>43.666666666666664</ele><time>2026-04-12T07:21:50Z</time></trkpt><trkpt lat="42.02225743872994" lon="12.035580469534516"><ele>44.0</ele><time>2026-04-12T07:21:51Z</time></trkpt><trkpt lat="42.022226096282765" lon="12.03536176223262"><ele>44.0</ele><time>2026-04-12T07:21:52Z</time></trkpt><trkpt lat="42.02219371980515" lon="12.035144676476698"><ele>44.0</ele><time>2026-04-12T07:21:53Z</time></trkpt><trkpt lat="42.02215962756681" lon="12.034913613099846"><ele>44.0</ele><time>2026-04-12T07:21:54Z</time></trkpt><trkpt lat="42.022127883196646" lon="12.034687476374675"><ele>44.0</ele><time>2026-04-12T07:21:55Z</time></trkpt><trkpt lat="42.02209527448818" lon="12.03446760036011"><ele>44.0</ele><time>2026-04-12T07:21:56Z</time></trkpt><trkpt lat="42.0220626566964" lon="12.034239804355606"><ele>44.0</ele><time>2026-04-12T07:21:57Z</time></trkpt><trkpt lat="42.02202529303563" lon="12.034011590233225"><ele>44.0</ele><time>2026-04-12T07:21:58Z</time></trkpt><trkpt lat="42.021996463278604" lon="12.033779241923305"><ele>44.0</ele><time>2026-04-12T07:21:59Z</time></trkpt><trkpt lat="42.02196356670389" lon="12.033544622440443"><ele>44.0</ele><time>2026-04-12T07:22:00Z</time></trkpt><trkpt lat="42.02193192274774" lon="12.03331603990281"><ele>43.666666666666664</ele><time>2026-04-12T07:22:01Z</time></trkpt><trkpt lat="42.02189913718709" lon="12.033098226940398"><ele>43.333333333333336</ele><time>2026-04-12T07:22:02Z</time></trkpt><trkpt lat="42.02186665152905" lon="12.032893299098216"><ele>43.0</ele><time>2026-04-12T07:22:03Z</time></trkpt><trkpt lat="42.02183714033724" lon="12.032690300052906"><ele>43.0</ele><time>2026-04-12T07:22:04Z</time></trkpt><trkpt lat="42.02181346855932" lon="12.032494868807976"><ele>43.0</ele><time>2026-04-12T07:22:05Z</time></trkpt><trkpt lat="42.02180615710758" lon="12.032293724335288"><ele>43.0</ele><time>2026-04-12T07:22:06Z</time></trkpt><trkpt lat="42.02182860506026" lon="12.032088130128802"><ele>43.0</ele><time>2026-04-12T07:22:07Z</time></trkpt><trkpt lat="42.0218981444256" lon="12.031886549295558"><ele>43.0</ele><time>2026-04-12T07:22:08Z</time></trkpt><trkpt lat="42.021974742634974" lon="12.031680717780585"><ele>43.0</ele><time>2026-04-12T07:22:09Z</time></trkpt><trkpt lat="42.02204586208846" lon="12.031501575805125"><ele>43.0</ele><time>2026-04-12T07:22:10Z</time></trkpt><trkpt lat="42.022114469646425" lon="12.031326648160285"><ele>43.0</ele><time>2026-04-12T07:22:11Z</time></trkpt><trkpt lat="42.02218571614257" lon="12.031151018908664"><ele>43.0</ele><time>2026-04-12T07:22:12Z</time></trkpt><trkpt lat="42.02225839626837" lon="12.030973201013946"><ele>43.0</ele><time>2026-04-12T07:22:13Z</time></trkpt><trkpt lat="42.02233329427553" lon="12.030792724898554"><ele>43.0</ele><time>2026-04-12T07:22:14Z</time></trkpt><trkpt lat="42.02240689616916" lon="12.030609208729459"><ele>43.0</ele><time>2026-04-12T07:22:15Z</time></trkpt><trkpt lat="42.022474461443736" lon="12.030423159144016"><ele>43.0</ele><time>2026-04-12T07:22:16Z</time></trkpt><trkpt lat="42.02255293743276" lon="12.03022945076736"><ele>44.0</ele><time>2026-04-12T07:22:17Z</time></trkpt><trkpt lat="42.02262562794596" lon="12.030051910760143"><ele>45.0</ele><time>2026-04-12T07:22:18Z</time></trkpt><trkpt lat="42.02269855898553" lon="12.029883502549371"><ele>46.0</ele><time>2026-04-12T07:22:19Z</time></trkpt><trkpt lat="42.02276499518468" lon="12.029717366522892"><ele>47.0</ele><time>2026-04-12T07:22:20Z</time></trkpt><trkpt lat="42.02281018907328" lon="12.02957500434634"><ele>47.0</ele><time>2026-04-12T07:22:21Z</time></trkpt><trkpt lat="42.02286432620508" lon="12.02944787384154"><ele>47.0</ele><time>2026-04-12T07:22:22Z</time></trkpt><trkpt lat="42.022908957598084" lon="12.029347602388325"><ele>47.0</ele><time>2026-04-12T07:22:23Z</time></trkpt><trkpt lat="42.02293949638558" lon="12.029271665982982"><ele>47.0</ele><time>2026-04-12T07:22:24Z</time></trkpt><trkpt lat="42.02299103487091" lon="12.02915829056677"><ele>47.0</ele><time>2026-04-12T07:22:26Z</time></trkpt><trkpt lat="42.023047584798825" lon="12.0291014954312"><ele>47.0</ele><time>2026-04-12T07:22:31Z</time></trkpt><trkpt lat="42.023223029896926" lon="12.029153086785776"><ele>47.25</ele><time>2026-04-12T07:22:33Z</time></trkpt><trkpt lat="42.02331996672218" lon="12.029187264334407"><ele>47.5</ele><time>2026-04-12T07:22:34Z</time></trkpt><trkpt lat="42.02342784129951" lon="12.029229139504823"><ele>47.75</ele><time>2026-04-12T07:22:35Z</time></trkpt><trkpt lat="42.02357954051235" lon="12.02928736784692"><ele>48.0</ele><time>2026-04-12T07:22:35.999Z</time></trkpt><trkpt lat="42.0237026003505" lon="12.029326719782095"><ele>48.0</ele><time>2026-04-12T07:22:36.999Z</time></trkpt><trkpt lat="42.02382805810154" lon="12.029383004864018"><ele>48.0</ele><time>2026-04-12T07:22:37.999Z</time></trkpt><trkpt lat="42.023946815419556" lon="12.02942955405895"><ele>48.0</ele><time>2026-04-12T07:22:38.999Z</time></trkpt><trkpt lat="42.02406317294097" lon="12.02946675315194"><ele>48.0</ele><time>2026-04-12T07:22:39.999Z</time></trkpt><trkpt lat="42.02418244871525" lon="12.029498634826073"><ele>48.5</ele><time>2026-04-12T07:22:40.999Z</time></trkpt><trkpt lat="42.02428394618154" lon="12.029533199129768"><ele>49.0</ele><time>2026-04-12T07:22:41.999Z</time></trkpt><trkpt lat="42.024372106979705" lon="12.029560708585073"><ele>49.5</ele><time>2026-04-12T07:22:42.999Z</time></trkpt><trkpt lat="42.024475338165566" lon="12.029607220522749"><ele>50.0</ele><time>2026-04-12T07:22:44.999Z</time></trkpt><trkpt lat="42.02455243554878" lon="12.029416871142036"><ele>50.0</ele><time>2026-04-12T07:22:46.999Z</time></trkpt><trkpt lat="42.02456598506635" lon="12.029303965707683"><ele>50.0</ele><time>2026-04-12T07:22:47.999Z</time></trkpt><trkpt lat="42.024596705604374" lon="12.02917841215842"><ele>50.0</ele><time>2026-04-12T07:22:48.999Z</time></trkpt><trkpt lat="42.0246248860827" lon="12.029012600683526"><ele>50.0</ele><time>2026-04-12T07:22:49.999Z</time></trkpt><trkpt lat="42.02465457078103" lon="12.028839457605015"><ele>50.0</ele><time>2026-04-12T07:22:50.999Z</time></trkpt><trkpt lat="42.024670934950315" lon="12.028672422153468"><ele>50.0</ele><time>2026-04-12T07:22:51.999Z</time></trkpt><trkpt lat="42.024711915926964" lon="12.028504978303102"><ele>50.0</ele><time>2026-04-12T07:22:52.999Z</time></trkpt><trkpt lat="42.02472873336973" lon="12.028339440040606"><ele>50.0</ele><time>2026-04-12T07:22:53.999Z</time></trkpt><trkpt lat="42.02475917944645" lon="12.028185019149216"><ele>50.0</ele><time>2026-04-12T07:22:54.999Z</time></trkpt><trkpt lat="42.02479263016635" lon="12.028034193202872"><ele>50.0</ele><time>2026-04-12T07:22:55.999Z</time></trkpt><trkpt lat="42.02480597521514" lon="12.02786530795144"><ele>50.0</ele><time>2026-04-12T07:22:56.999Z</time></trkpt><trkpt lat="42.02483239860923" lon="12.027710711447153"><ele>50.0</ele><time>2026-04-12T07:22:57.999Z</time></trkpt><trkpt lat="42.02486284004596" lon="12.027551702947015"><ele>50.0</ele><time>2026-04-12T07:22:58.999Z</time></trkpt><trkpt lat="42.024906315675295" lon="12.02739327965516"><ele>50.25</ele><time>2026-04-12T07:22:59.999Z</time></trkpt><trkpt lat="42.024935775640245" lon="12.02723758361119"><ele>50.5</ele><time>2026-04-12T07:23:00.999Z</time></trkpt><trkpt lat="42.02496415714398" lon="12.027087587229797"><ele>50.75</ele><time>2026-04-12T07:23:01.999Z</time></trkpt><trkpt lat="42.02499317956216" lon="12.026935162897619"><ele>51.0</ele><time>2026-04-12T07:23:02.999Z</time></trkpt><trkpt lat="42.025019728951364" lon="12.026796268809841"><ele>51.0</ele><time>2026-04-12T07:23:03.999Z</time></trkpt><trkpt lat="42.02504797407835" lon="12.026648503496135"><ele>51.0</ele><time>2026-04-12T07:23:04.999Z</time></trkpt><trkpt lat="42.02507337126255" lon="12.026515637220513"><ele>51.0</ele><time>2026-04-12T07:23:05.999Z</time></trkpt><trkpt lat="42.02509555135836" lon="12.026399601317184"><ele>51.0</ele><time>2026-04-12T07:23:06.999Z</time></trkpt><trkpt lat="42.02511785018023" lon="12.026298830188452"><ele>51.0</ele><time>2026-04-12T07:23:07.999Z</time></trkpt><trkpt lat="42.02513591862068" lon="12.02621271257626"><ele>51.0</ele><time>2026-04-12T07:23:08.999Z</time></trkpt><trkpt lat="42.02518702849532" lon="12.026134718512813"><ele>49.8</ele><time>2026-04-12T07:23:09.999Z</time></trkpt><trkpt lat="42.02525289820943" lon="12.026072299739756"><ele>48.599999999999994</ele><time>2026-04-12T07:23:10.999Z</time></trkpt><trkpt lat="42.02534267968441" lon="12.026086964749883"><ele>47.4</ele><time>2026-04-12T07:23:11.999Z</time></trkpt><trkpt lat="42.025474032750154" lon="12.026081051951763"><ele>46.2</ele><time>2026-04-12T07:23:12.999Z</time></trkpt><trkpt lat="42.02560299164329" lon="12.026070127883502"><ele>45.0</ele><time>2026-04-12T07:23:13.999Z</time></trkpt><trkpt lat="42.02573463476193" lon="12.026049615318293"><ele>45.5</ele><time>2026-04-12T07:23:14.999Z</time></trkpt><trkpt lat="42.025867562091356" lon="12.026034873579142"><ele>46.0</ele><time>2026-04-12T07:23:15.999Z</time></trkpt><trkpt lat="42.02600382694966" lon="12.026018348035981"><ele>46.5</ele><time>2026-04-12T07:23:16.999Z</time></trkpt><trkpt lat="42.02613883954188" lon="12.026007372711298"><ele>47.0</ele><time>2026-04-12T07:23:17.999Z</time></trkpt><trkpt lat="42.02627399525992" lon="12.025995116474647"><ele>47.0</ele><time>2026-04-12T07:23:18.999Z</time></trkpt><trkpt lat="42.02640732491447" lon="12.025982145153487"><ele>47.0</ele><time>2026-04-12T07:23:19.999Z</time></trkpt><trkpt lat="42.0265441441429" lon="12.02596328923551"><ele>47.0</ele><time>2026-04-12T07:23:20.999Z</time></trkpt><trkpt lat="42.02667695885821" lon="12.025947225214026"><ele>47.0</ele><time>2026-04-12T07:23:21.999Z</time></trkpt><trkpt lat="42.02680826812691" lon="12.025930805770308"><ele>47.0</ele><time>2026-04-12T07:23:22.999Z</time></trkpt><trkpt lat="42.02694294416218" lon="12.025918896198585"><ele>47.0</ele><time>2026-04-12T07:23:23.999Z</time></trkpt><trkpt lat="42.027078008734144" lon="12.02590813001894"><ele>47.0</ele><time>2026-04-12T07:23:24.999Z</time></trkpt><trkpt lat="42.02721623859844" lon="12.025896832421884"><ele>47.0</ele><time>2026-04-12T07:23:25.999Z</time></trkpt><trkpt lat="42.02735009856514" lon="12.025893035351379"><ele>46.5</ele><time>2026-04-12T07:23:26.999Z</time></trkpt><trkpt lat="42.02748599931934" lon="12.025888550621787"><ele>46.0</ele><time>2026-04-12T07:23:27.999Z</time></trkpt><trkpt lat="42.027617503428935" lon="12.025893084049848"><ele>45.5</ele><time>2026-04-12T07:23:28.999Z</time></trkpt><trkpt lat="42.02775303340671" lon="12.025895128908235"><ele>45.0</ele><time>2026-04-12T07:23:29.999Z</time></trkpt><trkpt lat="42.0278841973539" lon="12.025881645153483"><ele>45.0</ele><time>2026-04-12T07:23:30.999Z</time></trkpt><trkpt lat="42.02800894184782" lon="12.02585733706749"><ele>45.0</ele><time>2026-04-12T07:23:31.999Z</time></trkpt><trkpt lat="42.028138522657265" lon="12.025834174888155"><ele>45.0</ele><time>2026-04-12T07:23:32.999Z</time></trkpt><trkpt lat="42.02826542461217" lon="12.025807938673049"><ele>45.0</ele><time>2026-04-12T07:23:33.999Z</time></trkpt><trkpt lat="42.02839617648741" lon="12.025780608687954"><ele>44.0</ele><time>2026-04-12T07:23:34.999Z</time></trkpt><trkpt lat="42.02852280741202" lon="12.025742493877509"><ele>43.0</ele><time>2026-04-12T07:23:35.999Z</time></trkpt><trkpt lat="42.02863994054703" lon="12.025676743302935"><ele>42.0</ele><time>2026-04-12T07:23:36.999Z</time></trkpt><trkpt lat="42.02875013212979" lon="12.025580223098453"><ele>41.0</ele><time>2026-04-12T07:23:37.999Z</time></trkpt><trkpt lat="42.02885037027275" lon="12.02546417610404"><ele>41.0</ele><time>2026-04-12T07:23:38.999Z</time></trkpt><trkpt lat="42.028934707242044" lon="12.025321095650254"><ele>41.0</ele><time>2026-04-12T07:23:39.999Z</time></trkpt><trkpt lat="42.02902260727058" lon="12.025175438664313"><ele>41.0</ele><time>2026-04-12T07:23:41Z</time></trkpt><trkpt lat="42.02909180221761" lon="12.024993276456353"><ele>41.0</ele><time>2026-04-12T07:23:42Z</time></trkpt><trkpt lat="42.02915439971459" lon="12.024786317898085"><ele>43.0</ele><time>2026-04-12T07:23:43Z</time></trkpt><trkpt lat="42.029201550074525" lon="12.024560498556639"><ele>45.0</ele><time>2026-04-12T07:23:44Z</time></trkpt><trkpt lat="42.029234703873364" lon="12.024334599500191"><ele>47.0</ele><time>2026-04-12T07:23:45Z</time></trkpt><trkpt lat="42.029257634608115" lon="12.024107255727357"><ele>48.666666666666664</ele><time>2026-04-12T07:23:46Z</time></trkpt><trkpt lat="42.02926954292592" lon="12.023882311327887"><ele>50.33333333333333</ele><time>2026-04-12T07:23:47Z</time></trkpt><trkpt lat="42.029273692384834" lon="12.023671933558582"><ele>52.0</ele><time>2026-04-12T07:23:48Z</time></trkpt><trkpt lat="42.0292803946824" lon="12.023483134585657"><ele>52.5</ele><time>2026-04-12T07:23:49Z</time></trkpt><trkpt lat="42.02928897247238" lon="12.02330572330865"><ele>53.0</ele><time>2026-04-12T07:23:50Z</time></trkpt><trkpt lat="42.02929785851664" lon="12.02314672466885"><ele>53.5</ele><time>2026-04-12T07:23:51Z</time></trkpt><trkpt lat="42.02931005119659" lon="12.023002132909106"><ele>54.0</ele><time>2026-04-12T07:23:52Z</time></trkpt><trkpt lat="42.02932907491698" lon="12.022864259840391"><ele>54.0</ele><time>2026-04-12T07:23:53Z</time></trkpt><trkpt lat="42.02936059112427" lon="12.022731830113443"><ele>54.00000000000001</ele><time>2026-04-12T07:23:54Z</time></trkpt><trkpt lat="42.02936684335753" lon="12.022579851262392"><ele>54.00000000000001</ele><time>2026-04-12T07:23:55Z</time></trkpt><trkpt lat="42.02938060843531" lon="12.022438441339995"><ele>54.0</ele><time>2026-04-12T07:23:56Z</time></trkpt><trkpt lat="42.02938331060835" lon="12.02228520849883"><ele>54.0</ele><time>2026-04-12T07:23:57Z</time></trkpt><trkpt lat="42.02941695676663" lon="12.02211969446106"><ele>53.0</ele><time>2026-04-12T07:23:58Z</time></trkpt><trkpt lat="42.029439242217435" lon="12.021938822633947"><ele>52.0</ele><time>2026-04-12T07:23:59Z</time></trkpt><trkpt lat="42.02946127913515" lon="12.021760093056331"><ele>51.0</ele><time>2026-04-12T07:24:00Z</time></trkpt><trkpt lat="42.02948412372197" lon="12.021574812779736"><ele>50.0</ele><time>2026-04-12T07:24:01Z</time></trkpt><trkpt lat="42.029491429729546" lon="12.021393213308484"><ele>48.75</ele><time>2026-04-12T07:24:02Z</time></trkpt><trkpt lat="42.029532071861105" lon="12.02120792485581"><ele>47.5</ele><time>2026-04-12T07:24:03Z</time></trkpt><trkpt lat="42.02955615976571" lon="12.02102403953458"><ele>46.25</ele><time>2026-04-12T07:24:04Z</time></trkpt><trkpt lat="42.029578504967816" lon="12.02085077331833"><ele>45.0</ele><time>2026-04-12T07:24:05Z</time></trkpt><trkpt lat="42.02958299628917" lon="12.020694322234636"><ele>44.2</ele><time>2026-04-12T07:24:06Z</time></trkpt><trkpt lat="42.029591046359585" lon="12.020540688450051"><ele>43.4</ele><time>2026-04-12T07:24:07Z</time></trkpt><trkpt lat="42.02961100711563" lon="12.020404322639656"><ele>42.599999999999994</ele><time>2026-04-12T07:24:08Z</time></trkpt><trkpt lat="42.029611425353664" lon="12.020278391426066"><ele>41.8</ele><time>2026-04-12T07:24:09Z</time></trkpt><trkpt lat="42.02966530560812" lon="12.020166863818803"><ele>41.0</ele><time>2026-04-12T07:24:10Z</time></trkpt><trkpt lat="42.02973173585804" lon="12.02007516267085"><ele>40.75</ele><time>2026-04-12T07:24:11Z</time></trkpt><trkpt lat="42.02983026687939" lon="12.019980169300583"><ele>40.5</ele><time>2026-04-12T07:24:12Z</time></trkpt><trkpt lat="42.02993953713336" lon="12.019851754604868"><ele>40.25</ele><time>2026-04-12T07:24:13Z</time></trkpt><trkpt lat="42.030051830113045" lon="12.019721159325176"><ele>40.0</ele><time>2026-04-12T07:24:14Z</time></trkpt><trkpt lat="42.030159906579414" lon="12.019600449131065"><ele>40.75</ele><time>2026-04-12T07:24:15Z</time></trkpt><trkpt lat="42.03026770962656" lon="12.019479917384357"><ele>41.5</ele><time>2026-04-12T07:24:16Z</time></trkpt><trkpt lat="42.030371934664636" lon="12.019360206160043"><ele>42.25</ele><time>2026-04-12T07:24:17Z</time></trkpt><trkpt lat="42.03047168424162" lon="12.019234218265565"><ele>43.0</ele><time>2026-04-12T07:24:18Z</time></trkpt><trkpt lat="42.03058572450615" lon="12.01912642337235"><ele>43.0</ele><time>2026-04-12T07:24:19Z</time></trkpt><trkpt lat="42.030678291240065" lon="12.018987762130553"><ele>43.0</ele><time>2026-04-12T07:24:20Z</time></trkpt><trkpt lat="42.03078244980103" lon="12.018864750803868"><ele>43.0</ele><time>2026-04-12T07:24:21Z</time></trkpt><trkpt lat="42.03088517599394" lon="12.018740920331707"><ele>43.0</ele><time>2026-04-12T07:24:22Z</time></trkpt><trkpt lat="42.03098238754943" lon="12.018615592385366"><ele>43.25</ele><time>2026-04-12T07:24:23Z</time></trkpt><trkpt lat="42.03108007281507" lon="12.01849156037605"><ele>43.5</ele><time>2026-04-12T07:24:24Z</time></trkpt><trkpt lat="42.03119657327394" lon="12.018386453392278"><ele>43.75</ele><time>2026-04-12T07:24:25Z</time></trkpt><trkpt lat="42.03129406856064" lon="12.018280375208715"><ele>44.0</ele><time>2026-04-12T07:24:26Z</time></trkpt><trkpt lat="42.031381558899355" lon="12.01818946844721"><ele>44.0</ele><time>2026-04-12T07:24:27Z</time></trkpt><trkpt lat="42.03146842785677" lon="12.018086752747752"><ele>44.0</ele><time>2026-04-12T07:24:29Z</time></trkpt><trkpt lat="42.03152281436291" lon="12.018043998696882"><ele>44.0</ele><time>2026-04-12T07:24:32Z</time></trkpt><trkpt lat="42.0315846822661" lon="12.01812752951075"><ele>44.0</ele><time>2026-04-12T07:24:33Z</time></trkpt><trkpt lat="42.03165723475193" lon="12.018112887203129"><ele>44.0</ele><time>2026-04-12T07:24:35Z</time></trkpt><trkpt lat="42.031752479368706" lon="12.018011198364043"><ele>44.6</ele><time>2026-04-12T07:24:37Z</time></trkpt><trkpt lat="42.03182055919233" lon="12.017908834164539"><ele>45.2</ele><time>2026-04-12T07:24:38Z</time></trkpt><trkpt lat="42.03189883310507" lon="12.017806012605417"><ele>45.800000000000004</ele><time>2026-04-12T07:24:39Z</time></trkpt><trkpt lat="42.03196897436183" lon="12.0177200494819"><ele>46.400000000000006</ele><time>2026-04-12T07:24:40Z</time></trkpt><trkpt lat="42.032028940362174" lon="12.017649843593915"><ele>47.0</ele><time>2026-04-12T07:24:40.999Z</time></trkpt><trkpt lat="42.032080351064494" lon="12.017577315998736"><ele>47.0</ele><time>2026-04-12T07:24:41.999Z</time></trkpt><trkpt lat="42.03219340411631" lon="12.017491191071906"><ele>47.0</ele><time>2026-04-12T07:24:43.999Z</time></trkpt><trkpt lat="42.03224910269013" lon="12.017449288870852"><ele>47.0</ele><time>2026-04-12T07:24:44.999Z</time></trkpt><trkpt lat="42.03230169541483" lon="12.017390409272581"><ele>47.0</ele><time>2026-04-12T07:24:45.999Z</time></trkpt><trkpt lat="42.03240215753871" lon="12.017306024579229"><ele>47.0</ele><time>2026-04-12T07:24:47.999Z</time></trkpt><trkpt lat="42.032471793193764" lon="12.017283602565177"><ele>48.166666666666664</ele><time>2026-04-12T07:24:48.999Z</time></trkpt><trkpt lat="42.03254629271519" lon="12.017244046312443"><ele>49.33333333333333</ele><time>2026-04-12T07:24:49.999Z</time></trkpt><trkpt lat="42.032625338330845" lon="12.017194276719332"><ele>50.5</ele><time>2026-04-12T07:24:50.999Z</time></trkpt><trkpt lat="42.03268711811828" lon="12.017129434011773"><ele>51.666666666666664</ele><time>2026-04-12T07:24:51.999Z</time></trkpt><trkpt lat="42.03272433598909" lon="12.017051988852042"><ele>52.833333333333336</ele><time>2026-04-12T07:24:52.999Z</time></trkpt><trkpt lat="42.032782019379646" lon="12.016973470303158"><ele>54.0</ele><time>2026-04-12T07:24:53.999Z</time></trkpt><trkpt lat="42.03285919156478" lon="12.016902359519605"><ele>54.0</ele><time>2026-04-12T07:24:54.999Z</time></trkpt><trkpt lat="42.03293634762366" lon="12.016848054583706"><ele>54.0</ele><time>2026-04-12T07:24:55.999Z</time></trkpt><trkpt lat="42.03301633997495" lon="12.01681347304303"><ele>54.0</ele><time>2026-04-12T07:24:56.999Z</time></trkpt><trkpt lat="42.0330972568332" lon="12.016756907766316"><ele>54.0</ele><time>2026-04-12T07:24:57.999Z</time></trkpt><trkpt lat="42.03315031758098" lon="12.016684686651802"><ele>54.0</ele><time>2026-04-12T07:24:58.999Z</time></trkpt><trkpt lat="42.03319507451562" lon="12.016610766880625"><ele>54.0</ele><time>2026-04-12T07:24:59.999Z</time></trkpt><trkpt lat="42.03325049168645" lon="12.016550152607213"><ele>54.0</ele><time>2026-04-12T07:25:00.999Z</time></trkpt><trkpt lat="42.03337157699818" lon="12.016502824805372"><ele>54.0</ele><time>2026-04-12T07:25:02.999Z</time></trkpt><trkpt lat="42.03344268443206" lon="12.01649004672523"><ele>54.0</ele><time>2026-04-12T07:25:04.999Z</time></trkpt><trkpt lat="42.03349808508034" lon="12.016385034000512"><ele>54.0</ele><time>2026-04-12T07:25:06.999Z</time></trkpt><trkpt lat="42.03361281670868" lon="12.016081908117059"><ele>54.0</ele><time>2026-04-12T07:25:09.999Z</time></trkpt><trkpt lat="42.033657496938396" lon="12.016020062846186"><ele>54.00000000000001</ele><time>2026-04-12T07:25:10.999Z</time></trkpt><trkpt lat="42.033725300661814" lon="12.015984099794114"><ele>54.00000000000001</ele><time>2026-04-12T07:25:11.999Z</time></trkpt><trkpt lat="42.03381736584405" lon="12.015905846043008"><ele>54.0</ele><time>2026-04-12T07:25:13.999Z</time></trkpt><trkpt lat="42.033801779412414" lon="12.015770189320529"><ele>54.0</ele><time>2026-04-12T07:25:15.999Z</time></trkpt><trkpt lat="42.03389122457512" lon="12.015668169101463"><ele>54.166666666666664</ele><time>2026-04-12T07:25:17.999Z</time></trkpt><trkpt lat="42.03395052888985" lon="12.015597530971178"><ele>54.33333333333333</ele><time>2026-04-12T07:25:18.999Z</time></trkpt><trkpt lat="42.034025614308995" lon="12.015537438857884"><ele>54.5</ele><time>2026-04-12T07:25:19.999Z</time></trkpt><trkpt lat="42.03411675029539" lon="12.015483432607413"><ele>54.666666666666664</ele><time>2026-04-12T07:25:20.999Z</time></trkpt><trkpt lat="42.034195743002634" lon="12.015472138517797"><ele>54.83333333333333</ele><time>2026-04-12T07:25:21.999Z</time></trkpt><trkpt lat="42.03427109590537" lon="12.015456304617105"><ele>55.0</ele><time>2026-04-12T07:25:22.999Z</time></trkpt><trkpt lat="42.03439441623538" lon="12.015427635186294"><ele>55.0</ele><time>2026-04-12T07:25:24.999Z</time></trkpt><trkpt lat="42.03450719688038" lon="12.015411299614625"><ele>55.0</ele><time>2026-04-12T07:25:25.999Z</time></trkpt><trkpt lat="42.03477285468781" lon="12.01536738027738"><ele>55.0</ele><time>2026-04-12T07:25:28.999Z</time></trkpt><trkpt lat="42.03486963650537" lon="12.015368758229021"><ele>54.99999999999999</ele><time>2026-04-12T07:25:29.999Z</time></trkpt><trkpt lat="42.03495381040591" lon="12.01533531246514"><ele>55.0</ele><time>2026-04-12T07:25:30.999Z</time></trkpt><trkpt lat="42.03502658477015" lon="12.015311998782236"><ele>55.0</ele><time>2026-04-12T07:25:31.999Z</time></trkpt><trkpt lat="42.035130187435485" lon="12.015294244529978"><ele>55.0</ele><time>2026-04-12T07:25:33.999Z</time></trkpt><trkpt lat="42.03520476327261" lon="12.01529161237115"><ele>54.99999999999999</ele><time>2026-04-12T07:25:35.999Z</time></trkpt><trkpt lat="42.03527853365876" lon="12.015279464112403"><ele>55.0</ele><time>2026-04-12T07:25:36.999Z</time></trkpt><trkpt lat="42.03534096913096" lon="12.015299441727192"><ele>55.57142857142857</ele><time>2026-04-12T07:25:37.999Z</time></trkpt><trkpt lat="42.03540801860893" lon="12.015310326166246"><ele>56.14285714285714</ele><time>2026-04-12T07:25:38.999Z</time></trkpt><trkpt lat="42.035469526087624" lon="12.015330795331183"><ele>56.71428571428571</ele><time>2026-04-12T07:25:39.999Z</time></trkpt><trkpt lat="42.035533823909226" lon="12.015337837555501"><ele>57.285714285714285</ele><time>2026-04-12T07:25:40.999Z</time></trkpt><trkpt lat="42.03559977007194" lon="12.015333995435311"><ele>57.85714285714286</ele><time>2026-04-12T07:25:41.999Z</time></trkpt><trkpt lat="42.03567539947708" lon="12.015321508434662"><ele>58.42857142857142</ele><time>2026-04-12T07:25:42.999Z</time></trkpt><trkpt lat="42.03573231611567" lon="12.015257376326474"><ele>59.0</ele><time>2026-04-12T07:25:44.999Z</time></trkpt><trkpt lat="42.03572445846815" lon="12.015123248138792"><ele>59.00000000000001</ele><time>2026-04-12T07:25:47Z</time></trkpt><trkpt lat="42.03570148011362" lon="12.01503573334683"><ele>59.0</ele><time>2026-04-12T07:25:48Z</time></trkpt><trkpt lat="42.035677088577835" lon="12.014943500509732"><ele>59.0</ele><time>2026-04-12T07:25:49Z</time></trkpt><trkpt lat="42.035650172424816" lon="12.014837152293467"><ele>59.0</ele><time>2026-04-12T07:25:50Z</time></trkpt><trkpt lat="42.03562067277705" lon="12.014712712808182"><ele>59.00000000000001</ele><time>2026-04-12T07:25:51Z</time></trkpt><trkpt lat="42.035595498418225" lon="12.014604879263942"><ele>59.0</ele><time>2026-04-12T07:25:52Z</time></trkpt><trkpt lat="42.03556725046762" lon="12.01449756789366"><ele>59.00000000000001</ele><time>2026-04-12T07:25:53Z</time></trkpt><trkpt lat="42.03554464013477" lon="12.014388500365083"><ele>59.0</ele><time>2026-04-12T07:25:54Z</time></trkpt><trkpt lat="42.035528826646754" lon="12.014283541062795"><ele>59.0</ele><time>2026-04-12T07:25:55Z</time></trkpt><trkpt lat="42.035505125005606" lon="12.014183315733082"><ele>59.0</ele><time>2026-04-12T07:25:56Z</time></trkpt><trkpt lat="42.0354863629349" lon="12.014089792898336"><ele>59.00000000000001</ele><time>2026-04-12T07:25:57Z</time></trkpt><trkpt lat="42.03547197645813" lon="12.01399704633479"><ele>59.0</ele><time>2026-04-12T07:25:58Z</time></trkpt><trkpt lat="42.035461465112185" lon="12.013903752633832"><ele>59.0</ele><time>2026-04-12T07:25:59Z</time></trkpt><trkpt lat="42.035447769640875" lon="12.013795995973467"><ele>59.00000000000001</ele><time>2026-04-12T07:26:01Z</time></trkpt><trkpt lat="42.035431350805176" lon="12.013617934316565"><ele>59.00000000000001</ele><time>2026-04-12T07:26:07Z</time></trkpt><trkpt lat="42.03535176718471" lon="12.013588254856653"><ele>59.0</ele><time>2026-04-12T07:26:10Z</time></trkpt><trkpt lat="42.035269949935376" lon="12.013566899804982"><ele>59.0</ele><time>2026-04-12T07:26:12Z</time></trkpt><trkpt lat="42.035187534533165" lon="12.013582477682643"><ele>59.00000000000001</ele><time>2026-04-12T07:26:14Z</time></trkpt><trkpt lat="42.035096187859374" lon="12.013592527248576"><ele>59.0</ele><time>2026-04-12T07:26:16Z</time></trkpt><trkpt lat="42.03499368895462" lon="12.01358695214418"><ele>59.0</ele><time>2026-04-12T07:26:18Z</time></trkpt><trkpt lat="42.03494222669268" lon="12.013519352234256"><ele>59.0</ele><time>2026-04-12T07:26:21Z</time></trkpt><trkpt lat="42.03487071360033" lon="12.013499544929815"><ele>59.00000000000001</ele><time>2026-04-12T07:26:23Z</time></trkpt><trkpt lat="42.03479354861293" lon="12.01345132064845"><ele>59.0</ele><time>2026-04-12T07:26:26Z</time></trkpt><trkpt lat="42.03474778000641" lon="12.013377758232993"><ele>61.6</ele><time>2026-04-12T07:26:29Z</time></trkpt><trkpt lat="42.03466562801632" lon="12.013300712034216"><ele>64.2</ele><time>2026-04-12T07:26:31Z</time></trkpt><trkpt lat="42.03457816250279" lon="12.013194993538507"><ele>66.80000000000001</ele><time>2026-04-12T07:26:34Z</time></trkpt><trkpt lat="42.03451040035881" lon="12.013098869616648"><ele>69.4</ele><time>2026-04-12T07:26:36Z</time></trkpt><trkpt lat="42.03445049466243" lon="12.013031818186109"><ele>72.0</ele><time>2026-04-12T07:26:38Z</time></trkpt><trkpt lat="42.03437643327679" lon="12.012929852780783"><ele>72.0</ele><time>2026-04-12T07:26:40Z</time></trkpt><trkpt lat="42.03430682942277" lon="12.012826485746462"><ele>72.0</ele><time>2026-04-12T07:26:42Z</time></trkpt><trkpt lat="42.03423743244768" lon="12.012707954948436"><ele>72.0</ele><time>2026-04-12T07:26:44Z</time></trkpt><trkpt lat="42.034174657954445" lon="12.012590282323327"><ele>72.0</ele><time>2026-04-12T07:26:46Z</time></trkpt><trkpt lat="42.03413260151488" lon="12.0124933727216"><ele>72.0</ele><time>2026-04-12T07:26:47.999Z</time></trkpt><trkpt lat="42.03411556116199" lon="12.01240530390357"><ele>73.8</ele><time>2026-04-12T07:26:48.999Z</time></trkpt><trkpt lat="42.03408897081194" lon="12.012246978713916"><ele>75.6</ele><time>2026-04-12T07:26:50.999Z</time></trkpt><trkpt lat="42.03407747690159" lon="12.01215430196386"><ele>77.39999999999999</ele><time>2026-04-12T07:26:51.999Z</time></trkpt><trkpt lat="42.03406841617967" lon="12.012068916323965"><ele>79.2</ele><time>2026-04-12T07:26:52.999Z</time></trkpt><trkpt lat="42.03406049111138" lon="12.011947901409606"><ele>81.0</ele><time>2026-04-12T07:26:54.999Z</time></trkpt><trkpt lat="42.03400737360432" lon="12.011808416438535"><ele>80.83333333333333</ele><time>2026-04-12T07:26:56.999Z</time></trkpt><trkpt lat="42.03393613095732" lon="12.011656858613872"><ele>80.66666666666667</ele><time>2026-04-12T07:26:58.999Z</time></trkpt><trkpt lat="42.033899532078244" lon="12.011574268601134"><ele>80.5</ele><time>2026-04-12T07:26:59.999Z</time></trkpt><trkpt lat="42.03387835436806" lon="12.011488638783266"><ele>80.33333333333334</ele><time>2026-04-12T07:27:00.999Z</time></trkpt><trkpt lat="42.033845851538324" lon="12.011409155947922"><ele>80.16666666666667</ele><time>2026-04-12T07:27:01.999Z</time></trkpt><trkpt lat="42.033812593526406" lon="12.01132534186636"><ele>80.0</ele><time>2026-04-12T07:27:02.999Z</time></trkpt><trkpt lat="42.033768051271466" lon="12.011244573858704"><ele>80.0</ele><time>2026-04-12T07:27:03.999Z</time></trkpt><trkpt lat="42.03372285706694" lon="12.011168235514111"><ele>80.0</ele><time>2026-04-12T07:27:04.999Z</time></trkpt><trkpt lat="42.03367607037978" lon="12.01108465131946"><ele>80.0</ele><time>2026-04-12T07:27:05.999Z</time></trkpt><trkpt lat="42.033630222443186" lon="12.011000032839657"><ele>80.0</ele><time>2026-04-12T07:27:06.999Z</time></trkpt><trkpt lat="42.0335791648435" lon="12.010904862896746"><ele>80.0</ele><time>2026-04-12T07:27:07.999Z</time></trkpt><trkpt lat="42.03353030975921" lon="12.010813798435784"><ele>80.0</ele><time>2026-04-12T07:27:08.999Z</time></trkpt><trkpt lat="42.03348344929114" lon="12.010726451924139"><ele>80.0</ele><time>2026-04-12T07:27:09.999Z</time></trkpt><trkpt lat="42.033435060606294" lon="12.01063625688366"><ele>80.0</ele><time>2026-04-12T07:27:10.999Z</time></trkpt><trkpt lat="42.03338443556206" lon="12.010542116911298"><ele>80.0</ele><time>2026-04-12T07:27:11.999Z</time></trkpt><trkpt lat="42.033329432434755" lon="12.010440982017895"><ele>80.0</ele><time>2026-04-12T07:27:12.999Z</time></trkpt><trkpt lat="42.03327989899014" lon="12.01035003662863"><ele>80.0</ele><time>2026-04-12T07:27:13.999Z</time></trkpt><trkpt lat="42.033224256048506" lon="12.010252183616645"><ele>80.0</ele><time>2026-04-12T07:27:14.999Z</time></trkpt><trkpt lat="42.033152915433334" lon="12.010161651210925"><ele>79.6</ele><time>2026-04-12T07:27:15.999Z</time></trkpt><trkpt lat="42.03310512332786" lon="12.010044774036901"><ele>79.2</ele><time>2026-04-12T07:27:16.999Z</time></trkpt><trkpt lat="42.03304581414251" lon="12.009942366066197"><ele>78.8</ele><time>2026-04-12T07:27:17.999Z</time></trkpt><trkpt lat="42.03298706994407" lon="12.009840933836982"><ele>78.4</ele><time>2026-04-12T07:27:18.999Z</time></trkpt><trkpt lat="42.032928562220384" lon="12.009738084940954"><ele>78.0</ele><time>2026-04-12T07:27:19.999Z</time></trkpt><trkpt lat="42.03287319744338" lon="12.009639304092394"><ele>77.5</ele><time>2026-04-12T07:27:20.999Z</time></trkpt><trkpt lat="42.032820270373165" lon="12.009542040008625"><ele>77.0</ele><time>2026-04-12T07:27:21.999Z</time></trkpt><trkpt lat="42.03277343548687" lon="12.009451271369942"><ele>76.5</ele><time>2026-04-12T07:27:22.999Z</time></trkpt><trkpt lat="42.03273607769882" lon="12.009375564686838"><ele>76.0</ele><time>2026-04-12T07:27:23.999Z</time></trkpt><trkpt lat="42.03269583034804" lon="12.009292539338439"><ele>75.5</ele><time>2026-04-12T07:27:24.999Z</time></trkpt><trkpt lat="42.032654243461806" lon="12.009201930801495"><ele>75.0</ele><time>2026-04-12T07:27:25.999Z</time></trkpt><trkpt lat="42.032607227607784" lon="12.009099493888996"><ele>74.83333333333333</ele><time>2026-04-12T07:27:26.999Z</time></trkpt><trkpt lat="42.032567696706316" lon="12.009015267240366"><ele>74.66666666666667</ele><time>2026-04-12T07:27:27.999Z</time></trkpt><trkpt lat="42.03252262730815" lon="12.008922685598575"><ele>74.5</ele><time>2026-04-12T07:27:28.999Z</time></trkpt><trkpt lat="42.03247003671849" lon="12.008853672173872"><ele>74.33333333333334</ele><time>2026-04-12T07:27:29.999Z</time></trkpt><trkpt lat="42.03243117208231" lon="12.008741122208114"><ele>74.16666666666667</ele><time>2026-04-12T07:27:30.999Z</time></trkpt><trkpt lat="42.03237842927378" lon="12.008638802865436"><ele>74.0</ele><time>2026-04-12T07:27:31.999Z</time></trkpt><trkpt lat="42.03232452469313" lon="12.008535609480807"><ele>73.60000000000001</ele><time>2026-04-12T07:27:32.999Z</time></trkpt><trkpt lat="42.032271427520946" lon="12.008433961902425"><ele>73.2</ele><time>2026-04-12T07:27:33.999Z</time></trkpt><trkpt lat="42.03221665727031" lon="12.008329111393492"><ele>72.80000000000001</ele><time>2026-04-12T07:27:34.999Z</time></trkpt><trkpt lat="42.03216499292661" lon="12.008229173270841"><ele>72.4</ele><time>2026-04-12T07:27:35.999Z</time></trkpt><trkpt lat="42.032112121134496" lon="12.008126590330908"><ele>72.0</ele><time>2026-04-12T07:27:36.999Z</time></trkpt><trkpt lat="42.03206270336846" lon="12.00803065267897"><ele>71.33333333333333</ele><time>2026-04-12T07:27:37.999Z</time></trkpt><trkpt lat="42.03200887867228" lon="12.007925776240759"><ele>70.66666666666667</ele><time>2026-04-12T07:27:38.999Z</time></trkpt><trkpt lat="42.031961855568625" lon="12.00783415264882"><ele>70.0</ele><time>2026-04-12T07:27:39.999Z</time></trkpt><trkpt lat="42.03191711139763" lon="12.007746969573057"><ele>69.33333333333334</ele><time>2026-04-12T07:27:40.999Z</time></trkpt><trkpt lat="42.031870291625594" lon="12.007653547421818"><ele>68.66666666666667</ele><time>2026-04-12T07:27:41.999Z</time></trkpt><trkpt lat="42.031815707181686" lon="12.007584351298856"><ele>68.0</ele><time>2026-04-12T07:27:42.999Z</time></trkpt><trkpt lat="42.031783144957785" lon="12.007478989249702"><ele>67.66666666666667</ele><time>2026-04-12T07:27:43.999Z</time></trkpt><trkpt lat="42.031734300260005" lon="12.007380319282593"><ele>67.33333333333334</ele><time>2026-04-12T07:27:44.999Z</time></trkpt><trkpt lat="42.031683313913945" lon="12.0072736010013"><ele>67.0</ele><time>2026-04-12T07:27:45.999Z</time></trkpt><trkpt lat="42.03163664825859" lon="12.007175840689888"><ele>66.66666666666667</ele><time>2026-04-12T07:27:46.999Z</time></trkpt><trkpt lat="42.03159220334847" lon="12.007082732679454"><ele>66.33333333333333</ele><time>2026-04-12T07:27:47.999Z</time></trkpt><trkpt lat="42.03154230061409" lon="12.006978191068708"><ele>66.0</ele><time>2026-04-12T07:27:48.999Z</time></trkpt><trkpt lat="42.03148369651142" lon="12.006895301151783"><ele>65.5</ele><time>2026-04-12T07:27:49.999Z</time></trkpt><trkpt lat="42.031438121329735" lon="12.00680374100291"><ele>65.0</ele><time>2026-04-12T07:27:50.999Z</time></trkpt><trkpt lat="42.03141037306611" lon="12.006717295361327"><ele>64.5</ele><time>2026-04-12T07:27:51.999Z</time></trkpt><trkpt lat="42.03136565746587" lon="12.006630926055925"><ele>64.0</ele><time>2026-04-12T07:27:53Z</time></trkpt><trkpt lat="42.03130787090051" lon="12.00655924805"><ele>63.5</ele><time>2026-04-12T07:27:54Z</time></trkpt><trkpt lat="42.03125850447322" lon="12.006465307252617"><ele>63.0</ele><time>2026-04-12T07:27:55Z</time></trkpt><trkpt lat="42.0312115332098" lon="12.006377837392538"><ele>63.0</ele><time>2026-04-12T07:27:56Z</time></trkpt><trkpt lat="42.03117273807541" lon="12.006274834862172"><ele>63.0</ele><time>2026-04-12T07:27:57Z</time></trkpt><trkpt lat="42.03112991604805" lon="12.006198654249216"><ele>63.0</ele><time>2026-04-12T07:27:58Z</time></trkpt><trkpt lat="42.0310702564532" lon="12.006123370011668"><ele>63.0</ele><time>2026-04-12T07:27:59Z</time></trkpt><trkpt lat="42.03103298706015" lon="12.006020077027332"><ele>63.0</ele><time>2026-04-12T07:28:00Z</time></trkpt><trkpt lat="42.03099235323143" lon="12.005942156100849"><ele>63.0</ele><time>2026-04-12T07:28:01Z</time></trkpt><trkpt lat="42.03092368330265" lon="12.005806942468304"><ele>63.333333333333336</ele><time>2026-04-12T07:28:03Z</time></trkpt><trkpt lat="42.03088379724206" lon="12.005728405354777"><ele>63.66666666666667</ele><time>2026-04-12T07:28:04Z</time></trkpt><trkpt lat="42.03083117537663" lon="12.005662699965221"><ele>64.0</ele><time>2026-04-12T07:28:05Z</time></trkpt><trkpt lat="42.030803910620875" lon="12.005566833048483"><ele>64.33333333333334</ele><time>2026-04-12T07:28:06Z</time></trkpt><trkpt lat="42.03073722900877" lon="12.005427482650266"><ele>64.66666666666667</ele><time>2026-04-12T07:28:08Z</time></trkpt><trkpt lat="42.030671256011004" lon="12.005322844112733"><ele>65.0</ele><time>2026-04-12T07:28:10Z</time></trkpt><trkpt lat="42.03063186766894" lon="12.005254150432224"><ele>63.66666666666667</ele><time>2026-04-12T07:28:11Z</time></trkpt><trkpt lat="42.03058816249547" lon="12.005179330900157"><ele>62.333333333333336</ele><time>2026-04-12T07:28:12Z</time></trkpt><trkpt lat="42.030541864470635" lon="12.005091387899288"><ele>61.0</ele><time>2026-04-12T07:28:13Z</time></trkpt><trkpt lat="42.03049093946705" lon="12.005019951459534"><ele>59.66666666666667</ele><time>2026-04-12T07:28:14Z</time></trkpt><trkpt lat="42.03045503254699" lon="12.004932964170889"><ele>58.333333333333336</ele><time>2026-04-12T07:28:15Z</time></trkpt><trkpt lat="42.03036281221815" lon="12.004817670299497"><ele>57.0</ele><time>2026-04-12T07:28:17Z</time></trkpt><trkpt lat="42.03030241772946" lon="12.00469104983591"><ele>57.0</ele><time>2026-04-12T07:28:19Z</time></trkpt><trkpt lat="42.03026099699579" lon="12.004622126634763"><ele>57.0</ele><time>2026-04-12T07:28:20Z</time></trkpt><trkpt lat="42.030210008197194" lon="12.004535558829021"><ele>57.0</ele><time>2026-04-12T07:28:21Z</time></trkpt><trkpt lat="42.03015185282721" lon="12.004436823715803"><ele>57.0</ele><time>2026-04-12T07:28:22Z</time></trkpt><trkpt lat="42.03010172825246" lon="12.004351461803692"><ele>57.0</ele><time>2026-04-12T07:28:23Z</time></trkpt><trkpt lat="42.030060212541294" lon="12.004279833143508"><ele>57.0</ele><time>2026-04-12T07:28:24Z</time></trkpt><trkpt lat="42.029974949565975" lon="12.00413720478987"><ele>56.0</ele><time>2026-04-12T07:28:26Z</time></trkpt><trkpt lat="42.029914457735046" lon="12.004052411634602"><ele>55.0</ele><time>2026-04-12T07:28:27Z</time></trkpt><trkpt lat="42.029877137125474" lon="12.003963936614085"><ele>54.0</ele><time>2026-04-12T07:28:28Z</time></trkpt><trkpt lat="42.02982915953597" lon="12.00388080404566"><ele>53.0</ele><time>2026-04-12T07:28:29Z</time></trkpt><trkpt lat="42.02978733733046" lon="12.003808337142052"><ele>52.0</ele><time>2026-04-12T07:28:30Z</time></trkpt><trkpt lat="42.02974353493029" lon="12.003732439137371"><ele>51.0</ele><time>2026-04-12T07:28:31Z</time></trkpt><trkpt lat="42.029700659775095" lon="12.003658147736704"><ele>51.0</ele><time>2026-04-12T07:28:32Z</time></trkpt><trkpt lat="42.029641944741236" lon="12.003585240074397"><ele>51.0</ele><time>2026-04-12T07:28:33Z</time></trkpt><trkpt lat="42.02960736906337" lon="12.003491439958022"><ele>51.0</ele><time>2026-04-12T07:28:34Z</time></trkpt><trkpt lat="42.02952831834521" lon="12.003348017483965"><ele>51.0</ele><time>2026-04-12T07:28:36Z</time></trkpt><trkpt lat="42.02948531432944" lon="12.003269077926342"><ele>51.0</ele><time>2026-04-12T07:28:37Z</time></trkpt><trkpt lat="42.02943359150053" lon="12.003200937455448"><ele>51.0</ele><time>2026-04-12T07:28:38Z</time></trkpt><trkpt lat="42.02939545837206" lon="12.003121739459894"><ele>51.0</ele><time>2026-04-12T07:28:39Z</time></trkpt><trkpt lat="42.029353488945254" lon="12.0030531742794"><ele>51.0</ele><time>2026-04-12T07:28:40Z</time></trkpt><trkpt lat="42.0293149678168" lon="12.002944822825633"><ele>51.0</ele><time>2026-04-12T07:28:41Z</time></trkpt><trkpt lat="42.029271956291204" lon="12.002863468861225"><ele>51.0</ele><time>2026-04-12T07:28:42Z</time></trkpt><trkpt lat="42.02922763597497" lon="12.002783670851308"><ele>51.0</ele><time>2026-04-12T07:28:43Z</time></trkpt><trkpt lat="42.0291702525114" lon="12.002711599663817"><ele>51.0</ele><time>2026-04-12T07:28:44Z</time></trkpt><trkpt lat="42.02911727310642" lon="12.002628264907909"><ele>51.0</ele><time>2026-04-12T07:28:45Z</time></trkpt><trkpt lat="42.029063685091124" lon="12.002540264054709"><ele>51.0</ele><time>2026-04-12T07:28:46Z</time></trkpt><trkpt lat="42.029022266949845" lon="12.002442423523828"><ele>51.0</ele><time>2026-04-12T07:28:47Z</time></trkpt><trkpt lat="42.02897729928574" lon="12.002367489050577"><ele>51.0</ele><time>2026-04-12T07:28:48Z</time></trkpt><trkpt lat="42.02893119337413" lon="12.002290657881083"><ele>51.0</ele><time>2026-04-12T07:28:49Z</time></trkpt><trkpt lat="42.02887474081839" lon="12.002196585016652"><ele>51.0</ele><time>2026-04-12T07:28:50Z</time></trkpt><trkpt lat="42.028830556167904" lon="12.002122955382937"><ele>51.57142857142857</ele><time>2026-04-12T07:28:51Z</time></trkpt><trkpt lat="42.02878234074162" lon="12.002057308728475"><ele>52.142857142857146</ele><time>2026-04-12T07:28:52Z</time></trkpt><trkpt lat="42.02873765412865" lon="12.001974259337379"><ele>52.71428571428571</ele><time>2026-04-12T07:28:52.999Z</time></trkpt><trkpt lat="42.02868816114675" lon="12.00189705865895"><ele>53.285714285714285</ele><time>2026-04-12T07:28:53.999Z</time></trkpt><trkpt lat="42.02863865200831" lon="12.00180886377132"><ele>53.857142857142854</ele><time>2026-04-12T07:28:54.999Z</time></trkpt><trkpt lat="42.02859333139133" lon="12.001728374199436"><ele>54.42857142857142</ele><time>2026-04-12T07:28:55.999Z</time></trkpt><trkpt lat="42.02855609272146" lon="12.001659760196654"><ele>55.0</ele><time>2026-04-12T07:28:56.999Z</time></trkpt><trkpt lat="42.028505573701025" lon="12.00152310048429"><ele>55.0</ele><time>2026-04-12T07:28:58.999Z</time></trkpt><trkpt lat="42.028473588612556" lon="12.001449162126308"><ele>55.0</ele><time>2026-04-12T07:28:59.999Z</time></trkpt><trkpt lat="42.02841606215941" lon="12.001312167690546"><ele>55.0</ele><time>2026-04-12T07:29:01.999Z</time></trkpt><trkpt lat="42.028361693740166" lon="12.001175690343096"><ele>55.0</ele><time>2026-04-12T07:29:03.999Z</time></trkpt><trkpt lat="42.02835831568186" lon="12.001025725496902"><ele>55.0</ele><time>2026-04-12T07:29:05.999Z</time></trkpt><trkpt lat="42.0284533402203" lon="12.000919579831288"><ele>54.99999999999999</ele><time>2026-04-12T07:29:07.999Z</time></trkpt><trkpt lat="42.02850961408035" lon="12.000881073472174"><ele>55.0</ele><time>2026-04-12T07:29:08.999Z</time></trkpt><trkpt lat="42.028569990175185" lon="12.000842479951462"><ele>55.0</ele><time>2026-04-12T07:29:09.999Z</time></trkpt><trkpt lat="42.02866085819746" lon="12.000782696039781"><ele>55.0</ele><time>2026-04-12T07:29:11.999Z</time></trkpt><trkpt lat="42.02876670908821" lon="12.000712652456683"><ele>54.99999999999999</ele><time>2026-04-12T07:37:22.999Z</time></trkpt><trkpt lat="42.028833393153484" lon="12.000683281446637"><ele>55.0</ele><time>2026-04-12T07:37:23.999Z</time></trkpt><trkpt lat="42.028924604359695" lon="12.000626244075965"><ele>54.0</ele><time>2026-04-12T07:37:24.999Z</time></trkpt><trkpt lat="42.02901729773209" lon="12.000575504929671"><ele>53.0</ele><time>2026-04-12T07:37:25.999Z</time></trkpt><trkpt lat="42.02914459539702" lon="12.000532047549436"><ele>52.0</ele><time>2026-04-12T07:37:26.999Z</time></trkpt><trkpt lat="42.029259721789" lon="12.000477631700141"><ele>51.0</ele><time>2026-04-12T07:37:27.999Z</time></trkpt><trkpt lat="42.029384564739445" lon="12.000433670659438"><ele>51.0</ele><time>2026-04-12T07:37:28.999Z</time></trkpt><trkpt lat="42.029510659953665" lon="12.000404373778906"><ele>51.0</ele><time>2026-04-12T07:37:29.999Z</time></trkpt><trkpt lat="42.029645219163875" lon="12.000382806485057"><ele>51.0</ele><time>2026-04-12T07:37:30.999Z</time></trkpt><trkpt lat="42.02977093761251" lon="12.000370012125725"><ele>51.0</ele><time>2026-04-12T07:37:31.999Z</time></trkpt><trkpt lat="42.02988103031225" lon="12.000335351392257"><ele>52.199999999999996</ele><time>2026-04-12T07:37:32.999Z</time></trkpt><trkpt lat="42.029993025637765" lon="12.000308934299175"><ele>53.4</ele><time>2026-04-12T07:37:33.999Z</time></trkpt><trkpt lat="42.03010427421916" lon="12.00032366628752"><ele>54.6</ele><time>2026-04-12T07:37:34.999Z</time></trkpt><trkpt lat="42.030211652731325" lon="12.0003165391519"><ele>55.8</ele><time>2026-04-12T07:37:35.999Z</time></trkpt><trkpt lat="42.03032630569935" lon="12.000313452145006"><ele>57.0</ele><time>2026-04-12T07:37:36.999Z</time></trkpt><trkpt lat="42.03045703182179" lon="12.000310887813123"><ele>57.0</ele><time>2026-04-12T07:37:37.999Z</time></trkpt><trkpt lat="42.0305846863024" lon="12.00030853432743"><ele>57.0</ele><time>2026-04-12T07:37:38.999Z</time></trkpt><trkpt lat="42.03071899390511" lon="12.000307639640289"><ele>57.0</ele><time>2026-04-12T07:37:39.999Z</time></trkpt><trkpt lat="42.03083853405468" lon="12.000312724249914"><ele>57.0</ele><time>2026-04-12T07:37:40.999Z</time></trkpt><trkpt lat="42.03097345621533" lon="12.000320579339116"><ele>58.75</ele><time>2026-04-12T07:37:41.999Z</time></trkpt><trkpt lat="42.03110745515486" lon="12.000331611842867"><ele>60.5</ele><time>2026-04-12T07:37:42.999Z</time></trkpt><trkpt lat="42.031244639284765" lon="12.000324367759774"><ele>62.25</ele><time>2026-04-12T07:37:43.999Z</time></trkpt><trkpt lat="42.03138852184422" lon="12.00034305899865"><ele>64.0</ele><time>2026-04-12T07:37:44.999Z</time></trkpt><trkpt lat="42.031535099230354" lon="12.000361142692281"><ele>65.0</ele><time>2026-04-12T07:37:45.999Z</time></trkpt><trkpt lat="42.031667300525896" lon="12.000379968485905"><ele>66.0</ele><time>2026-04-12T07:37:46.999Z</time></trkpt><trkpt lat="42.03181034446922" lon="12.000391743014404"><ele>67.0</ele><time>2026-04-12T07:37:47.999Z</time></trkpt><trkpt lat="42.031944996217256" lon="12.000405004387526"><ele>68.0</ele><time>2026-04-12T07:37:48.999Z</time></trkpt><trkpt lat="42.03209234217922" lon="12.000417178037788"><ele>68.0</ele><time>2026-04-12T07:37:49.999Z</time></trkpt><trkpt lat="42.032244446442604" lon="12.00043116228991"><ele>68.0</ele><time>2026-04-12T07:37:50.999Z</time></trkpt><trkpt lat="42.03238110774401" lon="12.000438891792768"><ele>68.0</ele><time>2026-04-12T07:37:51.999Z</time></trkpt><trkpt lat="42.03252064201456" lon="12.000478846459268"><ele>68.0</ele><time>2026-04-12T07:37:52.999Z</time></trkpt><trkpt lat="42.032656956770694" lon="12.000496365485734"><ele>69.75</ele><time>2026-04-12T07:37:53.999Z</time></trkpt><trkpt lat="42.03279164807134" lon="12.00050925883723"><ele>71.5</ele><time>2026-04-12T07:37:54.999Z</time></trkpt><trkpt lat="42.0329289955539" lon="12.000521084746126"><ele>73.25</ele><time>2026-04-12T07:37:55.999Z</time></trkpt><trkpt lat="42.03307813571494" lon="12.00053341064227"><ele>75.0</ele><time>2026-04-12T07:37:56.999Z</time></trkpt><trkpt lat="42.0332170392114" lon="12.000544687874088"><ele>75.75</ele><time>2026-04-12T07:37:57.999Z</time></trkpt><trkpt lat="42.03335701069415" lon="12.000540308820089"><ele>76.5</ele><time>2026-04-12T07:37:58.999Z</time></trkpt><trkpt lat="42.03350114360165" lon="12.000552854245708"><ele>77.25</ele><time>2026-04-12T07:37:59.999Z</time></trkpt><trkpt lat="42.03364613134635" lon="12.000584116673249"><ele>78.0</ele><time>2026-04-12T07:38:00.999Z</time></trkpt><trkpt lat="42.03378662812953" lon="12.000597706556876"><ele>78.0</ele><time>2026-04-12T07:38:01.999Z</time></trkpt><trkpt lat="42.03392645202248" lon="12.000611199283927"><ele>78.0</ele><time>2026-04-12T07:38:02.999Z</time></trkpt><trkpt lat="42.03406289499381" lon="12.00062436578137"><ele>78.0</ele><time>2026-04-12T07:38:03.999Z</time></trkpt><trkpt lat="42.03419504881331" lon="12.000637118351374"><ele>78.0</ele><time>2026-04-12T07:38:04.999Z</time></trkpt><trkpt lat="42.03431055188686" lon="12.000650413925225"><ele>79.25</ele><time>2026-04-12T07:38:05.999Z</time></trkpt><trkpt lat="42.03442651202627" lon="12.000663134915689"><ele>80.5</ele><time>2026-04-12T07:38:06.999Z</time></trkpt><trkpt lat="42.034558941334716" lon="12.000689922034848"><ele>81.75</ele><time>2026-04-12T07:38:07.999Z</time></trkpt><trkpt lat="42.034696129404274" lon="12.00072110204841"><ele>83.0</ele><time>2026-04-12T07:38:08.999Z</time></trkpt><trkpt lat="42.03483477644919" lon="12.000757665849143"><ele>84.0</ele><time>2026-04-12T07:38:09.999Z</time></trkpt><trkpt lat="42.03498172996819" lon="12.000785519647176"><ele>85.0</ele><time>2026-04-12T07:38:10.999Z</time></trkpt><trkpt lat="42.03511486866059" lon="12.000818097200499"><ele>86.0</ele><time>2026-04-12T07:38:11.999Z</time></trkpt><trkpt lat="42.035248786826756" lon="12.000866221074169"><ele>87.0</ele><time>2026-04-12T07:38:12.999Z</time></trkpt><trkpt lat="42.0353798511109" lon="12.000892163928603"><ele>89.25</ele><time>2026-04-12T07:38:13.999Z</time></trkpt><trkpt lat="42.035515283321395" lon="12.00092752202107"><ele>91.5</ele><time>2026-04-12T07:38:14.999Z</time></trkpt><trkpt lat="42.03563768630774" lon="12.000961206535905"><ele>93.75</ele><time>2026-04-12T07:38:15.999Z</time></trkpt><trkpt lat="42.03576904120102" lon="12.000999307373748"><ele>96.0</ele><time>2026-04-12T07:38:16.999Z</time></trkpt><trkpt lat="42.0358984922045" lon="12.001033996884061"><ele>97.25</ele><time>2026-04-12T07:38:17.999Z</time></trkpt><trkpt lat="42.036029338794116" lon="12.001076034019215"><ele>98.5</ele><time>2026-04-12T07:38:18.999Z</time></trkpt><trkpt lat="42.03616603815609" lon="12.001119624679621"><ele>99.75</ele><time>2026-04-12T07:38:19.999Z</time></trkpt><trkpt lat="42.03630786604574" lon="12.001153158397667"><ele>101.0</ele><time>2026-04-12T07:38:20.999Z</time></trkpt><trkpt lat="42.03642740850192" lon="12.001171743890655"><ele>101.0</ele><time>2026-04-12T07:38:21.999Z</time></trkpt><trkpt lat="42.036555622279394" lon="12.001190120899984"><ele>101.0</ele><time>2026-04-12T07:38:23Z</time></trkpt><trkpt lat="42.0366907331557" lon="12.001185642224442"><ele>101.0</ele><time>2026-04-12T07:38:24Z</time></trkpt><trkpt lat="42.03682289634671" lon="12.001183230435629"><ele>101.0</ele><time>2026-04-12T07:38:25Z</time></trkpt><trkpt lat="42.03696093484062" lon="12.001169010891989"><ele>102.0</ele><time>2026-04-12T07:38:26Z</time></trkpt><trkpt lat="42.037103048538164" lon="12.001145081607385"><ele>103.0</ele><time>2026-04-12T07:38:27Z</time></trkpt><trkpt lat="42.03723188401369" lon="12.001105071210986"><ele>104.0</ele><time>2026-04-12T07:38:28Z</time></trkpt><trkpt lat="42.037362139365456" lon="12.00105929622906"><ele>105.0</ele><time>2026-04-12T07:38:29Z</time></trkpt><trkpt lat="42.037503411488345" lon="12.00102331618797"><ele>106.75</ele><time>2026-04-12T07:38:30Z</time></trkpt><trkpt lat="42.03764106501893" lon="12.000992362701332"><ele>108.5</ele><time>2026-04-12T07:38:31Z</time></trkpt><trkpt lat="42.037784071894144" lon="12.000966527781724"><ele>110.25</ele><time>2026-04-12T07:38:32Z</time></trkpt><trkpt lat="42.03791796122668" lon="12.00094708862551"><ele>112.0</ele><time>2026-04-12T07:38:33Z</time></trkpt><trkpt lat="42.03805130833406" lon="12.000928166885089"><ele>112.0</ele><time>2026-04-12T07:38:34Z</time></trkpt><trkpt lat="42.03817604177027" lon="12.000903839889414"><ele>112.0</ele><time>2026-04-12T07:38:35Z</time></trkpt><trkpt lat="42.03828812334323" lon="12.000881964394894"><ele>112.0</ele><time>2026-04-12T07:38:36Z</time></trkpt><trkpt lat="42.03841203124712" lon="12.00086563457988"><ele>112.0</ele><time>2026-04-12T07:38:37Z</time></trkpt><trkpt lat="42.03853745096846" lon="12.000861726260991"><ele>114.25</ele><time>2026-04-12T07:38:38Z</time></trkpt><trkpt lat="42.038664757751896" lon="12.000856885289465"><ele>116.5</ele><time>2026-04-12T07:38:39Z</time></trkpt><trkpt lat="42.038784931662384" lon="12.000852658759436"><ele>118.75</ele><time>2026-04-12T07:38:40Z</time></trkpt><trkpt lat="42.03890068836155" lon="12.000846969120966"><ele>121.0</ele><time>2026-04-12T07:38:41Z</time></trkpt><trkpt lat="42.039018846739" lon="12.000836928195659"><ele>121.5</ele><time>2026-04-12T07:38:42Z</time></trkpt><trkpt lat="42.03913787697373" lon="12.000831458638636"><ele>122.0</ele><time>2026-04-12T07:38:43Z</time></trkpt><trkpt lat="42.03925567941587" lon="12.000830111291899"><ele>122.5</ele><time>2026-04-12T07:38:44Z</time></trkpt><trkpt lat="42.0393676049004" lon="12.000831732738163"><ele>123.0</ele><time>2026-04-12T07:38:45Z</time></trkpt><trkpt lat="42.03948069215969" lon="12.000838397798459"><ele>124.5</ele><time>2026-04-12T07:38:46Z</time></trkpt><trkpt lat="42.039601175236804" lon="12.00085961810726"><ele>126.0</ele><time>2026-04-12T07:38:47Z</time></trkpt><trkpt lat="42.039717343471146" lon="12.000862617404522"><ele>127.5</ele><time>2026-04-12T07:38:48Z</time></trkpt><trkpt lat="42.039842681155164" lon="12.000864322892257"><ele>129.0</ele><time>2026-04-12T07:38:49Z</time></trkpt><trkpt lat="42.0399735336566" lon="12.000866103421242"><ele>131.25</ele><time>2026-04-12T07:38:50Z</time></trkpt><trkpt lat="42.04010631845385" lon="12.000868816350328"><ele>133.5</ele><time>2026-04-12T07:38:51Z</time></trkpt><trkpt lat="42.04023224920496" lon="12.000868554077256"><ele>135.75</ele><time>2026-04-12T07:38:52Z</time></trkpt><trkpt lat="42.04037552950383" lon="12.000859556042386"><ele>138.0</ele><time>2026-04-12T07:38:53Z</time></trkpt><trkpt lat="42.04049032392711" lon="12.000878907035526"><ele>138.0</ele><time>2026-04-12T07:38:54Z</time></trkpt><trkpt lat="42.040612700201685" lon="12.000892213488603"><ele>138.0</ele><time>2026-04-12T07:38:55Z</time></trkpt><trkpt lat="42.04074012167907" lon="12.000909851686208"><ele>138.0</ele><time>2026-04-12T07:38:56Z</time></trkpt><trkpt lat="42.040861506995796" lon="12.000940372813156"><ele>138.0</ele><time>2026-04-12T07:38:57Z</time></trkpt><trkpt lat="42.04099027643286" lon="12.000966245377018"><ele>139.5</ele><time>2026-04-12T07:38:58Z</time></trkpt><trkpt lat="42.04112616437441" lon="12.000988561192266"><ele>141.0</ele><time>2026-04-12T07:38:59Z</time></trkpt><trkpt lat="42.04125936517507" lon="12.00100576662843"><ele>142.5</ele><time>2026-04-12T07:39:00Z</time></trkpt><trkpt lat="42.04138541352353" lon="12.00104393319415"><ele>144.0</ele><time>2026-04-12T07:39:01Z</time></trkpt><trkpt lat="42.041526188976555" lon="12.001070292474713"><ele>145.75</ele><time>2026-04-12T07:39:02Z</time></trkpt><trkpt lat="42.04166447162276" lon="12.00110270193657"><ele>147.5</ele><time>2026-04-12T07:39:03Z</time></trkpt><trkpt lat="42.04180177646735" lon="12.001148002319294"><ele>149.25</ele><time>2026-04-12T07:39:04Z</time></trkpt><trkpt lat="42.04194459483059" lon="12.001205472680637"><ele>151.0</ele><time>2026-04-12T07:39:05Z</time></trkpt><trkpt lat="42.04208544250989" lon="12.001265157820532"><ele>151.0</ele><time>2026-04-12T07:39:06Z</time></trkpt><trkpt lat="42.0422350029332" lon="12.001338445264699"><ele>151.0</ele><time>2026-04-12T07:39:07Z</time></trkpt><trkpt lat="42.04236749808859" lon="12.001411717240114"><ele>151.0</ele><time>2026-04-12T07:39:08Z</time></trkpt><trkpt lat="42.04250746326898" lon="12.001488076526925"><ele>152.5</ele><time>2026-04-12T07:39:09Z</time></trkpt><trkpt lat="42.04265052813933" lon="12.001535219482289"><ele>154.0</ele><time>2026-04-12T07:39:10Z</time></trkpt><trkpt lat="42.04277665075476" lon="12.001603926690137"><ele>155.5</ele><time>2026-04-12T07:39:11Z</time></trkpt><trkpt lat="42.04288994408513" lon="12.00164557383723"><ele>157.0</ele><time>2026-04-12T07:39:12Z</time></trkpt><trkpt lat="42.042990283646006" lon="12.00167705178523"><ele>158.75</ele><time>2026-04-12T07:39:13Z</time></trkpt><trkpt lat="42.04311970122022" lon="12.001681449652942"><ele>160.5</ele><time>2026-04-12T07:39:14Z</time></trkpt><trkpt lat="42.043251443521235" lon="12.001668282414443"><ele>162.25</ele><time>2026-04-12T07:39:15Z</time></trkpt><trkpt lat="42.043386883089106" lon="12.001637746403222"><ele>164.0</ele><time>2026-04-12T07:39:16Z</time></trkpt><trkpt lat="42.04351968057527" lon="12.00158949775941"><ele>164.0</ele><time>2026-04-12T07:39:17Z</time></trkpt><trkpt lat="42.04365956050892" lon="12.001538724533399"><ele>164.0</ele><time>2026-04-12T07:39:18Z</time></trkpt><trkpt lat="42.04379733517508" lon="12.001467672623136"><ele>164.0</ele><time>2026-04-12T07:39:19Z</time></trkpt><trkpt lat="42.04396327117381" lon="12.00136402925916"><ele>164.0</ele><time>2026-04-12T07:39:20Z</time></trkpt><trkpt lat="42.044100662678325" lon="12.001275285116101"><ele>164.0</ele><time>2026-04-12T07:39:21Z</time></trkpt><trkpt lat="42.04423502395436" lon="12.001207292674133"><ele>164.0</ele><time>2026-04-12T07:39:21.999Z</time></trkpt><trkpt lat="42.04436968899646" lon="12.001189425373902"><ele>164.0</ele><time>2026-04-12T07:39:22.999Z</time></trkpt><trkpt lat="42.04449689130639" lon="12.001168843440666"><ele>166.5</ele><time>2026-04-12T07:39:23.999Z</time></trkpt><trkpt lat="42.04460878606268" lon="12.00116604430887"><ele>169.0</ele><time>2026-04-12T07:39:24.999Z</time></trkpt><trkpt lat="42.04472120285442" lon="12.00118187080563"><ele>171.5</ele><time>2026-04-12T07:39:25.999Z</time></trkpt><trkpt lat="42.04484323478123" lon="12.001207673695212"><ele>174.0</ele><time>2026-04-12T07:39:26.999Z</time></trkpt><trkpt lat="42.04495898414789" lon="12.001246318662526"><ele>176.75</ele><time>2026-04-12T07:39:27.999Z</time></trkpt><trkpt lat="42.04507766126957" lon="12.001292799385633"><ele>179.5</ele><time>2026-04-12T07:39:28.999Z</time></trkpt><trkpt lat="42.04519511915747" lon="12.001341961771999"><ele>182.25</ele><time>2026-04-12T07:39:29.999Z</time></trkpt><trkpt lat="42.04533337945379" lon="12.001394128731095"><ele>185.0</ele><time>2026-04-12T07:39:30.999Z</time></trkpt><trkpt lat="42.04545971738486" lon="12.001452902766754"><ele>185.0</ele><time>2026-04-12T07:39:31.999Z</time></trkpt><trkpt lat="42.04558864039771" lon="12.001528248870487"><ele>185.0</ele><time>2026-04-12T07:39:32.999Z</time></trkpt><trkpt lat="42.045710698935736" lon="12.001595917781488"><ele>185.0</ele><time>2026-04-12T07:39:33.999Z</time></trkpt><trkpt lat="42.04582928851552" lon="12.001665649915843"><ele>185.0</ele><time>2026-04-12T07:39:34.999Z</time></trkpt><trkpt lat="42.04595337171686" lon="12.001733290394316"><ele>187.0</ele><time>2026-04-12T07:39:35.999Z</time></trkpt><trkpt lat="42.046059424277644" lon="12.001814849097581"><ele>189.0</ele><time>2026-04-12T07:39:36.999Z</time></trkpt><trkpt lat="42.04618452379611" lon="12.00187539999014"><ele>191.0</ele><time>2026-04-12T07:39:37.999Z</time></trkpt><trkpt lat="42.04627990431922" lon="12.001909835268133"><ele>193.0</ele><time>2026-04-12T07:39:38.999Z</time></trkpt><trkpt lat="42.04638463453027" lon="12.001937052678578"><ele>193.0</ele><time>2026-04-12T07:39:39.999Z</time></trkpt><trkpt lat="42.046486051204" lon="12.001972261463917"><ele>193.0</ele><time>2026-04-12T07:39:40.999Z</time></trkpt><trkpt lat="42.046593254748565" lon="12.001966803636407"><ele>193.0</ele><time>2026-04-12T07:39:41.999Z</time></trkpt><trkpt lat="42.046693789181106" lon="12.00193798390061"><ele>193.0</ele><time>2026-04-12T07:39:42.999Z</time></trkpt><trkpt lat="42.046798155327814" lon="12.00186678210926"><ele>193.0</ele><time>2026-04-12T07:39:43.999Z</time></trkpt><trkpt lat="42.046906172708184" lon="12.001800776058861"><ele>193.5</ele><time>2026-04-12T07:39:44.999Z</time></trkpt><trkpt lat="42.04697724403107" lon="12.001769058615816"><ele>194.0</ele><time>2026-04-12T07:39:45.999Z</time></trkpt><trkpt lat="42.04708944494411" lon="12.001699475526795"><ele>194.5</ele><time>2026-04-12T07:39:46.999Z</time></trkpt><trkpt lat="42.047219515281064" lon="12.001608817935356"><ele>195.0</ele><time>2026-04-12T07:39:47.999Z</time></trkpt><trkpt lat="42.04736961178462" lon="12.001561604227039"><ele>197.5</ele><time>2026-04-12T07:39:48.999Z</time></trkpt><trkpt lat="42.04748177384549" lon="12.00147648442295"><ele>200.0</ele><time>2026-04-12T07:39:49.999Z</time></trkpt><trkpt lat="42.04758272376571" lon="12.001426008197672"><ele>202.5</ele><time>2026-04-12T07:39:50.999Z</time></trkpt><trkpt lat="42.04769962950007" lon="12.001358518229386"><ele>205.0</ele><time>2026-04-12T07:39:51.999Z</time></trkpt><trkpt lat="42.047825403462326" lon="12.001305368481502"><ele>205.0</ele><time>2026-04-12T07:39:52.999Z</time></trkpt><trkpt lat="42.04793364655313" lon="12.001233244401844"><ele>205.0</ele><time>2026-04-12T07:39:53.999Z</time></trkpt><trkpt lat="42.04805037471964" lon="12.001162955156612"><ele>205.0</ele><time>2026-04-12T07:39:54.999Z</time></trkpt><trkpt lat="42.04818577158176" lon="12.001116448309096"><ele>205.0</ele><time>2026-04-12T07:39:55.999Z</time></trkpt><trkpt lat="42.0482978881824" lon="12.001036707242918"><ele>204.75</ele><time>2026-04-12T07:39:56.999Z</time></trkpt><trkpt lat="42.048428959774" lon="12.00096409820893"><ele>204.5</ele><time>2026-04-12T07:39:57.999Z</time></trkpt><trkpt lat="42.048541828484616" lon="12.000876271560955"><ele>204.25</ele><time>2026-04-12T07:39:58.999Z</time></trkpt><trkpt lat="42.048676068305504" lon="12.000805749871073"><ele>204.0</ele><time>2026-04-12T07:39:59.999Z</time></trkpt><trkpt lat="42.04881272279881" lon="12.000758675976233"><ele>205.79999999999998</ele><time>2026-04-12T07:40:00.999Z</time></trkpt><trkpt lat="42.0489191701331" lon="12.000690198079056"><ele>207.6</ele><time>2026-04-12T07:40:01.999Z</time></trkpt><trkpt lat="42.04901828191602" lon="12.00062368979028"><ele>209.4</ele><time>2026-04-12T07:40:02.999Z</time></trkpt><trkpt lat="42.049100405539114" lon="12.000549697458808"><ele>211.2</ele><time>2026-04-12T07:40:03.999Z</time></trkpt><trkpt lat="42.049182383557174" lon="12.000479747380465"><ele>213.0</ele><time>2026-04-12T07:40:04.999Z</time></trkpt><trkpt lat="42.04926306428463" lon="12.000406225840674"><ele>213.4</ele><time>2026-04-12T07:40:05.999Z</time></trkpt><trkpt lat="42.0493351416228" lon="12.000314498718517"><ele>213.8</ele><time>2026-04-12T07:40:06.999Z</time></trkpt><trkpt lat="42.04941114796662" lon="12.000228766484076"><ele>214.2</ele><time>2026-04-12T07:40:07.999Z</time></trkpt><trkpt lat="42.04948953720929" lon="12.00014153492945"><ele>214.6</ele><time>2026-04-12T07:40:08.999Z</time></trkpt><trkpt lat="42.049575891249596" lon="11.999995116817107"><ele>215.0</ele><time>2026-04-12T07:40:09.999Z</time></trkpt><trkpt lat="42.049648658252174" lon="11.999815633969583"><ele>215.0</ele><time>2026-04-12T07:40:10.999Z</time></trkpt><trkpt lat="42.04973143844374" lon="11.999637624802443"><ele>215.0</ele><time>2026-04-12T07:40:11.999Z</time></trkpt><trkpt lat="42.04981321004495" lon="11.999457609383375"><ele>215.0</ele><time>2026-04-12T07:40:12.999Z</time></trkpt><trkpt lat="42.04991596293661" lon="11.999289832767102"><ele>216.33333333333334</ele><time>2026-04-12T07:40:13.999Z</time></trkpt><trkpt lat="42.05000385648804" lon="11.999074419266444"><ele>217.66666666666669</ele><time>2026-04-12T07:40:14.999Z</time></trkpt><trkpt lat="42.05008494879286" lon="11.99890999997556"><ele>219.0</ele><time>2026-04-12T07:40:15.999Z</time></trkpt><trkpt lat="42.050138226752814" lon="11.998704853091526"><ele>219.0</ele><time>2026-04-12T07:40:16.999Z</time></trkpt><trkpt lat="42.05021348396086" lon="11.998546925372274"><ele>219.0</ele><time>2026-04-12T07:40:17.999Z</time></trkpt><trkpt lat="42.05028657117931" lon="11.998420380423644"><ele>219.0</ele><time>2026-04-12T07:40:18.999Z</time></trkpt><trkpt lat="42.05037862016976" lon="11.998316576835785"><ele>219.0</ele><time>2026-04-12T07:40:19.999Z</time></trkpt><trkpt lat="42.050493917759304" lon="11.998191997491027"><ele>220.25</ele><time>2026-04-12T07:40:20.999Z</time></trkpt><trkpt lat="42.050613120113184" lon="11.998071504150584"><ele>221.5</ele><time>2026-04-12T07:40:21.999Z</time></trkpt><trkpt lat="42.0507267580012" lon="11.997957793418568"><ele>222.75</ele><time>2026-04-12T07:40:22.999Z</time></trkpt><trkpt lat="42.05084275826948" lon="11.997841894395327"><ele>224.0</ele><time>2026-04-12T07:40:23.999Z</time></trkpt><trkpt lat="42.05096741650133" lon="11.99771734508306"><ele>225.0</ele><time>2026-04-12T07:40:24.999Z</time></trkpt><trkpt lat="42.05107478698817" lon="11.997611612739181"><ele>226.0</ele><time>2026-04-12T07:40:25.999Z</time></trkpt><trkpt lat="42.051193162949986" lon="11.997495206185295"><ele>227.0</ele><time>2026-04-12T07:40:26.999Z</time></trkpt><trkpt lat="42.05130374328866" lon="11.997386521525897"><ele>228.0</ele><time>2026-04-12T07:40:27.999Z</time></trkpt><trkpt lat="42.05142907818849" lon="11.997266115099986"><ele>229.25</ele><time>2026-04-12T07:40:29Z</time></trkpt><trkpt lat="42.05154371011143" lon="11.99715599072478"><ele>230.5</ele><time>2026-04-12T07:40:30Z</time></trkpt><trkpt lat="42.05165703807276" lon="11.997047214059789"><ele>231.75</ele><time>2026-04-12T07:40:31Z</time></trkpt><trkpt lat="42.05176516845486" lon="11.996943574075583"><ele>233.0</ele><time>2026-04-12T07:40:32Z</time></trkpt><trkpt lat="42.051883070404195" lon="11.996829537883224"><ele>234.0</ele><time>2026-04-12T07:40:33Z</time></trkpt><trkpt lat="42.05199361073851" lon="11.996721750011522"><ele>235.0</ele><time>2026-04-12T07:40:34Z</time></trkpt><trkpt lat="42.05209857436817" lon="11.99661940119694"><ele>236.0</ele><time>2026-04-12T07:40:35Z</time></trkpt><trkpt lat="42.05221325499276" lon="11.996513132294329"><ele>237.0</ele><time>2026-04-12T07:40:36Z</time></trkpt><trkpt lat="42.05232070034936" lon="11.996415539031862"><ele>238.5</ele><time>2026-04-12T07:40:37Z</time></trkpt><trkpt lat="42.0524280846805" lon="11.996329960633808"><ele>240.0</ele><time>2026-04-12T07:40:38Z</time></trkpt><trkpt lat="42.05255490805081" lon="11.996253012191724"><ele>241.5</ele><time>2026-04-12T07:40:39Z</time></trkpt><trkpt lat="42.052674081606355" lon="11.996202496439274"><ele>243.0</ele><time>2026-04-12T07:40:40Z</time></trkpt><trkpt lat="42.052821882370424" lon="11.996139168000632"><ele>243.75</ele><time>2026-04-12T07:40:41Z</time></trkpt><trkpt lat="42.052962810284974" lon="11.996078327593276"><ele>244.5</ele><time>2026-04-12T07:40:42Z</time></trkpt><trkpt lat="42.05310942188066" lon="11.996015033504658"><ele>245.25</ele><time>2026-04-12T07:40:43Z</time></trkpt><trkpt lat="42.05323824800381" lon="11.995959417655516"><ele>246.0</ele><time>2026-04-12T07:40:44Z</time></trkpt><trkpt lat="42.053379246084475" lon="11.995917218742495"><ele>246.75</ele><time>2026-04-12T07:40:45Z</time></trkpt><trkpt lat="42.05350227874558" lon="11.99586209591179"><ele>247.5</ele><time>2026-04-12T07:40:46Z</time></trkpt><trkpt lat="42.05364053526972" lon="11.995791248380495"><ele>248.25</ele><time>2026-04-12T07:40:47Z</time></trkpt><trkpt lat="42.053756364955554" lon="11.995721541848267"><ele>249.0</ele><time>2026-04-12T07:40:48Z</time></trkpt><trkpt lat="42.05388892888495" lon="11.995669460825479"><ele>249.75</ele><time>2026-04-12T07:40:49Z</time></trkpt><trkpt lat="42.05402535126407" lon="11.995608307163394"><ele>250.5</ele><time>2026-04-12T07:40:50Z</time></trkpt><trkpt lat="42.05416042471685" lon="11.995544481592471"><ele>251.25</ele><time>2026-04-12T07:40:51Z</time></trkpt><trkpt lat="42.05429900399034" lon="11.995484363680507"><ele>252.0</ele><time>2026-04-12T07:40:52Z</time></trkpt><trkpt lat="42.05442644785161" lon="11.995434052690376"><ele>252.0</ele><time>2026-04-12T07:40:53Z</time></trkpt><trkpt lat="42.05454966994004" lon="11.995377761455833"><ele>252.0</ele><time>2026-04-12T07:40:54Z</time></trkpt><trkpt lat="42.054687662065035" lon="11.995340339376424"><ele>252.0</ele><time>2026-04-12T07:40:55Z</time></trkpt><trkpt lat="42.05483200547059" lon="11.995278514784545"><ele>252.0</ele><time>2026-04-12T07:40:56Z</time></trkpt><trkpt lat="42.054961845570965" lon="11.995222902376408"><ele>251.75</ele><time>2026-04-12T07:40:57Z</time></trkpt><trkpt lat="42.05509545126208" lon="11.995146018181146"><ele>251.5</ele><time>2026-04-12T07:40:58Z</time></trkpt><trkpt lat="42.055224480477264" lon="11.995087926257263"><ele>251.25</ele><time>2026-04-12T07:40:59Z</time></trkpt><trkpt lat="42.05536251875239" lon="11.99503606145779"><ele>251.0</ele><time>2026-04-12T07:41:00Z</time></trkpt><trkpt lat="42.05549735211239" lon="11.994976109472828"><ele>252.25</ele><time>2026-04-12T07:41:01Z</time></trkpt><trkpt lat="42.055641307067845" lon="11.994937555464498"><ele>253.5</ele><time>2026-04-12T07:41:02Z</time></trkpt><trkpt lat="42.05576318710281" lon="11.99486587920821"><ele>254.75</ele><time>2026-04-12T07:41:03Z</time></trkpt><trkpt lat="42.05588351374297" lon="11.994821332946598"><ele>256.0</ele><time>2026-04-12T07:41:04Z</time></trkpt><trkpt lat="42.055970850531594" lon="11.994781143273336"><ele>256.0</ele><time>2026-04-12T07:41:05Z</time></trkpt><trkpt lat="42.05608603749964" lon="11.994759077922753"><ele>256.0</ele><time>2026-04-12T07:41:06Z</time></trkpt><trkpt lat="42.05621049832516" lon="11.994708041738457"><ele>256.0</ele><time>2026-04-12T07:41:07Z</time></trkpt><trkpt lat="42.05634643165518" lon="11.99464474906152"><ele>256.0</ele><time>2026-04-12T07:41:08Z</time></trkpt><trkpt lat="42.056458746657285" lon="11.994594264932418"><ele>255.99999999999997</ele><time>2026-04-12T07:41:09Z</time></trkpt><trkpt lat="42.056546992813594" lon="11.994549185763976"><ele>256.0</ele><time>2026-04-12T07:41:10Z</time></trkpt><trkpt lat="42.056622874743276" lon="11.994508929978984"><ele>256.0</ele><time>2026-04-12T07:41:11Z</time></trkpt><trkpt lat="42.0566874466667" lon="11.994490066112203"><ele>256.0</ele><time>2026-04-12T07:41:12Z</time></trkpt><trkpt lat="42.056771494377855" lon="11.994455175982315"><ele>255.99999999999997</ele><time>2026-04-12T07:41:14Z</time></trkpt><trkpt lat="42.05685654651411" lon="11.994421088474532"><ele>256.0</ele><time>2026-04-12T07:41:18Z</time></trkpt><trkpt lat="42.056790514673146" lon="11.994447552967909"><ele>256.40000000000003</ele><time>2026-04-12T07:41:32.999Z</time></trkpt><trkpt lat="42.05678852013272" lon="11.994323981008096"><ele>256.8</ele><time>2026-04-12T07:41:43.999Z</time></trkpt><trkpt lat="42.05683126599567" lon="11.994260737309336"><ele>257.20000000000005</ele><time>2026-04-12T07:45:10Z</time></trkpt><trkpt lat="42.05688825798772" lon="11.994122898954561"><ele>257.6</ele><time>2026-04-12T07:45:13Z</time></trkpt><trkpt lat="42.05692406192171" lon="11.993942707912462"><ele>258.0</ele><time>2026-04-12T07:45:15Z</time></trkpt><trkpt lat="42.056951364797996" lon="11.993852264054487"><ele>258.2</ele><time>2026-04-12T07:45:16Z</time></trkpt><trkpt lat="42.056981471535984" lon="11.993756416997549"><ele>258.4</ele><time>2026-04-12T07:45:17Z</time></trkpt><trkpt lat="42.05701834118258" lon="11.993649078588437"><ele>258.59999999999997</ele><time>2026-04-12T07:45:18Z</time></trkpt><trkpt lat="42.05707084419704" lon="11.99351479671999"><ele>258.8</ele><time>2026-04-12T07:45:19Z</time></trkpt><trkpt lat="42.05712300975894" lon="11.993352483853894"><ele>259.0</ele><time>2026-04-12T07:45:20Z</time></trkpt><trkpt lat="42.057165826927374" lon="11.993187262826149"><ele>258.16666666666663</ele><time>2026-04-12T07:45:21Z</time></trkpt><trkpt lat="42.05719779385435" lon="11.993027181014366"><ele>257.3333333333333</ele><time>2026-04-12T07:45:22Z</time></trkpt><trkpt lat="42.05722915795736" lon="11.992909918596718"><ele>256.5</ele><time>2026-04-12T07:45:23Z</time></trkpt><trkpt lat="42.05726331770084" lon="11.99282537883978"><ele>255.66666666666669</ele><time>2026-04-12T07:45:24Z</time></trkpt><trkpt lat="42.05730791811416" lon="11.992738167371526"><ele>254.83333333333334</ele><time>2026-04-12T07:45:25Z</time></trkpt><trkpt lat="42.057350774422176" lon="11.99265453069286"><ele>254.0</ele><time>2026-04-12T07:45:26Z</time></trkpt><trkpt lat="42.0574130965145" lon="11.992586614456505"><ele>253.33333333333334</ele><time>2026-04-12T07:45:27Z</time></trkpt><trkpt lat="42.057491302939326" lon="11.992548698007159"><ele>252.66666666666669</ele><time>2026-04-12T07:45:28Z</time></trkpt><trkpt lat="42.057550777775525" lon="11.992477356067255"><ele>252.0</ele><time>2026-04-12T07:45:29Z</time></trkpt><trkpt lat="42.057612445617785" lon="11.992405031390723"><ele>251.33333333333331</ele><time>2026-04-12T07:45:30Z</time></trkpt><trkpt lat="42.05767615622526" lon="11.992315566473154"><ele>250.66666666666666</ele><time>2026-04-12T07:45:31Z</time></trkpt><trkpt lat="42.057750910105" lon="11.992238210857987"><ele>250.0</ele><time>2026-04-12T07:45:32Z</time></trkpt><trkpt lat="42.05781040337327" lon="11.992171752973766"><ele>250.0</ele><time>2026-04-12T07:45:33Z</time></trkpt><trkpt lat="42.057864416021225" lon="11.99210207310842"><ele>250.0</ele><time>2026-04-12T07:45:34Z</time></trkpt><trkpt lat="42.057912542468216" lon="11.992031833869433"><ele>250.0</ele><time>2026-04-12T07:45:35Z</time></trkpt><trkpt lat="42.057946720462354" lon="11.99192700129063"><ele>250.0</ele><time>2026-04-12T07:45:36Z</time></trkpt><trkpt lat="42.057906196364364" lon="11.99174713090446"><ele>250.0</ele><time>2026-04-12T07:45:38Z</time></trkpt><trkpt lat="42.05786002687788" lon="11.991631133096444"><ele>249.0</ele><time>2026-04-12T07:45:38.999Z</time></trkpt><trkpt lat="42.05781984812496" lon="11.991505193678822"><ele>248.0</ele><time>2026-04-12T07:45:39.999Z</time></trkpt><trkpt lat="42.05778968382759" lon="11.991381173763223"><ele>247.0</ele><time>2026-04-12T07:45:40.999Z</time></trkpt><trkpt lat="42.05775543547612" lon="11.991256951936204"><ele>246.0</ele><time>2026-04-12T07:45:41.999Z</time></trkpt><trkpt lat="42.057731781365014" lon="11.991159119359903"><ele>245.0</ele><time>2026-04-12T07:45:42.999Z</time></trkpt><trkpt lat="42.05763697285323" lon="11.9910434427577"><ele>245.0</ele><time>2026-04-12T07:45:44.999Z</time></trkpt><trkpt lat="42.05754106029374" lon="11.99092229066967"><ele>245.0</ele><time>2026-04-12T07:45:46.999Z</time></trkpt><trkpt lat="42.057516846623045" lon="11.990773798144131"><ele>245.0</ele><time>2026-04-12T07:45:48.999Z</time></trkpt><trkpt lat="42.057545246080345" lon="11.990691035914883"><ele>245.0</ele><time>2026-04-12T07:45:49.999Z</time></trkpt><trkpt lat="42.05761748773974" lon="11.990551740486517"><ele>245.0</ele><time>2026-04-12T07:45:51.999Z</time></trkpt><trkpt lat="42.05767417857261" lon="11.990480416957647"><ele>244.50000000000003</ele><time>2026-04-12T07:45:52.999Z</time></trkpt><trkpt lat="42.0577232587043" lon="11.990405395232445"><ele>244.0</ele><time>2026-04-12T07:45:53.999Z</time></trkpt><trkpt lat="42.05777541392323" lon="11.990298918098944"><ele>243.5</ele><time>2026-04-12T07:45:54.999Z</time></trkpt><trkpt lat="42.057810341238664" lon="11.990219264296721"><ele>243.0</ele><time>2026-04-12T07:45:55.999Z</time></trkpt><trkpt lat="42.057854362366974" lon="11.990133822393215"><ele>242.50000000000003</ele><time>2026-04-12T07:45:56.999Z</time></trkpt><trkpt lat="42.05789752250156" lon="11.990056389663293"><ele>242.0</ele><time>2026-04-12T07:45:57.999Z</time></trkpt><trkpt lat="42.05794335762444" lon="11.989966051143998"><ele>241.7142857142857</ele><time>2026-04-12T07:45:58.999Z</time></trkpt><trkpt lat="42.057982862042905" lon="11.989876778859763"><ele>241.4285714285714</ele><time>2026-04-12T07:45:59.999Z</time></trkpt><trkpt lat="42.0580150043677" lon="11.989795750218628"><ele>241.14285714285714</ele><time>2026-04-12T07:46:00.999Z</time></trkpt><trkpt lat="42.05803915304232" lon="11.98971181652738"><ele>240.85714285714283</ele><time>2026-04-12T07:46:01.999Z</time></trkpt><trkpt lat="42.0580674880862" lon="11.989634177241083"><ele>240.57142857142856</ele><time>2026-04-12T07:46:02.999Z</time></trkpt><trkpt lat="42.05811290043538" lon="11.98956644288422"><ele>240.28571428571428</ele><time>2026-04-12T07:46:03.999Z</time></trkpt><trkpt lat="42.05816172579801" lon="11.989494435855494"><ele>240.0</ele><time>2026-04-12T07:46:04.999Z</time></trkpt><trkpt lat="42.058211671056014" lon="11.989419937897601"><ele>240.0</ele><time>2026-04-12T07:46:05.999Z</time></trkpt><trkpt lat="42.058280750888066" lon="11.989335315629742"><ele>240.0</ele><time>2026-04-12T07:46:06.999Z</time></trkpt><trkpt lat="42.058348581462305" lon="11.989259929998477"><ele>240.0</ele><time>2026-04-12T07:46:07.999Z</time></trkpt><trkpt lat="42.058406315229604" lon="11.989176966866259"><ele>240.0</ele><time>2026-04-12T07:46:08.999Z</time></trkpt><trkpt lat="42.05846985440373" lon="11.989128732362937"><ele>240.0</ele><time>2026-04-12T07:46:09.999Z</time></trkpt><trkpt lat="42.05852836570828" lon="11.989038381489994"><ele>240.0</ele><time>2026-04-12T07:46:10.999Z</time></trkpt><trkpt lat="42.058575749032734" lon="11.988952501654774"><ele>238.6</ele><time>2026-04-12T07:46:11.999Z</time></trkpt><trkpt lat="42.05864152737363" lon="11.98882198251733"><ele>237.2</ele><time>2026-04-12T07:46:13.999Z</time></trkpt><trkpt lat="42.05869295172372" lon="11.988684794685351"><ele>235.8</ele><time>2026-04-12T07:46:15.999Z</time></trkpt><trkpt lat="42.0587723622909" lon="11.988559864887499"><ele>234.4</ele><time>2026-04-12T07:46:17.999Z</time></trkpt><trkpt lat="42.05882033875113" lon="11.98847888988915"><ele>233.0</ele><time>2026-04-12T07:46:18.999Z</time></trkpt><trkpt lat="42.05885510719804" lon="11.98840375565276"><ele>232.50000000000003</ele><time>2026-04-12T07:46:19.999Z</time></trkpt><trkpt lat="42.05885705190816" lon="11.988294791742632"><ele>232.0</ele><time>2026-04-12T07:46:20.999Z</time></trkpt><trkpt lat="42.058854535794275" lon="11.98819081020273"><ele>231.5</ele><time>2026-04-12T07:46:21.999Z</time></trkpt><trkpt lat="42.05888768340027" lon="11.988028591107701"><ele>231.0</ele><time>2026-04-12T07:46:22.999Z</time></trkpt><trkpt lat="42.05890806828953" lon="11.987940571404847"><ele>230.50000000000003</ele><time>2026-04-12T07:46:23.999Z</time></trkpt><trkpt lat="42.05883508585279" lon="11.987915457636259"><ele>230.0</ele><time>2026-04-12T07:46:24.999Z</time></trkpt><trkpt lat="42.05879209115652" lon="11.987779276797168"><ele>230.00000000000003</ele><time>2026-04-12T07:46:25.999Z</time></trkpt><trkpt lat="42.05877866632511" lon="11.987675301003748"><ele>230.0</ele><time>2026-04-12T07:46:26.999Z</time></trkpt><trkpt lat="42.058750458436094" lon="11.987554708641726"><ele>230.0</ele><time>2026-04-12T07:46:27.999Z</time></trkpt><trkpt lat="42.05874324643602" lon="11.987429262405355"><ele>230.0</ele><time>2026-04-12T07:46:28.999Z</time></trkpt><trkpt lat="42.05874545612817" lon="11.987298379913982"><ele>230.00000000000003</ele><time>2026-04-12T07:46:29.999Z</time></trkpt><trkpt lat="42.0587632337601" lon="11.987189366781136"><ele>230.0</ele><time>2026-04-12T07:46:30.999Z</time></trkpt><trkpt lat="42.05877432220205" lon="11.987071866724367"><ele>229.2</ele><time>2026-04-12T07:46:31.999Z</time></trkpt><trkpt lat="42.058764523029126" lon="11.98696313649988"><ele>228.4</ele><time>2026-04-12T07:46:32.999Z</time></trkpt><trkpt lat="42.05870018518394" lon="11.986817137520653"><ele>227.60000000000002</ele><time>2026-04-12T07:46:34.999Z</time></trkpt><trkpt lat="42.05865093671707" lon="11.986740028570498"><ele>226.8</ele><time>2026-04-12T07:46:35.999Z</time></trkpt><trkpt lat="42.05857241259148" lon="11.986662682770463"><ele>226.0</ele><time>2026-04-12T07:46:36.999Z</time></trkpt><trkpt lat="42.058540779616045" lon="11.986560764405237"><ele>225.42857142857144</ele><time>2026-04-12T07:46:37.999Z</time></trkpt><trkpt lat="42.058532371257186" lon="11.98645472094767"><ele>224.85714285714283</ele><time>2026-04-12T07:46:38.999Z</time></trkpt><trkpt lat="42.05852039216638" lon="11.986357375988556"><ele>224.28571428571428</ele><time>2026-04-12T07:46:39.999Z</time></trkpt><trkpt lat="42.05852360165005" lon="11.986266156098198"><ele>223.71428571428572</ele><time>2026-04-12T07:46:40.999Z</time></trkpt><trkpt lat="42.05852234342647" lon="11.9861697534314"><ele>223.14285714285717</ele><time>2026-04-12T07:46:41.999Z</time></trkpt><trkpt lat="42.05851167113432" lon="11.986070004133037"><ele>222.57142857142856</ele><time>2026-04-12T07:46:42.999Z</time></trkpt><trkpt lat="42.05851855973061" lon="11.985960558787793"><ele>222.0</ele><time>2026-04-12T07:46:43.999Z</time></trkpt><trkpt lat="42.05857417291571" lon="11.985873564859487"><ele>220.5</ele><time>2026-04-12T07:46:44.999Z</time></trkpt><trkpt lat="42.05862280508263" lon="11.985787448322572"><ele>219.0</ele><time>2026-04-12T07:46:45.999Z</time></trkpt><trkpt lat="42.05865848353477" lon="11.985676778852367"><ele>217.5</ele><time>2026-04-12T07:46:47Z</time></trkpt><trkpt lat="42.05868617935748" lon="11.985577483829774"><ele>216.0</ele><time>2026-04-12T07:46:48Z</time></trkpt><trkpt lat="42.058706708825085" lon="11.985403819687976"><ele>214.5</ele><time>2026-04-12T07:46:50Z</time></trkpt><trkpt lat="42.05866682144584" lon="11.985331354785114"><ele>213.0</ele><time>2026-04-12T07:46:51Z</time></trkpt><trkpt lat="42.05861043630262" lon="11.985222978858175"><ele>213.0</ele><time>2026-04-12T07:46:53Z</time></trkpt><trkpt lat="42.05855785479813" lon="11.98512875735268"><ele>213.0</ele><time>2026-04-12T07:46:55Z</time></trkpt><trkpt lat="42.05852206127487" lon="11.985020546937024"><ele>213.0</ele><time>2026-04-12T07:46:57Z</time></trkpt><trkpt lat="42.0584675464178" lon="11.984955570141173"><ele>213.0</ele><time>2026-04-12T07:47:01Z</time></trkpt><trkpt lat="42.0585252585388" lon="11.985038551099295"><ele>213.0</ele><time>2026-04-12T07:47:21Z</time></trkpt><trkpt lat="42.05859442648498" lon="11.985045546932925"><ele>213.0</ele><time>2026-04-12T07:47:23Z</time></trkpt><trkpt lat="42.05869190563922" lon="11.98502443146267"><ele>212.33333333333334</ele><time>2026-04-12T07:47:25Z</time></trkpt><trkpt lat="42.0587589969392" lon="11.985002608318217"><ele>211.66666666666669</ele><time>2026-04-12T07:47:26Z</time></trkpt><trkpt lat="42.05885257508344" lon="11.984968187623915"><ele>211.0</ele><time>2026-04-12T07:47:27Z</time></trkpt><trkpt lat="42.058922799431244" lon="11.984929312822718"><ele>210.33333333333334</ele><time>2026-04-12T07:47:28Z</time></trkpt><trkpt lat="42.05904227179544" lon="11.984878261960766"><ele>209.66666666666669</ele><time>2026-04-12T07:47:30Z</time></trkpt><trkpt lat="42.059092865833136" lon="11.984792826646622"><ele>209.0</ele><time>2026-04-12T07:47:32Z</time></trkpt><trkpt lat="42.059137103651736" lon="11.984731193277108"><ele>213.0</ele><time>2026-04-12T07:47:35Z</time></trkpt><trkpt lat="42.05920310380766" lon="11.98475772807383"><ele>217.0</ele><time>2026-04-12T07:47:37Z</time></trkpt><trkpt lat="42.05924560766957" lon="11.984878380405501"><ele>220.99999999999997</ele><time>2026-04-12T07:47:39Z</time></trkpt><trkpt lat="42.059291648671575" lon="11.98499591423212"><ele>225.0</ele><time>2026-04-12T07:47:41Z</time></trkpt><trkpt lat="42.05937610778242" lon="11.985048833526736"><ele>229.0</ele><time>2026-04-12T07:47:42Z</time></trkpt><trkpt lat="42.05947571496825" lon="11.985071578041861"><ele>230.0</ele><time>2026-04-12T07:47:58.999Z</time></trkpt><trkpt lat="42.05954886363507" lon="11.985104918771954"><ele>230.99999999999997</ele><time>2026-04-12T07:48:03.999Z</time></trkpt><trkpt lat="42.05965059737326" lon="11.985134383132607"><ele>231.99999999999997</ele><time>2026-04-12T07:48:15.999Z</time></trkpt><trkpt lat="42.0596364967238" lon="11.985249256810354"><ele>233.0</ele><time>2026-04-12T07:48:17.999Z</time></trkpt><trkpt lat="42.059665028513486" lon="11.985353776072689"><ele>234.0</ele><time>2026-04-12T07:48:19.999Z</time></trkpt><trkpt lat="42.05975668525807" lon="11.985493762286929"><ele>234.0</ele><time>2026-04-12T07:48:21.999Z</time></trkpt><trkpt lat="42.05981126957743" lon="11.985557583580704"><ele>234.0</ele><time>2026-04-12T07:48:22.999Z</time></trkpt><trkpt lat="42.05992575316365" lon="11.98561918179182"><ele>234.0</ele><time>2026-04-12T07:48:24.999Z</time></trkpt><trkpt lat="42.05996019279745" lon="11.985726928792475"><ele>234.0</ele><time>2026-04-12T07:48:27.999Z</time></trkpt><trkpt lat="42.060002615698686" lon="11.985809446521564"><ele>234.0</ele><time>2026-04-12T07:48:29.999Z</time></trkpt><trkpt lat="42.06002695341271" lon="11.985907898146749"><ele>234.0</ele><time>2026-04-12T07:48:31.999Z</time></trkpt><trkpt lat="42.06011216456412" lon="11.98596675534445"><ele>240.16666666666666</ele><time>2026-04-12T07:48:33.999Z</time></trkpt><trkpt lat="42.060162300435096" lon="11.98605032511102"><ele>246.33333333333331</ele><time>2026-04-12T07:48:35.999Z</time></trkpt><trkpt lat="42.06021366316025" lon="11.98611168923156"><ele>252.5</ele><time>2026-04-12T07:48:37.999Z</time></trkpt><trkpt lat="42.06027361475158" lon="11.98615589108307"><ele>258.66666666666663</ele><time>2026-04-12T07:48:38.999Z</time></trkpt><trkpt lat="42.0603460468553" lon="11.986219138782689"><ele>264.8333333333333</ele><time>2026-04-12T07:48:40.999Z</time></trkpt><trkpt lat="42.060414637675464" lon="11.9862240476283"><ele>271.0</ele><time>2026-04-12T07:54:04.999Z</time></trkpt><trkpt lat="42.06050305318864" lon="11.986211833465743"><ele>271.0</ele><time>2026-04-12T07:54:06.999Z</time></trkpt><trkpt lat="42.06059441171901" lon="11.986180265155133"><ele>271.0</ele><time>2026-04-12T07:54:08.999Z</time></trkpt><trkpt lat="42.06066562274966" lon="11.986175969675541"><ele>271.0</ele><time>2026-04-12T07:54:10.999Z</time></trkpt><trkpt lat="42.060739078846915" lon="11.986192040957881"><ele>271.0</ele><time>2026-04-12T07:54:13.999Z</time></trkpt><trkpt lat="42.060859482092205" lon="11.986259647706914"><ele>271.0</ele><time>2026-04-12T07:54:16.999Z</time></trkpt><trkpt lat="42.060950320134104" lon="11.986337198753922"><ele>273.6</ele><time>2026-04-12T07:54:18.999Z</time></trkpt><trkpt lat="42.06106038903847" lon="11.986373439052612"><ele>276.20000000000005</ele><time>2026-04-12T07:54:20.999Z</time></trkpt><trkpt lat="42.06116896012455" lon="11.986362929748209"><ele>278.79999999999995</ele><time>2026-04-12T07:54:22.999Z</time></trkpt><trkpt lat="42.06125912715041" lon="11.986361470694755"><ele>281.4</ele><time>2026-04-12T07:54:24.999Z</time></trkpt><trkpt lat="42.06134173408596" lon="11.986385065772955"><ele>284.0</ele><time>2026-04-12T07:54:26.999Z</time></trkpt><trkpt lat="42.06142424830923" lon="11.986424426167671"><ele>284.0</ele><time>2026-04-12T07:54:28.999Z</time></trkpt><trkpt lat="42.061525553946645" lon="11.986469635783365"><ele>284.0</ele><time>2026-04-12T07:54:30.999Z</time></trkpt><trkpt lat="42.06161700197581" lon="11.986516674669732"><ele>284.0</ele><time>2026-04-12T07:54:32.999Z</time></trkpt><trkpt lat="42.06168204835638" lon="11.986531751704998"><ele>284.0</ele><time>2026-04-12T07:54:33.999Z</time></trkpt><trkpt lat="42.061774809691514" lon="11.98653900534128"><ele>284.0</ele><time>2026-04-12T07:54:34.999Z</time></trkpt><trkpt lat="42.06199726381284" lon="11.986529416462325"><ele>283.2</ele><time>2026-04-12T07:54:37.999Z</time></trkpt><trkpt lat="42.06210114246988" lon="11.986535867911998"><ele>282.4</ele><time>2026-04-12T07:54:39.999Z</time></trkpt><trkpt lat="42.062188959353364" lon="11.986553808093564"><ele>281.6</ele><time>2026-04-12T07:54:41.999Z</time></trkpt><trkpt lat="42.062281062228855" lon="11.986577742367757"><ele>280.8</ele><time>2026-04-12T07:54:44.999Z</time></trkpt><trkpt lat="42.06233756872701" lon="11.986657408494725"><ele>280.0</ele><time>2026-04-12T07:54:46.999Z</time></trkpt><trkpt lat="42.06247606402646" lon="11.986699248384607"><ele>280.0</ele><time>2026-04-12T07:54:49.999Z</time></trkpt><trkpt lat="42.062535293092495" lon="11.986742050380458"><ele>280.0</ele><time>2026-04-12T07:54:50.999Z</time></trkpt><trkpt lat="42.06262601988665" lon="11.986789068516474"><ele>280.0</ele><time>2026-04-12T07:54:52.999Z</time></trkpt><trkpt lat="42.062723351680155" lon="11.986839027821336"><ele>280.0</ele><time>2026-04-12T07:54:54.999Z</time></trkpt><trkpt lat="42.06283290097956" lon="11.986898860993406"><ele>280.0</ele><time>2026-04-12T07:54:56.999Z</time></trkpt><trkpt lat="42.06293568581949" lon="11.986951075919498"><ele>280.0</ele><time>2026-04-12T07:54:58.999Z</time></trkpt><trkpt lat="42.06303925445042" lon="11.987003476376573"><ele>280.0</ele><time>2026-04-12T07:55:00.999Z</time></trkpt><trkpt lat="42.06311747936642" lon="11.987053226458166"><ele>280.0</ele><time>2026-04-12T07:55:02.999Z</time></trkpt><trkpt lat="42.06318606848444" lon="11.987124783496023"><ele>280.0</ele><time>2026-04-12T07:55:04.999Z</time></trkpt><trkpt lat="42.063291741013565" lon="11.987182933480113"><ele>280.0</ele><time>2026-04-12T07:55:06.999Z</time></trkpt><trkpt lat="42.063371871107556" lon="11.987253679770422"><ele>279.8</ele><time>2026-04-12T07:55:08.999Z</time></trkpt><trkpt lat="42.06345406019243" lon="11.987309455894128"><ele>279.6</ele><time>2026-04-12T07:55:11Z</time></trkpt><trkpt lat="42.06352589393606" lon="11.987391955603028"><ele>279.4</ele><time>2026-04-12T07:55:13Z</time></trkpt><trkpt lat="42.06359853415948" lon="11.987507161322277"><ele>279.2</ele><time>2026-04-12T07:55:15Z</time></trkpt><trkpt lat="42.06365667355624" lon="11.987600925513739"><ele>279.0</ele><time>2026-04-12T07:55:17Z</time></trkpt><trkpt lat="42.06371487874316" lon="11.987698938388476"><ele>279.0</ele><time>2026-04-12T07:55:19Z</time></trkpt><trkpt lat="42.06376502318088" lon="11.987756310554275"><ele>279.0</ele><time>2026-04-12T07:55:21Z</time></trkpt><trkpt lat="42.06381546716423" lon="11.987850379669483"><ele>279.0</ele><time>2026-04-12T07:55:23Z</time></trkpt><trkpt lat="42.06385974014462" lon="11.987970783098556"><ele>279.0</ele><time>2026-04-12T07:55:25Z</time></trkpt><trkpt lat="42.063910057469116" lon="11.98808568344816"><ele>279.0</ele><time>2026-04-12T07:55:27Z</time></trkpt><trkpt lat="42.063927584771584" lon="11.988205258142033"><ele>279.0</ele><time>2026-04-12T07:55:29Z</time></trkpt><trkpt lat="42.063953295443916" lon="11.988284212257126"><ele>278.8333333333333</ele><time>2026-04-12T07:55:31Z</time></trkpt><trkpt lat="42.063975903829075" lon="11.988383486866725"><ele>278.6666666666667</ele><time>2026-04-12T07:55:42Z</time></trkpt><trkpt lat="42.06399539172654" lon="11.98847627167212"><ele>278.5</ele><time>2026-04-12T07:55:45Z</time></trkpt><trkpt lat="42.06403379412098" lon="11.988564572283936"><ele>278.33333333333337</ele><time>2026-04-12T07:55:49Z</time></trkpt><trkpt lat="42.064009649524316" lon="11.988647793025711"><ele>278.1666666666667</ele><time>2026-04-12T07:55:52Z</time></trkpt><trkpt lat="42.063934175194966" lon="11.988679395624926"><ele>278.0</ele><time>2026-04-12T07:55:55Z</time></trkpt><trkpt lat="42.06385872561053" lon="11.988751427686717"><ele>278.0</ele><time>2026-04-12T07:55:57Z</time></trkpt><trkpt lat="42.063824768062176" lon="11.988831332583437"><ele>278.0</ele><time>2026-04-12T07:56:00Z</time></trkpt><trkpt lat="42.06382579626405" lon="11.988920638413685"><ele>278.0</ele><time>2026-04-12T07:56:01Z</time></trkpt><trkpt lat="42.0638191734362" lon="11.989057352488299"><ele>278.0</ele><time>2026-04-12T07:56:03Z</time></trkpt><trkpt lat="42.06379753167369" lon="11.98918975964308"><ele>278.0</ele><time>2026-04-12T07:56:04Z</time></trkpt><trkpt lat="42.06377924463761" lon="11.98933406293572"><ele>278.0</ele><time>2026-04-12T07:56:05Z</time></trkpt><trkpt lat="42.063763169930716" lon="11.989457241350308"><ele>278.1666666666667</ele><time>2026-04-12T07:56:06Z</time></trkpt><trkpt lat="42.06375243483753" lon="11.98954270650885"><ele>278.33333333333337</ele><time>2026-04-12T07:56:07Z</time></trkpt><trkpt lat="42.06375177856219" lon="11.989643858843928"><ele>278.5</ele><time>2026-04-12T07:56:08Z</time></trkpt><trkpt lat="42.06379856055756" lon="11.989772069606994"><ele>278.6666666666667</ele><time>2026-04-12T07:56:09.999Z</time></trkpt><trkpt lat="42.06383791931068" lon="11.989874759464639"><ele>278.8333333333333</ele><time>2026-04-12T07:56:11.999Z</time></trkpt><trkpt lat="42.063850486031434" lon="11.98999602520764"><ele>279.0</ele><time>2026-04-12T07:56:13.999Z</time></trkpt><trkpt lat="42.06383523655278" lon="11.990087475786966"><ele>280.6666666666667</ele><time>2026-04-12T07:56:15.999Z</time></trkpt><trkpt lat="42.063835323102424" lon="11.99021996631521"><ele>282.3333333333333</ele><time>2026-04-12T07:56:18.999Z</time></trkpt><trkpt lat="42.06378689130251" lon="11.990322592164551"><ele>284.0</ele><time>2026-04-12T07:56:20.999Z</time></trkpt><trkpt lat="42.0637340397129" lon="11.99042432899008"><ele>285.66666666666663</ele><time>2026-04-12T07:56:30.999Z</time></trkpt><trkpt lat="42.06367633622381" lon="11.990504209111691"><ele>287.3333333333333</ele><time>2026-04-12T07:56:32.999Z</time></trkpt><trkpt lat="42.0636119815587" lon="11.990575369335467"><ele>289.0</ele><time>2026-04-12T07:56:34.999Z</time></trkpt><trkpt lat="42.06353603101388" lon="11.990666269738703"><ele>289.0</ele><time>2026-04-12T07:56:36.999Z</time></trkpt><trkpt lat="42.0634715116463" lon="11.990772647807129"><ele>289.0</ele><time>2026-04-12T07:56:38.999Z</time></trkpt><trkpt lat="42.063394579727884" lon="11.990801937422226"><ele>289.0</ele><time>2026-04-12T07:56:40.999Z</time></trkpt><trkpt lat="42.06333207894656" lon="11.990814519842921"><ele>289.0</ele><time>2026-04-12T07:56:41.999Z</time></trkpt><trkpt lat="42.06322585217697" lon="11.990880099228516"><ele>289.0</ele><time>2026-04-12T07:56:43.999Z</time></trkpt><trkpt lat="42.063112602278444" lon="11.990948991593502"><ele>290.66666666666663</ele><time>2026-04-12T07:56:45.999Z</time></trkpt><trkpt lat="42.06304520369993" lon="11.990980791442109"><ele>292.3333333333333</ele><time>2026-04-12T07:56:46.999Z</time></trkpt><trkpt lat="42.062953544442294" lon="11.991024407225604"><ele>294.0</ele><time>2026-04-12T07:56:47.999Z</time></trkpt><trkpt lat="42.06286258684969" lon="11.991051852940059"><ele>295.6666666666667</ele><time>2026-04-12T07:56:48.999Z</time></trkpt><trkpt lat="42.0627939922373" lon="11.991101541553826"><ele>297.33333333333337</ele><time>2026-04-12T07:56:49.999Z</time></trkpt><trkpt lat="42.06274389702758" lon="11.991161519567225"><ele>299.0</ele><time>2026-04-12T07:56:50.999Z</time></trkpt><trkpt lat="42.06266753947911" lon="11.991288370804636"><ele>299.0</ele><time>2026-04-12T07:56:52.999Z</time></trkpt><trkpt lat="42.062611351142465" lon="11.991383435697418"><ele>299.0</ele><time>2026-04-12T07:56:53.999Z</time></trkpt><trkpt lat="42.062560163974766" lon="11.991477662418724"><ele>299.0</ele><time>2026-04-12T07:56:54.999Z</time></trkpt><trkpt lat="42.06250189399419" lon="11.991610095817412"><ele>299.0</ele><time>2026-04-12T07:56:56.999Z</time></trkpt><trkpt lat="42.06247991931263" lon="11.991728780029762"><ele>299.0</ele><time>2026-04-12T07:56:58.999Z</time></trkpt><trkpt lat="42.062497266042065" lon="11.991844248812605"><ele>299.2</ele><time>2026-04-12T07:57:00.999Z</time></trkpt><trkpt lat="42.062525246769184" lon="11.991931373126674"><ele>299.4</ele><time>2026-04-12T07:57:02.999Z</time></trkpt><trkpt lat="42.06265586782383" lon="11.991974807493254"><ele>299.6</ele><time>2026-04-12T07:57:05.999Z</time></trkpt><trkpt lat="42.06278078146539" lon="11.992038732796358"><ele>299.8</ele><time>2026-04-12T07:57:07.999Z</time></trkpt><trkpt lat="42.06287848163555" lon="11.992081061469463"><ele>300.0</ele><time>2026-04-12T07:57:08.999Z</time></trkpt><trkpt lat="42.06294740807296" lon="11.992132916441529"><ele>300.0</ele><time>2026-04-12T07:57:09.999Z</time></trkpt><trkpt lat="42.06300720762316" lon="11.992180832260669"><ele>300.0</ele><time>2026-04-12T07:57:10.999Z</time></trkpt><trkpt lat="42.06307606802759" lon="11.992227516668569"><ele>300.0</ele><time>2026-04-12T07:57:11.999Z</time></trkpt><trkpt lat="42.06315657838606" lon="11.992277140145388"><ele>300.0</ele><time>2026-04-12T07:57:12.999Z</time></trkpt><trkpt lat="42.06324908357855" lon="11.992334261497405"><ele>300.0</ele><time>2026-04-12T07:57:13.999Z</time></trkpt><trkpt lat="42.06332105578298" lon="11.992403142399068"><ele>300.0</ele><time>2026-04-12T07:57:14.999Z</time></trkpt><trkpt lat="42.06340487962077" lon="11.992458255894526"><ele>301.1666666666667</ele><time>2026-04-12T07:57:15.999Z</time></trkpt><trkpt lat="42.06347195000745" lon="11.992516659629864"><ele>302.3333333333333</ele><time>2026-04-12T07:57:17Z</time></trkpt><trkpt lat="42.06353227320523" lon="11.99260008767649"><ele>303.5</ele><time>2026-04-12T07:57:18Z</time></trkpt><trkpt lat="42.06358400598949" lon="11.992682056821586"><ele>304.66666666666663</ele><time>2026-04-12T07:57:19Z</time></trkpt><trkpt lat="42.06364333043445" lon="11.992736971023833"><ele>305.8333333333333</ele><time>2026-04-12T07:57:20Z</time></trkpt><trkpt lat="42.06370678966312" lon="11.992780095336697"><ele>307.0</ele><time>2026-04-12T07:57:21Z</time></trkpt><trkpt lat="42.06376059740038" lon="11.992830851052082"><ele>307.0</ele><time>2026-04-12T07:57:22Z</time></trkpt><trkpt lat="42.06381919958978" lon="11.992884911785575"><ele>307.0</ele><time>2026-04-12T07:57:23Z</time></trkpt><trkpt lat="42.06387093910647" lon="11.992940904291366"><ele>307.0</ele><time>2026-04-12T07:57:24Z</time></trkpt><trkpt lat="42.06392537435189" lon="11.99299887240192"><ele>307.0</ele><time>2026-04-12T07:57:25Z</time></trkpt><trkpt lat="42.063971729819805" lon="11.993066881493997"><ele>307.0</ele><time>2026-04-12T07:57:26Z</time></trkpt><trkpt lat="42.06406300125578" lon="11.993134385371016"><ele>307.0</ele><time>2026-04-12T07:57:28Z</time></trkpt><trkpt lat="42.06414816349423" lon="11.993059767222562"><ele>308.8333333333333</ele><time>2026-04-12T07:57:30Z</time></trkpt><trkpt lat="42.06426006046416" lon="11.99299456541681"><ele>310.66666666666663</ele><time>2026-04-12T07:57:32Z</time></trkpt><trkpt lat="42.06433494452569" lon="11.99297486701357"><ele>312.5</ele><time>2026-04-12T07:57:33Z</time></trkpt><trkpt lat="42.064412796838575" lon="11.992959411209167"><ele>314.3333333333333</ele><time>2026-04-12T07:57:34Z</time></trkpt><trkpt lat="42.06450028124375" lon="11.992943264794633"><ele>316.1666666666667</ele><time>2026-04-12T07:57:35Z</time></trkpt><trkpt lat="42.06457474797781" lon="11.99292635864546"><ele>318.0</ele><time>2026-04-12T07:57:36Z</time></trkpt><trkpt lat="42.064661211632576" lon="11.992898930685184"><ele>318.0</ele><time>2026-04-12T07:57:37Z</time></trkpt><trkpt lat="42.06473941569818" lon="11.992884468949654"><ele>318.0</ele><time>2026-04-12T07:57:38Z</time></trkpt><trkpt lat="42.06481154067965" lon="11.992877212240808"><ele>318.0</ele><time>2026-04-12T07:57:39Z</time></trkpt><trkpt lat="42.064876429853335" lon="11.992877372945195"><ele>318.0</ele><time>2026-04-12T07:57:40Z</time></trkpt><trkpt lat="42.06494539839597" lon="11.992880066558198"><ele>318.0</ele><time>2026-04-12T07:57:41Z</time></trkpt><trkpt lat="42.065029498545094" lon="11.992877347846187"><ele>318.0</ele><time>2026-04-12T07:57:42Z</time></trkpt><trkpt lat="42.06510889078735" lon="11.99287839604143"><ele>318.0</ele><time>2026-04-12T07:57:43Z</time></trkpt><trkpt lat="42.06517488193422" lon="11.992877111228783"><ele>319.2857142857143</ele><time>2026-04-12T07:57:44Z</time></trkpt><trkpt lat="42.065239014048665" lon="11.992883254072877"><ele>320.5714285714286</ele><time>2026-04-12T07:57:45Z</time></trkpt><trkpt lat="42.065298713007294" lon="11.992915813720465"><ele>321.8571428571429</ele><time>2026-04-12T07:57:46Z</time></trkpt><trkpt lat="42.065382480273385" lon="11.99294223577306"><ele>323.1428571428571</ele><time>2026-04-12T07:57:47Z</time></trkpt><trkpt lat="42.06547370699614" lon="11.992945440523966"><ele>324.42857142857144</ele><time>2026-04-12T07:57:48Z</time></trkpt><trkpt lat="42.065544186166846" lon="11.992933675679383"><ele>325.7142857142857</ele><time>2026-04-12T07:57:49Z</time></trkpt><trkpt lat="42.06561484961452" lon="11.992927848247298"><ele>327.0</ele><time>2026-04-12T07:57:50Z</time></trkpt><trkpt lat="42.065686165692924" lon="11.992953061699337"><ele>327.0</ele><time>2026-04-12T07:57:51Z</time></trkpt><trkpt lat="42.06577283561162" lon="11.992982160665363"><ele>327.0</ele><time>2026-04-12T07:57:52Z</time></trkpt><trkpt lat="42.06587183315054" lon="11.993012407621269"><ele>327.0</ele><time>2026-04-12T07:57:53Z</time></trkpt><trkpt lat="42.06596169461013" lon="11.99304419053439"><ele>327.0</ele><time>2026-04-12T07:57:54Z</time></trkpt><trkpt lat="42.066043499607844" lon="11.993079763596487"><ele>327.0</ele><time>2026-04-12T07:57:55Z</time></trkpt><trkpt lat="42.06612796478113" lon="11.99313193503108"><ele>328.5</ele><time>2026-04-12T07:57:56Z</time></trkpt><trkpt lat="42.066210459441535" lon="11.993192396659436"><ele>330.0</ele><time>2026-04-12T07:57:57Z</time></trkpt><trkpt lat="42.06627583092553" lon="11.993264543987728"><ele>331.5</ele><time>2026-04-12T07:57:58Z</time></trkpt><trkpt lat="42.066345381474854" lon="11.993321271162444"><ele>333.0</ele><time>2026-04-12T07:57:59Z</time></trkpt><trkpt lat="42.06639982250023" lon="11.99336764958389"><ele>334.5</ele><time>2026-04-12T07:58:00Z</time></trkpt><trkpt lat="42.06648997486523" lon="11.99345083610483"><ele>336.0</ele><time>2026-04-12T07:58:02Z</time></trkpt><trkpt lat="42.066605257320504" lon="11.993491214692762"><ele>339.6</ele><time>2026-04-12T07:58:04Z</time></trkpt><trkpt lat="42.066683261074175" lon="11.993512293598734"><ele>343.20000000000005</ele><time>2026-04-12T07:58:05Z</time></trkpt><trkpt lat="42.066781379302185" lon="11.993580340038802"><ele>346.79999999999995</ele><time>2026-04-12T07:58:07Z</time></trkpt><trkpt lat="42.06688026892647" lon="11.993655386051994"><ele>350.4</ele><time>2026-04-12T07:58:09Z</time></trkpt><trkpt lat="42.06694324179644" lon="11.99366315915186"><ele>354.0</ele><time>2026-04-12T07:58:10Z</time></trkpt><trkpt lat="42.067031373880795" lon="11.993716822138092"><ele>354.0</ele><time>2026-04-12T07:58:12Z</time></trkpt><trkpt lat="42.06709743000312" lon="11.993741676937523"><ele>354.0</ele><time>2026-04-12T07:58:13Z</time></trkpt><trkpt lat="42.06717835574768" lon="11.993767255547265"><ele>354.0</ele><time>2026-04-12T07:58:14.999Z</time></trkpt><trkpt lat="42.067260495552084" lon="11.993787764807642"><ele>354.0</ele><time>2026-04-12T07:58:16.999Z</time></trkpt><trkpt lat="42.06733188440367" lon="11.993825650174676"><ele>354.0</ele><time>2026-04-12T07:58:17.999Z</time></trkpt><trkpt lat="42.06743467477888" lon="11.993883281320569"><ele>354.0</ele><time>2026-04-12T07:58:19.999Z</time></trkpt><trkpt lat="42.06750206194952" lon="11.993905465134555"><ele>356.8333333333333</ele><time>2026-04-12T07:58:20.999Z</time></trkpt><trkpt lat="42.06758693970656" lon="11.9939362816152"><ele>359.6666666666667</ele><time>2026-04-12T07:58:21.999Z</time></trkpt><trkpt lat="42.067651399791366" lon="11.99395604047401"><ele>362.5</ele><time>2026-04-12T07:58:22.999Z</time></trkpt><trkpt lat="42.06772277395113" lon="11.993958108455582"><ele>365.33333333333337</ele><time>2026-04-12T07:58:23.999Z</time></trkpt><trkpt lat="42.067801043361754" lon="11.993947419212377"><ele>368.1666666666667</ele><time>2026-04-12T07:58:24.999Z</time></trkpt><trkpt lat="42.06788386241794" lon="11.993918306123517"><ele>371.0</ele><time>2026-04-12T07:58:25.999Z</time></trkpt><trkpt lat="42.067969620967915" lon="11.993879025571134"><ele>371.0</ele><time>2026-04-12T07:58:26.999Z</time></trkpt><trkpt lat="42.06803706533801" lon="11.993844473649736"><ele>371.0</ele><time>2026-04-12T07:58:27.999Z</time></trkpt><trkpt lat="42.06814453145905" lon="11.993779498337675"><ele>371.0</ele><time>2026-04-12T07:58:29.999Z</time></trkpt><trkpt lat="42.06821980952982" lon="11.993738322679157"><ele>371.0</ele><time>2026-04-12T07:58:30.999Z</time></trkpt><trkpt lat="42.06830768204521" lon="11.993696320983108"><ele>371.0</ele><time>2026-04-12T07:58:31.999Z</time></trkpt><trkpt lat="42.06841340960627" lon="11.993690808949424"><ele>372.0</ele><time>2026-04-12T07:58:32.999Z</time></trkpt><trkpt lat="42.068650578614786" lon="11.99368171594859"><ele>373.0</ele><time>2026-04-12T07:58:35.999Z</time></trkpt><trkpt lat="42.06873596622705" lon="11.993680967700465"><ele>374.0</ele><time>2026-04-12T07:58:36.999Z</time></trkpt><trkpt lat="42.068819990047515" lon="11.993688647781592"><ele>375.0</ele><time>2026-04-12T07:58:37.999Z</time></trkpt><trkpt lat="42.0688956623785" lon="11.993706227824195"><ele>375.0</ele><time>2026-04-12T07:58:38.999Z</time></trkpt><trkpt lat="42.06898134895828" lon="11.993738256459288"><ele>375.0</ele><time>2026-04-12T07:58:39.999Z</time></trkpt><trkpt lat="42.06907955349178" lon="11.993759733784188"><ele>375.0</ele><time>2026-04-12T07:58:40.999Z</time></trkpt><trkpt lat="42.06917286227113" lon="11.993768608639604"><ele>375.0</ele><time>2026-04-12T07:58:41.999Z</time></trkpt><trkpt lat="42.069278268745954" lon="11.993783758460161"><ele>375.0</ele><time>2026-04-12T07:58:42.999Z</time></trkpt><trkpt lat="42.06937062009359" lon="11.993801055213675"><ele>375.6666666666667</ele><time>2026-04-12T07:58:43.999Z</time></trkpt><trkpt lat="42.06946222782265" lon="11.993825025618115"><ele>376.3333333333333</ele><time>2026-04-12T07:58:44.999Z</time></trkpt><trkpt lat="42.069554067613325" lon="11.99386432932579"><ele>377.0</ele><time>2026-04-12T07:58:45.999Z</time></trkpt><trkpt lat="42.06961340495464" lon="11.993919930624296"><ele>377.66666666666663</ele><time>2026-04-12T07:58:46.999Z</time></trkpt><trkpt lat="42.06968579233793" lon="11.994016718309863"><ele>378.3333333333333</ele><time>2026-04-12T07:58:48.999Z</time></trkpt><trkpt lat="42.069740881341815" lon="11.994067638660558"><ele>379.0</ele><time>2026-04-12T07:58:51.999Z</time></trkpt><trkpt lat="42.06980713190209" lon="11.994168463596852"><ele>380.16666666666663</ele><time>2026-04-12T07:59:13.999Z</time></trkpt><trkpt lat="42.06985446365679" lon="11.994237671130488"><ele>381.3333333333333</ele><time>2026-04-12T07:59:14.999Z</time></trkpt><trkpt lat="42.069905722969416" lon="11.994304174697545"><ele>382.5</ele><time>2026-04-12T07:59:15.999Z</time></trkpt><trkpt lat="42.06997547421564" lon="11.994360939959966"><ele>383.66666666666663</ele><time>2026-04-12T07:59:16.999Z</time></trkpt><trkpt lat="42.07003366989517" lon="11.99440194850852"><ele>384.8333333333333</ele><time>2026-04-12T07:59:17.999Z</time></trkpt><trkpt lat="42.070156794000646" lon="11.994433014613913"><ele>386.0</ele><time>2026-04-12T07:59:19.999Z</time></trkpt><trkpt lat="42.07026781814201" lon="11.994468192760786"><ele>385.99999999999994</ele><time>2026-04-12T07:59:21.999Z</time></trkpt><trkpt lat="42.070345014239294" lon="11.994524020265196"><ele>386.0</ele><time>2026-04-12T07:59:24Z</time></trkpt><trkpt lat="42.070381435832736" lon="11.994635880120118"><ele>386.0</ele><time>2026-04-12T07:59:26Z</time></trkpt><trkpt lat="42.0704042476584" lon="11.99471726179203"><ele>386.0</ele><time>2026-04-12T07:59:28Z</time></trkpt><trkpt lat="42.07045173444138" lon="11.994777728661516"><ele>385.99999999999994</ele><time>2026-04-12T07:59:30Z</time></trkpt><trkpt lat="42.07051431384589" lon="11.99485739106605"><ele>386.0</ele><time>2026-04-12T07:59:32Z</time></trkpt><trkpt lat="42.07056573883462" lon="11.994936868596648"><ele>385.3333333333333</ele><time>2026-04-12T07:59:34Z</time></trkpt><trkpt lat="42.07063906610538" lon="11.995051064924818"><ele>384.66666666666663</ele><time>2026-04-12T07:59:36Z</time></trkpt><trkpt lat="42.070710571835875" lon="11.995085277525567"><ele>384.0</ele><time>2026-04-12T07:59:38Z</time></trkpt><trkpt lat="42.07079671458099" lon="11.995125929238563"><ele>383.3333333333333</ele><time>2026-04-12T07:59:40Z</time></trkpt><trkpt lat="42.07087999118157" lon="11.995050993602282"><ele>382.66666666666663</ele><time>2026-04-12T07:59:42Z</time></trkpt><trkpt lat="42.0709433891933" lon="11.995016655535872"><ele>382.0</ele><time>2026-04-12T07:59:43Z</time></trkpt><trkpt lat="42.0710511399959" lon="11.994963880175664"><ele>387.20000000000005</ele><time>2026-04-12T07:59:45Z</time></trkpt><trkpt lat="42.071183038239845" lon="11.994934984472104"><ele>392.4</ele><time>2026-04-12T07:59:47Z</time></trkpt><trkpt lat="42.071268647356014" lon="11.994923569627487"><ele>397.6</ele><time>2026-04-12T07:59:48Z</time></trkpt><trkpt lat="42.07134444917703" lon="11.99490300436925"><ele>402.79999999999995</ele><time>2026-04-12T07:59:49Z</time></trkpt><trkpt lat="42.07143822320231" lon="11.994859233234607"><ele>408.0</ele><time>2026-04-12T07:59:51Z</time></trkpt><trkpt lat="42.07151618475233" lon="11.994841473823977"><ele>408.0</ele><time>2026-04-12T07:59:53Z</time></trkpt><trkpt lat="42.07160120722909" lon="11.994822295252982"><ele>408.0</ele><time>2026-04-12T07:59:55Z</time></trkpt><trkpt lat="42.07166792237881" lon="11.994815413389786"><ele>408.0</ele><time>2026-04-12T07:59:57Z</time></trkpt><trkpt lat="42.071726453281535" lon="11.994745847757672"><ele>408.0</ele><time>2026-04-12T08:00:00Z</time></trkpt><trkpt lat="42.071734420062626" lon="11.994649621949751"><ele>408.0</ele><time>2026-04-12T08:00:01Z</time></trkpt><trkpt lat="42.07174069875357" lon="11.994533520601543"><ele>408.0</ele><time>2026-04-12T08:00:03Z</time></trkpt><trkpt lat="42.0717892561245" lon="11.99442600652356"><ele>411.0</ele><time>2026-04-12T08:00:05Z</time></trkpt><trkpt lat="42.07188331800414" lon="11.994531980302932"><ele>414.0</ele><time>2026-04-12T08:00:07Z</time></trkpt><trkpt lat="42.07196505902774" lon="11.994589842323125"><ele>417.0</ele><time>2026-04-12T08:00:09Z</time></trkpt><trkpt lat="42.07205459053854" lon="11.994596277249665"><ele>420.0</ele><time>2026-04-12T08:00:10Z</time></trkpt><trkpt lat="42.07217291486464" lon="11.994613048911265"><ele>423.0</ele><time>2026-04-12T08:00:12Z</time></trkpt><trkpt lat="42.07224118386166" lon="11.994640814101052"><ele>423.0</ele><time>2026-04-12T08:00:13Z</time></trkpt><trkpt lat="42.072303958614725" lon="11.994630745677208"><ele>423.0</ele><time>2026-04-12T08:00:15Z</time></trkpt><trkpt lat="42.07237947637054" lon="11.99455544209747"><ele>423.0</ele><time>2026-04-12T08:00:18Z</time></trkpt><trkpt lat="42.072458292610534" lon="11.99447923601139"><ele>423.0</ele><time>2026-04-12T08:00:22.999Z</time></trkpt><trkpt lat="42.072511137829416" lon="11.99439803763458"><ele>423.0</ele><time>2026-04-12T08:00:24.999Z</time></trkpt><trkpt lat="42.0726099563685" lon="11.994327486869173"><ele>423.0</ele><time>2026-04-12T08:00:25.999Z</time></trkpt><trkpt lat="42.072693698942885" lon="11.99421554356521"><ele>428.0</ele><time>2026-04-12T08:00:26.999Z</time></trkpt><trkpt lat="42.072788255890856" lon="11.994149970761827"><ele>433.0</ele><time>2026-04-12T08:00:28.999Z</time></trkpt><trkpt lat="42.072772108557096" lon="11.994046181239232"><ele>438.0</ele><time>2026-04-12T08:00:30.999Z</time></trkpt><trkpt lat="42.072788339064694" lon="11.993949314220092"><ele>443.0</ele><time>2026-04-12T08:00:32.999Z</time></trkpt><trkpt lat="42.0727688425573" lon="11.993856661789517"><ele>448.0</ele><time>2026-04-12T08:00:34.999Z</time></trkpt><trkpt lat="42.07276056417714" lon="11.993771715296422"><ele>453.0</ele><time>2026-04-12T08:00:36.999Z</time></trkpt><trkpt lat="42.07282752577345" lon="11.993845431555387"><ele>453.0</ele><time>2026-04-12T08:00:57.999Z</time></trkpt><trkpt lat="42.07278883199261" lon="11.993942264961293"><ele>453.0</ele><time>2026-04-12T08:01:00.999Z</time></trkpt><trkpt lat="42.07278294359086" lon="11.994049152816316"><ele>453.0</ele><time>2026-04-12T08:01:03.999Z</time></trkpt><trkpt lat="42.07278124159533" lon="11.994180323628363"><ele>453.0</ele><time>2026-04-12T08:01:06.999Z</time></trkpt><trkpt lat="42.072776245459" lon="11.994270265999308"><ele>453.0</ele><time>2026-04-12T08:01:08.999Z</time></trkpt><trkpt lat="42.07277508171489" lon="11.994364123886736"><ele>453.0</ele><time>2026-04-12T08:01:10.999Z</time></trkpt><trkpt lat="42.07278639028028" lon="11.994465676488765"><ele>450.8571428571428</ele><time>2026-04-12T08:01:12.999Z</time></trkpt><trkpt lat="42.07283290280518" lon="11.994531175397785"><ele>448.71428571428567</ele><time>2026-04-12T08:01:15.999Z</time></trkpt><trkpt lat="42.07288125775148" lon="11.994617209628444"><ele>446.57142857142856</ele><time>2026-04-12T08:01:18.999Z</time></trkpt><trkpt lat="42.07286146171848" lon="11.994707392119667"><ele>444.4285714285714</ele><time>2026-04-12T08:01:20.999Z</time></trkpt><trkpt lat="42.0728796429023" lon="11.994791241390883"><ele>442.2857142857142</ele><time>2026-04-12T08:01:22.999Z</time></trkpt><trkpt lat="42.07291838977791" lon="11.994889204151745"><ele>440.14285714285717</ele><time>2026-04-12T08:01:25.999Z</time></trkpt><trkpt lat="42.07293835388271" lon="11.99498508956668"><ele>438.0</ele><time>2026-04-12T08:01:27.999Z</time></trkpt><trkpt lat="42.07300166337336" lon="11.995034672639992"><ele>435.5</ele><time>2026-04-12T08:01:29Z</time></trkpt><trkpt lat="42.07301310431989" lon="11.995176134713077"><ele>433.0</ele><time>2026-04-12T08:01:34Z</time></trkpt><trkpt lat="42.07310553548356" lon="11.995267344054943"><ele>430.5</ele><time>2026-04-12T08:01:35Z</time></trkpt><trkpt lat="42.07317270454189" lon="11.995297463237604"><ele>428.0</ele><time>2026-04-12T08:01:36Z</time></trkpt><trkpt lat="42.07322767430137" lon="11.995341720229291"><ele>425.5</ele><time>2026-04-12T08:01:37Z</time></trkpt><trkpt lat="42.073311618488916" lon="11.995372353504475"><ele>423.0</ele><time>2026-04-12T08:01:38Z</time></trkpt><trkpt lat="42.07341081386117" lon="11.995380272899226"><ele>423.0</ele><time>2026-04-12T08:01:45Z</time></trkpt><trkpt lat="42.07351493647745" lon="11.995483872456305"><ele>423.0</ele><time>2026-04-12T08:01:46Z</time></trkpt><trkpt lat="42.07351311018777" lon="11.995572387993915"><ele>423.0</ele><time>2026-04-12T08:01:50Z</time></trkpt><trkpt lat="42.07358987596617" lon="11.995606034505133"><ele>423.0</ele><time>2026-04-12T08:01:53Z</time></trkpt><trkpt lat="42.07367556702019" lon="11.995640749741584"><ele>423.0</ele><time>2026-04-12T08:01:54Z</time></trkpt><trkpt lat="42.07375063246144" lon="11.995669619976129"><ele>423.0</ele><time>2026-04-12T08:01:55Z</time></trkpt><trkpt lat="42.07381470544234" lon="11.995697308504614"><ele>423.0</ele><time>2026-04-12T08:01:56Z</time></trkpt><trkpt lat="42.073901861388826" lon="11.995684651537413"><ele>423.0</ele><time>2026-04-12T08:01:58Z</time></trkpt><trkpt lat="42.07397759048527" lon="11.995730416720177"><ele>423.0</ele><time>2026-04-12T08:02:00Z</time></trkpt><trkpt lat="42.074046562571894" lon="11.995787434882882"><ele>423.0</ele><time>2026-04-12T08:02:02Z</time></trkpt><trkpt lat="42.07409395937992" lon="11.99584998561019"><ele>423.0</ele><time>2026-04-12T08:02:03Z</time></trkpt><trkpt lat="42.07401934716947" lon="11.995851144599413"><ele>423.0</ele><time>2026-04-12T08:02:04Z</time></trkpt><trkpt lat="42.0740825491232" lon="11.995839413590181"><ele>421.5</ele><time>2026-04-12T08:02:06Z</time></trkpt><trkpt lat="42.07416674021761" lon="11.995817118283266"><ele>420.0</ele><time>2026-04-12T08:02:08Z</time></trkpt><trkpt lat="42.0742326675843" lon="11.995865643051507"><ele>418.5</ele><time>2026-04-12T08:02:10Z</time></trkpt><trkpt lat="42.074315565009854" lon="11.995895509508966"><ele>417.0</ele><time>2026-04-12T08:05:31.999Z</time></trkpt><trkpt lat="42.07440635567179" lon="11.99596604093789"><ele>415.5</ele><time>2026-04-12T08:05:34.999Z</time></trkpt><trkpt lat="42.07447117281617" lon="11.9960215569494"><ele>414.0</ele><time>2026-04-12T08:05:36.999Z</time></trkpt><trkpt lat="42.07455869044859" lon="11.996100825121609"><ele>414.0</ele><time>2026-04-12T08:05:38.999Z</time></trkpt><trkpt lat="42.0746590689755" lon="11.996122352994535"><ele>414.0</ele><time>2026-04-12T08:05:41Z</time></trkpt><trkpt lat="42.07481047103448" lon="11.99610263273035"><ele>414.0</ele><time>2026-04-12T08:05:43Z</time></trkpt><trkpt lat="42.07488885488763" lon="11.996077991036922"><ele>414.0</ele><time>2026-04-12T08:05:44Z</time></trkpt><trkpt lat="42.07496568954762" lon="11.996071719551491"><ele>414.0</ele><time>2026-04-12T08:05:45Z</time></trkpt><trkpt lat="42.07507849352157" lon="11.996086166347222"><ele>413.3333333333333</ele><time>2026-04-12T08:05:47Z</time></trkpt><trkpt lat="42.075189374195844" lon="11.996150430176876"><ele>412.66666666666663</ele><time>2026-04-12T08:05:49Z</time></trkpt><trkpt lat="42.07523601767904" lon="11.996210097490133"><ele>412.0</ele><time>2026-04-12T08:05:51Z</time></trkpt><trkpt lat="42.075249513071974" lon="11.996303425426419"><ele>411.3333333333333</ele><time>2026-04-12T08:05:53Z</time></trkpt><trkpt lat="42.0752058387112" lon="11.996395685345696"><ele>410.66666666666663</ele><time>2026-04-12T08:05:54Z</time></trkpt><trkpt lat="42.075273964080914" lon="11.99648455376031"><ele>410.0</ele><time>2026-04-12T08:05:56Z</time></trkpt><trkpt lat="42.075327644572255" lon="11.996549566402706"><ele>410.0</ele><time>2026-04-12T08:05:57Z</time></trkpt><trkpt lat="42.075396618194425" lon="11.996617185482119"><ele>410.0</ele><time>2026-04-12T08:05:59Z</time></trkpt><trkpt lat="42.07545789957189" lon="11.996675734093484"><ele>410.0</ele><time>2026-04-12T08:06:00Z</time></trkpt><trkpt lat="42.07554200992897" lon="11.996805630415365"><ele>410.0</ele><time>2026-04-12T08:06:02Z</time></trkpt><trkpt lat="42.075647987045066" lon="11.996882457906844"><ele>410.0</ele><time>2026-04-12T08:06:04Z</time></trkpt><trkpt lat="42.07576641394643" lon="11.996911436237495"><ele>409.0</ele><time>2026-04-12T08:06:06Z</time></trkpt><trkpt lat="42.075929702806924" lon="11.996931219229857"><ele>408.0</ele><time>2026-04-12T08:06:08Z</time></trkpt><trkpt lat="42.07598547955979" lon="11.996974244290092"><ele>407.0</ele><time>2026-04-12T08:06:10Z</time></trkpt><trkpt lat="42.07604968285544" lon="11.997034095662952"><ele>406.0</ele><time>2026-04-12T08:06:11Z</time></trkpt><trkpt lat="42.07613826161815" lon="11.997151023575778"><ele>405.0</ele><time>2026-04-12T08:06:13Z</time></trkpt><trkpt lat="42.076158152750104" lon="11.997263237809431"><ele>405.0</ele><time>2026-04-12T08:06:15Z</time></trkpt><trkpt lat="42.07624297218654" lon="11.997376286666157"><ele>405.0</ele><time>2026-04-12T08:06:17Z</time></trkpt><trkpt lat="42.076303561095116" lon="11.99744814740795"><ele>405.0</ele><time>2026-04-12T08:06:18Z</time></trkpt><trkpt lat="42.076375982244215" lon="11.99756238623168"><ele>405.0</ele><time>2026-04-12T08:06:20Z</time></trkpt><trkpt lat="42.076446071673146" lon="11.997644364279845"><ele>405.0</ele><time>2026-04-12T08:06:22Z</time></trkpt><trkpt lat="42.07652333524398" lon="11.997659357102366"><ele>405.0</ele><time>2026-04-12T08:06:29Z</time></trkpt><trkpt lat="42.076466816536666" lon="11.997551446623792"><ele>405.0</ele><time>2026-04-12T08:06:34Z</time></trkpt><trkpt lat="42.07642226214618" lon="11.997464460750162"><ele>405.0</ele><time>2026-04-12T08:06:36Z</time></trkpt><trkpt lat="42.07640122911819" lon="11.997354211191002"><ele>405.0</ele><time>2026-04-12T08:06:41.999Z</time></trkpt><trkpt lat="42.076429167273744" lon="11.997258302168646"><ele>405.0</ele><time>2026-04-12T08:06:43.999Z</time></trkpt><trkpt lat="42.07648765010869" lon="11.99718607740826"><ele>405.0</ele><time>2026-04-12T08:06:45.999Z</time></trkpt><trkpt lat="42.07648154741001" lon="11.997032629967773"><ele>405.0</ele><time>2026-04-12T08:06:47.999Z</time></trkpt><trkpt lat="42.076494486925206" lon="11.996922076685538"><ele>405.0</ele><time>2026-04-12T08:06:49.999Z</time></trkpt><trkpt lat="42.07650326812125" lon="11.996820344451123"><ele>405.0</ele><time>2026-04-12T08:06:51.999Z</time></trkpt><trkpt lat="42.076511195115536" lon="11.996733442483947"><ele>405.0</ele><time>2026-04-12T08:06:53.999Z</time></trkpt><trkpt lat="42.076501977421614" lon="11.996599049865521"><ele>405.0</ele><time>2026-04-12T08:06:54.999Z</time></trkpt><trkpt lat="42.07651761371648" lon="11.996496817943896"><ele>405.0</ele><time>2026-04-12T08:06:55.999Z</time></trkpt><trkpt lat="42.076540973675804" lon="11.996417706148234"><ele>403.4</ele><time>2026-04-12T08:06:56.999Z</time></trkpt><trkpt lat="42.07658105318161" lon="11.996336493858477"><ele>401.8</ele><time>2026-04-12T08:06:59.999Z</time></trkpt><trkpt lat="42.076601373878674" lon="11.996161671404819"><ele>400.20000000000005</ele><time>2026-04-12T08:07:01.999Z</time></trkpt><trkpt lat="42.07661685061465" lon="11.996046903218708"><ele>398.6</ele><time>2026-04-12T08:07:02.999Z</time></trkpt><trkpt lat="42.076638710721255" lon="11.995931467444521"><ele>397.0</ele><time>2026-04-12T08:07:03.999Z</time></trkpt><trkpt lat="42.07663678774441" lon="11.995832954256207"><ele>395.00000000000006</ele><time>2026-04-12T08:07:04.999Z</time></trkpt><trkpt lat="42.076686960239215" lon="11.995767026143385"><ele>393.0</ele><time>2026-04-12T08:07:05.999Z</time></trkpt><trkpt lat="42.076749204594165" lon="11.995632627649849"><ele>391.0</ele><time>2026-04-12T08:07:07.999Z</time></trkpt><trkpt lat="42.076749249392364" lon="11.995546610125709"><ele>389.0</ele><time>2026-04-12T08:07:08.999Z</time></trkpt><trkpt lat="42.07668256193434" lon="11.995573959746181"><ele>387.00000000000006</ele><time>2026-04-12T08:07:09.999Z</time></trkpt><trkpt lat="42.076582275636966" lon="11.995511359370168"><ele>385.0</ele><time>2026-04-12T08:07:11.999Z</time></trkpt><trkpt lat="42.076501781831205" lon="11.995407936684181"><ele>385.0</ele><time>2026-04-12T08:07:13.999Z</time></trkpt><trkpt lat="42.07644434393607" lon="11.995321283258303"><ele>385.0</ele><time>2026-04-12T08:07:15.999Z</time></trkpt><trkpt lat="42.076522054616795" lon="11.995194586376833"><ele>385.0</ele><time>2026-04-12T08:07:17.999Z</time></trkpt><trkpt lat="42.076587411983255" lon="11.99517469933327"><ele>385.0</ele><time>2026-04-12T08:07:18.999Z</time></trkpt><trkpt lat="42.07667242903789" lon="11.995078474623188"><ele>385.0</ele><time>2026-04-12T08:07:20.999Z</time></trkpt><trkpt lat="42.076760123897074" lon="11.994980553848198"><ele>380.2</ele><time>2026-04-12T08:07:22.999Z</time></trkpt><trkpt lat="42.07683257561542" lon="11.994878410946937"><ele>375.4</ele><time>2026-04-12T08:07:24.999Z</time></trkpt><trkpt lat="42.076818883535815" lon="11.994791149175303"><ele>370.6</ele><time>2026-04-12T08:07:25.999Z</time></trkpt><trkpt lat="42.076798711048035" lon="11.994653863054932"><ele>365.8</ele><time>2026-04-12T08:07:26.999Z</time></trkpt><trkpt lat="42.076797223299785" lon="11.994568908768626"><ele>361.0</ele><time>2026-04-12T08:07:27.999Z</time></trkpt><trkpt lat="42.07678024834408" lon="11.994419446569196"><ele>361.0</ele><time>2026-04-12T08:07:29.999Z</time></trkpt><trkpt lat="42.07678848755649" lon="11.994289337103893"><ele>361.0</ele><time>2026-04-12T08:07:31.999Z</time></trkpt><trkpt lat="42.0768474930572" lon="11.99421983900053"><ele>361.0</ele><time>2026-04-12T08:07:33.999Z</time></trkpt><trkpt lat="42.076894658823164" lon="11.994099107492909"><ele>361.0</ele><time>2026-04-12T08:07:37.999Z</time></trkpt><trkpt lat="42.07693912430307" lon="11.99398538023632"><ele>361.0</ele><time>2026-04-12T08:07:40.999Z</time></trkpt><trkpt lat="42.07696669015522" lon="11.993857161980241"><ele>359.20000000000005</ele><time>2026-04-12T08:07:42.999Z</time></trkpt><trkpt lat="42.0770056132485" lon="11.99365241280328"><ele>357.40000000000003</ele><time>2026-04-12T08:07:44.999Z</time></trkpt><trkpt lat="42.07704136408725" lon="11.993532332004795"><ele>355.6</ele><time>2026-04-12T08:07:47Z</time></trkpt><trkpt lat="42.077051717121044" lon="11.993448325952235"><ele>353.8</ele><time>2026-04-12T08:07:48Z</time></trkpt><trkpt lat="42.07706247937651" lon="11.993319885913012"><ele>352.0</ele><time>2026-04-12T08:07:50Z</time></trkpt><trkpt lat="42.077064999696695" lon="11.993226302635883"><ele>351.0</ele><time>2026-04-12T08:07:51Z</time></trkpt><trkpt lat="42.0770722783643" lon="11.993090682169395"><ele>350.0</ele><time>2026-04-12T08:07:53Z</time></trkpt><trkpt lat="42.07706269881649" lon="11.992950297939998"><ele>349.0</ele><time>2026-04-12T08:07:55Z</time></trkpt><trkpt lat="42.07707011661314" lon="11.992815264956278"><ele>348.0</ele><time>2026-04-12T08:07:57Z</time></trkpt><trkpt lat="42.07709775764853" lon="11.992686079593014"><ele>347.0</ele><time>2026-04-12T08:07:59Z</time></trkpt><trkpt lat="42.07715979717328" lon="11.992565373766205"><ele>345.6666666666667</ele><time>2026-04-12T08:08:01Z</time></trkpt><trkpt lat="42.0772153419581" lon="11.992383474223882"><ele>344.33333333333337</ele><time>2026-04-12T08:08:03Z</time></trkpt><trkpt lat="42.07724965688905" lon="11.992305730810319"><ele>343.0</ele><time>2026-04-12T08:08:04Z</time></trkpt><trkpt lat="42.0772765309537" lon="11.992219820000605"><ele>341.6666666666667</ele><time>2026-04-12T08:08:05Z</time></trkpt><trkpt lat="42.0773152531102" lon="11.992125378679559"><ele>340.3333333333333</ele><time>2026-04-12T08:08:07Z</time></trkpt><trkpt lat="42.07737331232084" lon="11.992040871453867"><ele>339.0</ele><time>2026-04-12T08:08:09Z</time></trkpt><trkpt lat="42.07742408145116" lon="11.991930450027825"><ele>337.0</ele><time>2026-04-12T08:08:11Z</time></trkpt><trkpt lat="42.077468373328045" lon="11.991825677041689"><ele>335.0</ele><time>2026-04-12T08:08:13Z</time></trkpt><trkpt lat="42.07752402337213" lon="11.991778677067154"><ele>333.0</ele><time>2026-04-12T08:08:15Z</time></trkpt><trkpt lat="42.07759813270965" lon="11.991787755135288"><ele>331.0</ele><time>2026-04-12T08:08:18Z</time></trkpt><trkpt lat="42.07769209088409" lon="11.991790820405402"><ele>329.0</ele><time>2026-04-12T08:08:21Z</time></trkpt><trkpt lat="42.077785209936856" lon="11.992053225306993"><ele>329.0</ele><time>2026-04-12T08:08:27Z</time></trkpt><trkpt lat="42.07780233468254" lon="11.992171714571475"><ele>329.0</ele><time>2026-04-12T08:08:29Z</time></trkpt><trkpt lat="42.07780516828808" lon="11.992264992372728"><ele>329.0</ele><time>2026-04-12T08:08:31Z</time></trkpt><trkpt lat="42.07780395234843" lon="11.992356873774014"><ele>329.0</ele><time>2026-04-12T08:08:33Z</time></trkpt><trkpt lat="42.077839925711466" lon="11.992457278327398"><ele>329.0</ele><time>2026-04-12T08:08:35Z</time></trkpt><trkpt lat="42.07785777421662" lon="11.992541213038656"><ele>329.0</ele><time>2026-04-12T08:08:37Z</time></trkpt><trkpt lat="42.07789357354748" lon="11.992653563299733"><ele>329.0</ele><time>2026-04-12T08:08:40Z</time></trkpt><trkpt lat="42.07793717421997" lon="11.992727412566051"><ele>329.0</ele><time>2026-04-12T08:08:43Z</time></trkpt><trkpt lat="42.07808186658005" lon="11.992725174793302"><ele>329.0</ele><time>2026-04-12T08:08:45.999Z</time></trkpt><trkpt lat="42.078176733279854" lon="11.992593304681638"><ele>329.0</ele><time>2026-04-12T08:08:47.999Z</time></trkpt><trkpt lat="42.07823162738934" lon="11.992434285447878"><ele>329.83333333333337</ele><time>2026-04-12T08:08:48.999Z</time></trkpt><trkpt lat="42.078291415980416" lon="11.992334530296112"><ele>330.6666666666667</ele><time>2026-04-12T08:08:49.999Z</time></trkpt><trkpt lat="42.078350032162824" lon="11.992224060051058"><ele>331.5</ele><time>2026-04-12T08:08:50.999Z</time></trkpt><trkpt lat="42.07839573411947" lon="11.992151169113543"><ele>332.3333333333333</ele><time>2026-04-12T08:08:51.999Z</time></trkpt><trkpt lat="42.07843907397703" lon="11.992054100790547"><ele>333.16666666666663</ele><time>2026-04-12T08:08:52.999Z</time></trkpt><trkpt lat="42.07845837601732" lon="11.99196254414059"><ele>334.0</ele><time>2026-04-12T08:08:53.999Z</time></trkpt><trkpt lat="42.078462443013684" lon="11.991865531022697"><ele>334.0</ele><time>2026-04-12T08:08:54.999Z</time></trkpt><trkpt lat="42.0784726481352" lon="11.991764189134846"><ele>334.0</ele><time>2026-04-12T08:08:55.999Z</time></trkpt><trkpt lat="42.0785152166655" lon="11.991660394362164"><ele>334.0</ele><time>2026-04-12T08:08:57.999Z</time></trkpt><trkpt lat="42.07857721125139" lon="11.991594635848289"><ele>334.0</ele><time>2026-04-12T08:08:59.999Z</time></trkpt><trkpt lat="42.07863994948234" lon="11.991490302516784"><ele>334.0</ele><time>2026-04-12T08:09:01.999Z</time></trkpt><trkpt lat="42.078695324233266" lon="11.991379448326253"><ele>334.0</ele><time>2026-04-12T08:09:03.999Z</time></trkpt><trkpt lat="42.07874709085132" lon="11.99127996369554"><ele>332.0</ele><time>2026-04-12T08:09:05.999Z</time></trkpt><trkpt lat="42.078796387354956" lon="11.991146529833305"><ele>330.0</ele><time>2026-04-12T08:09:07.999Z</time></trkpt><trkpt lat="42.07881242029238" lon="11.991055727570256"><ele>328.0</ele><time>2026-04-12T08:09:08.999Z</time></trkpt><trkpt lat="42.0788812282744" lon="11.990935514290447"><ele>326.0</ele><time>2026-04-12T08:09:10.999Z</time></trkpt><trkpt lat="42.07898995666023" lon="11.990853154762904"><ele>324.0</ele><time>2026-04-12T08:09:12.999Z</time></trkpt><trkpt lat="42.0790319629155" lon="11.990775076223823"><ele>323.6</ele><time>2026-04-12T08:09:13.999Z</time></trkpt><trkpt lat="42.07907475568572" lon="11.990696370965983"><ele>323.2</ele><time>2026-04-12T08:09:15.999Z</time></trkpt><trkpt lat="42.079110499434606" lon="11.990593107783216"><ele>322.8</ele><time>2026-04-12T08:09:18.999Z</time></trkpt><trkpt lat="42.079110260573536" lon="11.990412610643656"><ele>322.40000000000003</ele><time>2026-04-12T08:09:20.999Z</time></trkpt><trkpt lat="42.07910340852764" lon="11.990306783725025"><ele>322.0</ele><time>2026-04-12T08:09:21.999Z</time></trkpt><trkpt lat="42.07915016017424" lon="11.990194049353184"><ele>322.0</ele><time>2026-04-12T08:09:23.999Z</time></trkpt><trkpt lat="42.07917308535292" lon="11.990017748437518"><ele>322.0</ele><time>2026-04-12T08:09:25.999Z</time></trkpt><trkpt lat="42.07921323525679" lon="11.989948584963713"><ele>322.0</ele><time>2026-04-12T08:09:27.999Z</time></trkpt><trkpt lat="42.07927700265266" lon="11.989943221097548"><ele>322.0</ele><time>2026-04-12T08:10:40Z</time></trkpt><trkpt lat="42.079336497908194" lon="11.989980758615761"><ele>322.0</ele><time>2026-04-12T08:10:43Z</time></trkpt><trkpt lat="42.079357202561916" lon="11.990075728394201"><ele>322.0</ele><time>2026-04-12T08:10:46Z</time></trkpt><trkpt lat="42.07937467517991" lon="11.990175628001191"><ele>322.0</ele><time>2026-04-12T08:10:48Z</time></trkpt><trkpt lat="42.07941250058064" lon="11.990291046410228"><ele>322.0</ele><time>2026-04-12T08:10:50Z</time></trkpt><trkpt lat="42.07944180835152" lon="11.990388551512972"><ele>322.0</ele><time>2026-04-12T08:10:52.999Z</time></trkpt><trkpt lat="42.079476576313006" lon="11.99047944565669"><ele>322.0</ele><time>2026-04-12T08:10:54.999Z</time></trkpt><trkpt lat="42.079506992299535" lon="11.990580645906656"><ele>322.0</ele><time>2026-04-12T08:10:56.999Z</time></trkpt><trkpt lat="42.07955405182952" lon="11.990675375459471"><ele>322.0</ele><time>2026-04-12T08:10:58.999Z</time></trkpt><trkpt lat="42.07956401955154" lon="11.990770985100387"><ele>325.0</ele><time>2026-04-12T08:10:59.999Z</time></trkpt><trkpt lat="42.07959390361084" lon="11.99094071532796"><ele>328.0</ele><time>2026-04-12T08:11:01.999Z</time></trkpt><trkpt lat="42.079625474270266" lon="11.991079666757637"><ele>331.0</ele><time>2026-04-12T08:11:03.999Z</time></trkpt><trkpt lat="42.07964681877456" lon="11.991229161510633"><ele>334.0</ele><time>2026-04-12T08:11:05.999Z</time></trkpt><trkpt lat="42.07965360301951" lon="11.991346275243986"><ele>337.0</ele><time>2026-04-12T08:11:07.999Z</time></trkpt><trkpt lat="42.07969088300835" lon="11.991454361087198"><ele>337.0</ele><time>2026-04-12T08:11:09.999Z</time></trkpt><trkpt lat="42.079807571884224" lon="11.991533737309684"><ele>337.0</ele><time>2026-04-12T08:11:11.999Z</time></trkpt><trkpt lat="42.07983306394969" lon="11.991629869627383"><ele>337.0</ele><time>2026-04-12T08:11:18.999Z</time></trkpt><trkpt lat="42.07985816161217" lon="11.99171016890042"><ele>337.0</ele><time>2026-04-12T08:11:22.999Z</time></trkpt><trkpt lat="42.07985011977874" lon="11.991799609711853"><ele>337.0</ele><time>2026-04-12T08:11:26.999Z</time></trkpt><trkpt lat="42.07989489539898" lon="11.99191933635448"><ele>337.0</ele><time>2026-04-12T08:11:27.999Z</time></trkpt><trkpt lat="42.0798627563207" lon="11.991835418201067"><ele>339.66666666666663</ele><time>2026-04-12T08:11:28.999Z</time></trkpt><trkpt lat="42.0797838137923" lon="11.991891879609758"><ele>342.3333333333333</ele><time>2026-04-12T08:11:30.999Z</time></trkpt><trkpt lat="42.07980628419292" lon="11.991978460063256"><ele>345.0</ele><time>2026-04-12T08:11:32.999Z</time></trkpt><trkpt lat="42.07983834915706" lon="11.9920534430812"><ele>347.6666666666667</ele><time>2026-04-12T08:11:34.999Z</time></trkpt><trkpt lat="42.07985956474669" lon="11.99213358514494"><ele>350.33333333333337</ele><time>2026-04-12T08:11:36.999Z</time></trkpt><trkpt lat="42.079860815110386" lon="11.992295157454368"><ele>353.0</ele><time>2026-04-12T08:11:38.999Z</time></trkpt><trkpt lat="42.07995008624082" lon="11.992365557843009"><ele>356.79999999999995</ele><time>2026-04-12T08:11:39.999Z</time></trkpt><trkpt lat="42.07997453053008" lon="11.992474178225942"><ele>360.6</ele><time>2026-04-12T08:11:40.999Z</time></trkpt><trkpt lat="42.080085004702816" lon="11.992527182397025"><ele>364.4</ele><time>2026-04-12T08:11:41.999Z</time></trkpt><trkpt lat="42.08016665373703" lon="11.992561964109687"><ele>368.20000000000005</ele><time>2026-04-12T08:11:42.999Z</time></trkpt><trkpt lat="42.08026864733354" lon="11.992676567469873"><ele>372.0</ele><time>2026-04-12T08:11:44.999Z</time></trkpt><trkpt lat="42.08034412506468" lon="11.992805273420688"><ele>375.5</ele><time>2026-04-12T08:11:48.999Z</time></trkpt><trkpt lat="42.08036199373333" lon="11.993023330336385"><ele>379.0</ele><time>2026-04-12T08:11:49.999Z</time></trkpt><trkpt lat="42.08041131462167" lon="11.99311949094242"><ele>382.5</ele><time>2026-04-12T08:11:50.999Z</time></trkpt><trkpt lat="42.080474948831466" lon="11.993199428147346"><ele>386.0</ele><time>2026-04-12T08:11:51.999Z</time></trkpt><trkpt lat="42.080578175125936" lon="11.993298204474792"><ele>388.8</ele><time>2026-04-12T08:11:53.999Z</time></trkpt><trkpt lat="42.08070435239968" lon="11.993366882435907"><ele>391.6</ele><time>2026-04-12T08:11:54.999Z</time></trkpt><trkpt lat="42.08078948375734" lon="11.993430977764506"><ele>394.4</ele><time>2026-04-12T08:11:55.999Z</time></trkpt><trkpt lat="42.08088433854675" lon="11.993503944647948"><ele>397.2</ele><time>2026-04-12T08:11:56.999Z</time></trkpt><trkpt lat="42.08091146788395" lon="11.99359446972283"><ele>400.0</ele><time>2026-04-12T08:11:57.999Z</time></trkpt><trkpt lat="42.080952764470524" lon="11.993673272139404"><ele>401.00000000000006</ele><time>2026-04-12T08:11:59Z</time></trkpt><trkpt lat="42.08100182795126" lon="11.993747880757304"><ele>402.0</ele><time>2026-04-12T08:12:01Z</time></trkpt><trkpt lat="42.08104256018762" lon="11.993829150869189"><ele>403.0</ele><time>2026-04-12T08:13:05.999Z</time></trkpt><trkpt lat="42.08108593568905" lon="11.993894404334897"><ele>404.0</ele><time>2026-04-12T08:13:06.999Z</time></trkpt><trkpt lat="42.081144976997216" lon="11.993957873883026"><ele>405.00000000000006</ele><time>2026-04-12T08:13:07.999Z</time></trkpt><trkpt lat="42.08119036836105" lon="11.994022370447784"><ele>406.0</ele><time>2026-04-12T08:13:09.999Z</time></trkpt><trkpt lat="42.081253092586294" lon="11.994154804026397"><ele>410.20000000000005</ele><time>2026-04-12T08:13:11.999Z</time></trkpt><trkpt lat="42.08131854243857" lon="11.994271336786863"><ele>414.40000000000003</ele><time>2026-04-12T08:13:13.999Z</time></trkpt><trkpt lat="42.0813752532871" lon="11.994344233760463"><ele>418.6</ele><time>2026-04-12T08:13:15.999Z</time></trkpt><trkpt lat="42.08142489180278" lon="11.994440294111106"><ele>422.8</ele><time>2026-04-12T08:13:17.999Z</time></trkpt><trkpt lat="42.08146931600405" lon="11.994540247456126"><ele>427.0</ele><time>2026-04-12T08:13:18.999Z</time></trkpt><trkpt lat="42.08149892992996" lon="11.994696863168853"><ele>427.0</ele><time>2026-04-12T08:13:20.999Z</time></trkpt><trkpt lat="42.08155660858885" lon="11.99477279856665"><ele>427.0</ele><time>2026-04-12T08:13:21.999Z</time></trkpt><trkpt lat="42.081637363095524" lon="11.994870249197824"><ele>427.0</ele><time>2026-04-12T08:13:23.999Z</time></trkpt><trkpt lat="42.081760221663835" lon="11.995081649709032"><ele>427.0</ele><time>2026-04-12T08:13:28.999Z</time></trkpt><trkpt lat="42.081802069466264" lon="11.99518655327201"><ele>432.20000000000005</ele><time>2026-04-12T08:13:30.999Z</time></trkpt><trkpt lat="42.08182009763964" lon="11.995271146225118"><ele>437.40000000000003</ele><time>2026-04-12T08:13:31.999Z</time></trkpt><trkpt lat="42.08181279181087" lon="11.995474829562543"><ele>442.59999999999997</ele><time>2026-04-12T08:13:33.999Z</time></trkpt><trkpt lat="42.08172334650564" lon="11.995378848688826"><ele>447.79999999999995</ele><time>2026-04-12T08:13:34.999Z</time></trkpt><trkpt lat="42.08169900819157" lon="11.99547718494896"><ele>453.0</ele><time>2026-04-12T08:13:36.999Z</time></trkpt><trkpt lat="42.0816778259349" lon="11.99556556986361"><ele>453.0</ele><time>2026-04-12T08:13:38.999Z</time></trkpt><trkpt lat="42.08165965017601" lon="11.9956869622315"><ele>453.0</ele><time>2026-04-12T08:13:41.999Z</time></trkpt><trkpt lat="42.08162690592331" lon="11.995816817079259"><ele>453.0</ele><time>2026-04-12T08:13:43.999Z</time></trkpt><trkpt lat="42.081691008347626" lon="11.995936161901472"><ele>453.0</ele><time>2026-04-12T08:13:44.999Z</time></trkpt><trkpt lat="42.081904911496245" lon="11.99604203272394"><ele>457.0</ele><time>2026-04-12T08:13:45.999Z</time></trkpt><trkpt lat="42.08186720136976" lon="11.996147614884851"><ele>461.0</ele><time>2026-04-12T08:13:48.999Z</time></trkpt><trkpt lat="42.081892430392145" lon="11.996317886175166"><ele>465.0</ele><time>2026-04-12T08:13:49.999Z</time></trkpt><trkpt lat="42.08190158935928" lon="11.996428975792801"><ele>469.0</ele><time>2026-04-12T08:13:50.999Z</time></trkpt><trkpt lat="42.082005619655554" lon="11.9965846868482"><ele>469.0</ele><time>2026-04-12T08:13:51.999Z</time></trkpt><trkpt lat="42.08201424173104" lon="11.996668928287873"><ele>469.0</ele><time>2026-04-12T08:13:52.999Z</time></trkpt><trkpt lat="42.08209071467314" lon="11.996765481553043"><ele>469.0</ele><time>2026-04-12T08:13:53.999Z</time></trkpt><trkpt lat="42.082177802401105" lon="11.996861254695343"><ele>469.0</ele><time>2026-04-12T08:13:54.999Z</time></trkpt><trkpt lat="42.082254848896085" lon="11.996928281764554"><ele>469.0</ele><time>2026-04-12T08:13:55.999Z</time></trkpt><trkpt lat="42.08230112759385" lon="11.997014031902465"><ele>470.0</ele><time>2026-04-12T08:13:56.999Z</time></trkpt><trkpt lat="42.08238744152375" lon="11.997117759407143"><ele>471.0</ele><time>2026-04-12T08:13:58.999Z</time></trkpt><trkpt lat="42.08237246490155" lon="11.997200428360156"><ele>472.0</ele><time>2026-04-12T08:14:01.999Z</time></trkpt><trkpt lat="42.08244054738618" lon="11.997229989334125"><ele>473.0</ele><time>2026-04-12T08:14:02.999Z</time></trkpt><trkpt lat="42.08255145604304" lon="11.997287040822187"><ele>474.0</ele><time>2026-04-12T08:14:05Z</time></trkpt><trkpt lat="42.08263985897401" lon="11.997329663518729"><ele>478.0</ele><time>2026-04-12T08:14:07Z</time></trkpt><trkpt lat="42.08273834221193" lon="11.997323513657294"><ele>482.0</ele><time>2026-04-12T08:14:09Z</time></trkpt><trkpt lat="42.082975916096515" lon="11.997343850591717"><ele>486.0</ele><time>2026-04-12T08:20:46Z</time></trkpt><trkpt lat="42.08306115261789" lon="11.997217180181403"><ele>486.0</ele><time>2026-04-12T08:20:49Z</time></trkpt><trkpt lat="42.08310930570278" lon="11.997155339109646"><ele>486.0</ele><time>2026-04-12T08:20:50Z</time></trkpt><trkpt lat="42.08313915410681" lon="11.99707341140428"><ele>486.0</ele><time>2026-04-12T08:20:51Z</time></trkpt><trkpt lat="42.0831779634987" lon="11.996986829517136"><ele>486.0</ele><time>2026-04-12T08:20:52Z</time></trkpt><trkpt lat="42.08321764489832" lon="11.996918501657815"><ele>486.0</ele><time>2026-04-12T08:20:53Z</time></trkpt><trkpt lat="42.08329114380252" lon="11.996786592036791"><ele>486.0</ele><time>2026-04-12T08:20:55Z</time></trkpt><trkpt lat="42.08336641209669" lon="11.996656077329368"><ele>485.5</ele><time>2026-04-12T08:20:57Z</time></trkpt><trkpt lat="42.0834030988647" lon="11.996580852241813"><ele>485.0</ele><time>2026-04-12T08:20:58Z</time></trkpt><trkpt lat="42.08344340743084" lon="11.996479664913956"><ele>484.5</ele><time>2026-04-12T08:20:59Z</time></trkpt><trkpt lat="42.08349375041279" lon="11.99640923997955"><ele>484.0</ele><time>2026-04-12T08:21:00Z</time></trkpt><trkpt lat="42.083534045123685" lon="11.996328033908943"><ele>483.5</ele><time>2026-04-12T08:21:01Z</time></trkpt><trkpt lat="42.08358237296211" lon="11.996223618749157"><ele>483.0</ele><time>2026-04-12T08:21:02Z</time></trkpt><trkpt lat="42.08363947857914" lon="11.996096526188238"><ele>483.0</ele><time>2026-04-12T08:21:03Z</time></trkpt><trkpt lat="42.08368668738957" lon="11.995937096528545"><ele>483.0</ele><time>2026-04-12T08:21:04Z</time></trkpt><trkpt lat="42.08371998720431" lon="11.995835557709283"><ele>483.0</ele><time>2026-04-12T08:21:05Z</time></trkpt><trkpt lat="42.08375697854137" lon="11.99573900972553"><ele>483.0</ele><time>2026-04-12T08:21:06Z</time></trkpt><trkpt lat="42.083796701991275" lon="11.99564933575828"><ele>483.0</ele><time>2026-04-12T08:21:07Z</time></trkpt><trkpt lat="42.08383159319331" lon="11.99556730566911"><ele>483.0</ele><time>2026-04-12T08:21:08Z</time></trkpt><trkpt lat="42.08389585933516" lon="11.995403270775814"><ele>483.0</ele><time>2026-04-12T08:21:10Z</time></trkpt><trkpt lat="42.08393878181845" lon="11.995324503645724"><ele>483.0</ele><time>2026-04-12T08:21:11Z</time></trkpt><trkpt lat="42.08398124780662" lon="11.99523565448681"><ele>483.0</ele><time>2026-04-12T08:21:12Z</time></trkpt><trkpt lat="42.084027643250195" lon="11.995158126799332"><ele>483.0</ele><time>2026-04-12T08:21:13Z</time></trkpt><trkpt lat="42.08408968740313" lon="11.995117117106881"><ele>483.0</ele><time>2026-04-12T08:21:14Z</time></trkpt><trkpt lat="42.08414489193595" lon="11.995050121097346"><ele>483.0</ele><time>2026-04-12T08:21:15Z</time></trkpt><trkpt lat="42.08420737477614" lon="11.995003448059059"><ele>483.0</ele><time>2026-04-12T08:21:16Z</time></trkpt><trkpt lat="42.08431606141395" lon="11.994924467752124"><ele>483.0</ele><time>2026-04-12T08:21:18Z</time></trkpt><trkpt lat="42.084377508749654" lon="11.994884782411525"><ele>483.0</ele><time>2026-04-12T08:21:19Z</time></trkpt><trkpt lat="42.08444694081129" lon="11.994851766335815"><ele>483.0</ele><time>2026-04-12T08:21:19.999Z</time></trkpt><trkpt lat="42.08450286337382" lon="11.99478113464588"><ele>483.0</ele><time>2026-04-12T08:21:20.999Z</time></trkpt><trkpt lat="42.084580456769686" lon="11.994609257550191"><ele>483.0</ele><time>2026-04-12T08:21:22.999Z</time></trkpt><trkpt lat="42.08460658125799" lon="11.99452558914186"><ele>483.0</ele><time>2026-04-12T08:21:23.999Z</time></trkpt><trkpt lat="42.08463265010828" lon="11.994442199339868"><ele>483.0</ele><time>2026-04-12T08:21:24.999Z</time></trkpt><trkpt lat="42.0846475337117" lon="11.994240244603152"><ele>483.0</ele><time>2026-04-12T08:21:26.999Z</time></trkpt><trkpt lat="42.08465147226913" lon="11.994073248880593"><ele>483.0</ele><time>2026-04-12T08:21:28.999Z</time></trkpt><trkpt lat="42.08459727315267" lon="11.993891937281767"><ele>483.0</ele><time>2026-04-12T08:21:30.999Z</time></trkpt><trkpt lat="42.08460411047471" lon="11.993745733613707"><ele>482.8333333333333</ele><time>2026-04-12T08:21:32.999Z</time></trkpt><trkpt lat="42.0846091439434" lon="11.993660308824353"><ele>482.66666666666663</ele><time>2026-04-12T08:21:33.999Z</time></trkpt><trkpt lat="42.084616527677" lon="11.993505015251529"><ele>482.5</ele><time>2026-04-12T08:21:35.999Z</time></trkpt><trkpt lat="42.08462228017495" lon="11.99341878107474"><ele>482.3333333333333</ele><time>2026-04-12T08:21:36.999Z</time></trkpt><trkpt lat="42.08459842942154" lon="11.99329763206566"><ele>482.16666666666663</ele><time>2026-04-12T08:21:37.999Z</time></trkpt><trkpt lat="42.0845826857497" lon="11.993170159885944"><ele>482.0</ele><time>2026-04-12T08:21:38.999Z</time></trkpt><trkpt lat="42.084574921343375" lon="11.993070301457056"><ele>481.99999999999994</ele><time>2026-04-12T08:21:39.999Z</time></trkpt><trkpt lat="42.08456178089985" lon="11.992968849804353"><ele>482.0</ele><time>2026-04-12T08:21:40.999Z</time></trkpt><trkpt lat="42.08456390342926" lon="11.99282752967288"><ele>482.0</ele><time>2026-04-12T08:21:42.999Z</time></trkpt><trkpt lat="42.08462675712655" lon="11.99279508440791"><ele>482.0</ele><time>2026-04-12T08:21:44.999Z</time></trkpt><trkpt lat="42.084699871242314" lon="11.99281830692253"><ele>481.99999999999994</ele><time>2026-04-12T08:21:46.999Z</time></trkpt><trkpt lat="42.084778185900696" lon="11.992833147370034"><ele>482.0</ele><time>2026-04-12T08:21:49.999Z</time></trkpt><trkpt lat="42.08486169341979" lon="11.992814800731155"><ele>486.75</ele><time>2026-04-12T08:22:04.999Z</time></trkpt><trkpt lat="42.08498828103314" lon="11.992780154313497"><ele>491.5</ele><time>2026-04-12T08:22:06.999Z</time></trkpt><trkpt lat="42.0850914753315" lon="11.992728389375843"><ele>496.25</ele><time>2026-04-12T08:22:08.999Z</time></trkpt><trkpt lat="42.085236492096186" lon="11.99271034317064"><ele>501.0</ele><time>2026-04-12T08:22:11.999Z</time></trkpt><trkpt lat="42.08532751498396" lon="11.992674502096387"><ele>501.0</ele><time>2026-04-12T08:22:13.999Z</time></trkpt><trkpt lat="42.085408121792895" lon="11.99262281033701"><ele>501.0</ele><time>2026-04-12T08:22:15.999Z</time></trkpt><trkpt lat="42.08550627033812" lon="11.99257712395274"><ele>501.0</ele><time>2026-04-12T08:22:17.999Z</time></trkpt><trkpt lat="42.08557873076979" lon="11.992547031057963"><ele>501.0</ele><time>2026-04-12T08:22:18.999Z</time></trkpt><trkpt lat="42.08564631865029" lon="11.992562138161242"><ele>501.0</ele><time>2026-04-12T08:22:19.999Z</time></trkpt><trkpt lat="42.08570214615027" lon="11.992648299706161"><ele>501.0</ele><time>2026-04-12T08:22:20.999Z</time></trkpt><trkpt lat="42.08582572721047" lon="11.992729248756117"><ele>502.0</ele><time>2026-04-12T08:22:22.999Z</time></trkpt><trkpt lat="42.08592192643962" lon="11.992816080553345"><ele>503.0</ele><time>2026-04-12T08:22:24.999Z</time></trkpt><trkpt lat="42.086000216066985" lon="11.992874275493856"><ele>504.0</ele><time>2026-04-12T08:22:26.999Z</time></trkpt><trkpt lat="42.086080913324935" lon="11.992958277966341"><ele>505.0</ele><time>2026-04-12T08:22:29Z</time></trkpt><trkpt lat="42.086184287803405" lon="11.993006919725095"><ele>506.0</ele><time>2026-04-12T08:22:31Z</time></trkpt><trkpt lat="42.08629039151417" lon="11.993011550384274"><ele>506.0</ele><time>2026-04-12T08:22:32Z</time></trkpt><trkpt lat="42.08637571992564" lon="11.993005412490591"><ele>506.0</ele><time>2026-04-12T08:22:33Z</time></trkpt><trkpt lat="42.08646496211613" lon="11.993010872033183"><ele>506.0</ele><time>2026-04-12T08:22:34Z</time></trkpt><trkpt lat="42.08653019428389" lon="11.993025356406353"><ele>506.0</ele><time>2026-04-12T08:22:35Z</time></trkpt><trkpt lat="42.08668018157695" lon="11.99303907429128"><ele>506.0</ele><time>2026-04-12T08:22:37Z</time></trkpt><trkpt lat="42.08675618527875" lon="11.99304665781984"><ele>505.75</ele><time>2026-04-12T08:22:38Z</time></trkpt><trkpt lat="42.08696325760246" lon="11.993034599383414"><ele>505.5</ele><time>2026-04-12T08:22:42Z</time></trkpt><trkpt lat="42.08704238492854" lon="11.993007027278953"><ele>505.25</ele><time>2026-04-12T08:22:43Z</time></trkpt><trkpt lat="42.08719414414437" lon="11.993013778207452"><ele>505.0</ele><time>2026-04-12T08:22:46Z</time></trkpt><trkpt lat="42.08726700620624" lon="11.99304662911278"><ele>505.0</ele><time>2026-04-12T08:22:48Z</time></trkpt><trkpt lat="42.0873639190255" lon="11.993164593653866"><ele>505.0</ele><time>2026-04-12T08:22:50Z</time></trkpt><trkpt lat="42.08735174763047" lon="11.993271092299349"><ele>505.0</ele><time>2026-04-12T08:22:51Z</time></trkpt><trkpt lat="42.08746436140716" lon="11.993330158161717"><ele>505.0</ele><time>2026-04-12T08:22:53Z</time></trkpt><trkpt lat="42.08755168037487" lon="11.993349049337143"><ele>505.0</ele><time>2026-04-12T08:22:54Z</time></trkpt><trkpt lat="42.08761394639819" lon="11.993378847462441"><ele>504.4</ele><time>2026-04-12T08:22:55Z</time></trkpt><trkpt lat="42.08769055979055" lon="11.993418405414383"><ele>503.8</ele><time>2026-04-12T08:22:56Z</time></trkpt><trkpt lat="42.08780458921342" lon="11.993462045013795"><ele>503.20000000000005</ele><time>2026-04-12T08:22:58Z</time></trkpt><trkpt lat="42.087870567618076" lon="11.99352645339779"><ele>502.6</ele><time>2026-04-12T08:23:00Z</time></trkpt><trkpt lat="42.087968648769085" lon="11.993645686716372"><ele>502.0</ele><time>2026-04-12T08:23:03Z</time></trkpt><trkpt lat="42.08806191550687" lon="11.993736755616677"><ele>502.0</ele><time>2026-04-12T08:23:05Z</time></trkpt><trkpt lat="42.08816655979964" lon="11.993836933411837"><ele>502.00000000000006</ele><time>2026-04-12T08:23:07Z</time></trkpt><trkpt lat="42.088242943252865" lon="11.993866842224234"><ele>502.00000000000006</ele><time>2026-04-12T08:23:08Z</time></trkpt><trkpt lat="42.088372542010774" lon="11.993890626829968"><ele>502.0</ele><time>2026-04-12T08:23:11Z</time></trkpt><trkpt lat="42.088446149778484" lon="11.9938892066016"><ele>502.0</ele><time>2026-04-12T08:23:12Z</time></trkpt><trkpt lat="42.08851173173991" lon="11.993864254624475"><ele>499.00000000000006</ele><time>2026-04-12T08:23:13Z</time></trkpt><trkpt lat="42.0885882208075" lon="11.993834269372963"><ele>496.0</ele><time>2026-04-12T08:23:14Z</time></trkpt><trkpt lat="42.08865674097497" lon="11.993733111338866"><ele>493.0</ele><time>2026-04-12T08:23:16Z</time></trkpt><trkpt lat="42.08871952091589" lon="11.993694457199638"><ele>490.0</ele><time>2026-04-12T08:23:18Z</time></trkpt><trkpt lat="42.08866687658115" lon="11.993578221661359"><ele>487.00000000000006</ele><time>2026-04-12T08:23:35.999Z</time></trkpt><trkpt lat="42.08866692858383" lon="11.993490167007769"><ele>484.0</ele><time>2026-04-12T08:23:42.999Z</time></trkpt><trkpt lat="42.08863330862322" lon="11.993389999718625"><ele>482.00000000000006</ele><time>2026-04-12T08:23:47.999Z</time></trkpt><trkpt lat="42.08859911461737" lon="11.99329255670488"><ele>480.0</ele><time>2026-04-12T08:23:49.999Z</time></trkpt><trkpt lat="42.08852196562334" lon="11.993206236586545"><ele>478.0</ele><time>2026-04-12T08:23:51.999Z</time></trkpt><trkpt lat="42.08853151551886" lon="11.993116172887444"><ele>476.0</ele><time>2026-04-12T08:23:54.999Z</time></trkpt><trkpt lat="42.08855739618578" lon="11.993036948419252"><ele>474.00000000000006</ele><time>2026-04-12T08:23:56.999Z</time></trkpt><trkpt lat="42.08863795160536" lon="11.992957029152963"><ele>472.0</ele><time>2026-04-12T08:23:58.999Z</time></trkpt><trkpt lat="42.08868139200669" lon="11.992851427513129"><ele>472.0</ele><time>2026-04-12T08:24:01.999Z</time></trkpt><trkpt lat="42.088661512257914" lon="11.992739394265477"><ele>472.00000000000006</ele><time>2026-04-12T08:24:03.999Z</time></trkpt><trkpt lat="42.08863617666585" lon="11.992598836166504"><ele>472.00000000000006</ele><time>2026-04-12T08:24:06.999Z</time></trkpt><trkpt lat="42.08865088458841" lon="11.99250682225841"><ele>472.0</ele><time>2026-04-12T08:24:08.999Z</time></trkpt><trkpt lat="42.08858275050462" lon="11.992357283145186"><ele>472.0</ele><time>2026-04-12T08:24:10.999Z</time></trkpt><trkpt lat="42.08852856943835" lon="11.992260616080475"><ele>469.00000000000006</ele><time>2026-04-12T08:24:11.999Z</time></trkpt><trkpt lat="42.08850239184878" lon="11.992151906392069"><ele>466.0</ele><time>2026-04-12T08:24:13.999Z</time></trkpt><trkpt lat="42.088488835291265" lon="11.992062098222835"><ele>463.0</ele><time>2026-04-12T08:24:16.999Z</time></trkpt><trkpt lat="42.08843644842494" lon="11.991938990281966"><ele>460.0</ele><time>2026-04-12T08:24:18.999Z</time></trkpt><trkpt lat="42.088423521756965" lon="11.991834832271842"><ele>457.00000000000006</ele><time>2026-04-12T08:24:20.999Z</time></trkpt><trkpt lat="42.08842964383982" lon="11.991740282373971"><ele>454.0</ele><time>2026-04-12T08:24:21.999Z</time></trkpt><trkpt lat="42.08854618976481" lon="11.991629971573795"><ele>450.79999999999995</ele><time>2026-04-12T08:24:24.999Z</time></trkpt><trkpt lat="42.088566904157766" lon="11.991509199377084"><ele>447.59999999999997</ele><time>2026-04-12T08:24:26.999Z</time></trkpt><trkpt lat="42.08857542951508" lon="11.991416303283037"><ele>444.4</ele><time>2026-04-12T08:24:27.999Z</time></trkpt><trkpt lat="42.088610077617155" lon="11.99130966932804"><ele>441.2</ele><time>2026-04-12T08:24:29.999Z</time></trkpt><trkpt lat="42.088653856353666" lon="11.991179894091484"><ele>438.0</ele><time>2026-04-12T08:24:31.999Z</time></trkpt><trkpt lat="42.08858105459346" lon="11.990956995034649"><ele>438.0</ele><time>2026-04-12T08:24:33.999Z</time></trkpt><trkpt lat="42.088528411400645" lon="11.99087866250898"><ele>438.0</ele><time>2026-04-12T08:24:37Z</time></trkpt><trkpt lat="42.088458918105125" lon="11.990811247388677"><ele>438.0</ele><time>2026-04-12T08:24:39Z</time></trkpt><trkpt lat="42.088370624416775" lon="11.990783983931761"><ele>438.0</ele><time>2026-04-12T08:24:40Z</time></trkpt><trkpt lat="42.08827001246" lon="11.990699117961412"><ele>438.0</ele><time>2026-04-12T08:24:42Z</time></trkpt><trkpt lat="42.088202841974244" lon="11.990707839664314"><ele>438.0</ele><time>2026-04-12T08:24:43Z</time></trkpt><trkpt lat="42.08812405609974" lon="11.990658033024609"><ele>436.3333333333333</ele><time>2026-04-12T08:24:44Z</time></trkpt><trkpt lat="42.088054430900996" lon="11.990642118926289"><ele>434.66666666666663</ele><time>2026-04-12T08:24:45Z</time></trkpt><trkpt lat="42.087982697505446" lon="11.990603166790274"><ele>433.0</ele><time>2026-04-12T08:24:46Z</time></trkpt><trkpt lat="42.08796609820049" lon="11.990502280994493"><ele>431.3333333333333</ele><time>2026-04-12T08:24:48Z</time></trkpt><trkpt lat="42.087900026937966" lon="11.99037300429812"><ele>429.66666666666663</ele><time>2026-04-12T08:24:50Z</time></trkpt><trkpt lat="42.08785652240426" lon="11.990299069271984"><ele>428.0</ele><time>2026-04-12T08:24:51Z</time></trkpt><trkpt lat="42.087798440505225" lon="11.990223389600986"><ele>427.99999999999994</ele><time>2026-04-12T08:24:53Z</time></trkpt><trkpt lat="42.08779080559172" lon="11.990125463241203"><ele>428.0</ele><time>2026-04-12T08:24:55Z</time></trkpt><trkpt lat="42.0878303208377" lon="11.990048254646053"><ele>428.0</ele><time>2026-04-12T08:24:58Z</time></trkpt><trkpt lat="42.08789876125686" lon="11.990075000556653"><ele>428.0</ele><time>2026-04-12T08:25:00Z</time></trkpt><trkpt lat="42.08792433703723" lon="11.989973361175805"><ele>427.99999999999994</ele><time>2026-04-12T08:25:04Z</time></trkpt><trkpt lat="42.08794824902537" lon="11.989863984162907"><ele>428.0</ele><time>2026-04-12T08:25:07Z</time></trkpt><trkpt lat="42.08796715993734" lon="11.989736743663778"><ele>425.16666666666663</ele><time>2026-04-12T08:25:09Z</time></trkpt><trkpt lat="42.08793110903175" lon="11.989650178431138"><ele>422.3333333333333</ele><time>2026-04-12T08:25:10Z</time></trkpt><trkpt lat="42.087892310489046" lon="11.989581040987053"><ele>419.5</ele><time>2026-04-12T08:25:11Z</time></trkpt><trkpt lat="42.087831312886564" lon="11.989663689682358"><ele>416.66666666666663</ele><time>2026-04-12T08:25:14Z</time></trkpt><trkpt lat="42.08784805892688" lon="11.989532793705495"><ele>413.8333333333333</ele><time>2026-04-12T08:27:15Z</time></trkpt><trkpt lat="42.0878043564409" lon="11.989457536073902"><ele>411.0</ele><time>2026-04-12T08:27:17Z</time></trkpt><trkpt lat="42.087739809718045" lon="11.989365959817368"><ele>411.0</ele><time>2026-04-12T08:27:19Z</time></trkpt><trkpt lat="42.08765560166403" lon="11.989268138322206"><ele>411.0</ele><time>2026-04-12T08:27:21Z</time></trkpt><trkpt lat="42.087603904966436" lon="11.989173105199116"><ele>411.0</ele><time>2026-04-12T08:27:24Z</time></trkpt><trkpt lat="42.087546097179334" lon="11.989054067772203"><ele>411.0</ele><time>2026-04-12T08:27:26Z</time></trkpt><trkpt lat="42.08745182809691" lon="11.988956979621177"><ele>411.0</ele><time>2026-04-12T08:27:28Z</time></trkpt><trkpt lat="42.087489898019584" lon="11.988864300188567"><ele>407.20000000000005</ele><time>2026-04-12T08:27:32Z</time></trkpt><trkpt lat="42.087553837259875" lon="11.98877967039035"><ele>403.40000000000003</ele><time>2026-04-12T08:27:34Z</time></trkpt><trkpt lat="42.08757196423042" lon="11.9886829947051"><ele>399.6</ele><time>2026-04-12T08:27:35Z</time></trkpt><trkpt lat="42.08751439140771" lon="11.988543511524753"><ele>395.8</ele><time>2026-04-12T08:27:37Z</time></trkpt><trkpt lat="42.087497832414066" lon="11.98839129081316"><ele>392.0</ele><time>2026-04-12T08:27:48.999Z</time></trkpt><trkpt lat="42.08742891635341" lon="11.988324638056868"><ele>388.3333333333333</ele><time>2026-04-12T08:27:50.999Z</time></trkpt><trkpt lat="42.087370395439635" lon="11.98827336447317"><ele>384.66666666666663</ele><time>2026-04-12T08:27:54.999Z</time></trkpt><trkpt lat="42.087338479699774" lon="11.988197566502802"><ele>381.0</ele><time>2026-04-12T08:28:02.999Z</time></trkpt><trkpt lat="42.08749045359821" lon="11.988160796661377"><ele>377.3333333333333</ele><time>2026-04-12T08:29:23Z</time></trkpt><trkpt lat="42.08756291892534" lon="11.988113871867615"><ele>373.66666666666663</ele><time>2026-04-12T08:29:27Z</time></trkpt><trkpt lat="42.0876398179802" lon="11.988098153745137"><ele>370.0</ele><time>2026-04-12T08:29:30Z</time></trkpt><trkpt lat="42.08788187476023" lon="11.988064129939726"><ele>370.0</ele><time>2026-04-12T08:29:58.999Z</time></trkpt><trkpt lat="42.08795997682498" lon="11.98804864282248"><ele>370.0</ele><time>2026-04-12T08:30:00.999Z</time></trkpt><trkpt lat="42.08807053353805" lon="11.987995897709652"><ele>370.0</ele><time>2026-04-12T08:30:04.999Z</time></trkpt><trkpt lat="42.08815189754871" lon="11.98770548496353"><ele>370.0</ele><time>2026-04-12T08:30:07.999Z</time></trkpt><trkpt lat="42.088189814404295" lon="11.987624790021036"><ele>370.0</ele><time>2026-04-12T08:30:09.999Z</time></trkpt><trkpt lat="42.088208479043196" lon="11.987519352678841"><ele>370.0</ele><time>2026-04-12T08:30:11.999Z</time></trkpt><trkpt lat="42.088207773787225" lon="11.987409964406432"><ele>370.0</ele><time>2026-04-12T08:30:12.999Z</time></trkpt><trkpt lat="42.08822415454462" lon="11.987248337256645"><ele>370.0</ele><time>2026-04-12T08:30:15.999Z</time></trkpt><trkpt lat="42.088319303934476" lon="11.98699520793387"><ele>365.6</ele><time>2026-04-12T08:30:20.999Z</time></trkpt><trkpt lat="42.088377727479454" lon="11.986880927159635"><ele>361.2</ele><time>2026-04-12T08:30:22.999Z</time></trkpt><trkpt lat="42.088422091575644" lon="11.986782749266743"><ele>356.79999999999995</ele><time>2026-04-12T08:30:24.999Z</time></trkpt><trkpt lat="42.08849301594287" lon="11.986745426175318"><ele>352.4</ele><time>2026-04-12T08:30:26.999Z</time></trkpt><trkpt lat="42.0884836001083" lon="11.986612056471133"><ele>348.0</ele><time>2026-04-12T08:30:30.999Z</time></trkpt><trkpt lat="42.08848491638258" lon="11.98648486594759"><ele>345.0</ele><time>2026-04-12T08:30:32.999Z</time></trkpt><trkpt lat="42.088485085651755" lon="11.986394394376356"><ele>342.0</ele><time>2026-04-12T08:30:33.999Z</time></trkpt><trkpt lat="42.08851129307712" lon="11.986277465432133"><ele>339.0</ele><time>2026-04-12T08:30:36.999Z</time></trkpt><trkpt lat="42.08853625008778" lon="11.986175230707802"><ele>336.0</ele><time>2026-04-12T08:30:38.999Z</time></trkpt><trkpt lat="42.08857162406218" lon="11.986087263251266"><ele>333.0</ele><time>2026-04-12T08:30:40.999Z</time></trkpt><trkpt lat="42.088618695119685" lon="11.985987313370282"><ele>330.0</ele><time>2026-04-12T08:30:43.999Z</time></trkpt><trkpt lat="42.08857678915177" lon="11.98591286274372"><ele>330.0</ele><time>2026-04-12T08:30:46.999Z</time></trkpt><trkpt lat="42.088504512064844" lon="11.985921339607307"><ele>330.0</ele><time>2026-04-12T08:31:21Z</time></trkpt><trkpt lat="42.088467238208075" lon="11.985838080905417"><ele>330.0</ele><time>2026-04-12T08:31:25Z</time></trkpt><trkpt lat="42.08840215597023" lon="11.98571451446944"><ele>330.0</ele><time>2026-04-12T08:31:27Z</time></trkpt><trkpt lat="42.08832863053171" lon="11.985648028617794"><ele>330.0</ele><time>2026-04-12T08:31:29Z</time></trkpt><trkpt lat="42.08825665559629" lon="11.985623538095393"><ele>330.0</ele><time>2026-04-12T08:31:31Z</time></trkpt><trkpt lat="42.088226595150914" lon="11.985513283460728"><ele>328.0</ele><time>2026-04-12T08:31:33Z</time></trkpt><trkpt lat="42.088227411773" lon="11.985407229190129"><ele>326.0</ele><time>2026-04-12T08:31:35Z</time></trkpt><trkpt lat="42.088238356099545" lon="11.985310946486047"><ele>324.0</ele><time>2026-04-12T08:31:38Z</time></trkpt><trkpt lat="42.08825978392195" lon="11.985187559420138"><ele>322.0</ele><time>2026-04-12T08:31:41Z</time></trkpt><trkpt lat="42.088218973426244" lon="11.985098251229095"><ele>320.0</ele><time>2026-04-12T08:31:43Z</time></trkpt><trkpt lat="42.08824847005412" lon="11.984982325637583"><ele>318.0</ele><time>2026-04-12T08:31:45Z</time></trkpt><trkpt lat="42.08832316835474" lon="11.984901299965102"><ele>313.5</ele><time>2026-04-12T08:31:48Z</time></trkpt><trkpt lat="42.08832249727812" lon="11.984813380512634"><ele>309.0</ele><time>2026-04-12T08:31:50Z</time></trkpt><trkpt lat="42.08834858362585" lon="11.984729800701674"><ele>304.5</ele><time>2026-04-12T08:31:51.999Z</time></trkpt><trkpt lat="42.08842413363268" lon="11.984730971118232"><ele>300.0</ele><time>2026-04-12T08:31:54.999Z</time></trkpt><trkpt lat="42.08848803339992" lon="11.984634051381068"><ele>295.5</ele><time>2026-04-12T08:31:57.999Z</time></trkpt><trkpt lat="42.088480136673645" lon="11.984515558816707"><ele>291.0</ele><time>2026-04-12T08:32:00.999Z</time></trkpt><trkpt lat="42.088485092807936" lon="11.984416201672035"><ele>291.0</ele><time>2026-04-12T08:32:02.999Z</time></trkpt><trkpt lat="42.08844279355952" lon="11.984308934450025"><ele>291.0</ele><time>2026-04-12T08:32:05.999Z</time></trkpt><trkpt lat="42.08837397016691" lon="11.984242162346908"><ele>291.0</ele><time>2026-04-12T08:32:07.999Z</time></trkpt><trkpt lat="42.088328749080425" lon="11.98418090922997"><ele>291.0</ele><time>2026-04-12T08:32:09.999Z</time></trkpt><trkpt lat="42.08826133869891" lon="11.984119953248618"><ele>291.0</ele><time>2026-04-12T08:32:12.999Z</time></trkpt><trkpt lat="42.08821447676624" lon="11.984047835416613"><ele>291.0</ele><time>2026-04-12T08:32:25.999Z</time></trkpt><trkpt lat="42.08821493720568" lon="11.983949305177338"><ele>290.1666666666667</ele><time>2026-04-12T08:32:30.999Z</time></trkpt><trkpt lat="42.08821192819249" lon="11.983861342966074"><ele>289.3333333333333</ele><time>2026-04-12T08:32:32.999Z</time></trkpt><trkpt lat="42.08816437318163" lon="11.98376181245187"><ele>288.5</ele><time>2026-04-12T08:32:34.999Z</time></trkpt><trkpt lat="42.08812511207672" lon="11.983653740464362"><ele>287.66666666666663</ele><time>2026-04-12T08:32:36.999Z</time></trkpt><trkpt lat="42.088142226497304" lon="11.983556308389835"><ele>286.8333333333333</ele><time>2026-04-12T08:32:38.999Z</time></trkpt><trkpt lat="42.08814066986716" lon="11.983464206190638"><ele>286.0</ele><time>2026-04-12T08:32:40.999Z</time></trkpt><trkpt lat="42.088121539472304" lon="11.983353356537382"><ele>285.8333333333333</ele><time>2026-04-12T08:32:42.999Z</time></trkpt><trkpt lat="42.08809029999424" lon="11.983249422223322"><ele>285.66666666666663</ele><time>2026-04-12T08:32:44.999Z</time></trkpt><trkpt lat="42.08806579204086" lon="11.983152305833283"><ele>285.5</ele><time>2026-04-12T08:32:45.999Z</time></trkpt><trkpt lat="42.0880554497231" lon="11.98302632140738"><ele>285.3333333333333</ele><time>2026-04-12T08:32:47.999Z</time></trkpt><trkpt lat="42.088061872353265" lon="11.982938090369405"><ele>285.1666666666667</ele><time>2026-04-12T08:32:49.999Z</time></trkpt><trkpt lat="42.08808039785846" lon="11.982831774281706"><ele>285.0</ele><time>2026-04-12T08:32:52.999Z</time></trkpt><trkpt lat="42.08812377934966" lon="11.98275761342961"><ele>285.0</ele><time>2026-04-12T08:32:55.999Z</time></trkpt><trkpt lat="42.08818083434737" lon="11.98270498833729"><ele>285.0</ele><time>2026-04-12T08:32:57.999Z</time></trkpt><trkpt lat="42.088253289334006" lon="11.98264844384474"><ele>285.0</ele><time>2026-04-12T08:33:01Z</time></trkpt><trkpt lat="42.08830106199761" lon="11.982533135424625"><ele>285.0</ele><time>2026-04-12T08:33:04Z</time></trkpt><trkpt lat="42.088371227952734" lon="11.982506192252078"><ele>285.0</ele><time>2026-04-12T08:33:06Z</time></trkpt><trkpt lat="42.08842243616714" lon="11.982430728168515"><ele>285.0</ele><time>2026-04-12T08:33:12Z</time></trkpt><trkpt lat="42.0885017405762" lon="11.982378063046152"><ele>282.1666666666667</ele><time>2026-04-12T08:33:25Z</time></trkpt><trkpt lat="42.08854054307835" lon="11.98229013058313"><ele>279.3333333333333</ele><time>2026-04-12T08:33:29Z</time></trkpt><trkpt lat="42.088606912078994" lon="11.982259417790468"><ele>276.5</ele><time>2026-04-12T08:33:34Z</time></trkpt><trkpt lat="42.08865768825732" lon="11.982199439074906"><ele>273.66666666666663</ele><time>2026-04-12T08:33:35Z</time></trkpt><trkpt lat="42.088711379122984" lon="11.982110591361346"><ele>270.8333333333333</ele><time>2026-04-12T08:33:36Z</time></trkpt><trkpt lat="42.0887672271471" lon="11.981975543519022"><ele>268.0</ele><time>2026-04-12T08:33:42Z</time></trkpt><trkpt lat="42.08872694437799" lon="11.981860826812813"><ele>268.0</ele><time>2026-04-12T08:33:43Z</time></trkpt><trkpt lat="42.08875695958705" lon="11.981691206239738"><ele>268.0</ele><time>2026-04-12T08:33:45Z</time></trkpt><trkpt lat="42.088755122303915" lon="11.981561217620724"><ele>268.0</ele><time>2026-04-12T08:33:47Z</time></trkpt><trkpt lat="42.08886107522749" lon="11.98138716062052"><ele>268.0</ele><time>2026-04-12T08:33:50Z</time></trkpt><trkpt lat="42.088889847707385" lon="11.981262913173886"><ele>266.8</ele><time>2026-04-12T08:33:53Z</time></trkpt><trkpt lat="42.08888685226665" lon="11.981064178162532"><ele>265.6</ele><time>2026-04-12T08:33:54.999Z</time></trkpt><trkpt lat="42.08886158695245" lon="11.980926311339173"><ele>264.4</ele><time>2026-04-12T08:33:55.999Z</time></trkpt><trkpt lat="42.088848880904244" lon="11.980817285521505"><ele>263.2</ele><time>2026-04-12T08:33:56.999Z</time></trkpt><trkpt lat="42.08885152249102" lon="11.980729070908845"><ele>262.0</ele><time>2026-04-12T08:33:57.999Z</time></trkpt><trkpt lat="42.08884912403041" lon="11.980639762422157"><ele>260.0</ele><time>2026-04-12T08:33:58.999Z</time></trkpt><trkpt lat="42.08885350675616" lon="11.98055496957688"><ele>258.0</ele><time>2026-04-12T08:33:59.999Z</time></trkpt><trkpt lat="42.08886128083973" lon="11.980433880781895"><ele>256.0</ele><time>2026-04-12T08:34:00.999Z</time></trkpt><trkpt lat="42.08891649999411" lon="11.980275295934412"><ele>254.0</ele><time>2026-04-12T08:34:02.999Z</time></trkpt><trkpt lat="42.08896654272249" lon="11.980156761348834"><ele>252.0</ele><time>2026-04-12T08:34:04.999Z</time></trkpt><trkpt lat="42.088997828356874" lon="11.980019543890316"><ele>251.16666666666666</ele><time>2026-04-12T08:34:06.999Z</time></trkpt><trkpt lat="42.08901233104986" lon="11.979926695543337"><ele>250.33333333333331</ele><time>2026-04-12T08:34:07.999Z</time></trkpt><trkpt lat="42.089023378726914" lon="11.979822157049078"><ele>249.5</ele><time>2026-04-12T08:34:08.999Z</time></trkpt><trkpt lat="42.08903431466052" lon="11.979732717974674"><ele>248.66666666666666</ele><time>2026-04-12T08:34:09.999Z</time></trkpt><trkpt lat="42.08904933656429" lon="11.979589608063678"><ele>247.83333333333331</ele><time>2026-04-12T08:34:11.999Z</time></trkpt><trkpt lat="42.08908163249116" lon="11.979505741176572"><ele>247.0</ele><time>2026-04-12T08:34:13.999Z</time></trkpt><trkpt lat="42.08905812626749" lon="11.979425013322256"><ele>246.99999999999997</ele><time>2026-04-12T08:52:05Z</time></trkpt><trkpt lat="42.089010377071524" lon="11.97934727848748"><ele>247.0</ele><time>2026-04-12T08:52:07Z</time></trkpt><trkpt lat="42.088946141916864" lon="11.97928656547049"><ele>247.0</ele><time>2026-04-12T08:52:10Z</time></trkpt><trkpt lat="42.08895469926729" lon="11.979177601047178"><ele>247.0</ele><time>2026-04-12T08:52:15Z</time></trkpt><trkpt lat="42.08891001340546" lon="11.979040822412106"><ele>246.99999999999997</ele><time>2026-04-12T08:52:18Z</time></trkpt><trkpt lat="42.08893688730528" lon="11.978963981203922"><ele>247.0</ele><time>2026-04-12T08:52:19Z</time></trkpt><trkpt lat="42.089002035246644" lon="11.97887154032246"><ele>245.16666666666666</ele><time>2026-04-12T08:52:22Z</time></trkpt><trkpt lat="42.08897234031718" lon="11.978758971407728"><ele>243.33333333333331</ele><time>2026-04-12T08:52:26Z</time></trkpt><trkpt lat="42.08891399186054" lon="11.978715004805737"><ele>241.5</ele><time>2026-04-12T08:52:28Z</time></trkpt><trkpt lat="42.08891345194053" lon="11.978629087081968"><ele>239.66666666666669</ele><time>2026-04-12T08:52:30Z</time></trkpt><trkpt lat="42.088887666415516" lon="11.978537075820041"><ele>237.83333333333334</ele><time>2026-04-12T08:52:32Z</time></trkpt><trkpt lat="42.08889934923875" lon="11.978453321219183"><ele>236.0</ele><time>2026-04-12T08:52:35Z</time></trkpt><trkpt lat="42.088973395371944" lon="11.97836605612354"><ele>236.00000000000003</ele><time>2026-04-12T08:52:39Z</time></trkpt><trkpt lat="42.08904940938634" lon="11.978357945852968"><ele>236.0</ele><time>2026-04-12T08:52:40Z</time></trkpt><trkpt lat="42.08910562646868" lon="11.978280988532092"><ele>236.0</ele><time>2026-04-12T08:52:43Z</time></trkpt><trkpt lat="42.08912100542365" lon="11.978189424742713"><ele>236.0</ele><time>2026-04-12T08:52:44Z</time></trkpt><trkpt lat="42.08915037812386" lon="11.978110644853631"><ele>236.00000000000003</ele><time>2026-04-12T08:52:46Z</time></trkpt><trkpt lat="42.089156053364235" lon="11.978014452500707"><ele>236.0</ele><time>2026-04-12T08:52:49Z</time></trkpt><trkpt lat="42.08912099436749" lon="11.977905524606726"><ele>233.4</ele><time>2026-04-12T08:52:53.999Z</time></trkpt><trkpt lat="42.089014756877866" lon="11.977840105225544"><ele>230.8</ele><time>2026-04-12T08:52:59.999Z</time></trkpt><trkpt lat="42.08898477722114" lon="11.97774240024687"><ele>228.20000000000002</ele><time>2026-04-12T08:53:05.999Z</time></trkpt><trkpt lat="42.08896600613928" lon="11.977608441543886"><ele>225.60000000000002</ele><time>2026-04-12T08:53:08.999Z</time></trkpt><trkpt lat="42.08894904234095" lon="11.977526701798558"><ele>223.0</ele><time>2026-04-12T08:53:12.999Z</time></trkpt><trkpt lat="42.08889878237998" lon="11.977403346251164"><ele>221.0</ele><time>2026-04-12T08:53:14.999Z</time></trkpt><trkpt lat="42.0888648582829" lon="11.977322225256868"><ele>219.0</ele><time>2026-04-12T08:53:16.999Z</time></trkpt><trkpt lat="42.088833248005514" lon="11.977243359839541"><ele>217.0</ele><time>2026-04-12T08:53:18.999Z</time></trkpt><trkpt lat="42.088791615245995" lon="11.977169557061668"><ele>215.0</ele><time>2026-04-12T08:53:21.999Z</time></trkpt><trkpt lat="42.08875634103179" lon="11.977097951818633"><ele>213.0</ele><time>2026-04-12T08:53:22.999Z</time></trkpt><trkpt lat="42.08870006379684" lon="11.977034390037542"><ele>211.0</ele><time>2026-04-12T08:53:24.999Z</time></trkpt><trkpt lat="42.08866792467104" lon="11.97695176199296"><ele>209.0</ele><time>2026-04-12T08:54:12Z</time></trkpt><trkpt lat="42.08858694435207" lon="11.976886621636734"><ele>209.0</ele><time>2026-04-12T08:54:20Z</time></trkpt><trkpt lat="42.0885097892303" lon="11.976885589220023"><ele>209.0</ele><time>2026-04-12T08:54:23Z</time></trkpt><trkpt lat="42.08840109823075" lon="11.97676911048521"><ele>209.0</ele><time>2026-04-12T08:54:26Z</time></trkpt><trkpt lat="42.088354585477695" lon="11.97669765929986"><ele>209.0</ele><time>2026-04-12T08:54:27Z</time></trkpt><trkpt lat="42.088280574351344" lon="11.976619073082807"><ele>209.0</ele><time>2026-04-12T08:54:29Z</time></trkpt><trkpt lat="42.088139259870935" lon="11.976544652740689"><ele>206.33333333333334</ele><time>2026-04-12T08:54:30Z</time></trkpt><trkpt lat="42.08809113487099" lon="11.976457130994369"><ele>203.66666666666669</ele><time>2026-04-12T08:54:32Z</time></trkpt><trkpt lat="42.08807179925717" lon="11.97637006580113"><ele>201.0</ele><time>2026-04-12T08:54:34Z</time></trkpt><trkpt lat="42.08802499783721" lon="11.97626026247995"><ele>198.33333333333331</ele><time>2026-04-12T08:54:36Z</time></trkpt><trkpt lat="42.08799259296917" lon="11.976184099203133"><ele>195.66666666666666</ele><time>2026-04-12T08:54:38Z</time></trkpt><trkpt lat="42.08798527760511" lon="11.976089710419096"><ele>193.0</ele><time>2026-04-12T08:54:40Z</time></trkpt><trkpt lat="42.087928833967425" lon="11.97596556556551"><ele>192.99999999999997</ele><time>2026-04-12T08:54:42Z</time></trkpt><trkpt lat="42.087873685178856" lon="11.975899405134747"><ele>193.0</ele><time>2026-04-12T08:54:44Z</time></trkpt><trkpt lat="42.0877904043362" lon="11.975883608724695"><ele>193.0</ele><time>2026-04-12T08:54:46Z</time></trkpt><trkpt lat="42.08768572962435" lon="11.975904486289714"><ele>193.0</ele><time>2026-04-12T08:54:48Z</time></trkpt><trkpt lat="42.08762773299864" lon="11.975837333784485"><ele>192.99999999999997</ele><time>2026-04-12T08:54:56.999Z</time></trkpt><trkpt lat="42.087569988369324" lon="11.975797230867608"><ele>193.0</ele><time>2026-04-12T08:55:01.999Z</time></trkpt><trkpt lat="42.08752554080003" lon="11.975718213985253"><ele>191.2</ele><time>2026-04-12T08:55:02.999Z</time></trkpt><trkpt lat="42.08745468699263" lon="11.975734183306997"><ele>189.4</ele><time>2026-04-12T08:55:03.999Z</time></trkpt><trkpt lat="42.08743559483505" lon="11.975637934944116"><ele>187.6</ele><time>2026-04-12T08:55:06.999Z</time></trkpt><trkpt lat="42.087402139721654" lon="11.975493750605105"><ele>185.79999999999998</ele><time>2026-04-12T08:55:08.999Z</time></trkpt><trkpt lat="42.087361112498996" lon="11.975351663737984"><ele>184.0</ele><time>2026-04-12T08:55:10.999Z</time></trkpt><trkpt lat="42.08729122656504" lon="11.975300349889839"><ele>184.0</ele><time>2026-04-12T08:55:13.999Z</time></trkpt><trkpt lat="42.08720030556085" lon="11.9753280996578"><ele>184.0</ele><time>2026-04-12T08:55:15.999Z</time></trkpt><trkpt lat="42.08716401653359" lon="11.975439235044169"><ele>184.0</ele><time>2026-04-12T08:55:23.999Z</time></trkpt><trkpt lat="42.087117932086976" lon="11.97550539829847"><ele>184.0</ele><time>2026-04-12T08:55:25.999Z</time></trkpt><trkpt lat="42.08702624548104" lon="11.97540665564534"><ele>184.0</ele><time>2026-04-12T08:55:28.999Z</time></trkpt><trkpt lat="42.08695293025131" lon="11.975427761139382"><ele>184.0</ele><time>2026-04-12T08:55:31.999Z</time></trkpt><trkpt lat="42.08688589484858" lon="11.975395006152127"><ele>184.0</ele><time>2026-04-12T08:55:33.999Z</time></trkpt><trkpt lat="42.08678012112634" lon="11.975306779538009"><ele>184.0</ele><time>2026-04-12T08:55:35.999Z</time></trkpt><trkpt lat="42.086686185316005" lon="11.975265763562094"><ele>184.0</ele><time>2026-04-12T08:55:38.999Z</time></trkpt><trkpt lat="42.08663967929947" lon="11.975205844342554"><ele>184.0</ele><time>2026-04-12T08:55:40.999Z</time></trkpt><trkpt lat="42.08656796518402" lon="11.97521007190368"><ele>184.0</ele><time>2026-04-12T08:55:42.999Z</time></trkpt><trkpt lat="42.08649543836458" lon="11.975261763036208"><ele>184.0</ele><time>2026-04-12T08:55:46.999Z</time></trkpt><trkpt lat="42.0864375223676" lon="11.975320076646385"><ele>185.0</ele><time>2026-04-12T08:55:48.999Z</time></trkpt><trkpt lat="42.08636203232463" lon="11.97535509931339"><ele>186.0</ele><time>2026-04-12T08:55:50.999Z</time></trkpt><trkpt lat="42.08628878520934" lon="11.975352359808726"><ele>187.0</ele><time>2026-04-12T08:55:52.999Z</time></trkpt><trkpt lat="42.086204514679615" lon="11.97533475714058"><ele>188.0</ele><time>2026-04-12T08:55:54.999Z</time></trkpt><trkpt lat="42.086097919902265" lon="11.975355066730463"><ele>189.0</ele><time>2026-04-12T08:55:55.999Z</time></trkpt><trkpt lat="42.086059421734134" lon="11.975228364385181"><ele>190.0</ele><time>2026-04-12T08:55:57.999Z</time></trkpt><trkpt lat="42.086029787006" lon="11.9750993617584"><ele>188.2</ele><time>2026-04-12T08:55:59.999Z</time></trkpt><trkpt lat="42.08596793301645" lon="11.974969750904346"><ele>186.4</ele><time>2026-04-12T08:56:03.999Z</time></trkpt><trkpt lat="42.08590277195101" lon="11.974886306080533"><ele>184.60000000000002</ele><time>2026-04-12T08:56:07Z</time></trkpt><trkpt lat="42.08587792205797" lon="11.97476431129339"><ele>182.8</ele><time>2026-04-12T08:56:09Z</time></trkpt><trkpt lat="42.08579400198108" lon="11.974755336820216"><ele>181.0</ele><time>2026-04-12T08:56:11Z</time></trkpt><trkpt lat="42.08570389840492" lon="11.97473051791095"><ele>181.0</ele><time>2026-04-12T08:56:14Z</time></trkpt><trkpt lat="42.0856318707925" lon="11.974725719288164"><ele>181.0</ele><time>2026-04-12T08:56:16Z</time></trkpt><trkpt lat="42.08556556475714" lon="11.97466175341987"><ele>181.0</ele><time>2026-04-12T08:56:21Z</time></trkpt><trkpt lat="42.08544761193166" lon="11.974520186854539"><ele>181.0</ele><time>2026-04-12T08:56:23Z</time></trkpt><trkpt lat="42.08535656964434" lon="11.974478582780636"><ele>181.0</ele><time>2026-04-12T08:56:28Z</time></trkpt><trkpt lat="42.0851866559299" lon="11.974465031106593"><ele>181.0</ele><time>2026-04-12T08:56:29Z</time></trkpt><trkpt lat="42.08506929965716" lon="11.974405657468889"><ele>181.0</ele><time>2026-04-12T08:56:30Z</time></trkpt><trkpt lat="42.08499316150261" lon="11.974352580820174"><ele>181.0</ele><time>2026-04-12T08:56:31Z</time></trkpt><trkpt lat="42.084930579252" lon="11.974335473119089"><ele>181.0</ele><time>2026-04-12T08:56:32Z</time></trkpt><trkpt lat="42.08483304920796" lon="11.974287921935803"><ele>181.0</ele><time>2026-04-12T08:56:33Z</time></trkpt><trkpt lat="42.084752938624376" lon="11.974261407852765"><ele>180.0</ele><time>2026-04-12T08:56:34Z</time></trkpt><trkpt lat="42.08468703935114" lon="11.974212051073003"><ele>179.0</ele><time>2026-04-12T08:56:35Z</time></trkpt><trkpt lat="42.084618723464104" lon="11.974183143304382"><ele>178.0</ele><time>2026-04-12T08:56:36Z</time></trkpt><trkpt lat="42.08455359218062" lon="11.974124710590582"><ele>177.0</ele><time>2026-04-12T08:56:38Z</time></trkpt><trkpt lat="42.084477870640534" lon="11.974109275624253"><ele>176.0</ele><time>2026-04-12T08:56:40Z</time></trkpt><trkpt lat="42.08440305791624" lon="11.974061903213183"><ele>175.0</ele><time>2026-04-12T08:56:42Z</time></trkpt><trkpt lat="42.08444465648491" lon="11.974218714630927"><ele>175.0</ele><time>2026-04-12T08:56:46Z</time></trkpt><trkpt lat="42.08438364017865" lon="11.97417797456416"><ele>175.0</ele><time>2026-04-12T08:57:21.999Z</time></trkpt><trkpt lat="42.084349293731776" lon="11.97407274314281"><ele>175.0</ele><time>2026-04-12T08:57:24.999Z</time></trkpt><trkpt lat="42.084355312330516" lon="11.973968189902575"><ele>175.0</ele><time>2026-04-12T08:57:27.999Z</time></trkpt><trkpt lat="42.08434176347203" lon="11.973857809732381"><ele>175.0</ele><time>2026-04-12T08:57:30.999Z</time></trkpt><trkpt lat="42.084315005329344" lon="11.973766571910488"><ele>175.0</ele><time>2026-04-12T08:57:32.999Z</time></trkpt><trkpt lat="42.08427440028052" lon="11.9736020775438"><ele>175.0</ele><time>2026-04-12T08:57:36.999Z</time></trkpt><trkpt lat="42.08421538309382" lon="11.973491092603869"><ele>175.0</ele><time>2026-04-12T08:57:38.999Z</time></trkpt><trkpt lat="42.084292738516126" lon="11.973446123189536"><ele>175.0</ele><time>2026-04-12T08:57:39.999Z</time></trkpt><trkpt lat="42.08436803594467" lon="11.97334147439472"><ele>175.0</ele><time>2026-04-12T08:57:41.999Z</time></trkpt><trkpt lat="42.08438763878096" lon="11.973254173417118"><ele>175.0</ele><time>2026-04-12T08:57:42.999Z</time></trkpt><trkpt lat="42.08438631224508" lon="11.973148476083056"><ele>175.0</ele><time>2026-04-12T08:57:44.999Z</time></trkpt><trkpt lat="42.08439170083231" lon="11.973035151407178"><ele>173.4</ele><time>2026-04-12T08:57:47.999Z</time></trkpt><trkpt lat="42.084248516061415" lon="11.973035771100102"><ele>171.8</ele><time>2026-04-12T08:57:51.999Z</time></trkpt><trkpt lat="42.08420794331439" lon="11.972930168799927"><ele>170.2</ele><time>2026-04-12T08:57:54.999Z</time></trkpt><trkpt lat="42.084136073928924" lon="11.972861171149153"><ele>168.6</ele><time>2026-04-12T08:58:04.999Z</time></trkpt><trkpt lat="42.08406940620696" lon="11.972771371249681"><ele>167.0</ele><time>2026-04-12T08:58:09.999Z</time></trkpt><trkpt lat="42.08401738895471" lon="11.97269652653883"><ele>167.0</ele><time>2026-04-12T08:58:12Z</time></trkpt><trkpt lat="42.08389452704895" lon="11.972552251150955"><ele>167.0</ele><time>2026-04-12T08:58:15Z</time></trkpt><trkpt lat="42.0838433163213" lon="11.97242930798758"><ele>167.0</ele><time>2026-04-12T08:58:18Z</time></trkpt><trkpt lat="42.083767071381466" lon="11.972371568352074"><ele>167.0</ele><time>2026-04-12T08:58:20Z</time></trkpt><trkpt lat="42.08366736299715" lon="11.972264853952593"><ele>165.25</ele><time>2026-04-12T08:58:23Z</time></trkpt><trkpt lat="42.08360838654516" lon="11.972222652344001"><ele>163.5</ele><time>2026-04-12T08:58:26Z</time></trkpt><trkpt lat="42.08345201964283" lon="11.972142068260656"><ele>161.75</ele><time>2026-04-12T08:58:28Z</time></trkpt><trkpt lat="42.08328753921196" lon="11.972149982114859"><ele>160.0</ele><time>2026-04-12T08:58:29Z</time></trkpt><trkpt lat="42.08317059991452" lon="11.972152458609681"><ele>160.0</ele><time>2026-04-12T08:58:30Z</time></trkpt><trkpt lat="42.083097266022605" lon="11.972140957670657"><ele>160.0</ele><time>2026-04-12T08:58:32Z</time></trkpt><trkpt lat="42.08307386863234" lon="11.97205344208023"><ele>160.0</ele><time>2026-04-12T08:58:41Z</time></trkpt><trkpt lat="42.08303478305276" lon="11.97195490475596"><ele>160.0</ele><time>2026-04-12T08:58:44Z</time></trkpt><trkpt lat="42.08296701390792" lon="11.971914783024284"><ele>160.0</ele><time>2026-04-12T08:58:48Z</time></trkpt><trkpt lat="42.08293069867431" lon="11.971843371912044"><ele>160.0</ele><time>2026-04-12T09:01:08Z</time></trkpt><trkpt lat="42.08286549248163" lon="11.97186591762278"><ele>160.0</ele><time>2026-04-12T09:01:19.999Z</time></trkpt><trkpt lat="42.08280736851917" lon="11.97181601884946"><ele>160.0</ele><time>2026-04-12T09:01:22.999Z</time></trkpt><trkpt lat="42.08274043960224" lon="11.971757430928161"><ele>160.0</ele><time>2026-04-12T09:01:25.999Z</time></trkpt><trkpt lat="42.08268934763636" lon="11.97168797668937"><ele>160.0</ele><time>2026-04-12T09:01:28.999Z</time></trkpt><trkpt lat="42.08262044412898" lon="11.971609918656592"><ele>160.0</ele><time>2026-04-12T09:01:31.999Z</time></trkpt><trkpt lat="42.082565514098484" lon="11.971652058431587"><ele>160.0</ele><time>2026-04-12T09:01:37.999Z</time></trkpt><trkpt lat="42.08250522828847" lon="11.971578197710953"><ele>160.0</ele><time>2026-04-12T09:01:47.999Z</time></trkpt><trkpt lat="42.08248489952896" lon="11.971469319272147"><ele>157.0</ele><time>2026-04-12T09:01:58.999Z</time></trkpt><trkpt lat="42.08245346718954" lon="11.971354433868381"><ele>154.0</ele><time>2026-04-12T09:01:59.999Z</time></trkpt><trkpt lat="42.08241059113176" lon="11.971275936954488"><ele>151.0</ele><time>2026-04-12T09:02:04.999Z</time></trkpt><trkpt lat="42.08230640442462" lon="11.971232117817925"><ele>148.0</ele><time>2026-04-12T09:02:06.999Z</time></trkpt><trkpt lat="42.082231133693845" lon="11.971202613395565"><ele>145.0</ele><time>2026-04-12T09:02:07.999Z</time></trkpt><trkpt lat="42.08211912436795" lon="11.971209829669341"><ele>144.66666666666669</ele><time>2026-04-12T09:02:09.999Z</time></trkpt><trkpt lat="42.08204043810283" lon="11.97124812304258"><ele>144.33333333333334</ele><time>2026-04-12T09:02:11.999Z</time></trkpt><trkpt lat="42.08197108278685" lon="11.97130231309205"><ele>144.0</ele><time>2026-04-12T09:02:14.999Z</time></trkpt><trkpt lat="42.08189947984431" lon="11.97133400638485"><ele>143.66666666666666</ele><time>2026-04-12T09:02:17.999Z</time></trkpt><trkpt lat="42.08185946787626" lon="11.971226276404877"><ele>143.33333333333331</ele><time>2026-04-12T09:02:18.999Z</time></trkpt><trkpt lat="42.08176821146698" lon="11.971221844614162"><ele>143.0</ele><time>2026-04-12T09:02:20.999Z</time></trkpt><trkpt lat="42.08168432663766" lon="11.97127915888868"><ele>143.0</ele><time>2026-04-12T09:02:22.999Z</time></trkpt><trkpt lat="42.081601179600746" lon="11.971301002766566"><ele>143.0</ele><time>2026-04-12T09:02:25Z</time></trkpt><trkpt lat="42.081537150307334" lon="11.971299584527268"><ele>143.0</ele><time>2026-04-12T09:02:27Z</time></trkpt><trkpt lat="42.08147149878106" lon="11.971277938716922"><ele>143.0</ele><time>2026-04-12T09:02:29Z</time></trkpt><trkpt lat="42.08139994582508" lon="11.971240963003742"><ele>143.0</ele><time>2026-04-12T09:02:31Z</time></trkpt><trkpt lat="42.081343516004495" lon="11.971163905503937"><ele>143.0</ele><time>2026-04-12T09:02:35Z</time></trkpt><trkpt lat="42.08129859841623" lon="11.971073385394009"><ele>143.5</ele><time>2026-04-12T09:02:38Z</time></trkpt><trkpt lat="42.081312003982134" lon="11.970973763890559"><ele>144.0</ele><time>2026-04-12T09:02:41Z</time></trkpt><trkpt lat="42.08133318579374" lon="11.970864319174666"><ele>144.5</ele><time>2026-04-12T09:02:44Z</time></trkpt><trkpt lat="42.08131705846603" lon="11.97071667870769"><ele>145.0</ele><time>2026-04-12T09:02:46Z</time></trkpt><trkpt lat="42.081316976361606" lon="11.970624337573234"><ele>145.5</ele><time>2026-04-12T09:02:50Z</time></trkpt><trkpt lat="42.08134685286272" lon="11.970524821175232"><ele>146.0</ele><time>2026-04-12T09:02:53Z</time></trkpt><trkpt lat="42.08141671691448" lon="11.970408531263912"><ele>146.0</ele><time>2026-04-12T09:02:56Z</time></trkpt><trkpt lat="42.08141405551564" lon="11.970300932290018"><ele>146.0</ele><time>2026-04-12T09:02:57Z</time></trkpt><trkpt lat="42.08143131308073" lon="11.97018192252213"><ele>146.0</ele><time>2026-04-12T09:02:58Z</time></trkpt><trkpt lat="42.08144966511732" lon="11.97007844382052"><ele>146.0</ele><time>2026-04-12T09:02:59Z</time></trkpt><trkpt lat="42.08146879893936" lon="11.969944741150378"><ele>146.0</ele><time>2026-04-12T09:03:00Z</time></trkpt><trkpt lat="42.08149992053026" lon="11.969790065461137"><ele>145.16666666666666</ele><time>2026-04-12T09:03:01Z</time></trkpt><trkpt lat="42.08154142411019" lon="11.969674336071396"><ele>144.33333333333331</ele><time>2026-04-12T09:03:02Z</time></trkpt><trkpt lat="42.08155968788233" lon="11.96958301140693"><ele>143.5</ele><time>2026-04-12T09:03:03Z</time></trkpt><trkpt lat="42.081566116537225" lon="11.969460076558168"><ele>142.66666666666666</ele><time>2026-04-12T09:03:04Z</time></trkpt><trkpt lat="42.08156911465024" lon="11.96934550841951"><ele>141.83333333333334</ele><time>2026-04-12T09:03:05Z</time></trkpt><trkpt lat="42.08157423096886" lon="11.969218053153758"><ele>141.0</ele><time>2026-04-12T09:03:06Z</time></trkpt><trkpt lat="42.08159920191411" lon="11.969123874708707"><ele>140.16666666666666</ele><time>2026-04-12T09:03:07Z</time></trkpt><trkpt lat="42.081622399040725" lon="11.96901433962505"><ele>139.33333333333334</ele><time>2026-04-12T09:03:08Z</time></trkpt><trkpt lat="42.081647467457366" lon="11.968902465282033"><ele>138.5</ele><time>2026-04-12T09:03:10Z</time></trkpt><trkpt lat="42.08164853174081" lon="11.96877013243749"><ele>137.66666666666669</ele><time>2026-04-12T09:03:12Z</time></trkpt><trkpt lat="42.081591222021416" lon="11.968705350169849"><ele>136.83333333333334</ele><time>2026-04-12T09:03:13Z</time></trkpt><trkpt lat="42.08156670897742" lon="11.968622397708888"><ele>136.0</ele><time>2026-04-12T09:03:14Z</time></trkpt><trkpt lat="42.08154173436699" lon="11.96852933632389"><ele>136.0</ele><time>2026-04-12T09:03:15Z</time></trkpt><trkpt lat="42.08153254303108" lon="11.968431354739607"><ele>136.0</ele><time>2026-04-12T09:03:16Z</time></trkpt><trkpt lat="42.081517205521884" lon="11.96831452056725"><ele>136.0</ele><time>2026-04-12T09:03:17Z</time></trkpt><trkpt lat="42.08149848246483" lon="11.968168992407856"><ele>136.0</ele><time>2026-04-12T09:03:18Z</time></trkpt><trkpt lat="42.08147591031579" lon="11.96800191609956"><ele>136.0</ele><time>2026-04-12T09:03:19Z</time></trkpt><trkpt lat="42.08147423726789" lon="11.967867473789058"><ele>134.66666666666669</ele><time>2026-04-12T09:03:20Z</time></trkpt><trkpt lat="42.08148190069302" lon="11.967749036149321"><ele>133.33333333333334</ele><time>2026-04-12T09:03:20.999Z</time></trkpt><trkpt lat="42.08149658633134" lon="11.967630033074267"><ele>132.0</ele><time>2026-04-12T09:03:21.999Z</time></trkpt><trkpt lat="42.08151835578994" lon="11.967549319481705"><ele>130.66666666666666</ele><time>2026-04-12T09:03:22.999Z</time></trkpt><trkpt lat="42.08149365584723" lon="11.967432709429595"><ele>129.33333333333331</ele><time>2026-04-12T09:03:24.999Z</time></trkpt><trkpt lat="42.08146993965219" lon="11.96731699621084"><ele>128.0</ele><time>2026-04-12T09:03:26.999Z</time></trkpt><trkpt lat="42.081380229132016" lon="11.967241807092279"><ele>126.99999999999999</ele><time>2026-04-12T09:03:28.999Z</time></trkpt><trkpt lat="42.081310737477004" lon="11.967198573555342"><ele>126.0</ele><time>2026-04-12T09:03:29.999Z</time></trkpt><trkpt lat="42.081251540302496" lon="11.967146009385408"><ele>125.0</ele><time>2026-04-12T09:03:30.999Z</time></trkpt><trkpt lat="42.081201338625505" lon="11.967089220646887"><ele>124.0</ele><time>2026-04-12T09:03:31.999Z</time></trkpt><trkpt lat="42.08113616323729" lon="11.966981903748689"><ele>122.99999999999999</ele><time>2026-04-12T09:03:33.999Z</time></trkpt><trkpt lat="42.0811023933797" lon="11.966899559217467"><ele>122.0</ele><time>2026-04-12T09:03:34.999Z</time></trkpt><trkpt lat="42.08101722531844" lon="11.966798497595658"><ele>122.19999999999999</ele><time>2026-04-12T09:03:36.999Z</time></trkpt><trkpt lat="42.08092797548713" lon="11.966682268477872"><ele>122.39999999999999</ele><time>2026-04-12T09:03:38.999Z</time></trkpt><trkpt lat="42.08086424951071" lon="11.96655175965579"><ele>122.60000000000001</ele><time>2026-04-12T09:03:40.999Z</time></trkpt><trkpt lat="42.08078465549285" lon="11.966453170051881"><ele>122.80000000000001</ele><time>2026-04-12T09:03:42.999Z</time></trkpt><trkpt lat="42.08072168485419" lon="11.966422077410872"><ele>123.0</ele><time>2026-04-12T09:03:44.999Z</time></trkpt><trkpt lat="42.08064112299403" lon="11.966430383657688"><ele>123.0</ele><time>2026-04-12T09:03:47.999Z</time></trkpt><trkpt lat="42.08055533486939" lon="11.966424469001296"><ele>123.0</ele><time>2026-04-12T09:03:50.999Z</time></trkpt><trkpt lat="42.080484350498914" lon="11.966375648498067"><ele>123.0</ele><time>2026-04-12T09:03:53.999Z</time></trkpt><trkpt lat="42.08042040475665" lon="11.966320633699228"><ele>123.0</ele><time>2026-04-12T09:04:01.999Z</time></trkpt><trkpt lat="42.080357612927685" lon="11.966228513766817"><ele>123.0</ele><time>2026-04-12T09:04:05.999Z</time></trkpt><trkpt lat="42.08030542943701" lon="11.966119274111835"><ele>123.0</ele><time>2026-04-12T09:04:08.999Z</time></trkpt><trkpt lat="42.080234829736526" lon="11.966145967822255"><ele>123.00000000000001</ele><time>2026-04-12T09:04:11.999Z</time></trkpt><trkpt lat="42.08025786449161" lon="11.966035227217446"><ele>123.0</ele><time>2026-04-12T09:06:11.999Z</time></trkpt><trkpt lat="42.0801974862542" lon="11.966059461929929"><ele>123.00000000000001</ele><time>2026-04-12T09:06:23.999Z</time></trkpt><trkpt lat="42.080128445937234" lon="11.966035814285899"><ele>123.00000000000001</ele><time>2026-04-12T09:06:29.999Z</time></trkpt><trkpt lat="42.08019354700496" lon="11.966077401644284"><ele>123.0</ele><time>2026-04-12T09:06:49Z</time></trkpt><trkpt lat="42.08025764625157" lon="11.96600125751707"><ele>123.00000000000001</ele><time>2026-04-12T09:07:33.999Z</time></trkpt><trkpt lat="42.08030048033763" lon="11.965936270583649"><ele>123.00000000000001</ele><time>2026-04-12T09:07:38.999Z</time></trkpt><trkpt lat="42.080361289855425" lon="11.965910494306486"><ele>123.0</ele><time>2026-04-12T09:07:45.999Z</time></trkpt><trkpt lat="42.080424171874945" lon="11.965899823313125"><ele>123.0</ele><time>2026-04-12T09:07:53.999Z</time></trkpt><trkpt lat="42.08037993354058" lon="11.965968568367636"><ele>123.0</ele><time>2026-04-12T09:08:10.999Z</time></trkpt><trkpt lat="42.08033268768261" lon="11.966026744953389"><ele>123.0</ele><time>2026-04-12T09:08:15.999Z</time></trkpt><trkpt lat="42.08027846401923" lon="11.966072804268775"><ele>123.0</ele><time>2026-04-12T09:08:23.999Z</time></trkpt><trkpt lat="42.08036538376511" lon="11.965964314207342"><ele>123.0</ele><time>2026-04-12T09:12:01.999Z</time></trkpt><trkpt lat="42.08044401526892" lon="11.96591145080564"><ele>122.33333333333333</ele><time>2026-04-12T09:12:02.999Z</time></trkpt><trkpt lat="42.08048313573063" lon="11.965832358515753"><ele>121.66666666666666</ele><time>2026-04-12T09:12:03.999Z</time></trkpt><trkpt lat="42.08053016851042" lon="11.965763278223585"><ele>121.0</ele><time>2026-04-12T09:12:05.999Z</time></trkpt><trkpt lat="42.08058666569287" lon="11.965702283047905"><ele>120.33333333333333</ele><time>2026-04-12T09:12:07.999Z</time></trkpt><trkpt lat="42.080683267673884" lon="11.96571954145457"><ele>119.66666666666666</ele><time>2026-04-12T09:12:12.999Z</time></trkpt><trkpt lat="42.08072222117002" lon="11.96562937187345"><ele>119.0</ele><time>2026-04-12T09:12:16.999Z</time></trkpt><trkpt lat="42.08072973034039" lon="11.965525356942283"><ele>118.99999999999999</ele><time>2026-04-12T09:12:18.999Z</time></trkpt><trkpt lat="42.08073292270376" lon="11.965417202140868"><ele>119.0</ele><time>2026-04-12T09:12:20.999Z</time></trkpt><trkpt lat="42.08080552955339" lon="11.96536745722916"><ele>119.0</ele><time>2026-04-12T09:12:23.999Z</time></trkpt><trkpt lat="42.080870045428036" lon="11.965348455119566"><ele>119.0</ele><time>2026-04-12T09:12:24.999Z</time></trkpt><trkpt lat="42.080940156901065" lon="11.965367962214943"><ele>118.99999999999999</ele><time>2026-04-12T09:12:26.999Z</time></trkpt><trkpt lat="42.08098321767793" lon="11.965284271505935"><ele>119.0</ele><time>2026-04-12T09:12:28.999Z</time></trkpt><trkpt lat="42.081082114694304" lon="11.96527290667525"><ele>119.0</ele><time>2026-04-12T09:12:30.999Z</time></trkpt><trkpt lat="42.08115944487907" lon="11.965177440140137"><ele>119.0</ele><time>2026-04-12T09:12:31.999Z</time></trkpt><trkpt lat="42.08121476386711" lon="11.964999609759047"><ele>119.0</ele><time>2026-04-12T09:12:32.999Z</time></trkpt><trkpt lat="42.08124453620401" lon="11.96477718270931"><ele>119.0</ele><time>2026-04-12T09:12:33.999Z</time></trkpt><trkpt lat="42.08127321546779" lon="11.96462956544275"><ele>118.99999999999999</ele><time>2026-04-12T09:12:34.999Z</time></trkpt><trkpt lat="42.0813066487878" lon="11.964513518312934"><ele>119.0</ele><time>2026-04-12T09:12:35.999Z</time></trkpt><trkpt lat="42.08134573103933" lon="11.964414273078335"><ele>119.0</ele><time>2026-04-12T09:12:36.999Z</time></trkpt><trkpt lat="42.08139743365256" lon="11.96431206847016"><ele>119.0</ele><time>2026-04-12T09:12:37.999Z</time></trkpt><trkpt lat="42.08145312917963" lon="11.964241051379993"><ele>118.99999999999999</ele><time>2026-04-12T09:12:38.999Z</time></trkpt><trkpt lat="42.08149836077038" lon="11.964170688915308"><ele>119.0</ele><time>2026-04-12T09:12:39.999Z</time></trkpt><trkpt lat="42.08155011587881" lon="11.96402976374277"><ele>119.49999999999999</ele><time>2026-04-12T09:12:41.999Z</time></trkpt><trkpt lat="42.08153832044625" lon="11.963852338729064"><ele>120.0</ele><time>2026-04-12T09:12:43.999Z</time></trkpt><trkpt lat="42.08154249407879" lon="11.963735447945336"><ele>120.5</ele><time>2026-04-12T09:12:44.999Z</time></trkpt><trkpt lat="42.08158239612412" lon="11.963662355982015"><ele>121.0</ele><time>2026-04-12T09:12:45.999Z</time></trkpt><trkpt lat="42.08164294621335" lon="11.96361121347806"><ele>121.49999999999999</ele><time>2026-04-12T09:12:46.999Z</time></trkpt><trkpt lat="42.08170572639196" lon="11.963556447385855"><ele>122.0</ele><time>2026-04-12T09:12:48Z</time></trkpt><trkpt lat="42.081776159059416" lon="11.963506163484071"><ele>122.0</ele><time>2026-04-12T09:12:49Z</time></trkpt><trkpt lat="42.08188104725783" lon="11.96346745879732"><ele>122.0</ele><time>2026-04-12T09:12:50Z</time></trkpt><trkpt lat="42.08199376994588" lon="11.963439680093195"><ele>122.0</ele><time>2026-04-12T09:12:51Z</time></trkpt><trkpt lat="42.082130478740176" lon="11.963435610465321"><ele>122.0</ele><time>2026-04-12T09:12:52Z</time></trkpt><trkpt lat="42.08223454077115" lon="11.963402179344437"><ele>122.0</ele><time>2026-04-12T09:12:53Z</time></trkpt><trkpt lat="42.08233334137234" lon="11.963377141853742"><ele>121.99999999999999</ele><time>2026-04-12T09:12:54Z</time></trkpt><trkpt lat="42.08244245705833" lon="11.963381721075342"><ele>121.99999999999999</ele><time>2026-04-12T09:12:55Z</time></trkpt><trkpt lat="42.08254698737308" lon="11.963395372163923"><ele>122.0</ele><time>2026-04-12T09:12:56Z</time></trkpt><trkpt lat="42.082622717400035" lon="11.963449399439464"><ele>122.0</ele><time>2026-04-12T09:12:57Z</time></trkpt><trkpt lat="42.08270897614252" lon="11.96352241308458"><ele>123.8</ele><time>2026-04-12T09:12:58Z</time></trkpt><trkpt lat="42.08279851148109" lon="11.96357860245677"><ele>125.6</ele><time>2026-04-12T09:12:59Z</time></trkpt><trkpt lat="42.08290821585494" lon="11.96362767013456"><ele>127.39999999999999</ele><time>2026-04-12T09:13:00Z</time></trkpt><trkpt lat="42.08302159741219" lon="11.963657422139093"><ele>129.2</ele><time>2026-04-12T09:13:01Z</time></trkpt><trkpt lat="42.083129537096276" lon="11.963680956206723"><ele>131.0</ele><time>2026-04-12T09:13:02Z</time></trkpt><trkpt lat="42.08324686073562" lon="11.963698402952712"><ele>131.5</ele><time>2026-04-12T09:13:03Z</time></trkpt><trkpt lat="42.08333910065727" lon="11.963710173213878"><ele>132.0</ele><time>2026-04-12T09:13:04Z</time></trkpt><trkpt lat="42.08341933428868" lon="11.96369599904585"><ele>132.5</ele><time>2026-04-12T09:13:05Z</time></trkpt><trkpt lat="42.08350710087952" lon="11.963676664874452"><ele>133.0</ele><time>2026-04-12T09:13:06Z</time></trkpt><trkpt lat="42.08358167979827" lon="11.963663540495768"><ele>133.5</ele><time>2026-04-12T09:13:07Z</time></trkpt><trkpt lat="42.08364913262779" lon="11.963554256315323"><ele>134.0</ele><time>2026-04-12T09:13:09Z</time></trkpt><trkpt lat="42.083673898349076" lon="11.96347569873508"><ele>134.0</ele><time>2026-04-12T09:13:11Z</time></trkpt><trkpt lat="42.08369834113376" lon="11.963388593961781"><ele>134.0</ele><time>2026-04-12T09:13:13Z</time></trkpt><trkpt lat="42.08371636398588" lon="11.963289652056005"><ele>134.0</ele><time>2026-04-12T09:13:15Z</time></trkpt><trkpt lat="42.083708281210896" lon="11.963162192749637"><ele>134.0</ele><time>2026-04-12T09:13:17Z</time></trkpt><trkpt lat="42.08375166315412" lon="11.963031730029039"><ele>134.0</ele><time>2026-04-12T09:13:19Z</time></trkpt><trkpt lat="42.08377645817161" lon="11.962930407843508"><ele>134.0</ele><time>2026-04-12T09:13:20Z</time></trkpt><trkpt lat="42.08382085504288" lon="11.962843778019451"><ele>134.6</ele><time>2026-04-12T09:13:21Z</time></trkpt><trkpt lat="42.0838956193524" lon="11.962719456803791"><ele>135.2</ele><time>2026-04-12T09:13:23Z</time></trkpt><trkpt lat="42.083990338074074" lon="11.962673561610712"><ele>135.79999999999998</ele><time>2026-04-12T09:13:25Z</time></trkpt><trkpt lat="42.084052688105196" lon="11.962637618544662"><ele>136.4</ele><time>2026-04-12T09:13:26Z</time></trkpt><trkpt lat="42.08408417436549" lon="11.96254916532226"><ele>137.0</ele><time>2026-04-12T09:13:27Z</time></trkpt><trkpt lat="42.08417258009741" lon="11.962429107027546"><ele>137.0</ele><time>2026-04-12T09:13:29Z</time></trkpt><trkpt lat="42.084198448163065" lon="11.962343227704542"><ele>137.0</ele><time>2026-04-12T09:13:30Z</time></trkpt><trkpt lat="42.084221873955514" lon="11.96218006056201"><ele>137.0</ele><time>2026-04-12T09:13:32Z</time></trkpt><trkpt lat="42.08425683346412" lon="11.962061104992497"><ele>137.0</ele><time>2026-04-12T09:13:34Z</time></trkpt><trkpt lat="42.08432260625059" lon="11.961958420468523"><ele>137.0</ele><time>2026-04-12T09:13:36Z</time></trkpt><trkpt lat="42.084365476907436" lon="11.961891717377354"><ele>137.0</ele><time>2026-04-12T09:13:37Z</time></trkpt><trkpt lat="42.08442990693732" lon="11.961787603339593"><ele>137.0</ele><time>2026-04-12T09:13:38Z</time></trkpt><trkpt lat="42.08452568180016" lon="11.961645165264462"><ele>137.0</ele><time>2026-04-12T09:13:40Z</time></trkpt><trkpt lat="42.08458105089042" lon="11.961542561681252"><ele>137.0</ele><time>2026-04-12T09:13:42Z</time></trkpt><trkpt lat="42.084595295057895" lon="11.961336822818383"><ele>139.0</ele><time>2026-04-12T09:13:44Z</time></trkpt><trkpt lat="42.08460050407866" lon="11.961214173595067"><ele>141.0</ele><time>2026-04-12T09:13:45Z</time></trkpt><trkpt lat="42.08459777487382" lon="11.961089534574482"><ele>143.0</ele><time>2026-04-12T09:13:46Z</time></trkpt><trkpt lat="42.08460194412875" lon="11.960970163336016"><ele>145.0</ele><time>2026-04-12T09:13:47Z</time></trkpt><trkpt lat="42.08460961192831" lon="11.960841152698515"><ele>147.0</ele><time>2026-04-12T09:13:48Z</time></trkpt><trkpt lat="42.08463389858274" lon="11.960745365843241"><ele>149.0</ele><time>2026-04-12T09:13:49Z</time></trkpt><trkpt lat="42.084657132981974" lon="11.960621824497903"><ele>151.2</ele><time>2026-04-12T09:13:50Z</time></trkpt><trkpt lat="42.08469745365504" lon="11.960508591194367"><ele>153.4</ele><time>2026-04-12T09:13:51Z</time></trkpt><trkpt lat="42.084736259681996" lon="11.960340938356298"><ele>155.6</ele><time>2026-04-12T09:13:52Z</time></trkpt><trkpt lat="42.084748149143785" lon="11.960184927870243"><ele>157.8</ele><time>2026-04-12T09:13:53Z</time></trkpt><trkpt lat="42.08473634636446" lon="11.960096366209692"><ele>160.0</ele><time>2026-04-12T09:13:53.999Z</time></trkpt><trkpt lat="42.08472677260333" lon="11.959991236897093"><ele>161.16666666666669</ele><time>2026-04-12T09:13:54.999Z</time></trkpt><trkpt lat="42.084730387547125" lon="11.959879192920805"><ele>162.33333333333334</ele><time>2026-04-12T09:13:55.999Z</time></trkpt><trkpt lat="42.084754374084135" lon="11.959776251763607"><ele>163.5</ele><time>2026-04-12T09:13:56.999Z</time></trkpt><trkpt lat="42.084825591624494" lon="11.959710751229222"><ele>164.66666666666666</ele><time>2026-04-12T09:13:57.999Z</time></trkpt><trkpt lat="42.0848943907498" lon="11.959609917794937"><ele>165.83333333333331</ele><time>2026-04-12T09:13:58.999Z</time></trkpt><trkpt lat="42.08497067743222" lon="11.95953687098546"><ele>167.0</ele><time>2026-04-12T09:13:59.999Z</time></trkpt><trkpt lat="42.08504117722899" lon="11.959475665048217"><ele>166.2</ele><time>2026-04-12T09:14:00.999Z</time></trkpt><trkpt lat="42.085114154754" lon="11.95933942036428"><ele>165.39999999999998</ele><time>2026-04-12T09:14:02.999Z</time></trkpt><trkpt lat="42.085124154338445" lon="11.95924138169051"><ele>164.60000000000002</ele><time>2026-04-12T09:14:04.999Z</time></trkpt><trkpt lat="42.08511992623076" lon="11.959153347730524"><ele>163.8</ele><time>2026-04-12T09:14:06.999Z</time></trkpt><trkpt lat="42.08514685444637" lon="11.959051761776424"><ele>163.0</ele><time>2026-04-12T09:14:08.999Z</time></trkpt><trkpt lat="42.08518629819676" lon="11.95890717756288"><ele>163.0</ele><time>2026-04-12T09:14:10.999Z</time></trkpt><trkpt lat="42.08519353422751" lon="11.958819131067326"><ele>163.0</ele><time>2026-04-12T09:14:11.999Z</time></trkpt><trkpt lat="42.0852153182977" lon="11.95871153446839"><ele>163.0</ele><time>2026-04-12T09:14:13.999Z</time></trkpt><trkpt lat="42.08519603190766" lon="11.958586507186471"><ele>163.0</ele><time>2026-04-12T09:14:16.999Z</time></trkpt><trkpt lat="42.085229466528475" lon="11.958508303921368"><ele>163.0</ele><time>2026-04-12T09:14:19.999Z</time></trkpt><trkpt lat="42.08528470198782" lon="11.958374156314765"><ele>163.0</ele><time>2026-04-12T09:14:22.999Z</time></trkpt><trkpt lat="42.08532537902455" lon="11.958245382782072"><ele>166.4</ele><time>2026-04-12T09:14:24.999Z</time></trkpt><trkpt lat="42.08535058863278" lon="11.958107825727062"><ele>169.8</ele><time>2026-04-12T09:14:26.999Z</time></trkpt><trkpt lat="42.08536956773729" lon="11.958022859370923"><ele>173.2</ele><time>2026-04-12T09:14:27.999Z</time></trkpt><trkpt lat="42.085403614064504" lon="11.957864568040396"><ele>176.6</ele><time>2026-04-12T09:14:29.999Z</time></trkpt><trkpt lat="42.08541627575752" lon="11.957779241578018"><ele>180.0</ele><time>2026-04-12T09:14:30.999Z</time></trkpt><trkpt lat="42.08544246400361" lon="11.957647395341038"><ele>180.0</ele><time>2026-04-12T09:14:33.999Z</time></trkpt><trkpt lat="42.08546727675032" lon="11.957558566449872"><ele>180.0</ele><time>2026-04-12T09:14:36.999Z</time></trkpt><trkpt lat="42.085469433047294" lon="11.957460232264907"><ele>180.0</ele><time>2026-04-12T09:15:19Z</time></trkpt><trkpt lat="42.0854560250208" lon="11.957376783342404"><ele>180.0</ele><time>2026-04-12T09:15:23Z</time></trkpt><trkpt lat="42.08547164570223" lon="11.95728076579411"><ele>180.0</ele><time>2026-04-12T09:15:26Z</time></trkpt><trkpt lat="42.08550285598398" lon="11.957205267517711"><ele>180.0</ele><time>2026-04-12T09:15:28Z</time></trkpt><trkpt lat="42.085547673711034" lon="11.95714285696006"><ele>180.0</ele><time>2026-04-12T09:15:30Z</time></trkpt><trkpt lat="42.08554586145631" lon="11.957243616888443"><ele>182.57142857142856</ele><time>2026-04-12T09:16:04.999Z</time></trkpt><trkpt lat="42.08552055749867" lon="11.95732244662472"><ele>185.14285714285717</ele><time>2026-04-12T09:16:10.999Z</time></trkpt><trkpt lat="42.08553921145957" lon="11.957235369120498"><ele>187.71428571428572</ele><time>2026-04-12T09:16:25.999Z</time></trkpt><trkpt lat="42.08553739437564" lon="11.957150499602454"><ele>190.28571428571428</ele><time>2026-04-12T09:19:14Z</time></trkpt><trkpt lat="42.085570610459875" lon="11.957025966659407"><ele>192.85714285714283</ele><time>2026-04-12T09:20:57.999Z</time></trkpt><trkpt lat="42.0855861036736" lon="11.956930216892362"><ele>195.42857142857144</ele><time>2026-04-12T09:20:59.999Z</time></trkpt><trkpt lat="42.08559045035732" lon="11.956825712626225"><ele>198.0</ele><time>2026-04-12T09:21:01.999Z</time></trkpt><trkpt lat="42.08560143366523" lon="11.956691334226822"><ele>199.16666666666666</ele><time>2026-04-12T09:21:03.999Z</time></trkpt><trkpt lat="42.08560178849633" lon="11.956591343049485"><ele>200.33333333333331</ele><time>2026-04-12T09:21:05.999Z</time></trkpt><trkpt lat="42.085657897251046" lon="11.95649446784846"><ele>201.5</ele><time>2026-04-12T09:21:07.999Z</time></trkpt><trkpt lat="42.085679983352065" lon="11.956412334504599"><ele>202.66666666666666</ele><time>2026-04-12T09:21:09.999Z</time></trkpt><trkpt lat="42.085707017165106" lon="11.956333697170372"><ele>203.83333333333331</ele><time>2026-04-12T09:21:12Z</time></trkpt><trkpt lat="42.08574082790197" lon="11.956225915549513"><ele>205.0</ele><time>2026-04-12T09:21:15Z</time></trkpt><trkpt lat="42.08577828993375" lon="11.956147736305798"><ele>204.2</ele><time>2026-04-12T09:21:17Z</time></trkpt><trkpt lat="42.08579611496732" lon="11.95600424442733"><ele>203.4</ele><time>2026-04-12T09:21:20Z</time></trkpt><trkpt lat="42.085785882528214" lon="11.955873563278823"><ele>202.60000000000002</ele><time>2026-04-12T09:21:22Z</time></trkpt><trkpt lat="42.08581632437783" lon="11.955756372608048"><ele>201.8</ele><time>2026-04-12T09:21:24Z</time></trkpt><trkpt lat="42.08586257230374" lon="11.955643858938396"><ele>201.0</ele><time>2026-04-12T09:21:26Z</time></trkpt><trkpt lat="42.08589045985959" lon="11.955512454609476"><ele>201.0</ele><time>2026-04-12T09:21:28Z</time></trkpt><trkpt lat="42.08589021155965" lon="11.955365971981234"><ele>201.0</ele><time>2026-04-12T09:21:30Z</time></trkpt><trkpt lat="42.085901022106526" lon="11.955233412035358"><ele>201.0</ele><time>2026-04-12T09:21:32Z</time></trkpt><trkpt lat="42.08593295797857" lon="11.955070728258613"><ele>201.0</ele><time>2026-04-12T09:21:34Z</time></trkpt><trkpt lat="42.085958023696406" lon="11.954940465232688"><ele>201.0</ele><time>2026-04-12T09:21:36Z</time></trkpt><trkpt lat="42.08597228151906" lon="11.954850722486581"><ele>203.8</ele><time>2026-04-12T09:21:37Z</time></trkpt><trkpt lat="42.08601918218282" lon="11.954724105367648"><ele>206.60000000000002</ele><time>2026-04-12T09:21:39Z</time></trkpt><trkpt lat="42.08605638953478" lon="11.954606492442625"><ele>209.4</ele><time>2026-04-12T09:21:41Z</time></trkpt><trkpt lat="42.08607208366183" lon="11.954468773404743"><ele>212.2</ele><time>2026-04-12T09:21:43Z</time></trkpt><trkpt lat="42.08610874199467" lon="11.95432395326225"><ele>215.0</ele><time>2026-04-12T09:21:45Z</time></trkpt><trkpt lat="42.08612489445316" lon="11.954176960078344"><ele>216.33333333333334</ele><time>2026-04-12T09:21:47Z</time></trkpt><trkpt lat="42.086186919220836" lon="11.954045376566556"><ele>217.66666666666669</ele><time>2026-04-12T09:21:49Z</time></trkpt><trkpt lat="42.08623395399121" lon="11.953965413731542"><ele>219.0</ele><time>2026-04-12T09:21:50Z</time></trkpt><trkpt lat="42.08628029905114" lon="11.95390035157588"><ele>220.33333333333331</ele><time>2026-04-12T09:21:51Z</time></trkpt><trkpt lat="42.08633480547618" lon="11.953821095241587"><ele>221.66666666666666</ele><time>2026-04-12T09:21:53Z</time></trkpt><trkpt lat="42.086346540077415" lon="11.953690972478203"><ele>223.0</ele><time>2026-04-12T09:21:56Z</time></trkpt><trkpt lat="42.086337573747635" lon="11.953600107359776"><ele>222.99999999999997</ele><time>2026-04-12T09:21:57Z</time></trkpt><trkpt lat="42.08636593749769" lon="11.95351637360427"><ele>223.0</ele><time>2026-04-12T09:21:58Z</time></trkpt><trkpt lat="42.08636620583311" lon="11.953349246442924"><ele>223.0</ele><time>2026-04-12T09:22:00Z</time></trkpt><trkpt lat="42.08634942672713" lon="11.953255619618195"><ele>223.0</ele><time>2026-04-12T09:22:01Z</time></trkpt><trkpt lat="42.08634392821699" lon="11.953163399335427"><ele>222.99999999999997</ele><time>2026-04-12T09:22:02Z</time></trkpt><trkpt lat="42.08636165835152" lon="11.953023520873277"><ele>223.0</ele><time>2026-04-12T09:22:04Z</time></trkpt><trkpt lat="42.08637504014734" lon="11.95289627813365"><ele>224.0</ele><time>2026-04-12T09:24:32.999Z</time></trkpt><trkpt lat="42.086399246283854" lon="11.95276409179222"><ele>225.0</ele><time>2026-04-12T09:24:34.999Z</time></trkpt><trkpt lat="42.086446490692744" lon="11.952615247892313"><ele>226.0</ele><time>2026-04-12T09:24:36.999Z</time></trkpt><trkpt lat="42.08648354797431" lon="11.952535283406075"><ele>227.0</ele><time>2026-04-12T09:24:37.999Z</time></trkpt><trkpt lat="42.086514106885524" lon="11.952457179435704"><ele>228.0</ele><time>2026-04-12T09:24:38.999Z</time></trkpt><trkpt lat="42.08656975792161" lon="11.952351996690636"><ele>228.60000000000002</ele><time>2026-04-12T09:24:40.999Z</time></trkpt><trkpt lat="42.086664321742276" lon="11.952244210668324"><ele>229.20000000000002</ele><time>2026-04-12T09:24:42.999Z</time></trkpt><trkpt lat="42.08673286760761" lon="11.952212519964464"><ele>229.8</ele><time>2026-04-12T09:24:43.999Z</time></trkpt><trkpt lat="42.08679908269178" lon="11.952187513387635"><ele>230.4</ele><time>2026-04-12T09:24:44.999Z</time></trkpt><trkpt lat="42.086902548044705" lon="11.952096843513646"><ele>231.0</ele><time>2026-04-12T09:24:46.999Z</time></trkpt><trkpt lat="42.0869559542718" lon="11.951997298334836"><ele>231.0</ele><time>2026-04-12T09:24:47.999Z</time></trkpt><trkpt lat="42.08701960400446" lon="11.951916221155335"><ele>231.0</ele><time>2026-04-12T09:24:48.999Z</time></trkpt><trkpt lat="42.087054378865346" lon="11.951836000162574"><ele>231.0</ele><time>2026-04-12T09:24:49.999Z</time></trkpt><trkpt lat="42.08706436112975" lon="11.951715847577717"><ele>231.0</ele><time>2026-04-12T09:24:50.999Z</time></trkpt><trkpt lat="42.08706004917538" lon="11.951608179806305"><ele>231.0</ele><time>2026-04-12T09:24:51.999Z</time></trkpt><trkpt lat="42.087055929762734" lon="11.95152250150331"><ele>231.0</ele><time>2026-04-12T09:24:52.999Z</time></trkpt><trkpt lat="42.08705399653168" lon="11.951419491530439"><ele>234.20000000000002</ele><time>2026-04-12T09:24:53.999Z</time></trkpt><trkpt lat="42.08702908206839" lon="11.9512166419068"><ele>237.40000000000003</ele><time>2026-04-12T09:24:55.999Z</time></trkpt><trkpt lat="42.08702358909395" lon="11.95108260765921"><ele>240.6</ele><time>2026-04-12T09:24:56.999Z</time></trkpt><trkpt lat="42.08699742109284" lon="11.950963208556335"><ele>243.8</ele><time>2026-04-12T09:24:57.999Z</time></trkpt><trkpt lat="42.08697749603644" lon="11.950841443622792"><ele>247.0</ele><time>2026-04-12T09:24:58.999Z</time></trkpt><trkpt lat="42.08694131147405" lon="11.950751044955949"><ele>247.83333333333331</ele><time>2026-04-12T09:24:59.999Z</time></trkpt><trkpt lat="42.08692166232091" lon="11.950658376194733"><ele>248.66666666666666</ele><time>2026-04-12T09:25:00.999Z</time></trkpt><trkpt lat="42.086918717982655" lon="11.950556104336975"><ele>249.5</ele><time>2026-04-12T09:25:01.999Z</time></trkpt><trkpt lat="42.086925503212875" lon="11.950462449049876"><ele>250.33333333333331</ele><time>2026-04-12T09:25:02.999Z</time></trkpt><trkpt lat="42.08695530534192" lon="11.950319593698008"><ele>251.16666666666666</ele><time>2026-04-12T09:25:04.999Z</time></trkpt><trkpt lat="42.086922303330496" lon="11.950203291672151"><ele>252.0</ele><time>2026-04-12T09:25:07.999Z</time></trkpt><trkpt lat="42.086876613044886" lon="11.950128985319074"><ele>252.28571428571428</ele><time>2026-04-12T09:25:11.999Z</time></trkpt><trkpt lat="42.08687554898045" lon="11.950037934499267"><ele>252.57142857142856</ele><time>2026-04-12T09:25:19.999Z</time></trkpt><trkpt lat="42.086855851296136" lon="11.949948954915323"><ele>252.85714285714286</ele><time>2026-04-12T09:25:26Z</time></trkpt><trkpt lat="42.0868541229275" lon="11.949855760557053"><ele>253.14285714285714</ele><time>2026-04-12T09:25:28Z</time></trkpt><trkpt lat="42.086809589233674" lon="11.949783955695846"><ele>253.42857142857142</ele><time>2026-04-12T09:25:32Z</time></trkpt><trkpt lat="42.086760041967686" lon="11.94967864546824"><ele>253.71428571428572</ele><time>2026-04-12T09:25:35Z</time></trkpt><trkpt lat="42.086710906137704" lon="11.949619012507348"><ele>254.0</ele><time>2026-04-12T09:25:37Z</time></trkpt><trkpt lat="42.08667366399184" lon="11.949538728200643"><ele>254.00000000000003</ele><time>2026-04-12T09:25:43Z</time></trkpt><trkpt lat="42.08669691433891" lon="11.949451185377047"><ele>254.0</ele><time>2026-04-12T09:26:00Z</time></trkpt><trkpt lat="42.086682372331964" lon="11.94933394545994"><ele>254.0</ele><time>2026-04-12T09:26:03Z</time></trkpt><trkpt lat="42.08669771331667" lon="11.949226221618938"><ele>254.0</ele><time>2026-04-12T09:26:07Z</time></trkpt><trkpt lat="42.086728234188506" lon="11.949123333382488"><ele>254.00000000000003</ele><time>2026-04-12T09:26:11Z</time></trkpt><trkpt lat="42.0867662688791" lon="11.949039303031753"><ele>254.0</ele><time>2026-04-12T09:26:14Z</time></trkpt><trkpt lat="42.08672174762332" lon="11.948978761677866"><ele>254.50000000000003</ele><time>2026-04-12T09:26:17Z</time></trkpt><trkpt lat="42.08673041561433" lon="11.948872345650303"><ele>255.0</ele><time>2026-04-12T09:26:22Z</time></trkpt><trkpt lat="42.08672501687001" lon="11.948754891456542"><ele>255.5</ele><time>2026-04-12T09:26:27Z</time></trkpt><trkpt lat="42.08675100145852" lon="11.94867091183575"><ele>256.0</ele><time>2026-04-12T09:26:30.999Z</time></trkpt><trkpt lat="42.08677054257331" lon="11.948569789219118"><ele>256.5</ele><time>2026-04-12T09:26:33.999Z</time></trkpt><trkpt lat="42.08677679315454" lon="11.948473323036943"><ele>257.0</ele><time>2026-04-12T09:26:35.999Z</time></trkpt><trkpt lat="42.08673345545646" lon="11.94837741733729"><ele>259.0</ele><time>2026-04-12T09:26:38.999Z</time></trkpt><trkpt lat="42.08669244882808" lon="11.948270176348215"><ele>261.0</ele><time>2026-04-12T09:26:42.999Z</time></trkpt><trkpt lat="42.08674686541054" lon="11.948192009205819"><ele>263.0</ele><time>2026-04-12T09:32:05Z</time></trkpt><trkpt lat="42.08677719333743" lon="11.948095245350595"><ele>265.0</ele><time>2026-04-12T09:32:07Z</time></trkpt><trkpt lat="42.08678381322811" lon="11.947954450364925"><ele>267.0</ele><time>2026-04-12T09:32:09Z</time></trkpt><trkpt lat="42.08677718583127" lon="11.947836504624568"><ele>269.0</ele><time>2026-04-12T09:32:12Z</time></trkpt><trkpt lat="42.0867455341554" lon="11.947753855790097"><ele>269.0</ele><time>2026-04-12T09:32:14Z</time></trkpt><trkpt lat="42.086763966591164" lon="11.947644023661121"><ele>269.0</ele><time>2026-04-12T09:32:16Z</time></trkpt><trkpt lat="42.08676759209892" lon="11.947533368603512"><ele>269.0</ele><time>2026-04-12T09:32:17Z</time></trkpt><trkpt lat="42.08676018290398" lon="11.947445558852163"><ele>269.0</ele><time>2026-04-12T09:32:18Z</time></trkpt><trkpt lat="42.086753424273475" lon="11.947313152249151"><ele>269.0</ele><time>2026-04-12T09:32:20Z</time></trkpt><trkpt lat="42.0867518750638" lon="11.94720307055393"><ele>269.0</ele><time>2026-04-12T09:32:23Z</time></trkpt><trkpt lat="42.08675256409268" lon="11.947113807931379"><ele>269.59999999999997</ele><time>2026-04-12T09:32:26Z</time></trkpt><trkpt lat="42.086741615867226" lon="11.947004063237387"><ele>270.2</ele><time>2026-04-12T09:32:28Z</time></trkpt><trkpt lat="42.0867363285574" lon="11.946866126119872"><ele>270.79999999999995</ele><time>2026-04-12T09:32:30Z</time></trkpt><trkpt lat="42.086728435888645" lon="11.94678051774988"><ele>271.4</ele><time>2026-04-12T09:32:31Z</time></trkpt><trkpt lat="42.08674091290708" lon="11.946663986471435"><ele>272.0</ele><time>2026-04-12T09:32:33Z</time></trkpt><trkpt lat="42.08671430744343" lon="11.946507411614347"><ele>272.1666666666667</ele><time>2026-04-12T09:32:35Z</time></trkpt><trkpt lat="42.086687047596385" lon="11.946418101428497"><ele>272.33333333333337</ele><time>2026-04-12T09:32:36Z</time></trkpt><trkpt lat="42.086679416003086" lon="11.946328539072402"><ele>272.5</ele><time>2026-04-12T09:32:37Z</time></trkpt><trkpt lat="42.086676449333126" lon="11.94623851207263"><ele>272.6666666666667</ele><time>2026-04-12T09:32:38Z</time></trkpt><trkpt lat="42.086669527712885" lon="11.94610903163746"><ele>272.8333333333333</ele><time>2026-04-12T09:32:40Z</time></trkpt><trkpt lat="42.086630310982045" lon="11.945999794895274"><ele>273.0</ele><time>2026-04-12T09:32:42Z</time></trkpt><trkpt lat="42.08658535341199" lon="11.945897799891116"><ele>272.4</ele><time>2026-04-12T09:32:44Z</time></trkpt><trkpt lat="42.086620089993936" lon="11.94575180169334"><ele>271.8</ele><time>2026-04-12T09:32:46Z</time></trkpt><trkpt lat="42.08664952070311" lon="11.945626924131865"><ele>271.2</ele><time>2026-04-12T09:32:48Z</time></trkpt><trkpt lat="42.08665159145345" lon="11.945502321217356"><ele>270.6</ele><time>2026-04-12T09:32:50Z</time></trkpt><trkpt lat="42.08672247465203" lon="11.94545556346831"><ele>270.0</ele><time>2026-04-12T09:33:15.999Z</time></trkpt><trkpt lat="42.08690551638277" lon="11.945393036272353"><ele>270.0</ele><time>2026-04-12T09:33:45.999Z</time></trkpt><trkpt lat="42.08700535886915" lon="11.945386624631766"><ele>270.0</ele><time>2026-04-12T09:33:47Z</time></trkpt><trkpt lat="42.087093198397966" lon="11.945369048695918"><ele>270.0</ele><time>2026-04-12T09:33:48Z</time></trkpt><trkpt lat="42.08720044454165" lon="11.94536139863675"><ele>270.0</ele><time>2026-04-12T09:33:49Z</time></trkpt><trkpt lat="42.087318023092195" lon="11.945336191048154"><ele>270.0</ele><time>2026-04-12T09:33:50Z</time></trkpt><trkpt lat="42.08743551876398" lon="11.945317459296753"><ele>269.75</ele><time>2026-04-12T09:33:51Z</time></trkpt><trkpt lat="42.08755615723215" lon="11.945284771893785"><ele>269.5</ele><time>2026-04-12T09:33:52Z</time></trkpt><trkpt lat="42.08769331188892" lon="11.945262377203647"><ele>269.25</ele><time>2026-04-12T09:33:53Z</time></trkpt><trkpt lat="42.087813553441336" lon="11.94523518098792"><ele>269.0</ele><time>2026-04-12T09:33:54Z</time></trkpt><trkpt lat="42.08790277174095" lon="11.94518292477193"><ele>269.0</ele><time>2026-04-12T09:33:55Z</time></trkpt><trkpt lat="42.08798550472703" lon="11.945116770994726"><ele>269.0</ele><time>2026-04-12T09:33:56Z</time></trkpt><trkpt lat="42.08806470858351" lon="11.945076202255951"><ele>269.0</ele><time>2026-04-12T09:33:57Z</time></trkpt><trkpt lat="42.08818572685972" lon="11.945022443797104"><ele>269.0</ele><time>2026-04-12T09:33:58Z</time></trkpt><trkpt lat="42.088317569700415" lon="11.944987016880484"><ele>269.0</ele><time>2026-04-12T09:33:59Z</time></trkpt><trkpt lat="42.0884219611529" lon="11.944940565286952"><ele>270.2</ele><time>2026-04-12T09:34:00Z</time></trkpt><trkpt lat="42.088511095267876" lon="11.944880479259805"><ele>271.4</ele><time>2026-04-12T09:34:01Z</time></trkpt><trkpt lat="42.08860987947335" lon="11.944846560320304"><ele>272.6</ele><time>2026-04-12T09:34:02Z</time></trkpt><trkpt lat="42.088728295392926" lon="11.944821624439019"><ele>273.8</ele><time>2026-04-12T09:34:03Z</time></trkpt><trkpt lat="42.08884900877242" lon="11.944825068657927"><ele>275.0</ele><time>2026-04-12T09:34:04Z</time></trkpt><trkpt lat="42.08896817265595" lon="11.94479824875215"><ele>275.0</ele><time>2026-04-12T09:34:05Z</time></trkpt><trkpt lat="42.08907376475514" lon="11.944753240461305"><ele>275.0</ele><time>2026-04-12T09:34:06Z</time></trkpt><trkpt lat="42.08916215359084" lon="11.944716895009568"><ele>275.0</ele><time>2026-04-12T09:34:07Z</time></trkpt><trkpt lat="42.08924850906864" lon="11.94469333695264"><ele>275.0</ele><time>2026-04-12T09:34:08Z</time></trkpt><trkpt lat="42.08932663360031" lon="11.944667934009694"><ele>275.0</ele><time>2026-04-12T09:34:09Z</time></trkpt><trkpt lat="42.089408031191006" lon="11.944627545231459"><ele>275.0</ele><time>2026-04-12T09:34:10Z</time></trkpt><trkpt lat="42.08949236951092" lon="11.944572772681765"><ele>275.0</ele><time>2026-04-12T09:34:11Z</time></trkpt><trkpt lat="42.08958425136991" lon="11.944504568829366"><ele>275.0</ele><time>2026-04-12T09:34:12Z</time></trkpt><trkpt lat="42.08967679870381" lon="11.94443147726008"><ele>275.0</ele><time>2026-04-12T09:34:13Z</time></trkpt><trkpt lat="42.08977054511055" lon="11.944364709264487"><ele>275.0</ele><time>2026-04-12T09:34:14Z</time></trkpt><trkpt lat="42.08986579824388" lon="11.944303823771296"><ele>274.2</ele><time>2026-04-12T09:34:15Z</time></trkpt><trkpt lat="42.0899626962912" lon="11.944259714223572"><ele>273.4</ele><time>2026-04-12T09:34:16Z</time></trkpt><trkpt lat="42.09005323775268" lon="11.944223789163921"><ele>272.6</ele><time>2026-04-12T09:34:17Z</time></trkpt><trkpt lat="42.09015966666617" lon="11.944218925665204"><ele>271.8</ele><time>2026-04-12T09:34:18Z</time></trkpt><trkpt lat="42.09027025036466" lon="11.944212207030011"><ele>271.0</ele><time>2026-04-12T09:34:19Z</time></trkpt><trkpt lat="42.090364207428046" lon="11.944207217557294"><ele>271.0</ele><time>2026-04-12T09:34:20Z</time></trkpt><trkpt lat="42.09043858937257" lon="11.944188440447979"><ele>271.0</ele><time>2026-04-12T09:34:21Z</time></trkpt><trkpt lat="42.090500974207536" lon="11.944162167015397"><ele>271.0</ele><time>2026-04-12T09:34:22Z</time></trkpt><trkpt lat="42.09056672983309" lon="11.944101170209947"><ele>271.0</ele><time>2026-04-12T09:34:23Z</time></trkpt><trkpt lat="42.090625747801326" lon="11.944062532810568"><ele>271.0</ele><time>2026-04-12T09:34:24Z</time></trkpt><trkpt lat="42.090702252154784" lon="11.944064669621204"><ele>271.0</ele><time>2026-04-12T09:34:25Z</time></trkpt><trkpt lat="42.09078372486675" lon="11.944073373827543"><ele>271.0</ele><time>2026-04-12T09:34:26Z</time></trkpt><trkpt lat="42.09086441389976" lon="11.944026671768963"><ele>271.3333333333333</ele><time>2026-04-12T09:34:27Z</time></trkpt><trkpt lat="42.09092847595467" lon="11.943995724404656"><ele>271.66666666666663</ele><time>2026-04-12T09:34:28Z</time></trkpt><trkpt lat="42.090997974058176" lon="11.943963979580927"><ele>272.0</ele><time>2026-04-12T09:34:29Z</time></trkpt><trkpt lat="42.091078676331655" lon="11.943956734451225"><ele>272.3333333333333</ele><time>2026-04-12T09:34:30Z</time></trkpt><trkpt lat="42.091161384097674" lon="11.943912119781526"><ele>272.6666666666667</ele><time>2026-04-12T09:34:31Z</time></trkpt><trkpt lat="42.09126485844339" lon="11.943835283895613"><ele>273.0</ele><time>2026-04-12T09:34:32Z</time></trkpt><trkpt lat="42.09133892214809" lon="11.943764122891691"><ele>273.0</ele><time>2026-04-12T09:34:33Z</time></trkpt><trkpt lat="42.0914003561685" lon="11.943677088632004"><ele>273.0</ele><time>2026-04-12T09:34:34Z</time></trkpt><trkpt lat="42.091481898980504" lon="11.943565625797316"><ele>273.0</ele><time>2026-04-12T09:34:35Z</time></trkpt><trkpt lat="42.091578425383666" lon="11.943455736759052"><ele>273.0</ele><time>2026-04-12T09:34:36Z</time></trkpt><trkpt lat="42.091663790561434" lon="11.943381746053198"><ele>273.0</ele><time>2026-04-12T09:34:37Z</time></trkpt><trkpt lat="42.091741173130075" lon="11.943323483937753"><ele>274.4</ele><time>2026-04-12T09:34:38Z</time></trkpt><trkpt lat="42.09181836028429" lon="11.943259921600754"><ele>275.8</ele><time>2026-04-12T09:34:39Z</time></trkpt><trkpt lat="42.0918891066453" lon="11.94319759523462"><ele>277.2</ele><time>2026-04-12T09:34:40Z</time></trkpt><trkpt lat="42.09196062013095" lon="11.9431157848336"><ele>278.6</ele><time>2026-04-12T09:34:41Z</time></trkpt><trkpt lat="42.09203449934268" lon="11.943039623173735"><ele>280.0</ele><time>2026-04-12T09:34:42Z</time></trkpt><trkpt lat="42.0920881255944" lon="11.942942330023405"><ele>280.0</ele><time>2026-04-12T09:34:43Z</time></trkpt><trkpt lat="42.09214504829927" lon="11.942879179089365"><ele>280.0</ele><time>2026-04-12T09:34:44Z</time></trkpt><trkpt lat="42.09221761828601" lon="11.942814855511207"><ele>280.0</ele><time>2026-04-12T09:34:45Z</time></trkpt><trkpt lat="42.09228502650296" lon="11.942754664816523"><ele>280.0</ele><time>2026-04-12T09:34:46Z</time></trkpt><trkpt lat="42.092329381706186" lon="11.942686138633448"><ele>280.0</ele><time>2026-04-12T09:34:47Z</time></trkpt><trkpt lat="42.092356511021336" lon="11.942593144287553"><ele>280.0</ele><time>2026-04-12T09:34:48Z</time></trkpt><trkpt lat="42.09234424612422" lon="11.942504876311176"><ele>279.66666666666663</ele><time>2026-04-12T09:34:49Z</time></trkpt><trkpt lat="42.09236256393109" lon="11.942390526275151"><ele>279.3333333333333</ele><time>2026-04-12T09:34:50Z</time></trkpt><trkpt lat="42.092405145000676" lon="11.942301867829979"><ele>279.0</ele><time>2026-04-12T09:34:51Z</time></trkpt><trkpt lat="42.092467558850686" lon="11.942212858085863"><ele>278.6666666666667</ele><time>2026-04-12T09:34:52Z</time></trkpt><trkpt lat="42.09253133762358" lon="11.94210641501997"><ele>278.33333333333337</ele><time>2026-04-12T09:34:53Z</time></trkpt><trkpt lat="42.09258994642881" lon="11.942030737554537"><ele>278.0</ele><time>2026-04-12T09:34:54Z</time></trkpt><trkpt lat="42.09264912465356" lon="11.941970615714123"><ele>278.6666666666667</ele><time>2026-04-12T09:34:55Z</time></trkpt><trkpt lat="42.09270402400786" lon="11.941919209297387"><ele>279.33333333333337</ele><time>2026-04-12T09:34:56Z</time></trkpt><trkpt lat="42.09279385461197" lon="11.941824924770113"><ele>280.0</ele><time>2026-04-12T09:34:58Z</time></trkpt><trkpt lat="42.09285019397883" lon="11.941783888779646"><ele>280.6666666666667</ele><time>2026-04-12T09:34:58.999Z</time></trkpt><trkpt lat="42.092926163456866" lon="11.94173815116196"><ele>281.3333333333333</ele><time>2026-04-12T09:34:59.999Z</time></trkpt><trkpt lat="42.093019373748284" lon="11.94169693646715"><ele>282.0</ele><time>2026-04-12T09:35:00.999Z</time></trkpt><trkpt lat="42.09309481035329" lon="11.94166632597905"><ele>282.0</ele><time>2026-04-12T09:35:01.999Z</time></trkpt><trkpt lat="42.09315323595376" lon="11.941625126600517"><ele>282.0</ele><time>2026-04-12T09:35:02.999Z</time></trkpt><trkpt lat="42.09320759088172" lon="11.941578832532612"><ele>282.0</ele><time>2026-04-12T09:35:03.999Z</time></trkpt><trkpt lat="42.0933057182933" lon="11.94148044022042"><ele>282.0</ele><time>2026-04-12T09:35:05.999Z</time></trkpt><trkpt lat="42.093352927529764" lon="11.941422300038386"><ele>282.0</ele><time>2026-04-12T09:35:06.999Z</time></trkpt><trkpt lat="42.09340404285576" lon="11.94136092789345"><ele>282.0</ele><time>2026-04-12T09:35:07.999Z</time></trkpt><trkpt lat="42.09345203404134" lon="11.941263706027057"><ele>279.6</ele><time>2026-04-12T09:35:08.999Z</time></trkpt><trkpt lat="42.093501779700325" lon="11.941152871940616"><ele>277.2</ele><time>2026-04-12T09:35:09.999Z</time></trkpt><trkpt lat="42.093560307026976" lon="11.94105404588382"><ele>274.8</ele><time>2026-04-12T09:35:10.999Z</time></trkpt><trkpt lat="42.093621344469994" lon="11.940959986526446"><ele>272.4</ele><time>2026-04-12T09:35:11.999Z</time></trkpt><trkpt lat="42.09366914280224" lon="11.940868599394072"><ele>270.0</ele><time>2026-04-12T09:35:12.999Z</time></trkpt><trkpt lat="42.09377270436539" lon="11.940799545458335"><ele>269.6666666666667</ele><time>2026-04-12T09:35:14.999Z</time></trkpt><trkpt lat="42.09387074756842" lon="11.940729567507411"><ele>269.3333333333333</ele><time>2026-04-12T09:35:16.999Z</time></trkpt><trkpt lat="42.09392277942978" lon="11.940674252653926"><ele>269.0</ele><time>2026-04-12T09:35:17.999Z</time></trkpt><trkpt lat="42.09398259072117" lon="11.940611578940748"><ele>268.66666666666663</ele><time>2026-04-12T09:35:18.999Z</time></trkpt><trkpt lat="42.09405232682566" lon="11.940543703501351"><ele>268.3333333333333</ele><time>2026-04-12T09:35:19.999Z</time></trkpt><trkpt lat="42.09412381122508" lon="11.940448605689232"><ele>268.0</ele><time>2026-04-12T09:35:20.999Z</time></trkpt><trkpt lat="42.09418760242146" lon="11.94034369341606"><ele>268.2</ele><time>2026-04-12T09:35:21.999Z</time></trkpt><trkpt lat="42.0942506290399" lon="11.940227767288313"><ele>268.4</ele><time>2026-04-12T09:35:22.999Z</time></trkpt><trkpt lat="42.094323637649325" lon="11.940118068773751"><ele>268.59999999999997</ele><time>2026-04-12T09:35:23.999Z</time></trkpt><trkpt lat="42.09439309760769" lon="11.940026881013376"><ele>268.8</ele><time>2026-04-12T09:35:24.999Z</time></trkpt><trkpt lat="42.09444854262419" lon="11.93995164082822"><ele>269.0</ele><time>2026-04-12T09:35:25.999Z</time></trkpt><trkpt lat="42.094486074519835" lon="11.939879809497459"><ele>269.0</ele><time>2026-04-12T09:35:26.999Z</time></trkpt><trkpt lat="42.094517679863955" lon="11.939752748049493"><ele>269.0</ele><time>2026-04-12T09:35:28.999Z</time></trkpt><trkpt lat="42.094524223750454" lon="11.939666213101066"><ele>269.0</ele><time>2026-04-12T09:35:29.999Z</time></trkpt><trkpt lat="42.094535828952125" lon="11.939581151501548"><ele>269.0</ele><time>2026-04-12T09:35:30.999Z</time></trkpt><trkpt lat="42.09455422670804" lon="11.939487246194325"><ele>269.0</ele><time>2026-04-12T09:35:31.999Z</time></trkpt><trkpt lat="42.09457461863217" lon="11.939401510321629"><ele>269.0</ele><time>2026-04-12T09:35:32.999Z</time></trkpt><trkpt lat="42.094592199551336" lon="11.939319742373469"><ele>269.0</ele><time>2026-04-12T09:35:33.999Z</time></trkpt><trkpt lat="42.09467021351478" lon="11.939201144287983"><ele>268.2</ele><time>2026-04-12T09:35:35.999Z</time></trkpt><trkpt lat="42.09480501242025" lon="11.939157957091915"><ele>267.4</ele><time>2026-04-12T09:35:37.999Z</time></trkpt><trkpt lat="42.09490914318252" lon="11.939163316250113"><ele>266.6</ele><time>2026-04-12T09:35:38.999Z</time></trkpt><trkpt lat="42.09499763536934" lon="11.939140547749487"><ele>265.8</ele><time>2026-04-12T09:35:39.999Z</time></trkpt><trkpt lat="42.09506417586874" lon="11.939104488935978"><ele>265.0</ele><time>2026-04-12T09:35:40.999Z</time></trkpt><trkpt lat="42.09512135687787" lon="11.939041391851582"><ele>267.16666666666663</ele><time>2026-04-12T09:35:41.999Z</time></trkpt><trkpt lat="42.095183465865475" lon="11.93897501994249"><ele>269.3333333333333</ele><time>2026-04-12T09:35:42.999Z</time></trkpt><trkpt lat="42.095227826530596" lon="11.938888620068012"><ele>271.5</ele><time>2026-04-12T09:35:43.999Z</time></trkpt><trkpt lat="42.09527975891484" lon="11.938817241518459"><ele>273.6666666666667</ele><time>2026-04-12T09:35:44.999Z</time></trkpt><trkpt lat="42.0953533940507" lon="11.938748247144519"><ele>275.83333333333337</ele><time>2026-04-12T09:35:45.999Z</time></trkpt><trkpt lat="42.09543272232408" lon="11.938690547037078"><ele>278.0</ele><time>2026-04-12T09:35:46.999Z</time></trkpt><trkpt lat="42.09549413346966" lon="11.938624547387446"><ele>278.0</ele><time>2026-04-12T09:35:47.999Z</time></trkpt><trkpt lat="42.0955517886201" lon="11.93857998339578"><ele>278.0</ele><time>2026-04-12T09:35:48.999Z</time></trkpt><trkpt lat="42.095610341626426" lon="11.938531433588002"><ele>278.0</ele><time>2026-04-12T09:35:49.999Z</time></trkpt><trkpt lat="42.09569755547985" lon="11.938463124373923"><ele>278.0</ele><time>2026-04-12T09:35:51.999Z</time></trkpt><trkpt lat="42.0958263845877" lon="11.938467213239354"><ele>278.0</ele><time>2026-04-12T09:35:54Z</time></trkpt><trkpt lat="42.09590681564981" lon="11.938477674974143"><ele>278.0</ele><time>2026-04-12T09:35:55Z</time></trkpt><trkpt lat="42.095994018709845" lon="11.938493784124303"><ele>278.33333333333337</ele><time>2026-04-12T09:35:56Z</time></trkpt><trkpt lat="42.096080305030746" lon="11.93849428212151"><ele>278.6666666666667</ele><time>2026-04-12T09:35:57Z</time></trkpt><trkpt lat="42.09616439049177" lon="11.938492160116802"><ele>279.0</ele><time>2026-04-12T09:35:58Z</time></trkpt><trkpt lat="42.09625419112683" lon="11.938470227916845"><ele>279.3333333333333</ele><time>2026-04-12T09:35:59Z</time></trkpt><trkpt lat="42.09632167886321" lon="11.938408795924769"><ele>279.66666666666663</ele><time>2026-04-12T09:36:00Z</time></trkpt><trkpt lat="42.0963924004405" lon="11.938352722216862"><ele>280.0</ele><time>2026-04-12T09:36:01Z</time></trkpt><trkpt lat="42.09646693446255" lon="11.938304713974215"><ele>281.5</ele><time>2026-04-12T09:36:02Z</time></trkpt><trkpt lat="42.09654383508908" lon="11.93824280687587"><ele>283.0</ele><time>2026-04-12T09:36:03Z</time></trkpt><trkpt lat="42.09661938099573" lon="11.938195953213263"><ele>284.5</ele><time>2026-04-12T09:36:04Z</time></trkpt><trkpt lat="42.09669884272946" lon="11.938183104613483"><ele>286.0</ele><time>2026-04-12T09:36:05Z</time></trkpt><trkpt lat="42.09676165221357" lon="11.938157537149944"><ele>287.5</ele><time>2026-04-12T09:36:06Z</time></trkpt><trkpt lat="42.096869102510595" lon="11.938073602841564"><ele>289.0</ele><time>2026-04-12T09:36:08Z</time></trkpt><trkpt lat="42.096968102651736" lon="11.938002185622299"><ele>289.0</ele><time>2026-04-12T09:36:10Z</time></trkpt><trkpt lat="42.0970595475615" lon="11.93795220360469"><ele>289.0</ele><time>2026-04-12T09:36:12Z</time></trkpt><trkpt lat="42.09716678852564" lon="11.937904713525874"><ele>289.0</ele><time>2026-04-12T09:36:14Z</time></trkpt><trkpt lat="42.09724975111758" lon="11.937860191754071"><ele>289.0</ele><time>2026-04-12T09:36:15Z</time></trkpt><trkpt lat="42.097316480208406" lon="11.937836964304143"><ele>289.0</ele><time>2026-04-12T09:36:16Z</time></trkpt><trkpt lat="42.097380164839166" lon="11.93780422239059"><ele>289.0</ele><time>2026-04-12T09:36:17Z</time></trkpt><trkpt lat="42.09743133284903" lon="11.93773975189519"><ele>288.8333333333333</ele><time>2026-04-12T09:36:18Z</time></trkpt><trkpt lat="42.09746991013225" lon="11.937636709432713"><ele>288.66666666666663</ele><time>2026-04-12T09:36:19Z</time></trkpt><trkpt lat="42.09749880136719" lon="11.937532615621603"><ele>288.5</ele><time>2026-04-12T09:36:20Z</time></trkpt><trkpt lat="42.09751251697444" lon="11.937399315676394"><ele>288.3333333333333</ele><time>2026-04-12T09:36:21Z</time></trkpt><trkpt lat="42.09755058198681" lon="11.937312204828089"><ele>288.1666666666667</ele><time>2026-04-12T09:36:22Z</time></trkpt><trkpt lat="42.09759497892154" lon="11.937218714833115"><ele>288.0</ele><time>2026-04-12T09:36:23Z</time></trkpt><trkpt lat="42.09765656039172" lon="11.937165762918937"><ele>287.6666666666667</ele><time>2026-04-12T09:36:24Z</time></trkpt><trkpt lat="42.09774160295462" lon="11.937128065612379"><ele>287.3333333333333</ele><time>2026-04-12T09:36:25Z</time></trkpt><trkpt lat="42.097825647794295" lon="11.937084142378454"><ele>287.0</ele><time>2026-04-12T09:36:26Z</time></trkpt><trkpt lat="42.097887958275734" lon="11.937038925594733"><ele>286.66666666666663</ele><time>2026-04-12T09:36:27Z</time></trkpt><trkpt lat="42.097968191807375" lon="11.93699478251776"><ele>286.3333333333333</ele><time>2026-04-12T09:36:29Z</time></trkpt><trkpt lat="42.09803379423111" lon="11.936992635817793"><ele>286.0</ele><time>2026-04-12T09:36:30Z</time></trkpt><trkpt lat="42.098110967969504" lon="11.93699090307308"><ele>286.0</ele><time>2026-04-12T09:36:31Z</time></trkpt><trkpt lat="42.09819414045475" lon="11.936989616184666"><ele>286.0</ele><time>2026-04-12T09:36:32Z</time></trkpt><trkpt lat="42.09827512274569" lon="11.93699531503566"><ele>286.0</ele><time>2026-04-12T09:36:33Z</time></trkpt><trkpt lat="42.09838500005393" lon="11.937001178001587"><ele>286.0</ele><time>2026-04-12T09:36:34Z</time></trkpt><trkpt lat="42.09847500981244" lon="11.936997278976252"><ele>286.0</ele><time>2026-04-12T09:36:35Z</time></trkpt><trkpt lat="42.09854749916622" lon="11.936979560820847"><ele>286.0</ele><time>2026-04-12T09:36:36Z</time></trkpt><trkpt lat="42.09861560061828" lon="11.936941672581456"><ele>286.0</ele><time>2026-04-12T09:36:37Z</time></trkpt><trkpt lat="42.09866808636745" lon="11.936884888874763"><ele>286.0</ele><time>2026-04-12T09:36:38Z</time></trkpt><trkpt lat="42.09871872732702" lon="11.936819199441103"><ele>286.0</ele><time>2026-04-12T09:36:39Z</time></trkpt><trkpt lat="42.09877927112652" lon="11.93675405595413"><ele>286.0</ele><time>2026-04-12T09:36:40Z</time></trkpt><trkpt lat="42.09884374920468" lon="11.936737818415999"><ele>286.0</ele><time>2026-04-12T09:36:41Z</time></trkpt><trkpt lat="42.09892921449899" lon="11.936792545687734"><ele>286.0</ele><time>2026-04-12T09:36:42Z</time></trkpt><trkpt lat="42.099014666224726" lon="11.93681540527795"><ele>284.40000000000003</ele><time>2026-04-12T09:36:43Z</time></trkpt><trkpt lat="42.09911731677976" lon="11.936831412133115"><ele>282.8</ele><time>2026-04-12T09:36:44Z</time></trkpt><trkpt lat="42.09920974019188" lon="11.936858427382173"><ele>281.20000000000005</ele><time>2026-04-12T09:36:45Z</time></trkpt><trkpt lat="42.09930386572392" lon="11.936873988267713"><ele>279.6</ele><time>2026-04-12T09:36:46Z</time></trkpt><trkpt lat="42.09939952349386" lon="11.936909876619586"><ele>278.0</ele><time>2026-04-12T09:36:47Z</time></trkpt><trkpt lat="42.09949239098663" lon="11.936939526211138"><ele>278.0</ele><time>2026-04-12T09:36:48Z</time></trkpt><trkpt lat="42.09957038965159" lon="11.936929530937533"><ele>278.0</ele><time>2026-04-12T09:36:49Z</time></trkpt><trkpt lat="42.09966515001094" lon="11.936912263416263"><ele>278.0</ele><time>2026-04-12T09:36:50Z</time></trkpt><trkpt lat="42.099758152481485" lon="11.93690370561418"><ele>278.0</ele><time>2026-04-12T09:36:51Z</time></trkpt><trkpt lat="42.09985461123709" lon="11.936877685889472"><ele>278.0</ele><time>2026-04-12T09:36:52Z</time></trkpt><trkpt lat="42.09994065745994" lon="11.93687615745911"><ele>278.33333333333337</ele><time>2026-04-12T09:36:53Z</time></trkpt><trkpt lat="42.10002852844275" lon="11.936880706311447"><ele>278.6666666666667</ele><time>2026-04-12T09:36:54Z</time></trkpt><trkpt lat="42.100122407795574" lon="11.936915071128125"><ele>279.0</ele><time>2026-04-12T09:36:55Z</time></trkpt><trkpt lat="42.1002152833806" lon="11.936954208204225"><ele>279.3333333333333</ele><time>2026-04-12T09:36:56Z</time></trkpt><trkpt lat="42.10029398476431" lon="11.93698479194773"><ele>279.66666666666663</ele><time>2026-04-12T09:36:57Z</time></trkpt><trkpt lat="42.1003666994508" lon="11.937000037256366"><ele>280.0</ele><time>2026-04-12T09:36:57.999Z</time></trkpt><trkpt lat="42.10044303793304" lon="11.936987909448643"><ele>280.0</ele><time>2026-04-12T09:36:58.999Z</time></trkpt><trkpt lat="42.10052693695329" lon="11.936966809136557"><ele>280.0</ele><time>2026-04-12T09:36:59.999Z</time></trkpt><trkpt lat="42.10061538544316" lon="11.936925114765907"><ele>280.0</ele><time>2026-04-12T09:37:00.999Z</time></trkpt><trkpt lat="42.10070008319416" lon="11.936893048866759"><ele>280.0</ele><time>2026-04-12T09:37:01.999Z</time></trkpt><trkpt lat="42.10077653777626" lon="11.936848023665096"><ele>280.0</ele><time>2026-04-12T09:37:02.999Z</time></trkpt><trkpt lat="42.100852042974935" lon="11.936779457683361"><ele>280.0</ele><time>2026-04-12T09:37:03.999Z</time></trkpt><trkpt lat="42.10092153342752" lon="11.936751624093796"><ele>281.2</ele><time>2026-04-12T09:37:04.999Z</time></trkpt><trkpt lat="42.10101201535034" lon="11.936774193695788"><ele>282.4</ele><time>2026-04-12T09:37:05.999Z</time></trkpt><trkpt lat="42.1011065118774" lon="11.936824437618661"><ele>283.6</ele><time>2026-04-12T09:37:06.999Z</time></trkpt><trkpt lat="42.10122208833173" lon="11.936854343982047"><ele>284.8</ele><time>2026-04-12T09:37:07.999Z</time></trkpt><trkpt lat="42.10132234615396" lon="11.936865735887421"><ele>286.0</ele><time>2026-04-12T09:37:08.999Z</time></trkpt><trkpt lat="42.101400762825854" lon="11.936870888759259"><ele>286.0</ele><time>2026-04-12T09:37:09.999Z</time></trkpt><trkpt lat="42.10148297617769" lon="11.936869537737536"><ele>286.0</ele><time>2026-04-12T09:37:10.999Z</time></trkpt><trkpt lat="42.10157648610556" lon="11.936851873644017"><ele>286.0</ele><time>2026-04-12T09:37:12.999Z</time></trkpt><trkpt lat="42.10168189218325" lon="11.936737539874995"><ele>286.0</ele><time>2026-04-12T09:37:14.999Z</time></trkpt><trkpt lat="42.10174432834118" lon="11.936649716653976"><ele>286.0</ele><time>2026-04-12T09:37:15.999Z</time></trkpt><trkpt lat="42.10180779731462" lon="11.936572449708468"><ele>290.2</ele><time>2026-04-12T09:37:16.999Z</time></trkpt><trkpt lat="42.101879819544806" lon="11.936494217785404"><ele>294.40000000000003</ele><time>2026-04-12T09:37:17.999Z</time></trkpt><trkpt lat="42.101955205931894" lon="11.93642428517759"><ele>298.6</ele><time>2026-04-12T09:37:18.999Z</time></trkpt><trkpt lat="42.102035848767144" lon="11.936304972926159"><ele>302.8</ele><time>2026-04-12T09:37:19.999Z</time></trkpt><trkpt lat="42.10209391935506" lon="11.9361885458183"><ele>307.0</ele><time>2026-04-12T09:37:20.999Z</time></trkpt><trkpt lat="42.102088977807135" lon="11.936048669501169"><ele>307.0</ele><time>2026-04-12T09:37:21.999Z</time></trkpt><trkpt lat="42.102145614061634" lon="11.935936003293563"><ele>307.0</ele><time>2026-04-12T09:37:22.999Z</time></trkpt><trkpt lat="42.10220205270115" lon="11.935813690298657"><ele>307.0</ele><time>2026-04-12T09:37:23.999Z</time></trkpt><trkpt lat="42.10225552676288" lon="11.93569796087711"><ele>307.0</ele><time>2026-04-12T09:37:24.999Z</time></trkpt><trkpt lat="42.10231744584692" lon="11.935567645322802"><ele>307.0</ele><time>2026-04-12T09:37:25.999Z</time></trkpt><trkpt lat="42.102379875061494" lon="11.935461303486088"><ele>308.2</ele><time>2026-04-12T09:37:26.999Z</time></trkpt><trkpt lat="42.10243142496796" lon="11.935344519854606"><ele>309.4</ele><time>2026-04-12T09:37:27.999Z</time></trkpt><trkpt lat="42.102476350712344" lon="11.93523058029795"><ele>310.6</ele><time>2026-04-12T09:37:28.999Z</time></trkpt><trkpt lat="42.10253445284587" lon="11.935150815882837"><ele>311.8</ele><time>2026-04-12T09:37:29.999Z</time></trkpt><trkpt lat="42.10266892274685" lon="11.935121424771395"><ele>313.0</ele><time>2026-04-12T09:37:30.999Z</time></trkpt><trkpt lat="42.1027538052901" lon="11.93502396965678"><ele>313.0</ele><time>2026-04-12T09:37:31.999Z</time></trkpt><trkpt lat="42.10284908134887" lon="11.935003032552599"><ele>313.0</ele><time>2026-04-12T09:37:32.999Z</time></trkpt><trkpt lat="42.102962780639984" lon="11.935004372725851"><ele>313.0</ele><time>2026-04-12T09:37:33.999Z</time></trkpt><trkpt lat="42.103052307804774" lon="11.935014734962092"><ele>313.0</ele><time>2026-04-12T09:37:34.999Z</time></trkpt><trkpt lat="42.103118044165846" lon="11.93505340573423"><ele>313.0</ele><time>2026-04-12T09:37:35.999Z</time></trkpt><trkpt lat="42.103197960534885" lon="11.93510570991703"><ele>313.66666666666663</ele><time>2026-04-12T09:37:36.999Z</time></trkpt><trkpt lat="42.103247958853025" lon="11.935199629066906"><ele>314.3333333333333</ele><time>2026-04-12T09:37:37.999Z</time></trkpt><trkpt lat="42.10332602924944" lon="11.935236872232336"><ele>315.0</ele><time>2026-04-12T09:37:38.999Z</time></trkpt><trkpt lat="42.10339532818822" lon="11.935277435832527"><ele>315.6666666666667</ele><time>2026-04-12T09:37:39.999Z</time></trkpt><trkpt lat="42.103466172478434" lon="11.93532104654886"><ele>316.33333333333337</ele><time>2026-04-12T09:37:40.999Z</time></trkpt><trkpt lat="42.1035231505522" lon="11.935385608749336"><ele>317.0</ele><time>2026-04-12T09:37:41.999Z</time></trkpt><trkpt lat="42.10357919541402" lon="11.935470436624207"><ele>317.0</ele><time>2026-04-12T09:37:42.999Z</time></trkpt><trkpt lat="42.103640209742345" lon="11.935574662515885"><ele>317.0</ele><time>2026-04-12T09:37:43.999Z</time></trkpt><trkpt lat="42.10369958847902" lon="11.935667674324499"><ele>317.0</ele><time>2026-04-12T09:37:44.999Z</time></trkpt><trkpt lat="42.103754469201704" lon="11.93571788675484"><ele>317.0</ele><time>2026-04-12T09:37:45.999Z</time></trkpt><trkpt lat="42.1038190259582" lon="11.935727104756129"><ele>317.0</ele><time>2026-04-12T09:37:46.999Z</time></trkpt><trkpt lat="42.10388834045447" lon="11.935729265184236"><ele>317.0</ele><time>2026-04-12T09:37:47.999Z</time></trkpt><trkpt lat="42.10395855374023" lon="11.935747490270463"><ele>317.0</ele><time>2026-04-12T09:37:48.999Z</time></trkpt><trkpt lat="42.104041725030974" lon="11.935716431800419"><ele>317.0</ele><time>2026-04-12T09:37:49.999Z</time></trkpt><trkpt lat="42.104150663938945" lon="11.935618946661238"><ele>317.0</ele><time>2026-04-12T09:37:50.999Z</time></trkpt><trkpt lat="42.104290445510095" lon="11.93559197019855"><ele>317.0</ele><time>2026-04-12T09:37:51.999Z</time></trkpt><trkpt lat="42.104388552242824" lon="11.935507394944445"><ele>318.0</ele><time>2026-04-12T09:37:52.999Z</time></trkpt><trkpt lat="42.104486634744056" lon="11.935464565438519"><ele>319.0</ele><time>2026-04-12T09:37:53.999Z</time></trkpt><trkpt lat="42.10456558236814" lon="11.935418771534614"><ele>320.0</ele><time>2026-04-12T09:37:54.999Z</time></trkpt><trkpt lat="42.10462710802627" lon="11.93534065382837"><ele>321.0</ele><time>2026-04-12T09:37:55.999Z</time></trkpt><trkpt lat="42.10465714568711" lon="11.93521345396326"><ele>322.0</ele><time>2026-04-12T09:37:56.999Z</time></trkpt><trkpt lat="42.10466100830788" lon="11.935035632168569"><ele>323.16666666666663</ele><time>2026-04-12T09:37:57.999Z</time></trkpt><trkpt lat="42.10466159218995" lon="11.934941700421092"><ele>324.3333333333333</ele><time>2026-04-12T09:37:59Z</time></trkpt><trkpt lat="42.10472142873371" lon="11.934836992768576"><ele>325.5</ele><time>2026-04-12T09:38:00Z</time></trkpt><trkpt lat="42.104771111662245" lon="11.93472731459355"><ele>326.6666666666667</ele><time>2026-04-12T09:38:01Z</time></trkpt><trkpt lat="42.104799839609214" lon="11.93463158234418"><ele>327.83333333333337</ele><time>2026-04-12T09:38:02Z</time></trkpt><trkpt lat="42.104826236038924" lon="11.934529112717003"><ele>329.0</ele><time>2026-04-12T09:38:03Z</time></trkpt><trkpt lat="42.10486771666843" lon="11.934413219985485"><ele>329.0</ele><time>2026-04-12T09:38:04Z</time></trkpt><trkpt lat="42.10490642485142" lon="11.934286303091175"><ele>329.0</ele><time>2026-04-12T09:38:05Z</time></trkpt><trkpt lat="42.10493772496342" lon="11.934140939955457"><ele>329.0</ele><time>2026-04-12T09:38:06Z</time></trkpt><trkpt lat="42.104946549089775" lon="11.934025714477341"><ele>329.0</ele><time>2026-04-12T09:38:07Z</time></trkpt><trkpt lat="42.10499336454233" lon="11.93388953861858"><ele>329.0</ele><time>2026-04-12T09:38:09Z</time></trkpt><trkpt lat="42.10506267444056" lon="11.933845731605974"><ele>331.4</ele><time>2026-04-12T09:38:10Z</time></trkpt><trkpt lat="42.1051522701978" lon="11.933818155308597"><ele>333.79999999999995</ele><time>2026-04-12T09:38:11Z</time></trkpt><trkpt lat="42.105246542723" lon="11.93375901235827"><ele>336.20000000000005</ele><time>2026-04-12T09:38:12Z</time></trkpt><trkpt lat="42.105321827772684" lon="11.933720856367785"><ele>338.6</ele><time>2026-04-12T09:38:13Z</time></trkpt><trkpt lat="42.10540598276469" lon="11.933673241744978"><ele>341.0</ele><time>2026-04-12T09:38:14Z</time></trkpt><trkpt lat="42.10548833313456" lon="11.933610193011274"><ele>341.0</ele><time>2026-04-12T09:38:15Z</time></trkpt><trkpt lat="42.10555332284059" lon="11.933537149951373"><ele>341.0</ele><time>2026-04-12T09:38:16Z</time></trkpt><trkpt lat="42.10562823508126" lon="11.933487562698208"><ele>341.0</ele><time>2026-04-12T09:38:17Z</time></trkpt><trkpt lat="42.10570901401561" lon="11.933430967340067"><ele>341.0</ele><time>2026-04-12T09:38:18Z</time></trkpt><trkpt lat="42.105794199805295" lon="11.93339777586136"><ele>341.0</ele><time>2026-04-12T09:38:19Z</time></trkpt><trkpt lat="42.105857895234806" lon="11.933354264463798"><ele>341.0</ele><time>2026-04-12T09:38:20Z</time></trkpt><trkpt lat="42.10595509484111" lon="11.933231218927773"><ele>342.33333333333337</ele><time>2026-04-12T09:38:22Z</time></trkpt><trkpt lat="42.105991655454524" lon="11.933156617193184"><ele>343.6666666666667</ele><time>2026-04-12T09:38:23Z</time></trkpt><trkpt lat="42.10601806618884" lon="11.933050853423122"><ele>345.0</ele><time>2026-04-12T09:38:24Z</time></trkpt><trkpt lat="42.106047169860894" lon="11.932958504032698"><ele>346.3333333333333</ele><time>2026-04-12T09:38:25Z</time></trkpt><trkpt lat="42.106072394480165" lon="11.93283768161858"><ele>347.66666666666663</ele><time>2026-04-12T09:38:26Z</time></trkpt><trkpt lat="42.10610405474716" lon="11.932729853697863"><ele>349.0</ele><time>2026-04-12T09:38:27Z</time></trkpt><trkpt lat="42.10614745365196" lon="11.932616985505017"><ele>350.0</ele><time>2026-04-12T09:38:28Z</time></trkpt><trkpt lat="42.1061774827448" lon="11.932499832903932"><ele>351.0</ele><time>2026-04-12T09:38:29Z</time></trkpt><trkpt lat="42.10619415992765" lon="11.932389702805962"><ele>352.0</ele><time>2026-04-12T09:38:30Z</time></trkpt><trkpt lat="42.106195279419" lon="11.93230213913577"><ele>353.0</ele><time>2026-04-12T09:38:31Z</time></trkpt><trkpt lat="42.106174864412274" lon="11.932171348057995"><ele>354.0</ele><time>2026-04-12T09:38:33Z</time></trkpt><trkpt lat="42.106173214259414" lon="11.932080615342796"><ele>355.0</ele><time>2026-04-12T09:38:36Z</time></trkpt><trkpt lat="42.1061513766445" lon="11.931993285283635"><ele>355.0</ele><time>2026-04-12T09:49:06Z</time></trkpt><trkpt lat="42.10615740529336" lon="11.932079425031443"><ele>355.0</ele><time>2026-04-12T09:49:16Z</time></trkpt><trkpt lat="42.10606844705892" lon="11.932042444823713"><ele>355.0</ele><time>2026-04-12T09:50:26.999Z</time></trkpt><trkpt lat="42.10598892749855" lon="11.931975672408035"><ele>355.0</ele><time>2026-04-12T09:50:28.999Z</time></trkpt><trkpt lat="42.10591141948273" lon="11.931947656680103"><ele>355.0</ele><time>2026-04-12T09:50:30.999Z</time></trkpt><trkpt lat="42.10581547411596" lon="11.931921263720536"><ele>355.0</ele><time>2026-04-12T09:50:32.999Z</time></trkpt><trkpt lat="42.10571049957293" lon="11.931809728056212"><ele>356.16666666666663</ele><time>2026-04-12T09:50:35Z</time></trkpt><trkpt lat="42.10563039528655" lon="11.931792684036171"><ele>357.3333333333333</ele><time>2026-04-12T09:50:37Z</time></trkpt><trkpt lat="42.105525613916555" lon="11.931824199404396"><ele>358.5</ele><time>2026-04-12T09:50:39Z</time></trkpt><trkpt lat="42.10546033658786" lon="11.931831897616217"><ele>359.6666666666667</ele><time>2026-04-12T09:50:40Z</time></trkpt><trkpt lat="42.105390593944065" lon="11.931825008312245"><ele>360.83333333333337</ele><time>2026-04-12T09:50:41Z</time></trkpt><trkpt lat="42.10530952303745" lon="11.931775721726709"><ele>362.0</ele><time>2026-04-12T09:50:43Z</time></trkpt><trkpt lat="42.10523604661419" lon="11.931776147277919"><ele>362.0</ele><time>2026-04-12T09:50:45Z</time></trkpt><trkpt lat="42.10516818135959" lon="11.931775014308233"><ele>362.0</ele><time>2026-04-12T09:50:47Z</time></trkpt><trkpt lat="42.10507964232601" lon="11.931714891968971"><ele>362.0</ele><time>2026-04-12T09:50:49Z</time></trkpt><trkpt lat="42.1050408145323" lon="11.931604533461297"><ele>362.0</ele><time>2026-04-12T09:50:52Z</time></trkpt><trkpt lat="42.105102002620086" lon="11.93156708083084"><ele>362.0</ele><time>2026-04-12T09:51:04Z</time></trkpt><trkpt lat="42.105171040264636" lon="11.931600873229112"><ele>362.0</ele><time>2026-04-12T09:51:06Z</time></trkpt><trkpt lat="42.10523675764495" lon="11.931589293121865"><ele>363.0</ele><time>2026-04-12T09:51:09Z</time></trkpt><trkpt lat="42.105212055518294" lon="11.931450535383624"><ele>364.0</ele><time>2026-04-12T09:51:22Z</time></trkpt><trkpt lat="42.10522774583247" lon="11.931348228802149"><ele>365.0</ele><time>2026-04-12T09:51:24Z</time></trkpt><trkpt lat="42.10530120297356" lon="11.931300533769924"><ele>366.0</ele><time>2026-04-12T09:51:27Z</time></trkpt><trkpt lat="42.10537046177076" lon="11.931300031963382"><ele>367.0</ele><time>2026-04-12T09:51:31Z</time></trkpt><trkpt lat="42.10543410409396" lon="11.931357649683074"><ele>368.0</ele><time>2026-04-12T09:51:34Z</time></trkpt><trkpt lat="42.10552483364934" lon="11.93139049847881"><ele>368.0</ele><time>2026-04-12T09:51:36Z</time></trkpt><trkpt lat="42.10556925988994" lon="11.931327730858941"><ele>368.0</ele><time>2026-04-12T09:51:39Z</time></trkpt><trkpt lat="42.10560053255551" lon="11.931402493268589"><ele>368.0</ele><time>2026-04-12T09:51:55.999Z</time></trkpt><trkpt lat="42.10561431978703" lon="11.931487047879072"><ele>368.0</ele><time>2026-04-12T09:51:57.999Z</time></trkpt><trkpt lat="42.10564994261803" lon="11.931581139148305"><ele>368.0</ele><time>2026-04-12T09:52:00.999Z</time></trkpt><trkpt lat="42.10564907053109" lon="11.931670989853188"><ele>368.0</ele><time>2026-04-12T09:52:02.999Z</time></trkpt><trkpt lat="42.10566451728491" lon="11.9317577232599"><ele>368.0</ele><time>2026-04-12T09:52:04.999Z</time></trkpt><trkpt lat="42.10568268534719" lon="11.9318501387349"><ele>367.0</ele><time>2026-04-12T09:52:06.999Z</time></trkpt><trkpt lat="42.10565142179087" lon="11.93195315230648"><ele>366.0</ele><time>2026-04-12T09:52:10.999Z</time></trkpt><trkpt lat="42.1056381012364" lon="11.932044790766275"><ele>365.0</ele><time>2026-04-12T09:52:13.999Z</time></trkpt><trkpt lat="42.10555671252535" lon="11.932070431771153"><ele>364.0</ele><time>2026-04-12T09:52:23.999Z</time></trkpt><trkpt lat="42.10546456481581" lon="11.93207618855085"><ele>363.0</ele><time>2026-04-12T09:52:26.999Z</time></trkpt><trkpt lat="42.10537164119664" lon="11.932070938018796"><ele>362.0</ele><time>2026-04-12T09:52:28.999Z</time></trkpt><trkpt lat="42.105259299683574" lon="11.93207691928083"><ele>362.0</ele><time>2026-04-12T09:52:30.999Z</time></trkpt><trkpt lat="42.10514497422303" lon="11.932043620018087"><ele>362.0</ele><time>2026-04-12T09:52:32.999Z</time></trkpt><trkpt lat="42.10508478735817" lon="11.932016427231392"><ele>362.0</ele><time>2026-04-12T09:52:33.999Z</time></trkpt><trkpt lat="42.10498757639878" lon="11.931945377911386"><ele>362.0</ele><time>2026-04-12T09:52:35.999Z</time></trkpt><trkpt lat="42.10493410599768" lon="11.931896830634262"><ele>362.0</ele><time>2026-04-12T09:52:36.999Z</time></trkpt><trkpt lat="42.104879534908356" lon="11.931841315709004"><ele>362.0</ele><time>2026-04-12T09:52:37.999Z</time></trkpt><trkpt lat="42.104787350546836" lon="11.931749564281432"><ele>363.0</ele><time>2026-04-12T09:52:39.999Z</time></trkpt><trkpt lat="42.10472539584023" lon="11.9317153235872"><ele>364.0</ele><time>2026-04-12T09:52:41Z</time></trkpt><trkpt lat="42.10468031202348" lon="11.93163955583476"><ele>365.0</ele><time>2026-04-12T09:52:42Z</time></trkpt><trkpt lat="42.10459228752346" lon="11.931538031060178"><ele>366.0</ele><time>2026-04-12T09:52:44Z</time></trkpt><trkpt lat="42.10454536095099" lon="11.931476612463252"><ele>367.0</ele><time>2026-04-12T09:52:45Z</time></trkpt><trkpt lat="42.104463130230926" lon="11.931358471818578"><ele>368.0</ele><time>2026-04-12T09:52:47Z</time></trkpt><trkpt lat="42.10438384372687" lon="11.931243618610756"><ele>368.0</ele><time>2026-04-12T09:52:49Z</time></trkpt><trkpt lat="42.10429963854133" lon="11.93112133301304"><ele>368.0</ele><time>2026-04-12T09:52:51Z</time></trkpt><trkpt lat="42.104211700472135" lon="11.930986352959124"><ele>368.0</ele><time>2026-04-12T09:52:53Z</time></trkpt><trkpt lat="42.10416582753137" lon="11.93091417396517"><ele>368.0</ele><time>2026-04-12T09:52:54Z</time></trkpt><trkpt lat="42.10410590794076" lon="11.930771394188007"><ele>368.0</ele><time>2026-04-12T09:52:56Z</time></trkpt><trkpt lat="42.104099727210055" lon="11.930575007386272"><ele>369.4</ele><time>2026-04-12T09:52:58Z</time></trkpt><trkpt lat="42.10414726136091" lon="11.93049373720647"><ele>370.79999999999995</ele><time>2026-04-12T09:52:59Z</time></trkpt><trkpt lat="42.10419663842442" lon="11.93041096533737"><ele>372.2</ele><time>2026-04-12T09:53:00Z</time></trkpt><trkpt lat="42.10426088310275" lon="11.930299244374453"><ele>373.6</ele><time>2026-04-12T09:53:01Z</time></trkpt><trkpt lat="42.10433244530466" lon="11.930206563959695"><ele>375.0</ele><time>2026-04-12T09:53:02Z</time></trkpt><trkpt lat="42.10440576038464" lon="11.930093549924443"><ele>374.2</ele><time>2026-04-12T09:53:03Z</time></trkpt><trkpt lat="42.10447590143587" lon="11.929971964496414"><ele>373.4</ele><time>2026-04-12T09:53:04Z</time></trkpt><trkpt lat="42.10454814058944" lon="11.929847294695474"><ele>372.6</ele><time>2026-04-12T09:53:05Z</time></trkpt><trkpt lat="42.104606094886876" lon="11.929723737071097"><ele>371.8</ele><time>2026-04-12T09:53:06Z</time></trkpt><trkpt lat="42.104650077289904" lon="11.929608346778775"><ele>371.0</ele><time>2026-04-12T09:53:07Z</time></trkpt><trkpt lat="42.10468128146082" lon="11.929486440067462"><ele>371.0</ele><time>2026-04-12T09:53:08Z</time></trkpt><trkpt lat="42.10468809773002" lon="11.92937524323473"><ele>371.0</ele><time>2026-04-12T09:53:09Z</time></trkpt><trkpt lat="42.104712850710776" lon="11.92925899284777"><ele>371.0</ele><time>2026-04-12T09:53:10Z</time></trkpt><trkpt lat="42.104721262174856" lon="11.929166523657914"><ele>371.0</ele><time>2026-04-12T09:53:11Z</time></trkpt><trkpt lat="42.10471798659809" lon="11.929027599603833"><ele>371.0</ele><time>2026-04-12T09:53:12Z</time></trkpt><trkpt lat="42.10469181619856" lon="11.928901342190114"><ele>371.0</ele><time>2026-04-12T09:53:13Z</time></trkpt><trkpt lat="42.10464556788063" lon="11.928769408928945"><ele>368.75</ele><time>2026-04-12T09:53:14Z</time></trkpt><trkpt lat="42.1046000661594" lon="11.92863616465536"><ele>366.5</ele><time>2026-04-12T09:53:15Z</time></trkpt><trkpt lat="42.10455301308911" lon="11.928498377457089"><ele>364.25</ele><time>2026-04-12T09:53:16Z</time></trkpt><trkpt lat="42.104489652280755" lon="11.928355478668129"><ele>362.0</ele><time>2026-04-12T09:53:17Z</time></trkpt><trkpt lat="42.104448293808126" lon="11.92820303939833"><ele>361.75</ele><time>2026-04-12T09:53:18Z</time></trkpt><trkpt lat="42.10439699857165" lon="11.928049747043351"><ele>361.5</ele><time>2026-04-12T09:53:19Z</time></trkpt><trkpt lat="42.104339640241605" lon="11.927901512390829"><ele>361.25</ele><time>2026-04-12T09:53:20Z</time></trkpt><trkpt lat="42.10429708312111" lon="11.927723577179455"><ele>361.0</ele><time>2026-04-12T09:53:21Z</time></trkpt><trkpt lat="42.104248579269054" lon="11.927554007897966"><ele>361.0</ele><time>2026-04-12T09:53:22Z</time></trkpt><trkpt lat="42.10420649833892" lon="11.927388632078996"><ele>361.0</ele><time>2026-04-12T09:53:23Z</time></trkpt><trkpt lat="42.10417067200551" lon="11.92722002775687"><ele>361.0</ele><time>2026-04-12T09:53:24Z</time></trkpt><trkpt lat="42.10414961177298" lon="11.927048436772484"><ele>361.0</ele><time>2026-04-12T09:53:25Z</time></trkpt><trkpt lat="42.104134008098804" lon="11.926878948315144"><ele>361.5</ele><time>2026-04-12T09:53:26Z</time></trkpt><trkpt lat="42.10412015765218" lon="11.92670266644796"><ele>362.0</ele><time>2026-04-12T09:53:27Z</time></trkpt><trkpt lat="42.104110399279435" lon="11.926532998455876"><ele>362.5</ele><time>2026-04-12T09:53:28Z</time></trkpt><trkpt lat="42.10410254624916" lon="11.926357702069067"><ele>363.0</ele><time>2026-04-12T09:53:29Z</time></trkpt><trkpt lat="42.10409567777417" lon="11.926178665830934"><ele>363.0</ele><time>2026-04-12T09:53:30Z</time></trkpt><trkpt lat="42.10408924387821" lon="11.925986061175333"><ele>363.0</ele><time>2026-04-12T09:53:31Z</time></trkpt><trkpt lat="42.10408151302774" lon="11.925785127540955"><ele>363.0</ele><time>2026-04-12T09:53:32Z</time></trkpt><trkpt lat="42.10407360495775" lon="11.925579587865688"><ele>363.0</ele><time>2026-04-12T09:53:33Z</time></trkpt><trkpt lat="42.10406602992556" lon="11.925382704202807"><ele>359.25</ele><time>2026-04-12T09:53:34Z</time></trkpt><trkpt lat="42.10404685650096" lon="11.925200305766246"><ele>355.5</ele><time>2026-04-12T09:53:35Z</time></trkpt><trkpt lat="42.10404838987252" lon="11.925004849612918"><ele>351.75</ele><time>2026-04-12T09:53:36Z</time></trkpt><trkpt lat="42.104033147897894" lon="11.924814635496997"><ele>348.0</ele><time>2026-04-12T09:53:37Z</time></trkpt><trkpt lat="42.10401244449485" lon="11.92464660500921"><ele>347.75</ele><time>2026-04-12T09:53:38Z</time></trkpt><trkpt lat="42.10399944364543" lon="11.924480398853373"><ele>347.5</ele><time>2026-04-12T09:53:39Z</time></trkpt><trkpt lat="42.103998129323756" lon="11.924311579147165"><ele>347.25</ele><time>2026-04-12T09:53:40Z</time></trkpt><trkpt lat="42.10402008013725" lon="11.924136959393158"><ele>347.0</ele><time>2026-04-12T09:53:41Z</time></trkpt><trkpt lat="42.10400841604725" lon="11.923970419376262"><ele>346.5</ele><time>2026-04-12T09:53:42Z</time></trkpt><trkpt lat="42.10402174218176" lon="11.923806919967177"><ele>346.0</ele><time>2026-04-12T09:53:43Z</time></trkpt><trkpt lat="42.10400390632144" lon="11.923637205807651"><ele>345.5</ele><time>2026-04-12T09:53:44Z</time></trkpt><trkpt lat="42.10398062203595" lon="11.923452900350712"><ele>345.0</ele><time>2026-04-12T09:53:45Z</time></trkpt><trkpt lat="42.1039521335691" lon="11.923276086422451"><ele>344.75</ele><time>2026-04-12T09:53:45.999Z</time></trkpt><trkpt lat="42.103928996530186" lon="11.923104207592997"><ele>344.5</ele><time>2026-04-12T09:53:46.999Z</time></trkpt><trkpt lat="42.10391169314675" lon="11.922932827198627"><ele>344.25</ele><time>2026-04-12T09:53:47.999Z</time></trkpt><trkpt lat="42.10389682025869" lon="11.922755183412727"><ele>344.0</ele><time>2026-04-12T09:53:48.999Z</time></trkpt><trkpt lat="42.103877672603154" lon="11.922579055201982"><ele>344.0</ele><time>2026-04-12T09:53:49.999Z</time></trkpt><trkpt lat="42.103851456207835" lon="11.92239959525056"><ele>344.0</ele><time>2026-04-12T09:53:50.999Z</time></trkpt><trkpt lat="42.10383045159675" lon="11.922230023400543"><ele>344.0</ele><time>2026-04-12T09:53:51.999Z</time></trkpt><trkpt lat="42.10381769068567" lon="11.922067585459935"><ele>344.0</ele><time>2026-04-12T09:53:52.999Z</time></trkpt><trkpt lat="42.10379672036623" lon="11.92190516830672"><ele>343.25</ele><time>2026-04-12T09:53:53.999Z</time></trkpt><trkpt lat="42.103793331142796" lon="11.921731111425215"><ele>342.5</ele><time>2026-04-12T09:53:54.999Z</time></trkpt><trkpt lat="42.103771053262996" lon="11.921562949361137"><ele>341.75</ele><time>2026-04-12T09:53:55.999Z</time></trkpt><trkpt lat="42.10375275370443" lon="11.921406057225035"><ele>341.0</ele><time>2026-04-12T09:53:56.999Z</time></trkpt><trkpt lat="42.10373425906983" lon="11.921223445354018"><ele>341.0</ele><time>2026-04-12T09:53:57.999Z</time></trkpt><trkpt lat="42.10371624381795" lon="11.92103734032496"><ele>341.0</ele><time>2026-04-12T09:53:58.999Z</time></trkpt><trkpt lat="42.10369023658586" lon="11.920855846456474"><ele>341.0</ele><time>2026-04-12T09:53:59.999Z</time></trkpt><trkpt lat="42.10369206201323" lon="11.920664334061959"><ele>341.0</ele><time>2026-04-12T09:54:00.999Z</time></trkpt><trkpt lat="42.103690973928714" lon="11.92048572615872"><ele>340.25</ele><time>2026-04-12T09:54:01.999Z</time></trkpt><trkpt lat="42.10369622742184" lon="11.920300993577548"><ele>339.5</ele><time>2026-04-12T09:54:02.999Z</time></trkpt><trkpt lat="42.10370199713246" lon="11.920119300187789"><ele>338.75</ele><time>2026-04-12T09:54:03.999Z</time></trkpt><trkpt lat="42.10371029221052" lon="11.91995087183943"><ele>338.0</ele><time>2026-04-12T09:54:04.999Z</time></trkpt><trkpt lat="42.10370370133647" lon="11.91978900708745"><ele>337.75</ele><time>2026-04-12T09:54:05.999Z</time></trkpt><trkpt lat="42.10369299243791" lon="11.919629080097732"><ele>337.5</ele><time>2026-04-12T09:54:06.999Z</time></trkpt><trkpt lat="42.10368227653886" lon="11.919473952825134"><ele>337.25</ele><time>2026-04-12T09:54:07.999Z</time></trkpt><trkpt lat="42.103647638517245" lon="11.919296119069978"><ele>337.0</ele><time>2026-04-12T09:54:08.999Z</time></trkpt><trkpt lat="42.10360855209405" lon="11.919139257875614"><ele>337.0</ele><time>2026-04-12T09:54:09.999Z</time></trkpt><trkpt lat="42.1035519386272" lon="11.918984149729427"><ele>337.0</ele><time>2026-04-12T09:54:10.999Z</time></trkpt><trkpt lat="42.10349741516594" lon="11.91883443831138"><ele>337.0</ele><time>2026-04-12T09:54:11.999Z</time></trkpt><trkpt lat="42.10341186351801" lon="11.918702967577127"><ele>337.0</ele><time>2026-04-12T09:54:12.999Z</time></trkpt><trkpt lat="42.10331055687788" lon="11.91858091312881"><ele>337.75</ele><time>2026-04-12T09:54:13.999Z</time></trkpt><trkpt lat="42.10324308798762" lon="11.91843296911392"><ele>338.5</ele><time>2026-04-12T09:54:14.999Z</time></trkpt><trkpt lat="42.10316925812842" lon="11.918303086151505"><ele>339.25</ele><time>2026-04-12T09:54:15.999Z</time></trkpt><trkpt lat="42.10308725526327" lon="11.918191668224624"><ele>340.0</ele><time>2026-04-12T09:54:16.999Z</time></trkpt><trkpt lat="42.102998842355014" lon="11.918071392631829"><ele>340.0</ele><time>2026-04-12T09:54:17.999Z</time></trkpt><trkpt lat="42.102910735035124" lon="11.91795315182704"><ele>340.0</ele><time>2026-04-12T09:54:18.999Z</time></trkpt><trkpt lat="42.102827110229086" lon="11.917834750950968"><ele>340.0</ele><time>2026-04-12T09:54:19.999Z</time></trkpt><trkpt lat="42.102715934660985" lon="11.917709847188654"><ele>340.0</ele><time>2026-04-12T09:54:20.999Z</time></trkpt><trkpt lat="42.102600394297504" lon="11.917593846831021"><ele>339.3333333333333</ele><time>2026-04-12T09:54:21.999Z</time></trkpt><trkpt lat="42.102478066515474" lon="11.917470522787662"><ele>338.6666666666667</ele><time>2026-04-12T09:54:22.999Z</time></trkpt><trkpt lat="42.10236616226078" lon="11.917339940815083"><ele>338.0</ele><time>2026-04-12T09:54:23.999Z</time></trkpt><trkpt lat="42.10225350792623" lon="11.9171985721294"><ele>338.0</ele><time>2026-04-12T09:54:24.999Z</time></trkpt><trkpt lat="42.1021574151847" lon="11.917055444567124"><ele>338.0</ele><time>2026-04-12T09:54:25.999Z</time></trkpt><trkpt lat="42.10206974457469" lon="11.916929695676219"><ele>338.0</ele><time>2026-04-12T09:54:26.999Z</time></trkpt><trkpt lat="42.10197969242269" lon="11.916815155693252"><ele>338.0</ele><time>2026-04-12T09:54:27.999Z</time></trkpt><trkpt lat="42.10185754143457" lon="11.916708318462813"><ele>339.75</ele><time>2026-04-12T09:54:28.999Z</time></trkpt><trkpt lat="42.1017311497537" lon="11.916615689472254"><ele>341.5</ele><time>2026-04-12T09:54:29.999Z</time></trkpt><trkpt lat="42.10160156264143" lon="11.91652796523505"><ele>343.25</ele><time>2026-04-12T09:54:30.999Z</time></trkpt><trkpt lat="42.10149252282006" lon="11.916443015984022"><ele>345.0</ele><time>2026-04-12T09:54:31.999Z</time></trkpt><trkpt lat="42.101364240058395" lon="11.916364238939284"><ele>345.0</ele><time>2026-04-12T09:54:32.999Z</time></trkpt><trkpt lat="42.101219484176724" lon="11.916287654562005"><ele>345.0</ele><time>2026-04-12T09:54:33.999Z</time></trkpt><trkpt lat="42.101085878040344" lon="11.916220876007896"><ele>345.0</ele><time>2026-04-12T09:54:34.999Z</time></trkpt><trkpt lat="42.100943976950575" lon="11.916167032040981"><ele>345.0</ele><time>2026-04-12T09:54:35.999Z</time></trkpt><trkpt lat="42.10080692463256" lon="11.916116996116964"><ele>344.25</ele><time>2026-04-12T09:54:36.999Z</time></trkpt><trkpt lat="42.10067670832011" lon="11.916066078554708"><ele>343.5</ele><time>2026-04-12T09:54:37.999Z</time></trkpt><trkpt lat="42.10055434386232" lon="11.915975455625494"><ele>342.75</ele><time>2026-04-12T09:54:38.999Z</time></trkpt><trkpt lat="42.100441011184465" lon="11.915900396184172"><ele>342.0</ele><time>2026-04-12T09:54:39.999Z</time></trkpt><trkpt lat="42.10031542085294" lon="11.91584088718158"><ele>344.25</ele><time>2026-04-12T09:54:40.999Z</time></trkpt><trkpt lat="42.100203029022005" lon="11.915767218441356"><ele>346.5</ele><time>2026-04-12T09:54:41.999Z</time></trkpt><trkpt lat="42.10007839986965" lon="11.915691960706383"><ele>348.75</ele><time>2026-04-12T09:54:42.999Z</time></trkpt><trkpt lat="42.099962008002024" lon="11.915632837560207"><ele>351.0</ele><time>2026-04-12T09:54:43.999Z</time></trkpt><trkpt lat="42.09984414948264" lon="11.91558357019523"><ele>351.0</ele><time>2026-04-12T09:54:44.999Z</time></trkpt><trkpt lat="42.09970335260041" lon="11.915547085519119"><ele>351.0</ele><time>2026-04-12T09:54:45.999Z</time></trkpt><trkpt lat="42.0995658955222" lon="11.91552479267365"><ele>351.0</ele><time>2026-04-12T09:54:47Z</time></trkpt><trkpt lat="42.09944732241558" lon="11.915479116792453"><ele>351.0</ele><time>2026-04-12T09:54:48Z</time></trkpt><trkpt lat="42.09932224690184" lon="11.91546621927239"><ele>351.0</ele><time>2026-04-12T09:54:49Z</time></trkpt><trkpt lat="42.099205182592236" lon="11.915437422394387"><ele>351.0</ele><time>2026-04-12T09:54:50Z</time></trkpt><trkpt lat="42.099077789622456" lon="11.915403830504367"><ele>351.0</ele><time>2026-04-12T09:54:51Z</time></trkpt><trkpt lat="42.098938515083596" lon="11.915380903695612"><ele>351.0</ele><time>2026-04-12T09:54:52Z</time></trkpt><trkpt lat="42.09880187578427" lon="11.91534651255351"><ele>352.0</ele><time>2026-04-12T09:54:53Z</time></trkpt><trkpt lat="42.09869284268742" lon="11.915298032103005"><ele>353.0</ele><time>2026-04-12T09:54:54Z</time></trkpt><trkpt lat="42.0986157866775" lon="11.915224827838859"><ele>354.0</ele><time>2026-04-12T09:54:55Z</time></trkpt><trkpt lat="42.098536812857255" lon="11.91513311661518"><ele>355.0</ele><time>2026-04-12T09:54:56Z</time></trkpt><trkpt lat="42.09847427274784" lon="11.915025564409213"><ele>356.0</ele><time>2026-04-12T09:54:57Z</time></trkpt><trkpt lat="42.098419138359915" lon="11.914903996148983"><ele>356.8</ele><time>2026-04-12T09:54:58Z</time></trkpt><trkpt lat="42.09834305860535" lon="11.914792837793412"><ele>357.6</ele><time>2026-04-12T09:54:59Z</time></trkpt><trkpt lat="42.09827359512227" lon="11.914695110465383"><ele>358.4</ele><time>2026-04-12T09:55:00Z</time></trkpt><trkpt lat="42.09818683908516" lon="11.914588999383792"><ele>359.2</ele><time>2026-04-12T09:55:01Z</time></trkpt><trkpt lat="42.09809506879735" lon="11.914489896058045"><ele>360.0</ele><time>2026-04-12T09:55:02Z</time></trkpt><trkpt lat="42.09801456516195" lon="11.914396380805165"><ele>361.4</ele><time>2026-04-12T09:55:03Z</time></trkpt><trkpt lat="42.0979339910909" lon="11.914278429959419"><ele>362.8</ele><time>2026-04-12T09:55:04Z</time></trkpt><trkpt lat="42.097876181998664" lon="11.914171738824448"><ele>364.20000000000005</ele><time>2026-04-12T09:55:05Z</time></trkpt><trkpt lat="42.09782926985178" lon="11.914063614686336"><ele>365.6</ele><time>2026-04-12T09:55:06Z</time></trkpt><trkpt lat="42.09778655752485" lon="11.91393940712043"><ele>367.0</ele><time>2026-04-12T09:55:07Z</time></trkpt><trkpt lat="42.097732702158304" lon="11.91380721281381"><ele>367.0</ele><time>2026-04-12T09:55:08Z</time></trkpt><trkpt lat="42.09769384709814" lon="11.913672323419808"><ele>367.0</ele><time>2026-04-12T09:55:09Z</time></trkpt><trkpt lat="42.09765106842579" lon="11.913540226857492"><ele>367.0</ele><time>2026-04-12T09:55:10Z</time></trkpt><trkpt lat="42.09762003522994" lon="11.91340529536581"><ele>367.0</ele><time>2026-04-12T09:55:11Z</time></trkpt><trkpt lat="42.09758811832906" lon="11.913257940469276"><ele>367.0</ele><time>2026-04-12T09:55:12Z</time></trkpt><trkpt lat="42.09755455073154" lon="11.913129322118156"><ele>366.6</ele><time>2026-04-12T09:55:13Z</time></trkpt><trkpt lat="42.09753026377757" lon="11.913022587293153"><ele>366.20000000000005</ele><time>2026-04-12T09:55:14Z</time></trkpt><trkpt lat="42.097489388328405" lon="11.91290838696197"><ele>365.8</ele><time>2026-04-12T09:55:15Z</time></trkpt><trkpt lat="42.09742195195324" lon="11.912803339356053"><ele>365.4</ele><time>2026-04-12T09:55:16Z</time></trkpt><trkpt lat="42.09735626225443" lon="11.9127032312513"><ele>365.0</ele><time>2026-04-12T09:55:17Z</time></trkpt><trkpt lat="42.09731872739241" lon="11.912588942962085"><ele>365.8</ele><time>2026-04-12T09:55:18Z</time></trkpt><trkpt lat="42.09727354607985" lon="11.912457158518896"><ele>366.6</ele><time>2026-04-12T09:55:19Z</time></trkpt><trkpt lat="42.09724937166368" lon="11.912316770353861"><ele>367.4</ele><time>2026-04-12T09:55:20Z</time></trkpt><trkpt lat="42.09724141433691" lon="11.912191493056815"><ele>368.2</ele><time>2026-04-12T09:55:21Z</time></trkpt><trkpt lat="42.097233202380885" lon="11.912042572649593"><ele>369.0</ele><time>2026-04-12T09:55:22Z</time></trkpt><trkpt lat="42.097215456727895" lon="11.911892014071247"><ele>369.0</ele><time>2026-04-12T09:55:23Z</time></trkpt><trkpt lat="42.09719583748082" lon="11.911759980626298"><ele>369.0</ele><time>2026-04-12T09:55:24Z</time></trkpt><trkpt lat="42.09715198834268" lon="11.911653182636112"><ele>369.0</ele><time>2026-04-12T09:55:25Z</time></trkpt><trkpt lat="42.09708026131197" lon="11.911574847135865"><ele>369.0</ele><time>2026-04-12T09:55:26Z</time></trkpt><trkpt lat="42.0970084526337" lon="11.911499391591123"><ele>369.0</ele><time>2026-04-12T09:55:27Z</time></trkpt><trkpt lat="42.09691266790034" lon="11.911380661168412"><ele>367.3333333333333</ele><time>2026-04-12T09:55:29Z</time></trkpt><trkpt lat="42.09687084991895" lon="11.91129105822368"><ele>365.6666666666667</ele><time>2026-04-12T09:55:30Z</time></trkpt><trkpt lat="42.096860027353635" lon="11.91117541710072"><ele>364.0</ele><time>2026-04-12T09:55:31Z</time></trkpt><trkpt lat="42.09684951564784" lon="11.911052853713947"><ele>362.33333333333337</ele><time>2026-04-12T09:55:32Z</time></trkpt><trkpt lat="42.09683397333271" lon="11.91093674926104"><ele>360.6666666666667</ele><time>2026-04-12T09:55:33Z</time></trkpt><trkpt lat="42.09681652646774" lon="11.910814571923595"><ele>359.0</ele><time>2026-04-12T09:55:34Z</time></trkpt><trkpt lat="42.09680060813644" lon="11.91069307578841"><ele>356.0</ele><time>2026-04-12T09:55:35Z</time></trkpt><trkpt lat="42.09678964721738" lon="11.910567286354308"><ele>353.0</ele><time>2026-04-12T09:55:36Z</time></trkpt><trkpt lat="42.09676369772449" lon="11.910438842709848"><ele>350.0</ele><time>2026-04-12T09:55:37Z</time></trkpt><trkpt lat="42.096718697184514" lon="11.910277767961157"><ele>347.0</ele><time>2026-04-12T09:55:38Z</time></trkpt><trkpt lat="42.09667436363018" lon="11.910107681933676"><ele>346.5</ele><time>2026-04-12T09:55:39Z</time></trkpt><trkpt lat="42.09662377253634" lon="11.90994897800661"><ele>346.0</ele><time>2026-04-12T09:55:40Z</time></trkpt><trkpt lat="42.096561838989096" lon="11.909802386758404"><ele>345.5</ele><time>2026-04-12T09:55:41Z</time></trkpt><trkpt lat="42.096496890066604" lon="11.909662409694135"><ele>345.0</ele><time>2026-04-12T09:55:42Z</time></trkpt><trkpt lat="42.09643077614222" lon="11.909538136540467"><ele>343.2</ele><time>2026-04-12T09:55:43Z</time></trkpt><trkpt lat="42.096362712802325" lon="11.90942280172135"><ele>341.4</ele><time>2026-04-12T09:55:44Z</time></trkpt><trkpt lat="42.096300939469955" lon="11.909326235351656"><ele>339.6</ele><time>2026-04-12T09:55:45Z</time></trkpt><trkpt lat="42.09624864957271" lon="11.909248350053868"><ele>337.8</ele><time>2026-04-12T09:55:46Z</time></trkpt><trkpt lat="42.0961907186953" lon="11.90912057753941"><ele>336.0</ele><time>2026-04-12T09:55:48Z</time></trkpt><trkpt lat="42.096120750030074" lon="11.908987478343475"><ele>336.0</ele><time>2026-04-12T09:55:50Z</time></trkpt><trkpt lat="42.09605806673809" lon="11.908860155205902"><ele>336.0</ele><time>2026-04-12T09:55:51.999Z</time></trkpt><trkpt lat="42.09601506860892" lon="11.908797427844041"><ele>336.0</ele><time>2026-04-12T09:55:52.999Z</time></trkpt><trkpt lat="42.09597003449531" lon="11.908734437449425"><ele>336.0</ele><time>2026-04-12T09:55:53.999Z</time></trkpt><trkpt lat="42.09591109801898" lon="11.90862535092237"><ele>336.0</ele><time>2026-04-12T09:55:55.999Z</time></trkpt><trkpt lat="42.095842843000895" lon="11.908516182945911"><ele>336.0</ele><time>2026-04-12T09:55:57.999Z</time></trkpt><trkpt lat="42.09577018658912" lon="11.908382003270566"><ele>334.0</ele><time>2026-04-12T09:55:59.999Z</time></trkpt><trkpt lat="42.095717025389106" lon="11.908322828903735"><ele>332.0</ele><time>2026-04-12T09:56:00.999Z</time></trkpt><trkpt lat="42.09565945177612" lon="11.908254839549004"><ele>330.0</ele><time>2026-04-12T09:56:01.999Z</time></trkpt><trkpt lat="42.095606154276716" lon="11.908176679681501"><ele>328.0</ele><time>2026-04-12T09:56:02.999Z</time></trkpt><trkpt lat="42.09553569142006" lon="11.908108618260664"><ele>326.0</ele><time>2026-04-12T09:56:03.999Z</time></trkpt><trkpt lat="42.09547345254554" lon="11.908025130966651"><ele>324.0</ele><time>2026-04-12T09:56:04.999Z</time></trkpt><trkpt lat="42.09540839271812" lon="11.907956508850809"><ele>324.0</ele><time>2026-04-12T09:56:05.999Z</time></trkpt><trkpt lat="42.09534493886045" lon="11.907887566064408"><ele>324.0</ele><time>2026-04-12T09:56:06.999Z</time></trkpt><trkpt lat="42.09528590642643" lon="11.907818023085882"><ele>324.0</ele><time>2026-04-12T09:56:07.999Z</time></trkpt><trkpt lat="42.09520857473301" lon="11.907764213095906"><ele>324.0</ele><time>2026-04-12T09:56:08.999Z</time></trkpt><trkpt lat="42.09515375168218" lon="11.907694881855612"><ele>324.0</ele><time>2026-04-12T09:56:09.999Z</time></trkpt><trkpt lat="42.09509311488826" lon="11.907617319759426"><ele>324.0</ele><time>2026-04-12T09:56:10.999Z</time></trkpt><trkpt lat="42.09504991724037" lon="11.907551983128817"><ele>324.0</ele><time>2026-04-12T09:56:11.999Z</time></trkpt><trkpt lat="42.095010649929826" lon="11.907479050025103"><ele>324.0</ele><time>2026-04-12T09:56:12.999Z</time></trkpt><trkpt lat="42.0949705733416" lon="11.907398731357342"><ele>324.0</ele><time>2026-04-12T09:56:13.999Z</time></trkpt><trkpt lat="42.094936844467654" lon="11.907322158967865"><ele>324.0</ele><time>2026-04-12T09:56:14.999Z</time></trkpt><trkpt lat="42.0948776912811" lon="11.907162974555826"><ele>324.0</ele><time>2026-04-12T09:56:16.999Z</time></trkpt><trkpt lat="42.09483852946251" lon="11.907077084740392"><ele>324.0</ele><time>2026-04-12T09:56:17.999Z</time></trkpt><trkpt lat="42.09480300621347" lon="11.90696901348788"><ele>321.8333333333333</ele><time>2026-04-12T09:56:18.999Z</time></trkpt><trkpt lat="42.094773447878254" lon="11.906850871542288"><ele>319.6666666666667</ele><time>2026-04-12T09:56:19.999Z</time></trkpt><trkpt lat="42.094736711771375" lon="11.906740741705658"><ele>317.5</ele><time>2026-04-12T09:56:20.999Z</time></trkpt><trkpt lat="42.09470536691357" lon="11.90664000111799"><ele>315.33333333333337</ele><time>2026-04-12T09:56:21.999Z</time></trkpt><trkpt lat="42.09467315223884" lon="11.906540847350454"><ele>313.1666666666667</ele><time>2026-04-12T09:56:22.999Z</time></trkpt><trkpt lat="42.094644309233274" lon="11.906433652544036"><ele>311.0</ele><time>2026-04-12T09:56:23.999Z</time></trkpt><trkpt lat="42.09461450156715" lon="11.906341036629406"><ele>311.0</ele><time>2026-04-12T09:56:24.999Z</time></trkpt><trkpt lat="42.09456768771255" lon="11.90626403214116"><ele>311.0</ele><time>2026-04-12T09:56:25.999Z</time></trkpt><trkpt lat="42.09451124157412" lon="11.906189249441749"><ele>311.0</ele><time>2026-04-12T09:56:26.999Z</time></trkpt><trkpt lat="42.09444148803227" lon="11.906099938374503"><ele>311.0</ele><time>2026-04-12T09:56:27.999Z</time></trkpt><trkpt lat="42.094365570455714" lon="11.906031592832468"><ele>311.0</ele><time>2026-04-12T09:56:28.999Z</time></trkpt><trkpt lat="42.09428117843086" lon="11.905953970015842"><ele>311.0</ele><time>2026-04-12T09:56:29.999Z</time></trkpt><trkpt lat="42.09417860865665" lon="11.905872647239628"><ele>310.25</ele><time>2026-04-12T09:56:30.999Z</time></trkpt><trkpt lat="42.09406129094803" lon="11.905794991064802"><ele>309.5</ele><time>2026-04-12T09:56:31.999Z</time></trkpt><trkpt lat="42.09394206863877" lon="11.905728940522328"><ele>308.75</ele><time>2026-04-12T09:56:32.999Z</time></trkpt><trkpt lat="42.09381716736519" lon="11.905681902250928"><ele>308.0</ele><time>2026-04-12T09:56:33.999Z</time></trkpt><trkpt lat="42.09369834365372" lon="11.905637896561187"><ele>308.0</ele><time>2026-04-12T09:56:34.999Z</time></trkpt><trkpt lat="42.0935679589907" lon="11.905605169978998"><ele>308.0</ele><time>2026-04-12T09:56:35.999Z</time></trkpt><trkpt lat="42.09346814258623" lon="11.905556107085117"><ele>308.0</ele><time>2026-04-12T09:56:36.999Z</time></trkpt><trkpt lat="42.09336773613145" lon="11.905518446469797"><ele>308.0</ele><time>2026-04-12T09:56:37.999Z</time></trkpt><trkpt lat="42.09326857407174" lon="11.90546403651707"><ele>307.25</ele><time>2026-04-12T09:56:38.999Z</time></trkpt><trkpt lat="42.093157222293485" lon="11.905398223266387"><ele>306.5</ele><time>2026-04-12T09:56:39.999Z</time></trkpt><trkpt lat="42.09303657142327" lon="11.905357718061648"><ele>305.75</ele><time>2026-04-12T09:56:40.999Z</time></trkpt><trkpt lat="42.092913119249616" lon="11.90533870530441"><ele>305.0</ele><time>2026-04-12T09:56:41.999Z</time></trkpt><trkpt lat="42.09280106481985" lon="11.90528944700336"><ele>305.0</ele><time>2026-04-12T09:56:42.999Z</time></trkpt><trkpt lat="42.09268432913262" lon="11.90523274482601"><ele>305.0</ele><time>2026-04-12T09:56:43.999Z</time></trkpt><trkpt lat="42.09257559129159" lon="11.90518100157303"><ele>305.0</ele><time>2026-04-12T09:56:44.999Z</time></trkpt><trkpt lat="42.09247858166684" lon="11.905116068796682"><ele>305.0</ele><time>2026-04-12T09:56:45.999Z</time></trkpt><trkpt lat="42.092406889144726" lon="11.905028495937028"><ele>305.0</ele><time>2026-04-12T09:56:46.999Z</time></trkpt><trkpt lat="42.0923327392554" lon="11.904918001895519"><ele>304.5</ele><time>2026-04-12T09:56:47.999Z</time></trkpt><trkpt lat="42.09222730008524" lon="11.904806197783904"><ele>304.0</ele><time>2026-04-12T09:56:48.999Z</time></trkpt><trkpt lat="42.09213117606457" lon="11.904662164476678"><ele>303.5</ele><time>2026-04-12T09:56:49.999Z</time></trkpt><trkpt lat="42.09202893098798" lon="11.904529973258672"><ele>303.0</ele><time>2026-04-12T09:56:50.999Z</time></trkpt><trkpt lat="42.091933750549586" lon="11.904393163276493"><ele>303.0</ele><time>2026-04-12T09:56:51.999Z</time></trkpt><trkpt lat="42.09183920868855" lon="11.90426724719534"><ele>303.0</ele><time>2026-04-12T09:56:53Z</time></trkpt><trkpt lat="42.091746026618246" lon="11.904151687641114"><ele>303.0</ele><time>2026-04-12T09:56:54Z</time></trkpt><trkpt lat="42.091653337325134" lon="11.904040501627664"><ele>303.0</ele><time>2026-04-12T09:56:55Z</time></trkpt><trkpt lat="42.09157096620733" lon="11.903932388501335"><ele>303.2</ele><time>2026-04-12T09:56:56Z</time></trkpt><trkpt lat="42.09150180958032" lon="11.90383185838991"><ele>303.4</ele><time>2026-04-12T09:56:57Z</time></trkpt><trkpt lat="42.09142895204024" lon="11.90372297922662"><ele>303.59999999999997</ele><time>2026-04-12T09:56:58Z</time></trkpt><trkpt lat="42.0913536380677" lon="11.903606721408856"><ele>303.8</ele><time>2026-04-12T09:56:59Z</time></trkpt><trkpt lat="42.09127553888169" lon="11.903489123642562"><ele>304.0</ele><time>2026-04-12T09:57:00Z</time></trkpt><trkpt lat="42.0911927564187" lon="11.903397272565925"><ele>306.0</ele><time>2026-04-12T09:57:01Z</time></trkpt><trkpt lat="42.09111243707793" lon="11.903343664306977"><ele>308.0</ele><time>2026-04-12T09:57:02Z</time></trkpt><trkpt lat="42.090993430269236" lon="11.903320785170724"><ele>310.0</ele><time>2026-04-12T09:57:03Z</time></trkpt><trkpt lat="42.09087017441228" lon="11.903266579864408"><ele>312.0</ele><time>2026-04-12T09:57:04Z</time></trkpt><trkpt lat="42.09073739575742" lon="11.903236628436392"><ele>312.0</ele><time>2026-04-12T09:57:05Z</time></trkpt><trkpt lat="42.09060437695815" lon="11.903203615206777"><ele>312.0</ele><time>2026-04-12T09:57:06Z</time></trkpt><trkpt lat="42.09047171589562" lon="11.90316524810212"><ele>312.0</ele><time>2026-04-12T09:57:07Z</time></trkpt><trkpt lat="42.09034935099549" lon="11.903130297592059"><ele>312.0</ele><time>2026-04-12T09:57:08Z</time></trkpt><trkpt lat="42.090219401228765" lon="11.903080427669826"><ele>312.0</ele><time>2026-04-12T09:57:09Z</time></trkpt><trkpt lat="42.09009749920837" lon="11.903019939468201"><ele>312.0</ele><time>2026-04-12T09:57:10Z</time></trkpt><trkpt lat="42.089994564458365" lon="11.902996547431023"><ele>312.0</ele><time>2026-04-12T09:57:11Z</time></trkpt><trkpt lat="42.089896607304624" lon="11.903000538252979"><ele>312.0</ele><time>2026-04-12T09:57:12Z</time></trkpt><trkpt lat="42.0897814345463" lon="11.902966650424519"><ele>312.5</ele><time>2026-04-12T09:57:13Z</time></trkpt><trkpt lat="42.08969591473736" lon="11.903041587484282"><ele>313.0</ele><time>2026-04-12T09:57:14Z</time></trkpt><trkpt lat="42.08962221612411" lon="11.902949554674644"><ele>313.5</ele><time>2026-04-12T09:57:16Z</time></trkpt><trkpt lat="42.089548514440665" lon="11.902886383739474"><ele>314.0</ele><time>2026-04-12T09:57:17Z</time></trkpt><trkpt lat="42.089380840760306" lon="11.902869528404894"><ele>314.0</ele><time>2026-04-12T09:57:18Z</time></trkpt><trkpt lat="42.089208875230064" lon="11.902932742013833"><ele>314.0</ele><time>2026-04-12T09:57:19Z</time></trkpt><trkpt lat="42.089047568662764" lon="11.902949210368877"><ele>314.0</ele><time>2026-04-12T09:57:20Z</time></trkpt><trkpt lat="42.08890887620179" lon="11.902908027115535"><ele>311.75</ele><time>2026-04-12T09:57:21Z</time></trkpt><trkpt lat="42.08876990623416" lon="11.902864428833432"><ele>309.5</ele><time>2026-04-12T09:57:22Z</time></trkpt><trkpt lat="42.08866247544339" lon="11.902794102857094"><ele>307.25</ele><time>2026-04-12T09:57:23Z</time></trkpt><trkpt lat="42.08854885912574" lon="11.902729135049176"><ele>305.0</ele><time>2026-04-12T09:57:24Z</time></trkpt><trkpt lat="42.088412869205506" lon="11.902719523505814"><ele>305.0</ele><time>2026-04-12T09:57:25Z</time></trkpt><trkpt lat="42.08831321648189" lon="11.90260406693489"><ele>305.0</ele><time>2026-04-12T09:57:26Z</time></trkpt><trkpt lat="42.08821936773732" lon="11.902510177022778"><ele>305.0</ele><time>2026-04-12T09:57:27Z</time></trkpt><trkpt lat="42.088143706968495" lon="11.902433837615845"><ele>305.0</ele><time>2026-04-12T09:57:28Z</time></trkpt><trkpt lat="42.0880795450661" lon="11.902362953423411"><ele>305.0</ele><time>2026-04-12T09:57:29Z</time></trkpt><trkpt lat="42.08800999234557" lon="11.902270713516012"><ele>304.83333333333337</ele><time>2026-04-12T09:57:31Z</time></trkpt><trkpt lat="42.087961949570634" lon="11.902199562789475"><ele>304.6666666666667</ele><time>2026-04-12T09:57:42Z</time></trkpt><trkpt lat="42.08788741734472" lon="11.902127055481191"><ele>304.5</ele><time>2026-04-12T09:57:44Z</time></trkpt><trkpt lat="42.087817700523615" lon="11.902094023565109"><ele>304.3333333333333</ele><time>2026-04-12T09:57:45Z</time></trkpt><trkpt lat="42.08775483046541" lon="11.902048570473006"><ele>304.16666666666663</ele><time>2026-04-12T09:57:46Z</time></trkpt><trkpt lat="42.08766849931194" lon="11.901998241221134"><ele>304.0</ele><time>2026-04-12T09:57:47Z</time></trkpt><trkpt lat="42.08759871688945" lon="11.90197719674959"><ele>304.0</ele><time>2026-04-12T09:57:48Z</time></trkpt><trkpt lat="42.08751243801869" lon="11.901961576268661"><ele>304.0</ele><time>2026-04-12T09:57:49Z</time></trkpt><trkpt lat="42.08739002283694" lon="11.90195229611185"><ele>304.0</ele><time>2026-04-12T09:57:50Z</time></trkpt><trkpt lat="42.087270597241115" lon="11.901951434076995"><ele>304.0</ele><time>2026-04-12T09:57:51Z</time></trkpt><trkpt lat="42.08714595623791" lon="11.90196468274372"><ele>303.2</ele><time>2026-04-12T09:57:52Z</time></trkpt><trkpt lat="42.087034803706956" lon="11.901972310143295"><ele>302.4</ele><time>2026-04-12T09:57:53Z</time></trkpt><trkpt lat="42.086947726500924" lon="11.901964730701367"><ele>301.6</ele><time>2026-04-12T09:57:54Z</time></trkpt><trkpt lat="42.086874536524206" lon="11.901913122244652"><ele>300.8</ele><time>2026-04-12T09:57:55Z</time></trkpt><trkpt lat="42.08677865696484" lon="11.901857680962477"><ele>300.0</ele><time>2026-04-12T09:57:56Z</time></trkpt><trkpt lat="42.086690077844004" lon="11.901775711110597"><ele>300.5</ele><time>2026-04-12T09:57:56.999Z</time></trkpt><trkpt lat="42.086607037415824" lon="11.901674020286169"><ele>301.0</ele><time>2026-04-12T09:57:57.999Z</time></trkpt><trkpt lat="42.08652650596286" lon="11.901558731892353"><ele>301.5</ele><time>2026-04-12T09:57:58.999Z</time></trkpt><trkpt lat="42.08642283549822" lon="11.90142996089646"><ele>302.0</ele><time>2026-04-12T09:57:59.999Z</time></trkpt><trkpt lat="42.08632006825728" lon="11.90132235328249"><ele>302.0</ele><time>2026-04-12T09:58:00.999Z</time></trkpt><trkpt lat="42.086215489398214" lon="11.901226159977435"><ele>302.0</ele><time>2026-04-12T09:58:01.999Z</time></trkpt><trkpt lat="42.0861133403865" lon="11.90116272169036"><ele>302.0</ele><time>2026-04-12T09:58:02.999Z</time></trkpt><trkpt lat="42.0860201935329" lon="11.901138315506339"><ele>302.0</ele><time>2026-04-12T09:58:03.999Z</time></trkpt><trkpt lat="42.08594506469483" lon="11.901122816189307"><ele>302.0</ele><time>2026-04-12T09:58:04.999Z</time></trkpt><trkpt lat="42.08585148790762" lon="11.901105098229264"><ele>300.8</ele><time>2026-04-12T09:58:06.999Z</time></trkpt><trkpt lat="42.08575840207167" lon="11.901138610449335"><ele>299.6</ele><time>2026-04-12T09:58:08.999Z</time></trkpt><trkpt lat="42.08565592566027" lon="11.901177095680996"><ele>298.40000000000003</ele><time>2026-04-12T09:58:10.999Z</time></trkpt><trkpt lat="42.08556001296918" lon="11.90122384543881"><ele>297.2</ele><time>2026-04-12T09:58:12.999Z</time></trkpt><trkpt lat="42.08544920994263" lon="11.901268993493607"><ele>296.0</ele><time>2026-04-12T09:58:14.999Z</time></trkpt><trkpt lat="42.085387992181374" lon="11.901292828644285"><ele>296.0</ele><time>2026-04-12T09:58:15.999Z</time></trkpt><trkpt lat="42.085311276009" lon="11.901315043148307"><ele>296.0</ele><time>2026-04-12T09:58:16.999Z</time></trkpt><trkpt lat="42.085233102473694" lon="11.90135528277893"><ele>296.0</ele><time>2026-04-12T09:58:17.999Z</time></trkpt><trkpt lat="42.08515722092534" lon="11.901395261444238"><ele>296.0</ele><time>2026-04-12T09:58:18.999Z</time></trkpt><trkpt lat="42.08508027098426" lon="11.901428758103235"><ele>296.0</ele><time>2026-04-12T09:58:19.999Z</time></trkpt><trkpt lat="42.085003414709966" lon="11.901447255902932"><ele>296.0</ele><time>2026-04-12T09:58:20.999Z</time></trkpt><trkpt lat="42.08492506221109" lon="11.90147568599977"><ele>295.33333333333337</ele><time>2026-04-12T09:58:21.999Z</time></trkpt><trkpt lat="42.0848455178018" lon="11.901500406884441"><ele>294.6666666666667</ele><time>2026-04-12T09:58:22.999Z</time></trkpt><trkpt lat="42.084747545078905" lon="11.901465440211265"><ele>294.0</ele><time>2026-04-12T09:58:23.999Z</time></trkpt><trkpt lat="42.0846556268578" lon="11.901456031211515"><ele>293.3333333333333</ele><time>2026-04-12T09:58:24.999Z</time></trkpt><trkpt lat="42.08457916467585" lon="11.901408886166527"><ele>292.66666666666663</ele><time>2026-04-12T09:58:25.999Z</time></trkpt><trkpt lat="42.084532646943885" lon="11.9013231331613"><ele>292.0</ele><time>2026-04-12T09:58:26.999Z</time></trkpt><trkpt lat="42.08447425739967" lon="11.901234025399296"><ele>292.0</ele><time>2026-04-12T09:58:27.999Z</time></trkpt><trkpt lat="42.084445435777276" lon="11.901093021759378"><ele>292.0</ele><time>2026-04-12T09:58:28.999Z</time></trkpt><trkpt lat="42.084398593315285" lon="11.900972220157755"><ele>292.0</ele><time>2026-04-12T09:58:29.999Z</time></trkpt><trkpt lat="42.084379323534236" lon="11.90085431858207"><ele>292.0</ele><time>2026-04-12T09:58:30.999Z</time></trkpt><trkpt lat="42.08434048179115" lon="11.900778523875475"><ele>292.0</ele><time>2026-04-12T09:58:31.999Z</time></trkpt><trkpt lat="42.08427700188555" lon="11.900710030887478"><ele>292.0</ele><time>2026-04-12T09:58:32.999Z</time></trkpt><trkpt lat="42.084206821018306" lon="11.900660805431654"><ele>290.16666666666663</ele><time>2026-04-12T09:58:33.999Z</time></trkpt><trkpt lat="42.08411673685212" lon="11.900635589476492"><ele>288.3333333333333</ele><time>2026-04-12T09:58:34.999Z</time></trkpt><trkpt lat="42.08404360080021" lon="11.900633518496772"><ele>286.5</ele><time>2026-04-12T09:58:35.999Z</time></trkpt><trkpt lat="42.0839873323864" lon="11.900693307100108"><ele>284.6666666666667</ele><time>2026-04-12T09:58:36.999Z</time></trkpt><trkpt lat="42.08391009953329" lon="11.90071948753526"><ele>282.83333333333337</ele><time>2026-04-12T09:58:37.999Z</time></trkpt><trkpt lat="42.08382806598432" lon="11.900772097823918"><ele>281.0</ele><time>2026-04-12T09:58:38.999Z</time></trkpt><trkpt lat="42.08374717172232" lon="11.900827073042304"><ele>279.40000000000003</ele><time>2026-04-12T09:58:39.999Z</time></trkpt><trkpt lat="42.083672548505604" lon="11.900882365294676"><ele>277.8</ele><time>2026-04-12T09:58:40.999Z</time></trkpt><trkpt lat="42.08359219536429" lon="11.900949384976643"><ele>276.20000000000005</ele><time>2026-04-12T09:58:41.999Z</time></trkpt><trkpt lat="42.083533204419155" lon="11.901037784632273"><ele>274.6</ele><time>2026-04-12T09:58:42.999Z</time></trkpt><trkpt lat="42.08346509333795" lon="11.901120807010651"><ele>273.0</ele><time>2026-04-12T09:58:43.999Z</time></trkpt><trkpt lat="42.083411042018135" lon="11.901228924661082"><ele>273.0</ele><time>2026-04-12T09:58:44.999Z</time></trkpt><trkpt lat="42.083352647676115" lon="11.901317669022006"><ele>273.0</ele><time>2026-04-12T09:58:45.999Z</time></trkpt><trkpt lat="42.08329959158651" lon="11.90143653200403"><ele>273.0</ele><time>2026-04-12T09:58:46.999Z</time></trkpt><trkpt lat="42.08325688812333" lon="11.901561049272212"><ele>273.0</ele><time>2026-04-12T09:58:47.999Z</time></trkpt><trkpt lat="42.08322594987064" lon="11.90169410632702"><ele>273.0</ele><time>2026-04-12T09:58:48.999Z</time></trkpt><trkpt lat="42.08320917010651" lon="11.901799320518881"><ele>268.8</ele><time>2026-04-12T09:58:49.999Z</time></trkpt><trkpt lat="42.083205869406896" lon="11.90191953552931"><ele>264.6</ele><time>2026-04-12T09:58:50.999Z</time></trkpt><trkpt lat="42.08318411008831" lon="11.902052665633924"><ele>260.4</ele><time>2026-04-12T09:58:51.999Z</time></trkpt><trkpt lat="42.0831652228792" lon="11.902187416424207"><ele>256.2</ele><time>2026-04-12T09:58:52.999Z</time></trkpt><trkpt lat="42.08314436599745" lon="11.90231886034229"><ele>252.0</ele><time>2026-04-12T09:58:53.999Z</time></trkpt><trkpt lat="42.08311474309278" lon="11.902444796422358"><ele>252.0</ele><time>2026-04-12T09:58:54.999Z</time></trkpt><trkpt lat="42.083081956423705" lon="11.902546213359015"><ele>252.0</ele><time>2026-04-12T09:58:55.999Z</time></trkpt><trkpt lat="42.08305471299355" lon="11.902657592601141"><ele>252.0</ele><time>2026-04-12T09:58:56.999Z</time></trkpt><trkpt lat="42.08302995922537" lon="11.90276542217034"><ele>252.0</ele><time>2026-04-12T09:58:57.999Z</time></trkpt><trkpt lat="42.08300429035037" lon="11.902854043965135"><ele>252.0</ele><time>2026-04-12T09:58:59Z</time></trkpt><trkpt lat="42.08295584735522" lon="11.902918320312086"><ele>252.0</ele><time>2026-04-12T09:59:00Z</time></trkpt><trkpt lat="42.082843809627796" lon="11.902926730788078"><ele>252.0</ele><time>2026-04-12T09:59:02Z</time></trkpt><trkpt lat="42.08277488371504" lon="11.90290074651356"><ele>252.0</ele><time>2026-04-12T09:59:03Z</time></trkpt><trkpt lat="42.0827118914343" lon="11.902810471763887"><ele>252.0</ele><time>2026-04-12T09:59:04Z</time></trkpt><trkpt lat="42.082671942775434" lon="11.902700102088149"><ele>252.0</ele><time>2026-04-12T09:59:05Z</time></trkpt><trkpt lat="42.08262503061944" lon="11.902604677115365"><ele>252.0</ele><time>2026-04-12T09:59:06Z</time></trkpt><trkpt lat="42.08257724437204" lon="11.90250568473156"><ele>252.0</ele><time>2026-04-12T09:59:07Z</time></trkpt><trkpt lat="42.08252558129761" lon="11.902400831471322"><ele>252.0</ele><time>2026-04-12T09:59:08Z</time></trkpt><trkpt lat="42.08246450678897" lon="11.902294582551562"><ele>252.0</ele><time>2026-04-12T09:59:09Z</time></trkpt><trkpt lat="42.08239509364249" lon="11.902196378394844"><ele>252.0</ele><time>2026-04-12T09:59:10Z</time></trkpt><trkpt lat="42.082326628086534" lon="11.902111478379737"><ele>252.0</ele><time>2026-04-12T09:59:11Z</time></trkpt><trkpt lat="42.08223636732802" lon="11.90203135726734"><ele>252.0</ele><time>2026-04-12T09:59:12Z</time></trkpt><trkpt lat="42.082163740304836" lon="11.90193540408881"><ele>249.0</ele><time>2026-04-12T09:59:13Z</time></trkpt><trkpt lat="42.082081254932525" lon="11.901845447480204"><ele>246.0</ele><time>2026-04-12T09:59:14Z</time></trkpt><trkpt lat="42.081998127602965" lon="11.901757502546495"><ele>243.0</ele><time>2026-04-12T09:59:15Z</time></trkpt><trkpt lat="42.08192339394858" lon="11.901669451685196"><ele>240.0</ele><time>2026-04-12T09:59:16Z</time></trkpt><trkpt lat="42.081851578383635" lon="11.90158493086689"><ele>237.0</ele><time>2026-04-12T09:59:17Z</time></trkpt><trkpt lat="42.081779404220974" lon="11.901497544523869"><ele>237.0</ele><time>2026-04-12T09:59:18Z</time></trkpt><trkpt lat="42.08172692894001" lon="11.901403146958417"><ele>237.0</ele><time>2026-04-12T09:59:19Z</time></trkpt><trkpt lat="42.08170244364955" lon="11.901304996650834"><ele>237.0</ele><time>2026-04-12T09:59:20Z</time></trkpt><trkpt lat="42.08170860521363" lon="11.901195742078075"><ele>237.0</ele><time>2026-04-12T09:59:21Z</time></trkpt><trkpt lat="42.0817203575661" lon="11.90108045461254"><ele>237.0</ele><time>2026-04-12T09:59:22Z</time></trkpt><trkpt lat="42.081723153410614" lon="11.900941799458627"><ele>237.0</ele><time>2026-04-12T09:59:23Z</time></trkpt><trkpt lat="42.08172405839965" lon="11.900816290089042"><ele>236.83333333333334</ele><time>2026-04-12T09:59:24Z</time></trkpt><trkpt lat="42.081721776291275" lon="11.900693180351146"><ele>236.66666666666669</ele><time>2026-04-12T09:59:25Z</time></trkpt><trkpt lat="42.08172358795646" lon="11.900579686274314"><ele>236.5</ele><time>2026-04-12T09:59:26Z</time></trkpt><trkpt lat="42.08172681205227" lon="11.900469675816337"><ele>236.33333333333334</ele><time>2026-04-12T09:59:27Z</time></trkpt><trkpt lat="42.08173095679421" lon="11.900372433009418"><ele>236.16666666666669</ele><time>2026-04-12T09:59:28Z</time></trkpt><trkpt lat="42.081738539176015" lon="11.900273082364071"><ele>236.0</ele><time>2026-04-12T09:59:29Z</time></trkpt><trkpt lat="42.081762456543416" lon="11.900171312402277"><ele>235.00000000000003</ele><time>2026-04-12T09:59:30Z</time></trkpt><trkpt lat="42.081789955448585" lon="11.900081161094684"><ele>234.0</ele><time>2026-04-12T09:59:31Z</time></trkpt><trkpt lat="42.08180688991549" lon="11.899977647414001"><ele>233.0</ele><time>2026-04-12T09:59:32Z</time></trkpt><trkpt lat="42.08182240488234" lon="11.899890541744838"><ele>232.0</ele><time>2026-04-12T09:59:33Z</time></trkpt><trkpt lat="42.081787735853" lon="11.899780149704172"><ele>231.00000000000003</ele><time>2026-04-12T09:59:35Z</time></trkpt><trkpt lat="42.08165912575817" lon="11.899722003136995"><ele>230.0</ele><time>2026-04-12T09:59:37Z</time></trkpt><trkpt lat="42.08159267847378" lon="11.899686498057205"><ele>228.16666666666669</ele><time>2026-04-12T09:59:38Z</time></trkpt><trkpt lat="42.0815122139201" lon="11.899656167237136"><ele>226.33333333333334</ele><time>2026-04-12T09:59:39Z</time></trkpt><trkpt lat="42.081431685934696" lon="11.899611389662065"><ele>224.5</ele><time>2026-04-12T09:59:40Z</time></trkpt><trkpt lat="42.081356192421936" lon="11.89956723253404"><ele>222.66666666666669</ele><time>2026-04-12T09:59:41Z</time></trkpt><trkpt lat="42.08126601236791" lon="11.899528758048062"><ele>220.83333333333334</ele><time>2026-04-12T09:59:42Z</time></trkpt><trkpt lat="42.08120509819809" lon="11.899444089191753"><ele>219.0</ele><time>2026-04-12T09:59:43Z</time></trkpt><trkpt lat="42.08114317905778" lon="11.899372008674392"><ele>219.0</ele><time>2026-04-12T09:59:44Z</time></trkpt><trkpt lat="42.08110472247173" lon="11.899257530992294"><ele>218.99999999999997</ele><time>2026-04-12T09:59:45Z</time></trkpt><trkpt lat="42.081054660322025" lon="11.899140677103011"><ele>218.99999999999997</ele><time>2026-04-12T09:59:46Z</time></trkpt><trkpt lat="42.08101451080085" lon="11.899041405211518"><ele>219.0</ele><time>2026-04-12T09:59:47Z</time></trkpt><trkpt lat="42.08095909098291" lon="11.898926301926235"><ele>219.0</ele><time>2026-04-12T09:59:48Z</time></trkpt><trkpt lat="42.08091965608309" lon="11.898806683472317"><ele>218.5</ele><time>2026-04-12T09:59:49Z</time></trkpt><trkpt lat="42.08087263865816" lon="11.898701517092084"><ele>218.0</ele><time>2026-04-12T09:59:50Z</time></trkpt><trkpt lat="42.080825198253166" lon="11.898605745502664"><ele>217.5</ele><time>2026-04-12T09:59:51Z</time></trkpt><trkpt lat="42.080770121593915" lon="11.898511259412544"><ele>217.0</ele><time>2026-04-12T09:59:52Z</time></trkpt><trkpt lat="42.08071131173999" lon="11.898424922244567"><ele>216.5</ele><time>2026-04-12T09:59:53Z</time></trkpt><trkpt lat="42.08063608930102" lon="11.898399505052698"><ele>216.0</ele><time>2026-04-12T09:59:54Z</time></trkpt><trkpt lat="42.080528273669856" lon="11.898379670662607"><ele>213.60000000000002</ele><time>2026-04-12T09:59:56Z</time></trkpt><trkpt lat="42.08042428785394" lon="11.898433091830245"><ele>211.20000000000002</ele><time>2026-04-12T09:59:57Z</time></trkpt><trkpt lat="42.08035790955027" lon="11.898490830474406"><ele>208.8</ele><time>2026-04-12T09:59:58Z</time></trkpt><trkpt lat="42.08030995566083" lon="11.89856711644034"><ele>206.39999999999998</ele><time>2026-04-12T09:59:59Z</time></trkpt><trkpt lat="42.08022738688021" lon="11.898627121242503"><ele>204.0</ele><time>2026-04-12T10:00:00Z</time></trkpt><trkpt lat="42.080137336757204" lon="11.898756676554356"><ele>204.0</ele><time>2026-04-12T10:00:01Z</time></trkpt><trkpt lat="42.080050394943044" lon="11.898814029291744"><ele>204.0</ele><time>2026-04-12T10:00:02Z</time></trkpt><trkpt lat="42.07998266548713" lon="11.898906959814736"><ele>204.0</ele><time>2026-04-12T10:00:02.999Z</time></trkpt><trkpt lat="42.079910107372605" lon="11.899004914414851"><ele>204.0</ele><time>2026-04-12T10:00:03.999Z</time></trkpt><trkpt lat="42.07983915945698" lon="11.89911281823036"><ele>204.0</ele><time>2026-04-12T10:00:04.999Z</time></trkpt><trkpt lat="42.07976922885764" lon="11.899217040287898"><ele>201.83333333333334</ele><time>2026-04-12T10:00:05.999Z</time></trkpt><trkpt lat="42.079701508080504" lon="11.899301784422262"><ele>199.66666666666666</ele><time>2026-04-12T10:00:06.999Z</time></trkpt><trkpt lat="42.07963023294258" lon="11.899366238821068"><ele>197.5</ele><time>2026-04-12T10:00:07.999Z</time></trkpt><trkpt lat="42.079553399224146" lon="11.899398231107329"><ele>195.33333333333331</ele><time>2026-04-12T10:00:08.999Z</time></trkpt><trkpt lat="42.07947822953457" lon="11.899375089469183"><ele>193.16666666666666</ele><time>2026-04-12T10:00:09.999Z</time></trkpt><trkpt lat="42.079414269832945" lon="11.899314960279307"><ele>191.0</ele><time>2026-04-12T10:00:10.999Z</time></trkpt><trkpt lat="42.07935618254059" lon="11.899217575500563"><ele>190.8</ele><time>2026-04-12T10:00:11.999Z</time></trkpt><trkpt lat="42.07930403469319" lon="11.899102739320995"><ele>190.60000000000002</ele><time>2026-04-12T10:00:12.999Z</time></trkpt><trkpt lat="42.07924848196182" lon="11.898983405581815"><ele>190.4</ele><time>2026-04-12T10:00:13.999Z</time></trkpt><trkpt lat="42.07920282447021" lon="11.89886471689901"><ele>190.2</ele><time>2026-04-12T10:00:14.999Z</time></trkpt><trkpt lat="42.079152291260826" lon="11.898739379557542"><ele>190.0</ele><time>2026-04-12T10:00:15.999Z</time></trkpt><trkpt lat="42.07909700880119" lon="11.898617416200226"><ele>187.8</ele><time>2026-04-12T10:00:16.999Z</time></trkpt><trkpt lat="42.079041480045696" lon="11.898503035991455"><ele>185.6</ele><time>2026-04-12T10:00:17.999Z</time></trkpt><trkpt lat="42.078986872344316" lon="11.898384682248386"><ele>183.39999999999998</ele><time>2026-04-12T10:00:18.999Z</time></trkpt><trkpt lat="42.07893027838827" lon="11.898277115734556"><ele>181.2</ele><time>2026-04-12T10:00:19.999Z</time></trkpt><trkpt lat="42.078881812548985" lon="11.898167709775779"><ele>179.0</ele><time>2026-04-12T10:00:20.999Z</time></trkpt><trkpt lat="42.07883444190788" lon="11.898060421035268"><ele>179.0</ele><time>2026-04-12T10:00:21.999Z</time></trkpt><trkpt lat="42.07877531575721" lon="11.897980562318786"><ele>179.0</ele><time>2026-04-12T10:00:22.999Z</time></trkpt><trkpt lat="42.0787076089842" lon="11.897921929675945"><ele>179.0</ele><time>2026-04-12T10:00:23.999Z</time></trkpt><trkpt lat="42.07863772817702" lon="11.8978866749845"><ele>179.0</ele><time>2026-04-12T10:00:24.999Z</time></trkpt><trkpt lat="42.07856021421396" lon="11.897861433411522"><ele>179.0</ele><time>2026-04-12T10:00:25.999Z</time></trkpt><trkpt lat="42.07848394908403" lon="11.897863119285388"><ele>179.0</ele><time>2026-04-12T10:00:26.999Z</time></trkpt><trkpt lat="42.078406668517374" lon="11.897892586865172"><ele>179.0</ele><time>2026-04-12T10:00:27.999Z</time></trkpt><trkpt lat="42.07831249564749" lon="11.897945982620753"><ele>179.0</ele><time>2026-04-12T10:00:28.999Z</time></trkpt><trkpt lat="42.07820768359889" lon="11.89798760606239"><ele>179.0</ele><time>2026-04-12T10:00:29.999Z</time></trkpt><trkpt lat="42.07811215019997" lon="11.89798474552701"><ele>179.0</ele><time>2026-04-12T10:00:30.999Z</time></trkpt><trkpt lat="42.07803470397965" lon="11.89793787257992"><ele>179.0</ele><time>2026-04-12T10:00:31.999Z</time></trkpt><trkpt lat="42.07798707236308" lon="11.897858957913632"><ele>177.33333333333331</ele><time>2026-04-12T10:00:32.999Z</time></trkpt><trkpt lat="42.07792320118065" lon="11.897779247686309"><ele>175.66666666666666</ele><time>2026-04-12T10:00:33.999Z</time></trkpt><trkpt lat="42.077882582952554" lon="11.897677361218586"><ele>174.0</ele><time>2026-04-12T10:00:35.999Z</time></trkpt><trkpt lat="42.07786956484572" lon="11.897579682199517"><ele>172.33333333333334</ele><time>2026-04-12T10:00:39.999Z</time></trkpt><trkpt lat="42.07782923959228" lon="11.897477110120004"><ele>170.66666666666669</ele><time>2026-04-12T10:00:55.999Z</time></trkpt><trkpt lat="42.07780735531726" lon="11.897393412487519"><ele>169.0</ele><time>2026-04-12T10:01:50Z</time></trkpt><trkpt lat="42.07776121803777" lon="11.897329174228979"><ele>169.0</ele><time>2026-04-12T10:01:52Z</time></trkpt><trkpt lat="42.0777061901851" lon="11.897249460370851"><ele>169.0</ele><time>2026-04-12T10:01:54Z</time></trkpt><trkpt lat="42.07761415811702" lon="11.897175313954072"><ele>169.0</ele><time>2026-04-12T10:01:56Z</time></trkpt><trkpt lat="42.07753217895647" lon="11.897143862417884"><ele>169.0</ele><time>2026-04-12T10:01:57Z</time></trkpt><trkpt lat="42.07746053870054" lon="11.897114822755647"><ele>169.0</ele><time>2026-04-12T10:01:58Z</time></trkpt><trkpt lat="42.077374906806185" lon="11.897103629210966"><ele>169.0</ele><time>2026-04-12T10:01:59Z</time></trkpt><trkpt lat="42.077279592634916" lon="11.897108261386995"><ele>170.16666666666669</ele><time>2026-04-12T10:02:00Z</time></trkpt><trkpt lat="42.07720142807448" lon="11.897141570894567"><ele>171.33333333333334</ele><time>2026-04-12T10:02:01Z</time></trkpt><trkpt lat="42.077125080332124" lon="11.897190721107672"><ele>172.5</ele><time>2026-04-12T10:02:02Z</time></trkpt><trkpt lat="42.077046563568324" lon="11.897239529909438"><ele>173.66666666666666</ele><time>2026-04-12T10:02:03Z</time></trkpt><trkpt lat="42.076967609508635" lon="11.897302507466952"><ele>174.83333333333331</ele><time>2026-04-12T10:02:04Z</time></trkpt><trkpt lat="42.07688630348637" lon="11.897379214390478"><ele>176.0</ele><time>2026-04-12T10:02:05Z</time></trkpt><trkpt lat="42.07680634227393" lon="11.897447897203952"><ele>176.0</ele><time>2026-04-12T10:02:06Z</time></trkpt><trkpt lat="42.07675269579162" lon="11.897528649640726"><ele>176.0</ele><time>2026-04-12T10:02:07Z</time></trkpt><trkpt lat="42.076692725928275" lon="11.897606801218116"><ele>176.0</ele><time>2026-04-12T10:02:08Z</time></trkpt><trkpt lat="42.07663726985871" lon="11.897685611923183"><ele>176.0</ele><time>2026-04-12T10:02:09Z</time></trkpt><trkpt lat="42.07656878865743" lon="11.897725532239534"><ele>176.0</ele><time>2026-04-12T10:02:09.999Z</time></trkpt><trkpt lat="42.07647965946534" lon="11.897765008027825"><ele>176.0</ele><time>2026-04-12T10:02:10.999Z</time></trkpt><trkpt lat="42.07641461995309" lon="11.897859232442046"><ele>174.60000000000002</ele><time>2026-04-12T10:02:11.999Z</time></trkpt><trkpt lat="42.07632807042923" lon="11.897937584784504"><ele>173.2</ele><time>2026-04-12T10:02:12.999Z</time></trkpt><trkpt lat="42.0762301470681" lon="11.898031349062968"><ele>171.8</ele><time>2026-04-12T10:02:13.999Z</time></trkpt><trkpt lat="42.07614927783448" lon="11.898108238185374"><ele>170.39999999999998</ele><time>2026-04-12T10:02:14.999Z</time></trkpt><trkpt lat="42.076060847082566" lon="11.898165459581406"><ele>169.0</ele><time>2026-04-12T10:02:15.999Z</time></trkpt><trkpt lat="42.07597200179953" lon="11.898193839862024"><ele>169.0</ele><time>2026-04-12T10:02:16.999Z</time></trkpt><trkpt lat="42.07587079741267" lon="11.898192251321687"><ele>169.0</ele><time>2026-04-12T10:02:17.999Z</time></trkpt><trkpt lat="42.07576731208758" lon="11.898217743712543"><ele>169.0</ele><time>2026-04-12T10:02:18.999Z</time></trkpt><trkpt lat="42.07567253266123" lon="11.898226970023613"><ele>169.0</ele><time>2026-04-12T10:02:19.999Z</time></trkpt><trkpt lat="42.07559841732595" lon="11.898255978339309"><ele>169.0</ele><time>2026-04-12T10:02:20.999Z</time></trkpt><trkpt lat="42.07553326891037" lon="11.898314439575408"><ele>169.2</ele><time>2026-04-12T10:02:21.999Z</time></trkpt><trkpt lat="42.07546750501866" lon="11.89837452629558"><ele>169.39999999999998</ele><time>2026-04-12T10:02:22.999Z</time></trkpt><trkpt lat="42.075385734694216" lon="11.898451382649814"><ele>169.6</ele><time>2026-04-12T10:02:23.999Z</time></trkpt><trkpt lat="42.07529840189445" lon="11.898494737835787"><ele>169.8</ele><time>2026-04-12T10:02:24.999Z</time></trkpt><trkpt lat="42.07520756767632" lon="11.898497015981144"><ele>170.0</ele><time>2026-04-12T10:02:25.999Z</time></trkpt><trkpt lat="42.07509800702346" lon="11.898523811613504"><ele>168.0</ele><time>2026-04-12T10:02:26.999Z</time></trkpt><trkpt lat="42.074983224568676" lon="11.898545468774103"><ele>166.0</ele><time>2026-04-12T10:02:27.999Z</time></trkpt><trkpt lat="42.07487193612324" lon="11.89858195880265"><ele>164.0</ele><time>2026-04-12T10:02:28.999Z</time></trkpt><trkpt lat="42.07476301040453" lon="11.898632314759057"><ele>162.0</ele><time>2026-04-12T10:02:29.999Z</time></trkpt><trkpt lat="42.074662240690785" lon="11.8987109566166"><ele>162.0</ele><time>2026-04-12T10:02:30.999Z</time></trkpt><trkpt lat="42.07455163068915" lon="11.898771825400546"><ele>162.0</ele><time>2026-04-12T10:02:31.999Z</time></trkpt><trkpt lat="42.074452822798456" lon="11.898821739120395"><ele>162.0</ele><time>2026-04-12T10:02:32.999Z</time></trkpt><trkpt lat="42.07437413559969" lon="11.89885528115969"><ele>162.0</ele><time>2026-04-12T10:02:33.999Z</time></trkpt><trkpt lat="42.074295836561284" lon="11.898861378887153"><ele>162.0</ele><time>2026-04-12T10:02:34.999Z</time></trkpt><trkpt lat="42.07421590565235" lon="11.89885965968611"><ele>162.0</ele><time>2026-04-12T10:02:35.999Z</time></trkpt><trkpt lat="42.074127742748594" lon="11.898877467762851"><ele>162.0</ele><time>2026-04-12T10:02:36.999Z</time></trkpt><trkpt lat="42.07404014200186" lon="11.89889388500968"><ele>162.0</ele><time>2026-04-12T10:02:37.999Z</time></trkpt><trkpt lat="42.073951403779304" lon="11.898920056271526"><ele>162.0</ele><time>2026-04-12T10:02:38.999Z</time></trkpt><trkpt lat="42.07386621682556" lon="11.898930287611524"><ele>162.0</ele><time>2026-04-12T10:02:39.999Z</time></trkpt><trkpt lat="42.07377145262907" lon="11.898915088934595"><ele>162.0</ele><time>2026-04-12T10:02:40.999Z</time></trkpt><trkpt lat="42.07366223528884" lon="11.898885130752287"><ele>160.6</ele><time>2026-04-12T10:02:41.999Z</time></trkpt><trkpt lat="42.07356274528151" lon="11.89886673461604"><ele>159.2</ele><time>2026-04-12T10:02:42.999Z</time></trkpt><trkpt lat="42.07348169906555" lon="11.898825996985822"><ele>157.8</ele><time>2026-04-12T10:02:43.999Z</time></trkpt><trkpt lat="42.07340062035038" lon="11.898753655806598"><ele>156.4</ele><time>2026-04-12T10:02:44.999Z</time></trkpt><trkpt lat="42.07331477059792" lon="11.89867985452817"><ele>155.0</ele><time>2026-04-12T10:02:45.999Z</time></trkpt><trkpt lat="42.073241174044306" lon="11.898596284286333"><ele>152.2</ele><time>2026-04-12T10:02:46.999Z</time></trkpt><trkpt lat="42.07318022088477" lon="11.89851546714199"><ele>149.4</ele><time>2026-04-12T10:02:47.999Z</time></trkpt><trkpt lat="42.0731126470468" lon="11.898467888956032"><ele>146.6</ele><time>2026-04-12T10:02:48.999Z</time></trkpt><trkpt lat="42.07303158660787" lon="11.89843465221429"><ele>143.8</ele><time>2026-04-12T10:02:49.999Z</time></trkpt><trkpt lat="42.072909263201836" lon="11.898449224023485"><ele>141.0</ele><time>2026-04-12T10:02:50.999Z</time></trkpt><trkpt lat="42.07279933062175" lon="11.898435435345652"><ele>141.0</ele><time>2026-04-12T10:02:51.999Z</time></trkpt><trkpt lat="42.07269174472482" lon="11.89841685369053"><ele>141.0</ele><time>2026-04-12T10:02:52.999Z</time></trkpt><trkpt lat="42.07258338664796" lon="11.898395921464488"><ele>141.0</ele><time>2026-04-12T10:02:53.999Z</time></trkpt><trkpt lat="42.07248453606809" lon="11.898385587184162"><ele>141.0</ele><time>2026-04-12T10:02:54.999Z</time></trkpt><trkpt lat="42.07238295151509" lon="11.898379439310006"><ele>141.0</ele><time>2026-04-12T10:02:55.999Z</time></trkpt><trkpt lat="42.0722938858838" lon="11.89836003195604"><ele>141.0</ele><time>2026-04-12T10:02:56.999Z</time></trkpt><trkpt lat="42.07220750469989" lon="11.89833147776069"><ele>141.0</ele><time>2026-04-12T10:02:57.999Z</time></trkpt><trkpt lat="42.07211437227295" lon="11.898297430169878"><ele>141.0</ele><time>2026-04-12T10:02:58.999Z</time></trkpt><trkpt lat="42.07202279849133" lon="11.898253333293273"><ele>141.0</ele><time>2026-04-12T10:02:59.999Z</time></trkpt><trkpt lat="42.07192636999931" lon="11.898199262235007"><ele>141.0</ele><time>2026-04-12T10:03:00.999Z</time></trkpt><trkpt lat="42.071850585527976" lon="11.898118495859242"><ele>141.0</ele><time>2026-04-12T10:03:01.999Z</time></trkpt><trkpt lat="42.07174765521765" lon="11.898025462412681"><ele>141.0</ele><time>2026-04-12T10:03:02.999Z</time></trkpt><trkpt lat="42.071653232192716" lon="11.897935290271628"><ele>141.0</ele><time>2026-04-12T10:03:03.999Z</time></trkpt><trkpt lat="42.071554258270325" lon="11.897842252368344"><ele>141.0</ele><time>2026-04-12T10:03:04.999Z</time></trkpt><trkpt lat="42.07144251226415" lon="11.897758206640335"><ele>141.5</ele><time>2026-04-12T10:03:05.999Z</time></trkpt><trkpt lat="42.07134828321874" lon="11.897698880922116"><ele>142.0</ele><time>2026-04-12T10:03:06.999Z</time></trkpt><trkpt lat="42.07123549184475" lon="11.897638841622756"><ele>142.5</ele><time>2026-04-12T10:03:07.999Z</time></trkpt><trkpt lat="42.071118820041384" lon="11.89757669397556"><ele>143.0</ele><time>2026-04-12T10:03:08.999Z</time></trkpt><trkpt lat="42.07099033648914" lon="11.897530456742084"><ele>143.0</ele><time>2026-04-12T10:03:09.999Z</time></trkpt><trkpt lat="42.07086233624046" lon="11.89749330032917"><ele>143.0</ele><time>2026-04-12T10:03:11Z</time></trkpt><trkpt lat="42.07073574509369" lon="11.897451223109782"><ele>143.0</ele><time>2026-04-12T10:03:12Z</time></trkpt><trkpt lat="42.07062091106176" lon="11.897419250636679"><ele>143.0</ele><time>2026-04-12T10:03:13Z</time></trkpt><trkpt lat="42.07051142833866" lon="11.897375068515263"><ele>141.4</ele><time>2026-04-12T10:03:14Z</time></trkpt><trkpt lat="42.07040604785936" lon="11.897330642132259"><ele>139.8</ele><time>2026-04-12T10:03:15Z</time></trkpt><trkpt lat="42.0703063139549" lon="11.897272468424166"><ele>138.2</ele><time>2026-04-12T10:03:16Z</time></trkpt><trkpt lat="42.07026335546801" lon="11.89718730191027"><ele>136.6</ele><time>2026-04-12T10:03:17Z</time></trkpt><trkpt lat="42.07022001693755" lon="11.897068215650943"><ele>135.0</ele><time>2026-04-12T10:03:18Z</time></trkpt><trkpt lat="42.070178349454565" lon="11.896930221980842"><ele>135.0</ele><time>2026-04-12T10:03:19Z</time></trkpt><trkpt lat="42.0701337433893" lon="11.896797315770117"><ele>135.0</ele><time>2026-04-12T10:03:20Z</time></trkpt><trkpt lat="42.070081192294694" lon="11.896648322195412"><ele>135.0</ele><time>2026-04-12T10:03:21Z</time></trkpt><trkpt lat="42.070068620794316" lon="11.896531778841595"><ele>135.0</ele><time>2026-04-12T10:03:22Z</time></trkpt><trkpt lat="42.070058810390876" lon="11.896396066980728"><ele>135.0</ele><time>2026-04-12T10:03:23Z</time></trkpt><trkpt lat="42.07007499258476" lon="11.896261316445033"><ele>136.2</ele><time>2026-04-12T10:03:24Z</time></trkpt><trkpt lat="42.07009214862979" lon="11.896106040655162"><ele>137.4</ele><time>2026-04-12T10:03:25Z</time></trkpt><trkpt lat="42.07010682260442" lon="11.895963878366677"><ele>138.6</ele><time>2026-04-12T10:03:26Z</time></trkpt><trkpt lat="42.070104276512474" lon="11.895820855607877"><ele>139.8</ele><time>2026-04-12T10:03:27Z</time></trkpt><trkpt lat="42.07011179097653" lon="11.89569435890658"><ele>141.0</ele><time>2026-04-12T10:03:28Z</time></trkpt><trkpt lat="42.07010956123105" lon="11.895586251437098"><ele>141.16666666666666</ele><time>2026-04-12T10:03:29Z</time></trkpt><trkpt lat="42.07009382973731" lon="11.895491939341735"><ele>141.33333333333334</ele><time>2026-04-12T10:03:30Z</time></trkpt><trkpt lat="42.0700617155508" lon="11.8954002411231"><ele>141.5</ele><time>2026-04-12T10:03:31Z</time></trkpt><trkpt lat="42.07001177630633" lon="11.895322817480036"><ele>141.66666666666669</ele><time>2026-04-12T10:03:32Z</time></trkpt><trkpt lat="42.06997032977954" lon="11.895239745750319"><ele>141.83333333333334</ele><time>2026-04-12T10:03:33Z</time></trkpt><trkpt lat="42.06993266907367" lon="11.895120137381861"><ele>142.0</ele><time>2026-04-12T10:03:34Z</time></trkpt><trkpt lat="42.06988491755239" lon="11.894997464244177"><ele>141.0</ele><time>2026-04-12T10:03:35Z</time></trkpt><trkpt lat="42.06981073195096" lon="11.894874370222922"><ele>140.0</ele><time>2026-04-12T10:03:36Z</time></trkpt><trkpt lat="42.06973688802708" lon="11.894756746589978"><ele>139.0</ele><time>2026-04-12T10:03:37Z</time></trkpt><trkpt lat="42.06966346874792" lon="11.894630899868451"><ele>138.0</ele><time>2026-04-12T10:03:38Z</time></trkpt><trkpt lat="42.069600842210214" lon="11.894511269128865"><ele>138.0</ele><time>2026-04-12T10:03:39Z</time></trkpt><trkpt lat="42.06954248051932" lon="11.89439813188928"><ele>138.0</ele><time>2026-04-12T10:03:40Z</time></trkpt><trkpt lat="42.06949124796095" lon="11.8942985788804"><ele>138.0</ele><time>2026-04-12T10:03:41Z</time></trkpt><trkpt lat="42.06946281751773" lon="11.894201967175997"><ele>138.0</ele><time>2026-04-12T10:03:42Z</time></trkpt><trkpt lat="42.069465536837576" lon="11.89410829415793"><ele>138.0</ele><time>2026-04-12T10:03:43Z</time></trkpt><trkpt lat="42.069417481889865" lon="11.893970088633692"><ele>139.33333333333334</ele><time>2026-04-12T10:03:45Z</time></trkpt><trkpt lat="42.069351990895726" lon="11.89393583518963"><ele>140.66666666666666</ele><time>2026-04-12T10:03:46Z</time></trkpt><trkpt lat="42.06927682324855" lon="11.893891561513566"><ele>142.0</ele><time>2026-04-12T10:03:47Z</time></trkpt><trkpt lat="42.069206297351364" lon="11.893850509639204"><ele>143.33333333333331</ele><time>2026-04-12T10:03:48Z</time></trkpt><trkpt lat="42.069138209062935" lon="11.893798908794887"><ele>144.66666666666666</ele><time>2026-04-12T10:03:49Z</time></trkpt><trkpt lat="42.069046630028126" lon="11.893747790793988"><ele>146.0</ele><time>2026-04-12T10:03:50Z</time></trkpt><trkpt lat="42.068956638017" lon="11.893712796099603"><ele>146.0</ele><time>2026-04-12T10:03:51Z</time></trkpt><trkpt lat="42.06885958696058" lon="11.893669748733284"><ele>146.0</ele><time>2026-04-12T10:03:52Z</time></trkpt><trkpt lat="42.06875546129526" lon="11.893632011902545"><ele>146.0</ele><time>2026-04-12T10:03:53Z</time></trkpt><trkpt lat="42.068655018738916" lon="11.893600129372876"><ele>146.0</ele><time>2026-04-12T10:03:54Z</time></trkpt><trkpt lat="42.06857607539883" lon="11.893556323302839"><ele>146.0</ele><time>2026-04-12T10:03:55Z</time></trkpt><trkpt lat="42.06847917259932" lon="11.893495363660584"><ele>146.0</ele><time>2026-04-12T10:03:56Z</time></trkpt><trkpt lat="42.06837637249946" lon="11.893441535468227"><ele>146.0</ele><time>2026-04-12T10:03:57Z</time></trkpt><trkpt lat="42.06826743783633" lon="11.893395611362717"><ele>146.0</ele><time>2026-04-12T10:03:58Z</time></trkpt><trkpt lat="42.06815910908939" lon="11.893384009214323"><ele>146.0</ele><time>2026-04-12T10:03:59Z</time></trkpt><trkpt lat="42.068038226308076" lon="11.893374530223955"><ele>147.5</ele><time>2026-04-12T10:04:00Z</time></trkpt><trkpt lat="42.06792512553824" lon="11.89335089634316"><ele>149.0</ele><time>2026-04-12T10:04:01Z</time></trkpt><trkpt lat="42.067820307654266" lon="11.893302903010314"><ele>150.5</ele><time>2026-04-12T10:04:02Z</time></trkpt><trkpt lat="42.06770955070716" lon="11.893236114277476"><ele>152.0</ele><time>2026-04-12T10:04:03Z</time></trkpt><trkpt lat="42.06760958474042" lon="11.893172407580977"><ele>152.0</ele><time>2026-04-12T10:04:04Z</time></trkpt><trkpt lat="42.06751018562908" lon="11.893116025714262"><ele>152.0</ele><time>2026-04-12T10:04:05Z</time></trkpt><trkpt lat="42.06740346808052" lon="11.893071656206537"><ele>152.0</ele><time>2026-04-12T10:04:06Z</time></trkpt><trkpt lat="42.067288613949906" lon="11.893037012643266"><ele>152.0</ele><time>2026-04-12T10:04:07Z</time></trkpt><trkpt lat="42.06717388056126" lon="11.892992800182391"><ele>151.6</ele><time>2026-04-12T10:04:08Z</time></trkpt><trkpt lat="42.067066308226615" lon="11.892953536489394"><ele>151.2</ele><time>2026-04-12T10:04:09Z</time></trkpt><trkpt lat="42.06696119250805" lon="11.89293495151089"><ele>150.8</ele><time>2026-04-12T10:04:10Z</time></trkpt><trkpt lat="42.06686431675353" lon="11.892952862760106"><ele>150.4</ele><time>2026-04-12T10:04:11Z</time></trkpt><trkpt lat="42.06675057759127" lon="11.893026027875212"><ele>150.0</ele><time>2026-04-12T10:04:12Z</time></trkpt><trkpt lat="42.066621160629545" lon="11.893094741941624"><ele>150.5</ele><time>2026-04-12T10:04:13Z</time></trkpt><trkpt lat="42.06650420262112" lon="11.89315688780914"><ele>151.0</ele><time>2026-04-12T10:04:13.999Z</time></trkpt><trkpt lat="42.06640027192053" lon="11.893205922308368"><ele>151.5</ele><time>2026-04-12T10:04:14.999Z</time></trkpt><trkpt lat="42.06628058814744" lon="11.893226611674294"><ele>152.0</ele><time>2026-04-12T10:04:15.999Z</time></trkpt><trkpt lat="42.066163574400186" lon="11.893228499959688"><ele>152.0</ele><time>2026-04-12T10:04:16.999Z</time></trkpt><trkpt lat="42.066050324462594" lon="11.893189159074593"><ele>152.0</ele><time>2026-04-12T10:04:17.999Z</time></trkpt><trkpt lat="42.06594169993121" lon="11.893169345079173"><ele>152.0</ele><time>2026-04-12T10:04:18.999Z</time></trkpt><trkpt lat="42.06582022613981" lon="11.893152662145368"><ele>152.0</ele><time>2026-04-12T10:04:19.999Z</time></trkpt><trkpt lat="42.065695542802594" lon="11.893110695252387"><ele>152.25</ele><time>2026-04-12T10:04:20.999Z</time></trkpt><trkpt lat="42.065551528749765" lon="11.893072853062886"><ele>152.5</ele><time>2026-04-12T10:04:21.999Z</time></trkpt><trkpt lat="42.06540786011922" lon="11.89303691149384"><ele>152.75</ele><time>2026-04-12T10:04:22.999Z</time></trkpt><trkpt lat="42.06526620434212" lon="11.893010134216663"><ele>153.0</ele><time>2026-04-12T10:04:23.999Z</time></trkpt><trkpt lat="42.06512539925868" lon="11.892985486945227"><ele>153.0</ele><time>2026-04-12T10:04:24.999Z</time></trkpt><trkpt lat="42.06500725266333" lon="11.89295560862148"><ele>153.0</ele><time>2026-04-12T10:04:25.999Z</time></trkpt><trkpt lat="42.06488748392144" lon="11.892912788406617"><ele>153.0</ele><time>2026-04-12T10:04:26.999Z</time></trkpt><trkpt lat="42.06474983898432" lon="11.892853476196612"><ele>153.0</ele><time>2026-04-12T10:04:27.999Z</time></trkpt><trkpt lat="42.0645774447921" lon="11.892772597672884"><ele>153.66666666666666</ele><time>2026-04-12T10:04:28.999Z</time></trkpt><trkpt lat="42.064407682019535" lon="11.892672680149746"><ele>154.33333333333331</ele><time>2026-04-12T10:04:29.999Z</time></trkpt><trkpt lat="42.0642736502226" lon="11.892562097411844"><ele>155.0</ele><time>2026-04-12T10:04:30.999Z</time></trkpt><trkpt lat="42.06416140055241" lon="11.8925058122883"><ele>153.5</ele><time>2026-04-12T10:04:31.999Z</time></trkpt><trkpt lat="42.06404508131189" lon="11.892469151495344"><ele>152.0</ele><time>2026-04-12T10:04:32.999Z</time></trkpt><trkpt lat="42.0639167579048" lon="11.89244122285253"><ele>150.5</ele><time>2026-04-12T10:04:33.999Z</time></trkpt><trkpt lat="42.06378069551491" lon="11.892413257964101"><ele>149.0</ele><time>2026-04-12T10:04:34.999Z</time></trkpt><trkpt lat="42.06364068710859" lon="11.89239373864733"><ele>149.0</ele><time>2026-04-12T10:04:35.999Z</time></trkpt><trkpt lat="42.06350232498593" lon="11.8924027341179"><ele>149.0</ele><time>2026-04-12T10:04:36.999Z</time></trkpt><trkpt lat="42.0633656783663" lon="11.892413284672246"><ele>149.0</ele><time>2026-04-12T10:04:37.999Z</time></trkpt><trkpt lat="42.063241992698394" lon="11.89240577731999"><ele>149.0</ele><time>2026-04-12T10:04:38.999Z</time></trkpt><trkpt lat="42.0630985269274" lon="11.892357181911262"><ele>147.75</ele><time>2026-04-12T10:04:39.999Z</time></trkpt><trkpt lat="42.06295587039254" lon="11.892305429153971"><ele>146.5</ele><time>2026-04-12T10:04:40.999Z</time></trkpt><trkpt lat="42.062837869227856" lon="11.892261630071701"><ele>145.25</ele><time>2026-04-12T10:04:41.999Z</time></trkpt><trkpt lat="42.06269824210079" lon="11.892227384590969"><ele>144.0</ele><time>2026-04-12T10:04:42.999Z</time></trkpt><trkpt lat="42.062587152158386" lon="11.89219713427639"><ele>144.0</ele><time>2026-04-12T10:04:43.999Z</time></trkpt><trkpt lat="42.062470823235245" lon="11.892174012229841"><ele>144.0</ele><time>2026-04-12T10:04:44.999Z</time></trkpt><trkpt lat="42.06235359410128" lon="11.89215925359148"><ele>144.0</ele><time>2026-04-12T10:04:45.999Z</time></trkpt><trkpt lat="42.06226627133017" lon="11.892147392290859"><ele>144.0</ele><time>2026-04-12T10:04:46.999Z</time></trkpt><trkpt lat="42.06219162919298" lon="11.892138456739307"><ele>144.0</ele><time>2026-04-12T10:04:47.999Z</time></trkpt><trkpt lat="42.06210128372295" lon="11.892131961309603"><ele>142.0</ele><time>2026-04-12T10:04:48.999Z</time></trkpt><trkpt lat="42.061994645258125" lon="11.89213018408469"><ele>140.0</ele><time>2026-04-12T10:04:49.999Z</time></trkpt><trkpt lat="42.06189042551518" lon="11.892135034173716"><ele>138.0</ele><time>2026-04-12T10:04:50.999Z</time></trkpt><trkpt lat="42.06179155799207" lon="11.892123421375008"><ele>136.0</ele><time>2026-04-12T10:04:51.999Z</time></trkpt><trkpt lat="42.06166386670734" lon="11.892116968558197"><ele>134.0</ele><time>2026-04-12T10:04:52.999Z</time></trkpt><trkpt lat="42.06153937209831" lon="11.892122806032205"><ele>132.6</ele><time>2026-04-12T10:04:53.999Z</time></trkpt><trkpt lat="42.06143427778181" lon="11.892107080024672"><ele>131.2</ele><time>2026-04-12T10:04:54.999Z</time></trkpt><trkpt lat="42.06132077123873" lon="11.892081878841955"><ele>129.79999999999998</ele><time>2026-04-12T10:04:55.999Z</time></trkpt><trkpt lat="42.06120876404523" lon="11.89206273873809"><ele>128.4</ele><time>2026-04-12T10:04:56.999Z</time></trkpt><trkpt lat="42.061096281140216" lon="11.89205935272002"><ele>127.0</ele><time>2026-04-12T10:04:57.999Z</time></trkpt><trkpt lat="42.06098235732538" lon="11.892073693448436"><ele>127.0</ele><time>2026-04-12T10:04:58.999Z</time></trkpt><trkpt lat="42.060868788464106" lon="11.892098959416769"><ele>126.99999999999999</ele><time>2026-04-12T10:04:59.999Z</time></trkpt><trkpt lat="42.06075647090563" lon="11.892132473266157"><ele>126.99999999999999</ele><time>2026-04-12T10:05:00.999Z</time></trkpt><trkpt lat="42.060672925594794" lon="11.89215922314529"><ele>127.0</ele><time>2026-04-12T10:05:01.999Z</time></trkpt><trkpt lat="42.0605927451419" lon="11.892167047993562"><ele>127.0</ele><time>2026-04-12T10:05:02.999Z</time></trkpt><trkpt lat="42.060510212795585" lon="11.892135174828004"><ele>125.0</ele><time>2026-04-12T10:05:03.999Z</time></trkpt><trkpt lat="42.06043015584592" lon="11.892070327212444"><ele>122.99999999999999</ele><time>2026-04-12T10:05:04.999Z</time></trkpt><trkpt lat="42.06034446324875" lon="11.891990387742453"><ele>120.99999999999999</ele><time>2026-04-12T10:05:05.999Z</time></trkpt><trkpt lat="42.06025492916927" lon="11.891899250604666"><ele>119.0</ele><time>2026-04-12T10:05:06.999Z</time></trkpt><trkpt lat="42.06015148317938" lon="11.891786926827177"><ele>117.0</ele><time>2026-04-12T10:05:07.999Z</time></trkpt><trkpt lat="42.06005117015641" lon="11.891675542951093"><ele>117.0</ele><time>2026-04-12T10:05:08.999Z</time></trkpt><trkpt lat="42.059969163909315" lon="11.891583535924108"><ele>117.0</ele><time>2026-04-12T10:05:09.999Z</time></trkpt><trkpt lat="42.059886554709045" lon="11.891484988815908"><ele>117.0</ele><time>2026-04-12T10:05:10.999Z</time></trkpt><trkpt lat="42.05979987391369" lon="11.891375412725592"><ele>117.0</ele><time>2026-04-12T10:05:11.999Z</time></trkpt><trkpt lat="42.05972081637158" lon="11.891250295861985"><ele>115.83333333333333</ele><time>2026-04-12T10:05:12.999Z</time></trkpt><trkpt lat="42.059649840065795" lon="11.891123651216429"><ele>114.66666666666666</ele><time>2026-04-12T10:05:13.999Z</time></trkpt><trkpt lat="42.059587751541706" lon="11.89101290058463"><ele>113.5</ele><time>2026-04-12T10:05:14.999Z</time></trkpt><trkpt lat="42.05952816682428" lon="11.890939352821798"><ele>112.33333333333333</ele><time>2026-04-12T10:05:15.999Z</time></trkpt><trkpt lat="42.05947198842956" lon="11.890872607402668"><ele>111.16666666666666</ele><time>2026-04-12T10:05:17Z</time></trkpt><trkpt lat="42.05940875523849" lon="11.89084076952584"><ele>110.0</ele><time>2026-04-12T10:05:18Z</time></trkpt><trkpt lat="42.059340586672796" lon="11.890841159506131"><ele>109.66666666666666</ele><time>2026-04-12T10:05:19Z</time></trkpt><trkpt lat="42.059259641367255" lon="11.89087054236726"><ele>109.33333333333333</ele><time>2026-04-12T10:05:20Z</time></trkpt><trkpt lat="42.05918424042761" lon="11.890891763060354"><ele>109.0</ele><time>2026-04-12T10:05:21Z</time></trkpt><trkpt lat="42.05911479977741" lon="11.890929813998442"><ele>108.66666666666666</ele><time>2026-04-12T10:05:22Z</time></trkpt><trkpt lat="42.059033090572505" lon="11.890949568626427"><ele>108.33333333333333</ele><time>2026-04-12T10:05:24Z</time></trkpt><trkpt lat="42.05895397003298" lon="11.890987980487656"><ele>108.0</ele><time>2026-04-12T10:05:26Z</time></trkpt><trkpt lat="42.05881197998429" lon="11.891035883957533"><ele>105.75</ele><time>2026-04-12T10:05:28Z</time></trkpt><trkpt lat="42.05872204682367" lon="11.89105314726186"><ele>103.5</ele><time>2026-04-12T10:05:29Z</time></trkpt><trkpt lat="42.05860670604537" lon="11.891046597943669"><ele>101.25</ele><time>2026-04-12T10:05:30Z</time></trkpt><trkpt lat="42.05847531661252" lon="11.891061986216126"><ele>99.0</ele><time>2026-04-12T10:05:31Z</time></trkpt><trkpt lat="42.058359685086934" lon="11.891043984036088"><ele>96.25</ele><time>2026-04-12T10:05:32Z</time></trkpt><trkpt lat="42.058248366021864" lon="11.891004324968971"><ele>93.5</ele><time>2026-04-12T10:05:33Z</time></trkpt><trkpt lat="42.058122545123105" lon="11.890968374967501"><ele>90.75</ele><time>2026-04-12T10:05:34Z</time></trkpt><trkpt lat="42.05796977554452" lon="11.89095262611392"><ele>88.0</ele><time>2026-04-12T10:05:35Z</time></trkpt><trkpt lat="42.057832671713506" lon="11.890941408737019"><ele>87.75</ele><time>2026-04-12T10:05:36Z</time></trkpt><trkpt lat="42.05769648352066" lon="11.890922252221545"><ele>87.5</ele><time>2026-04-12T10:05:37Z</time></trkpt><trkpt lat="42.057573268921736" lon="11.890901505172621"><ele>87.25</ele><time>2026-04-12T10:05:38Z</time></trkpt><trkpt lat="42.05746299332087" lon="11.89087630740582"><ele>87.0</ele><time>2026-04-12T10:05:39Z</time></trkpt><trkpt lat="42.057354811305125" lon="11.890825828973869"><ele>87.0</ele><time>2026-04-12T10:05:40Z</time></trkpt><trkpt lat="42.05724527770979" lon="11.890759965278304"><ele>87.0</ele><time>2026-04-12T10:05:41Z</time></trkpt><trkpt lat="42.05713841677933" lon="11.890664996368743"><ele>87.0</ele><time>2026-04-12T10:05:42Z</time></trkpt><trkpt lat="42.05703716620529" lon="11.89054203796546"><ele>87.0</ele><time>2026-04-12T10:05:43Z</time></trkpt><trkpt lat="42.05693366068682" lon="11.890417201517185"><ele>87.0</ele><time>2026-04-12T10:05:44Z</time></trkpt><trkpt lat="42.056829776500315" lon="11.890289624333363"><ele>87.0</ele><time>2026-04-12T10:05:45Z</time></trkpt><trkpt lat="42.05673122478748" lon="11.89016177861964"><ele>87.0</ele><time>2026-04-12T10:05:46Z</time></trkpt><trkpt lat="42.05664825714424" lon="11.890046780332934"><ele>87.0</ele><time>2026-04-12T10:05:47Z</time></trkpt><trkpt lat="42.0565774647099" lon="11.889959308927201"><ele>84.25</ele><time>2026-04-12T10:05:48Z</time></trkpt><trkpt lat="42.05649068873759" lon="11.889895173049357"><ele>81.5</ele><time>2026-04-12T10:05:49Z</time></trkpt><trkpt lat="42.05637910802937" lon="11.889839551942892"><ele>78.75</ele><time>2026-04-12T10:05:50Z</time></trkpt><trkpt lat="42.05626386004377" lon="11.889803552200753"><ele>76.0</ele><time>2026-04-12T10:05:51Z</time></trkpt><trkpt lat="42.056151779422436" lon="11.889757224424452"><ele>76.0</ele><time>2026-04-12T10:05:52Z</time></trkpt><trkpt lat="42.056004597117656" lon="11.88973300725056"><ele>76.0</ele><time>2026-04-12T10:05:53Z</time></trkpt><trkpt lat="42.05585520828677" lon="11.889716068948523"><ele>76.0</ele><time>2026-04-12T10:05:54Z</time></trkpt><trkpt lat="42.05572447580899" lon="11.889704307047129"><ele>76.0</ele><time>2026-04-12T10:05:55Z</time></trkpt><trkpt lat="42.05560179969629" lon="11.889681614818612"><ele>75.6</ele><time>2026-04-12T10:05:56Z</time></trkpt><trkpt lat="42.05548352408367" lon="11.889658284942968"><ele>75.19999999999999</ele><time>2026-04-12T10:05:57Z</time></trkpt><trkpt lat="42.05539735024435" lon="11.889579915601402"><ele>74.80000000000001</ele><time>2026-04-12T10:05:58Z</time></trkpt><trkpt lat="42.05532822472243" lon="11.889471581527848"><ele>74.4</ele><time>2026-04-12T10:05:59Z</time></trkpt><trkpt lat="42.05526066547357" lon="11.889357563718452"><ele>74.0</ele><time>2026-04-12T10:06:00Z</time></trkpt><trkpt lat="42.05516763438276" lon="11.889259088913459"><ele>72.25</ele><time>2026-04-12T10:06:01Z</time></trkpt><trkpt lat="42.05506295737346" lon="11.889173870257137"><ele>70.5</ele><time>2026-04-12T10:06:02Z</time></trkpt><trkpt lat="42.05495916319124" lon="11.889094019777257"><ele>68.75</ele><time>2026-04-12T10:06:03Z</time></trkpt><trkpt lat="42.05484812106484" lon="11.88903258841971"><ele>67.0</ele><time>2026-04-12T10:06:04Z</time></trkpt><trkpt lat="42.05473420709383" lon="11.88897444335284"><ele>65.25</ele><time>2026-04-12T10:06:05Z</time></trkpt><trkpt lat="42.05460747891438" lon="11.888937925765525"><ele>63.5</ele><time>2026-04-12T10:06:06Z</time></trkpt><trkpt lat="42.05446895821574" lon="11.888928045654223"><ele>61.75</ele><time>2026-04-12T10:06:07Z</time></trkpt><trkpt lat="42.05433738250927" lon="11.888887052456987"><ele>60.0</ele><time>2026-04-12T10:06:08Z</time></trkpt><trkpt lat="42.05420299584951" lon="11.88885487417576"><ele>57.0</ele><time>2026-04-12T10:06:09Z</time></trkpt><trkpt lat="42.054064445265034" lon="11.88882803170694"><ele>54.0</ele><time>2026-04-12T10:06:10Z</time></trkpt><trkpt lat="42.053934384783204" lon="11.888799181333704"><ele>51.0</ele><time>2026-04-12T10:06:11Z</time></trkpt><trkpt lat="42.053814139269996" lon="11.888776047252334"><ele>48.0</ele><time>2026-04-12T10:06:12Z</time></trkpt><trkpt lat="42.0537087053693" lon="11.888756393035647"><ele>48.0</ele><time>2026-04-12T10:06:13Z</time></trkpt><trkpt lat="42.05360256146122" lon="11.888728451203724"><ele>48.0</ele><time>2026-04-12T10:06:14Z</time></trkpt><trkpt lat="42.053497810713026" lon="11.888709405327173"><ele>48.0</ele><time>2026-04-12T10:06:15Z</time></trkpt><trkpt lat="42.053384345450404" lon="11.888728626983278"><ele>48.0</ele><time>2026-04-12T10:06:16Z</time></trkpt><trkpt lat="42.05327760281808" lon="11.888778558663438"><ele>48.0</ele><time>2026-04-12T10:06:17Z</time></trkpt><trkpt lat="42.05314452951172" lon="11.888832621494851"><ele>47.25</ele><time>2026-04-12T10:06:17.999Z</time></trkpt><trkpt lat="42.05301676516065" lon="11.888887581996324"><ele>46.5</ele><time>2026-04-12T10:06:18.999Z</time></trkpt><trkpt lat="42.05289494730202" lon="11.888944904596874"><ele>45.75</ele><time>2026-04-12T10:06:19.999Z</time></trkpt><trkpt lat="42.05277804305838" lon="11.889002328536627"><ele>45.0</ele><time>2026-04-12T10:06:20.999Z</time></trkpt><trkpt lat="42.0526611559672" lon="11.889053285605952"><ele>45.0</ele><time>2026-04-12T10:06:21.999Z</time></trkpt><trkpt lat="42.05256704001088" lon="11.88909996623686"><ele>45.0</ele><time>2026-04-12T10:06:22.999Z</time></trkpt><trkpt lat="42.05246286238671" lon="11.889154185366923"><ele>45.0</ele><time>2026-04-12T10:06:23.999Z</time></trkpt><trkpt lat="42.05235786676165" lon="11.889200922872185"><ele>45.0</ele><time>2026-04-12T10:06:24.999Z</time></trkpt><trkpt lat="42.052270519640636" lon="11.88923817482512"><ele>45.0</ele><time>2026-04-12T10:06:25.999Z</time></trkpt><trkpt lat="42.05218668953392" lon="11.889250450009381"><ele>43.333333333333336</ele><time>2026-04-12T10:06:26.999Z</time></trkpt><trkpt lat="42.05210942955995" lon="11.889264185092825"><ele>41.666666666666664</ele><time>2026-04-12T10:06:27.999Z</time></trkpt><trkpt lat="42.05203862394086" lon="11.889274389877617"><ele>40.0</ele><time>2026-04-12T10:06:28.999Z</time></trkpt><trkpt lat="42.051953038419825" lon="11.88929474531501"><ele>38.33333333333333</ele><time>2026-04-12T10:06:29.999Z</time></trkpt><trkpt lat="42.05186583065517" lon="11.889287691961718"><ele>36.666666666666664</ele><time>2026-04-12T10:06:30.999Z</time></trkpt><trkpt lat="42.05177639358755" lon="11.889281547806364"><ele>35.0</ele><time>2026-04-12T10:06:31.999Z</time></trkpt><trkpt lat="42.051683283075" lon="11.889265112733879"><ele>35.2</ele><time>2026-04-12T10:06:32.999Z</time></trkpt><trkpt lat="42.05158587845851" lon="11.889256679803388"><ele>35.4</ele><time>2026-04-12T10:06:33.999Z</time></trkpt><trkpt lat="42.05148241990459" lon="11.889244242722537"><ele>35.6</ele><time>2026-04-12T10:06:34.999Z</time></trkpt><trkpt lat="42.05138383848918" lon="11.889234375337494"><ele>35.8</ele><time>2026-04-12T10:06:35.999Z</time></trkpt><trkpt lat="42.051271590660726" lon="11.889227071318013"><ele>36.0</ele><time>2026-04-12T10:06:36.999Z</time></trkpt><trkpt lat="42.0511632477645" lon="11.889220366770918"><ele>36.0</ele><time>2026-04-12T10:06:37.999Z</time></trkpt><trkpt lat="42.05105142184641" lon="11.889207579923829"><ele>36.0</ele><time>2026-04-12T10:06:38.999Z</time></trkpt><trkpt lat="42.05093981687658" lon="11.889204821326388"><ele>36.0</ele><time>2026-04-12T10:06:39.999Z</time></trkpt><trkpt lat="42.05082516441512" lon="11.889221691156498"><ele>36.0</ele><time>2026-04-12T10:06:40.999Z</time></trkpt><trkpt lat="42.05070971830605" lon="11.88924822993429"><ele>35.25</ele><time>2026-04-12T10:06:41.999Z</time></trkpt><trkpt lat="42.05059473618413" lon="11.889282297076226"><ele>34.5</ele><time>2026-04-12T10:06:42.999Z</time></trkpt><trkpt lat="42.05047893814769" lon="11.889314582543355"><ele>33.75</ele><time>2026-04-12T10:06:43.999Z</time></trkpt><trkpt lat="42.05036409693067" lon="11.88934549429473"><ele>33.0</ele><time>2026-04-12T10:06:44.999Z</time></trkpt><trkpt lat="42.050235491210806" lon="11.88938214712986"><ele>33.0</ele><time>2026-04-12T10:06:45.999Z</time></trkpt><trkpt lat="42.05011119793029" lon="11.889412992155957"><ele>33.0</ele><time>2026-04-12T10:06:46.999Z</time></trkpt><trkpt lat="42.049980554833795" lon="11.889440990460178"><ele>33.0</ele><time>2026-04-12T10:06:47.999Z</time></trkpt><trkpt lat="42.04985334649827" lon="11.889463987264394"><ele>33.0</ele><time>2026-04-12T10:06:48.999Z</time></trkpt><trkpt lat="42.04972631072727" lon="11.88948100817217"><ele>31.5</ele><time>2026-04-12T10:06:49.999Z</time></trkpt><trkpt lat="42.04960492136546" lon="11.889496358084186"><ele>30.0</ele><time>2026-04-12T10:06:50.999Z</time></trkpt><trkpt lat="42.04949646167261" lon="11.889493870849078"><ele>28.5</ele><time>2026-04-12T10:06:51.999Z</time></trkpt><trkpt lat="42.04938899917145" lon="11.889489842986055"><ele>27.0</ele><time>2026-04-12T10:06:52.999Z</time></trkpt><trkpt lat="42.049275946202066" lon="11.889522036180967"><ele>27.0</ele><time>2026-04-12T10:06:53.999Z</time></trkpt><trkpt lat="42.049152763496366" lon="11.889553149613613"><ele>27.0</ele><time>2026-04-12T10:06:54.999Z</time></trkpt><trkpt lat="42.04903043506684" lon="11.88957388704009"><ele>27.0</ele><time>2026-04-12T10:06:55.999Z</time></trkpt><trkpt lat="42.04890998147203" lon="11.889590850629963"><ele>27.0</ele><time>2026-04-12T10:06:56.999Z</time></trkpt><trkpt lat="42.048788029966914" lon="11.889580017216936"><ele>25.8</ele><time>2026-04-12T10:06:57.999Z</time></trkpt><trkpt lat="42.04867723541211" lon="11.889579630251683"><ele>24.6</ele><time>2026-04-12T10:06:58.999Z</time></trkpt><trkpt lat="42.04857487136667" lon="11.889578117891737"><ele>23.400000000000002</ele><time>2026-04-12T10:06:59.999Z</time></trkpt><trkpt lat="42.04845475985317" lon="11.889564951311732"><ele>22.200000000000003</ele><time>2026-04-12T10:07:00.999Z</time></trkpt><trkpt lat="42.04834686606821" lon="11.8895842631916"><ele>21.0</ele><time>2026-04-12T10:07:01.999Z</time></trkpt><trkpt lat="42.0482312688954" lon="11.889590238879862"><ele>20.75</ele><time>2026-04-12T10:07:02.999Z</time></trkpt><trkpt lat="42.04810984649042" lon="11.889592855227644"><ele>20.5</ele><time>2026-04-12T10:07:03.999Z</time></trkpt><trkpt lat="42.04797031523757" lon="11.889616582889559"><ele>20.25</ele><time>2026-04-12T10:07:04.999Z</time></trkpt><trkpt lat="42.04782959656926" lon="11.88966642390187"><ele>20.0</ele><time>2026-04-12T10:07:05.999Z</time></trkpt><trkpt lat="42.04768748470456" lon="11.889704569829433"><ele>20.0</ele><time>2026-04-12T10:07:06.999Z</time></trkpt><trkpt lat="42.047547435916776" lon="11.889750559184714"><ele>20.0</ele><time>2026-04-12T10:07:07.999Z</time></trkpt><trkpt lat="42.04740742654893" lon="11.889794243528707"><ele>20.0</ele><time>2026-04-12T10:07:08.999Z</time></trkpt><trkpt lat="42.04726558357396" lon="11.889839085023839"><ele>20.0</ele><time>2026-04-12T10:07:09.999Z</time></trkpt><trkpt lat="42.047126591285746" lon="11.88987709921703"><ele>19.75</ele><time>2026-04-12T10:07:10.999Z</time></trkpt><trkpt lat="42.046991682750665" lon="11.889919230614531"><ele>19.5</ele><time>2026-04-12T10:07:11.999Z</time></trkpt><trkpt lat="42.046860992022175" lon="11.889964290283826"><ele>19.25</ele><time>2026-04-12T10:07:12.999Z</time></trkpt><trkpt lat="42.04673015564111" lon="11.890010203184694"><ele>19.0</ele><time>2026-04-12T10:07:13.999Z</time></trkpt><trkpt lat="42.046601323567074" lon="11.890060277853197"><ele>19.25</ele><time>2026-04-12T10:07:14.999Z</time></trkpt><trkpt lat="42.04648665678082" lon="11.890092691309542"><ele>19.5</ele><time>2026-04-12T10:07:15.999Z</time></trkpt><trkpt lat="42.0463745169229" lon="11.890132268487745"><ele>19.75</ele><time>2026-04-12T10:07:16.999Z</time></trkpt><trkpt lat="42.04625615714759" lon="11.89016287723491"><ele>20.0</ele><time>2026-04-12T10:07:17.999Z</time></trkpt><trkpt lat="42.046139407640524" lon="11.890188075652125"><ele>20.0</ele><time>2026-04-12T10:07:18.999Z</time></trkpt><trkpt lat="42.04601541269679" lon="11.890223991845547"><ele>20.0</ele><time>2026-04-12T10:07:19.999Z</time></trkpt><trkpt lat="42.045895627208694" lon="11.890256196961289"><ele>20.0</ele><time>2026-04-12T10:07:20.999Z</time></trkpt><trkpt lat="42.04577155399529" lon="11.89029139504824"><ele>20.0</ele><time>2026-04-12T10:07:21.999Z</time></trkpt><trkpt lat="42.04565393641153" lon="11.890330981575309"><ele>19.25</ele><time>2026-04-12T10:07:23Z</time></trkpt><trkpt lat="42.04553449712604" lon="11.89037593560294"><ele>18.5</ele><time>2026-04-12T10:07:24Z</time></trkpt><trkpt lat="42.04541748275109" lon="11.890425850296628"><ele>17.75</ele><time>2026-04-12T10:07:25Z</time></trkpt><trkpt lat="42.04529720317792" lon="11.890482903819265"><ele>17.0</ele><time>2026-04-12T10:07:26Z</time></trkpt><trkpt lat="42.045185539987166" lon="11.890539409271836"><ele>17.0</ele><time>2026-04-12T10:07:27Z</time></trkpt><trkpt lat="42.04507675826174" lon="11.890587224146092"><ele>17.0</ele><time>2026-04-12T10:07:28Z</time></trkpt><trkpt lat="42.0449685751624" lon="11.890619404077"><ele>17.0</ele><time>2026-04-12T10:07:29Z</time></trkpt><trkpt lat="42.04486513848387" lon="11.89063123104009"><ele>17.0</ele><time>2026-04-12T10:07:30Z</time></trkpt><trkpt lat="42.04476588056714" lon="11.890632708325054"><ele>17.0</ele><time>2026-04-12T10:07:31Z</time></trkpt><trkpt lat="42.04467240081637" lon="11.890640429994596"><ele>17.4</ele><time>2026-04-12T10:07:32Z</time></trkpt><trkpt lat="42.04458001929979" lon="11.89069292003546"><ele>17.799999999999997</ele><time>2026-04-12T10:07:33Z</time></trkpt><trkpt lat="42.04448422057917" lon="11.890749939725733"><ele>18.2</ele><time>2026-04-12T10:07:34Z</time></trkpt><trkpt lat="42.044377141004674" lon="11.890850551700066"><ele>18.599999999999998</ele><time>2026-04-12T10:07:35Z</time></trkpt><trkpt lat="42.044291896614844" lon="11.89095123264543"><ele>19.0</ele><time>2026-04-12T10:07:36Z</time></trkpt><trkpt lat="42.044209797877826" lon="11.891082703594964"><ele>17.75</ele><time>2026-04-12T10:07:37Z</time></trkpt><trkpt lat="42.04410693547175" lon="11.8911777497145"><ele>16.5</ele><time>2026-04-12T10:07:38Z</time></trkpt><trkpt lat="42.043992767475764" lon="11.891285875946377"><ele>15.25</ele><time>2026-04-12T10:07:39Z</time></trkpt><trkpt lat="42.04387462068613" lon="11.8913964780013"><ele>14.0</ele><time>2026-04-12T10:07:40Z</time></trkpt><trkpt lat="42.043748555182766" lon="11.891508021730683"><ele>14.0</ele><time>2026-04-12T10:07:41Z</time></trkpt><trkpt lat="42.043616561771614" lon="11.891622472487215"><ele>14.0</ele><time>2026-04-12T10:07:42Z</time></trkpt><trkpt lat="42.04349573348674" lon="11.891723936877922"><ele>14.0</ele><time>2026-04-12T10:07:43Z</time></trkpt><trkpt lat="42.043378792582615" lon="11.891797597457844"><ele>14.0</ele><time>2026-04-12T10:07:44Z</time></trkpt><trkpt lat="42.043277226341345" lon="11.891879379771177"><ele>13.399999999999999</ele><time>2026-04-12T10:07:45Z</time></trkpt><trkpt lat="42.04317941421183" lon="11.891939197791299"><ele>12.799999999999999</ele><time>2026-04-12T10:07:46Z</time></trkpt><trkpt lat="42.0430879221678" lon="11.891988204031591"><ele>12.2</ele><time>2026-04-12T10:07:47Z</time></trkpt><trkpt lat="42.04298943249148" lon="11.892045766198272"><ele>11.600000000000001</ele><time>2026-04-12T10:07:48Z</time></trkpt><trkpt lat="42.04290332234121" lon="11.892094301311776"><ele>11.0</ele><time>2026-04-12T10:07:49Z</time></trkpt><trkpt lat="42.04281564015926" lon="11.892124528387829"><ele>11.0</ele><time>2026-04-12T10:07:50Z</time></trkpt><trkpt lat="42.04273161539781" lon="11.892160007301149"><ele>11.0</ele><time>2026-04-12T10:07:51Z</time></trkpt><trkpt lat="42.04263782524446" lon="11.8921916947235"><ele>11.0</ele><time>2026-04-12T10:07:52Z</time></trkpt><trkpt lat="42.04253916487625" lon="11.89222313438479"><ele>11.0</ele><time>2026-04-12T10:07:53Z</time></trkpt><trkpt lat="42.04244021301469" lon="11.892272884243946"><ele>11.0</ele><time>2026-04-12T10:07:54Z</time></trkpt><trkpt lat="42.04234636328309" lon="11.892330128381492"><ele>10.4</ele><time>2026-04-12T10:07:55Z</time></trkpt><trkpt lat="42.042255258288286" lon="11.892388631057027"><ele>9.8</ele><time>2026-04-12T10:07:56Z</time></trkpt><trkpt lat="42.0421698214263" lon="11.892439626208443"><ele>9.200000000000001</ele><time>2026-04-12T10:07:57Z</time></trkpt><trkpt lat="42.04207696117803" lon="11.892488001805354"><ele>8.600000000000001</ele><time>2026-04-12T10:07:58Z</time></trkpt><trkpt lat="42.04198602539543" lon="11.892544913184564"><ele>8.0</ele><time>2026-04-12T10:07:59Z</time></trkpt><trkpt lat="42.04190852867354" lon="11.892597695847684"><ele>7.999999999999999</ele><time>2026-04-12T10:08:00Z</time></trkpt><trkpt lat="42.04184192229555" lon="11.89263636306381"><ele>8.0</ele><time>2026-04-12T10:08:01Z</time></trkpt><trkpt lat="42.0417631315954" lon="11.892668187667148"><ele>8.0</ele><time>2026-04-12T10:08:03Z</time></trkpt><trkpt lat="42.0417475830896" lon="11.89257096121241"><ele>8.0</ele><time>2026-04-12T10:08:07Z</time></trkpt><trkpt lat="42.0418193610462" lon="11.892627365825355"><ele>7.999999999999999</ele><time>2026-04-12T10:08:13Z</time></trkpt><trkpt lat="42.04177915492037" lon="11.892474242930149"><ele>8.0</ele><time>2026-04-12T10:08:14Z</time></trkpt><trkpt lat="42.04183905448108" lon="11.892410630686214"><ele>8.0</ele><time>2026-04-12T10:12:16Z</time></trkpt><trkpt lat="42.04193111024163" lon="11.892357196349545"><ele>8.0</ele><time>2026-04-12T10:12:19Z</time></trkpt><trkpt lat="42.04200904805559" lon="11.89230018184501"><ele>8.0</ele><time>2026-04-12T10:12:21Z</time></trkpt><trkpt lat="42.0420947425899" lon="11.892257636029559"><ele>8.0</ele><time>2026-04-12T10:12:23Z</time></trkpt><trkpt lat="42.04220825954567" lon="11.892193436205524"><ele>8.0</ele><time>2026-04-12T10:12:25Z</time></trkpt><trkpt lat="42.042201862932956" lon="11.892397912896726"><ele>8.0</ele><time>2026-04-12T10:12:32.999Z</time></trkpt><trkpt lat="42.042142882353836" lon="11.892455474112753"><ele>8.0</ele><time>2026-04-12T10:12:33.999Z</time></trkpt><trkpt lat="42.04208155405257" lon="11.892491387623483"><ele>8.0</ele><time>2026-04-12T10:12:34.999Z</time></trkpt><trkpt lat="42.04200947478986" lon="11.892533596824187"><ele>8.0</ele><time>2026-04-12T10:12:35.999Z</time></trkpt><trkpt lat="42.04189459928181" lon="11.8926008672742"><ele>8.0</ele><time>2026-04-12T10:12:37.999Z</time></trkpt><trkpt lat="42.041795803499646" lon="11.892660093697476"><ele>8.0</ele><time>2026-04-12T10:12:39.999Z</time></trkpt><trkpt lat="42.04167137351076" lon="11.892736687321149"><ele>8.0</ele><time>2026-04-12T10:12:41.999Z</time></trkpt><trkpt lat="42.04159047865163" lon="11.892770082922326"><ele>8.0</ele><time>2026-04-12T10:12:42.999Z</time></trkpt><trkpt lat="42.041516719065484" lon="11.892813375203591"><ele>8.0</ele><time>2026-04-12T10:12:43.999Z</time></trkpt><trkpt lat="42.04144544778803" lon="11.892864261042483"><ele>8.0</ele><time>2026-04-12T10:12:44.999Z</time></trkpt><trkpt lat="42.04134009148883" lon="11.892936724291332"><ele>7.6000000000000005</ele><time>2026-04-12T10:12:46.999Z</time></trkpt><trkpt lat="42.041262769380225" lon="11.89295305965919"><ele>7.200000000000001</ele><time>2026-04-12T10:12:48.999Z</time></trkpt><trkpt lat="42.0411731678543" lon="11.892912923378127"><ele>6.8</ele><time>2026-04-12T10:12:50.999Z</time></trkpt><trkpt lat="42.04119750402655" lon="11.892680197377265"><ele>6.4</ele><time>2026-04-12T10:12:51.999Z</time></trkpt><trkpt lat="42.041213442992195" lon="11.892564853206302"><ele>6.0</ele><time>2026-04-12T10:12:52.999Z</time></trkpt><trkpt lat="42.041202841865235" lon="11.892470471009197"><ele>6.0</ele><time>2026-04-12T10:12:53.999Z</time></trkpt><trkpt lat="42.04114276710951" lon="11.892316783923425"><ele>6.0</ele><time>2026-04-12T10:12:55.999Z</time></trkpt><trkpt lat="42.04105568383691" lon="11.892239481764063"><ele>6.0</ele><time>2026-04-12T10:12:57.999Z</time></trkpt><trkpt lat="42.04094814124801" lon="11.89219707288125"><ele>6.0</ele><time>2026-04-12T10:12:59.999Z</time></trkpt><trkpt lat="42.040789070255684" lon="11.892174588510112"><ele>5.666666666666667</ele><time>2026-04-12T10:13:01.999Z</time></trkpt><trkpt lat="42.040690384945556" lon="11.8921158147795"><ele>5.333333333333333</ele><time>2026-04-12T10:13:03.999Z</time></trkpt><trkpt lat="42.040603955943496" lon="11.892063514959203"><ele>5.0</ele><time>2026-04-12T10:13:05.999Z</time></trkpt><trkpt lat="42.040560562634006" lon="11.892001579901455"><ele>4.666666666666666</ele><time>2026-04-12T10:13:07.999Z</time></trkpt><trkpt lat="42.0405237750814" lon="11.891918513802725"><ele>4.333333333333333</ele><time>2026-04-12T10:13:09.999Z</time></trkpt><trkpt lat="42.040478431956664" lon="11.891858633637755"><ele>4.0</ele><time>2026-04-12T10:13:10.999Z</time></trkpt><trkpt lat="42.04048252151837" lon="11.89173523291973"><ele>4.0</ele><time>2026-04-12T10:13:11.999Z</time></trkpt><trkpt lat="42.040488346874575" lon="11.891590004370507"><ele>4.0</ele><time>2026-04-12T10:13:12.999Z</time></trkpt><trkpt lat="42.04048709956747" lon="11.891449347339657"><ele>4.0</ele><time>2026-04-12T10:13:13.999Z</time></trkpt><trkpt lat="42.040482887398475" lon="11.891290615495102"><ele>4.0</ele><time>2026-04-12T10:13:14.999Z</time></trkpt><trkpt lat="42.04048041446277" lon="11.891124806106255"><ele>4.0</ele><time>2026-04-12T10:13:15.999Z</time></trkpt><trkpt lat="42.04047620260286" lon="11.890967362846496"><ele>4.0</ele><time>2026-04-12T10:13:16.999Z</time></trkpt><trkpt lat="42.040461791835234" lon="11.890809790724628"><ele>4.0</ele><time>2026-04-12T10:13:17.999Z</time></trkpt><trkpt lat="42.04043538360149" lon="11.890657179464803"><ele>4.0</ele><time>2026-04-12T10:13:18.999Z</time></trkpt><trkpt lat="42.04040294235236" lon="11.890501869974521"><ele>4.2</ele><time>2026-04-12T10:13:19.999Z</time></trkpt><trkpt lat="42.04036444216314" lon="11.890360990236411"><ele>4.4</ele><time>2026-04-12T10:13:20.999Z</time></trkpt><trkpt lat="42.04032454088073" lon="11.890213752773176"><ele>4.6</ele><time>2026-04-12T10:13:21.999Z</time></trkpt><trkpt lat="42.04028791293236" lon="11.890074931058484"><ele>4.8</ele><time>2026-04-12T10:13:22.999Z</time></trkpt><trkpt lat="42.04025720484655" lon="11.889941241849906"><ele>5.0</ele><time>2026-04-12T10:13:23.999Z</time></trkpt><trkpt lat="42.04022051888933" lon="11.889815117298255"><ele>5.0</ele><time>2026-04-12T10:13:24.999Z</time></trkpt><trkpt lat="42.04019039231951" lon="11.889697494192104"><ele>5.0</ele><time>2026-04-12T10:13:25.999Z</time></trkpt><trkpt lat="42.04016166150422" lon="11.889588197850147"><ele>5.0</ele><time>2026-04-12T10:13:26.999Z</time></trkpt><trkpt lat="42.04013652742288" lon="11.889487558267978"><ele>5.0</ele><time>2026-04-12T10:13:27.999Z</time></trkpt><trkpt lat="42.04012049951253" lon="11.889391763184774"><ele>5.0</ele><time>2026-04-12T10:13:28.999Z</time></trkpt><trkpt lat="42.04009383621709" lon="11.889292242834484"><ele>5.0</ele><time>2026-04-12T10:13:29.999Z</time></trkpt><trkpt lat="42.04006479866442" lon="11.889187259995358"><ele>5.333333333333334</ele><time>2026-04-12T10:13:30.999Z</time></trkpt><trkpt lat="42.04003936144587" lon="11.889078404866321"><ele>5.666666666666667</ele><time>2026-04-12T10:13:31.999Z</time></trkpt><trkpt lat="42.04000665071882" lon="11.888968912038218"><ele>6.0</ele><time>2026-04-12T10:13:32.999Z</time></trkpt><trkpt lat="42.03997457963418" lon="11.88886005551186"><ele>6.333333333333334</ele><time>2026-04-12T10:13:33.999Z</time></trkpt><trkpt lat="42.03994624923746" lon="11.888766788992138"><ele>6.666666666666667</ele><time>2026-04-12T10:13:34.999Z</time></trkpt><trkpt lat="42.039919242839865" lon="11.888641988689189"><ele>7.0</ele><time>2026-04-12T10:13:36.999Z</time></trkpt><trkpt lat="42.039926936906525" lon="11.888555469468775"><ele>3.0</ele><time>2026-04-12T10:13:39.999Z</time></trkpt><trkpt lat="42.039924132971684" lon="11.888420181826222"><ele>1.0</ele><time>2026-04-12T10:15:43.999Z</time></trkpt><trkpt lat="42.03991272051278" lon="11.888327752054996"><ele>1.0</ele><time>2026-04-12T10:16:02Z</time></trkpt></trkseg><trkseg><trkpt lat="42.039891022578225" lon="11.888393303436926"><ele>2.0</ele><time>2026-04-12T11:35:35Z</time></trkpt><trkpt lat="42.039896047450256" lon="11.888496540809907"><ele>3.0</ele><time>2026-04-12T11:35:38Z</time></trkpt><trkpt lat="42.0395485728812" lon="11.8888102980397"><ele>3.0</ele><time>2026-04-12T11:36:09Z</time></trkpt><trkpt lat="42.039888496705" lon="11.888531056446746"><ele>3.0</ele><time>2026-04-12T11:36:11.999Z</time></trkpt><trkpt lat="42.03988590573192" lon="11.888800640283618"><ele>3.0</ele><time>2026-04-12T11:39:20Z</time></trkpt><trkpt lat="42.03991344142194" lon="11.889010751608575"><ele>3.0</ele><time>2026-04-12T11:39:21Z</time></trkpt><trkpt lat="42.03993760877562" lon="11.889204962360788"><ele>3.0</ele><time>2026-04-12T11:39:22Z</time></trkpt><trkpt lat="42.03997473945681" lon="11.889358048077012"><ele>3.0</ele><time>2026-04-12T11:39:23Z</time></trkpt><trkpt lat="42.040029395513535" lon="11.889527441230888"><ele>3.5</ele><time>2026-04-12T11:39:24Z</time></trkpt><trkpt lat="42.040091245409535" lon="11.889704772015968"><ele>4.0</ele><time>2026-04-12T11:39:25Z</time></trkpt><trkpt lat="42.04013526993614" lon="11.889885515490821"><ele>4.5</ele><time>2026-04-12T11:39:26Z</time></trkpt><trkpt lat="42.04016342617985" lon="11.890059398200824"><ele>5.0</ele><time>2026-04-12T11:39:27Z</time></trkpt><trkpt lat="42.040198222897864" lon="11.890225950950766"><ele>5.0</ele><time>2026-04-12T11:39:28Z</time></trkpt><trkpt lat="42.04027599526983" lon="11.89037558728135"><ele>5.0</ele><time>2026-04-12T11:39:29Z</time></trkpt><trkpt lat="42.04032065540065" lon="11.890533970853616"><ele>5.0</ele><time>2026-04-12T11:39:30Z</time></trkpt><trkpt lat="42.04035882610867" lon="11.890683380680281"><ele>5.0</ele><time>2026-04-12T11:39:31Z</time></trkpt><trkpt lat="42.0404033017353" lon="11.890848386083976"><ele>4.75</ele><time>2026-04-12T11:39:32Z</time></trkpt><trkpt lat="42.040398146427734" lon="11.89101973182534"><ele>4.5</ele><time>2026-04-12T11:39:33Z</time></trkpt><trkpt lat="42.04041165231119" lon="11.891189855617826"><ele>4.25</ele><time>2026-04-12T11:39:34Z</time></trkpt><trkpt lat="42.04043771552972" lon="11.891344644346688"><ele>4.0</ele><time>2026-04-12T11:39:35Z</time></trkpt><trkpt lat="42.040442211674915" lon="11.891497568991566"><ele>4.0</ele><time>2026-04-12T11:39:36Z</time></trkpt><trkpt lat="42.04042697003304" lon="11.891655189876142"><ele>4.0</ele><time>2026-04-12T11:39:37Z</time></trkpt><trkpt lat="42.04043647465424" lon="11.891795286346476"><ele>4.0</ele><time>2026-04-12T11:39:38Z</time></trkpt><trkpt lat="42.04041332183795" lon="11.891911633059669"><ele>4.0</ele><time>2026-04-12T11:39:39Z</time></trkpt><trkpt lat="42.04040756545124" lon="11.89201145628841"><ele>4.0</ele><time>2026-04-12T11:39:40Z</time></trkpt><trkpt lat="42.0404049354997" lon="11.892110870580682"><ele>4.0</ele><time>2026-04-12T11:39:41Z</time></trkpt><trkpt lat="42.04057945151407" lon="11.89217004713006"><ele>4.0</ele><time>2026-04-12T11:39:45Z</time></trkpt><trkpt lat="42.04071093847939" lon="11.892181024939656"><ele>4.0</ele><time>2026-04-12T11:39:46Z</time></trkpt><trkpt lat="42.04082278775572" lon="11.892198916270598"><ele>4.0</ele><time>2026-04-12T11:39:47Z</time></trkpt><trkpt lat="42.040916904499724" lon="11.892223178963226"><ele>4.2</ele><time>2026-04-12T11:39:48Z</time></trkpt><trkpt lat="42.04102754778424" lon="11.892302406622862"><ele>4.4</ele><time>2026-04-12T11:39:50Z</time></trkpt><trkpt lat="42.0410951030837" lon="11.892360533941801"><ele>4.6</ele><time>2026-04-12T11:39:51Z</time></trkpt><trkpt lat="42.04113390842977" lon="11.892450637832649"><ele>4.8</ele><time>2026-04-12T11:39:52Z</time></trkpt><trkpt lat="42.04117227443796" lon="11.892567102847186"><ele>5.0</ele><time>2026-04-12T11:39:53Z</time></trkpt><trkpt lat="42.041175472715075" lon="11.892703342780921"><ele>5.0</ele><time>2026-04-12T11:39:54Z</time></trkpt><trkpt lat="42.04114337660813" lon="11.892827109370552"><ele>5.0</ele><time>2026-04-12T11:39:55Z</time></trkpt><trkpt lat="42.04113834479219" lon="11.892919250278911"><ele>5.0</ele><time>2026-04-12T11:39:56Z</time></trkpt><trkpt lat="42.04115660480286" lon="11.893022812535907"><ele>5.0</ele><time>2026-04-12T11:39:58Z</time></trkpt><trkpt lat="42.0413807458903" lon="11.892950510520931"><ele>5.0</ele><time>2026-04-12T11:40:03Z</time></trkpt><trkpt lat="42.041476889971065" lon="11.892922468193216"><ele>5.0</ele><time>2026-04-12T11:40:04Z</time></trkpt><trkpt lat="42.04156652978566" lon="11.892873807985367"><ele>5.0</ele><time>2026-04-12T11:40:05Z</time></trkpt><trkpt lat="42.04163303334724" lon="11.892835970620435"><ele>5.0</ele><time>2026-04-12T11:40:06Z</time></trkpt><trkpt lat="42.04169721435157" lon="11.892795541352886"><ele>5.0</ele><time>2026-04-12T11:40:07Z</time></trkpt><trkpt lat="42.0417659726965" lon="11.892751321894304"><ele>5.0</ele><time>2026-04-12T11:40:08Z</time></trkpt><trkpt lat="42.041824895014685" lon="11.89268905352829"><ele>5.5</ele><time>2026-04-12T11:40:09Z</time></trkpt><trkpt lat="42.0418828881463" lon="11.892649758091368"><ele>6.0</ele><time>2026-04-12T11:40:10Z</time></trkpt><trkpt lat="42.04194854405775" lon="11.89260601878889"><ele>6.5</ele><time>2026-04-12T11:40:11Z</time></trkpt><trkpt lat="42.04202246433695" lon="11.89256435809332"><ele>7.0</ele><time>2026-04-12T11:40:12Z</time></trkpt><trkpt lat="42.04210537108784" lon="11.892533973166387"><ele>7.499999999999999</ele><time>2026-04-12T11:40:13Z</time></trkpt><trkpt lat="42.04218472791777" lon="11.892470104102411"><ele>8.0</ele><time>2026-04-12T11:40:14Z</time></trkpt><trkpt lat="42.0422485613232" lon="11.892422991195064"><ele>7.999999999999999</ele><time>2026-04-12T11:40:15Z</time></trkpt><trkpt lat="42.04232128258065" lon="11.892390477398017"><ele>8.0</ele><time>2026-04-12T11:40:16Z</time></trkpt><trkpt lat="42.04239975018029" lon="11.892354994357717"><ele>8.0</ele><time>2026-04-12T11:40:17Z</time></trkpt><trkpt lat="42.04247311889751" lon="11.892321087656631"><ele>8.0</ele><time>2026-04-12T11:40:18Z</time></trkpt><trkpt lat="42.042554431836415" lon="11.892269223167972"><ele>7.999999999999999</ele><time>2026-04-12T11:40:19Z</time></trkpt><trkpt lat="42.04263157999396" lon="11.892258109452307"><ele>8.0</ele><time>2026-04-12T11:40:20Z</time></trkpt><trkpt lat="42.04270227005155" lon="11.892221776048189"><ele>8.428571428571429</ele><time>2026-04-12T11:40:21Z</time></trkpt><trkpt lat="42.04277297038793" lon="11.892203675533468"><ele>8.857142857142856</ele><time>2026-04-12T11:40:22Z</time></trkpt><trkpt lat="42.04284617821851" lon="11.89216463308098"><ele>9.285714285714285</ele><time>2026-04-12T11:40:23Z</time></trkpt><trkpt lat="42.04291848960459" lon="11.892130965097179"><ele>9.714285714285714</ele><time>2026-04-12T11:40:24Z</time></trkpt><trkpt lat="42.04298298611269" lon="11.892095462438878"><ele>10.142857142857142</ele><time>2026-04-12T11:40:25Z</time></trkpt><trkpt lat="42.0430397594378" lon="11.892040674457192"><ele>10.571428571428571</ele><time>2026-04-12T11:40:26Z</time></trkpt><trkpt lat="42.04310652853482" lon="11.892009763729845"><ele>11.0</ele><time>2026-04-12T11:40:27Z</time></trkpt><trkpt lat="42.043163211414985" lon="11.891968725367185"><ele>11.0</ele><time>2026-04-12T11:40:28Z</time></trkpt><trkpt lat="42.04324269133931" lon="11.891917246159956"><ele>11.0</ele><time>2026-04-12T11:40:29Z</time></trkpt><trkpt lat="42.04330177373586" lon="11.891877368976793"><ele>11.0</ele><time>2026-04-12T11:40:30Z</time></trkpt><trkpt lat="42.04337336174653" lon="11.891851271703167"><ele>11.0</ele><time>2026-04-12T11:40:31Z</time></trkpt><trkpt lat="42.043428749374335" lon="11.891791457326299"><ele>11.0</ele><time>2026-04-12T11:40:32Z</time></trkpt><trkpt lat="42.043487219890494" lon="11.891747680562327"><ele>11.0</ele><time>2026-04-12T11:40:33Z</time></trkpt><trkpt lat="42.043551494560724" lon="11.891698167903996"><ele>11.0</ele><time>2026-04-12T11:40:33.999Z</time></trkpt><trkpt lat="42.04363789618351" lon="11.891630537049917"><ele>11.75</ele><time>2026-04-12T11:40:34.999Z</time></trkpt><trkpt lat="42.043736320302614" lon="11.891567835644913"><ele>12.5</ele><time>2026-04-12T11:40:35.999Z</time></trkpt><trkpt lat="42.04384082884447" lon="11.891453997247728"><ele>13.25</ele><time>2026-04-12T11:40:36.999Z</time></trkpt><trkpt lat="42.04393455863292" lon="11.891379719310283"><ele>14.0</ele><time>2026-04-12T11:40:37.999Z</time></trkpt><trkpt lat="42.04401440000734" lon="11.891292329440097"><ele>14.0</ele><time>2026-04-12T11:40:38.999Z</time></trkpt><trkpt lat="42.04410247966415" lon="11.891214672140709"><ele>13.999999999999998</ele><time>2026-04-12T11:40:39.999Z</time></trkpt><trkpt lat="42.044190760946805" lon="11.891129959074876"><ele>13.999999999999998</ele><time>2026-04-12T11:40:40.999Z</time></trkpt><trkpt lat="42.04427227746908" lon="11.891054132467433"><ele>14.0</ele><time>2026-04-12T11:40:41.999Z</time></trkpt><trkpt lat="42.04434506993417" lon="11.890963670282455"><ele>14.0</ele><time>2026-04-12T11:40:42.999Z</time></trkpt><trkpt lat="42.04440665974874" lon="11.890859441186498"><ele>14.000000000000002</ele><time>2026-04-12T11:40:43.999Z</time></trkpt><trkpt lat="42.04449743724767" lon="11.89078238484922"><ele>14.0</ele><time>2026-04-12T11:40:44.999Z</time></trkpt><trkpt lat="42.0445715875531" lon="11.890712364663884"><ele>14.0</ele><time>2026-04-12T11:40:45.999Z</time></trkpt><trkpt lat="42.04464947105785" lon="11.890688352888775"><ele>14.0</ele><time>2026-04-12T11:40:46.999Z</time></trkpt><trkpt lat="42.04472490006297" lon="11.890657216637281"><ele>14.000000000000002</ele><time>2026-04-12T11:40:47.999Z</time></trkpt><trkpt lat="42.044803879885116" lon="11.890642683342115"><ele>14.0</ele><time>2026-04-12T11:40:48.999Z</time></trkpt><trkpt lat="42.04488952659479" lon="11.890694005029868"><ele>15.0</ele><time>2026-04-12T11:40:49.999Z</time></trkpt><trkpt lat="42.04515125080765" lon="11.890595928747752"><ele>16.0</ele><time>2026-04-12T11:40:52.999Z</time></trkpt><trkpt lat="42.04523501951477" lon="11.890548832407816"><ele>17.0</ele><time>2026-04-12T11:40:53.999Z</time></trkpt><trkpt lat="42.04533328343793" lon="11.890483163282063"><ele>17.0</ele><time>2026-04-12T11:40:54.999Z</time></trkpt><trkpt lat="42.04542868667313" lon="11.890434817049966"><ele>17.0</ele><time>2026-04-12T11:40:55.999Z</time></trkpt><trkpt lat="42.045522977753976" lon="11.890398350265547"><ele>17.0</ele><time>2026-04-12T11:40:56.999Z</time></trkpt><trkpt lat="42.04563502139799" lon="11.890382935573923"><ele>17.0</ele><time>2026-04-12T11:40:57.999Z</time></trkpt><trkpt lat="42.045764414888765" lon="11.890344836317357"><ele>17.0</ele><time>2026-04-12T11:40:58.999Z</time></trkpt><trkpt lat="42.04590988886717" lon="11.890302002318258"><ele>17.75</ele><time>2026-04-12T11:40:59.999Z</time></trkpt><trkpt lat="42.0460515855716" lon="11.890260280502144"><ele>18.5</ele><time>2026-04-12T11:41:00.999Z</time></trkpt><trkpt lat="42.04619114838735" lon="11.890198719560162"><ele>19.25</ele><time>2026-04-12T11:41:01.999Z</time></trkpt><trkpt lat="42.04632278842083" lon="11.890163725390144"><ele>20.0</ele><time>2026-04-12T11:41:02.999Z</time></trkpt><trkpt lat="42.0464561076337" lon="11.890126854597195"><ele>19.75</ele><time>2026-04-12T11:41:03.999Z</time></trkpt><trkpt lat="42.04659059811705" lon="11.890083954824531"><ele>19.5</ele><time>2026-04-12T11:41:04.999Z</time></trkpt><trkpt lat="42.04671448089669" lon="11.890064177147586"><ele>19.25</ele><time>2026-04-12T11:41:05.999Z</time></trkpt><trkpt lat="42.04684837132083" lon="11.89000610433936"><ele>19.0</ele><time>2026-04-12T11:41:06.999Z</time></trkpt><trkpt lat="42.046989489819524" lon="11.88998200897755"><ele>19.0</ele><time>2026-04-12T11:41:07.999Z</time></trkpt><trkpt lat="42.04712022418981" lon="11.889940804915199"><ele>19.0</ele><time>2026-04-12T11:41:09Z</time></trkpt><trkpt lat="42.04724542292814" lon="11.889903734617322"><ele>19.0</ele><time>2026-04-12T11:41:10Z</time></trkpt><trkpt lat="42.04738160768419" lon="11.889855808164464"><ele>19.0</ele><time>2026-04-12T11:41:11Z</time></trkpt><trkpt lat="42.04750637261263" lon="11.889818643924823"><ele>19.2</ele><time>2026-04-12T11:41:12Z</time></trkpt><trkpt lat="42.04761832222214" lon="11.889793765634945"><ele>19.4</ele><time>2026-04-12T11:41:13Z</time></trkpt><trkpt lat="42.047742423084365" lon="11.889758233059187"><ele>19.6</ele><time>2026-04-12T11:41:14Z</time></trkpt><trkpt lat="42.0478507923109" lon="11.88975002212204"><ele>19.8</ele><time>2026-04-12T11:41:15Z</time></trkpt><trkpt lat="42.047938703605375" lon="11.889707505136764"><ele>20.0</ele><time>2026-04-12T11:41:16Z</time></trkpt><trkpt lat="42.04803855798543" lon="11.88966744808104"><ele>20.0</ele><time>2026-04-12T11:41:17Z</time></trkpt><trkpt lat="42.04813536044353" lon="11.889670167429506"><ele>20.0</ele><time>2026-04-12T11:41:18Z</time></trkpt><trkpt lat="42.0482840006457" lon="11.889668537298924"><ele>20.0</ele><time>2026-04-12T11:41:20Z</time></trkpt><trkpt lat="42.04835950394977" lon="11.889671105948633"><ele>20.0</ele><time>2026-04-12T11:41:21Z</time></trkpt><trkpt lat="42.04849246175183" lon="11.889666828812322"><ele>20.25</ele><time>2026-04-12T11:41:22Z</time></trkpt><trkpt lat="42.04860620841627" lon="11.88965902763352"><ele>20.5</ele><time>2026-04-12T11:41:23Z</time></trkpt><trkpt lat="42.048706722871536" lon="11.889657584034094"><ele>20.75</ele><time>2026-04-12T11:41:24Z</time></trkpt><trkpt lat="42.04882785785843" lon="11.889642692980532"><ele>21.0</ele><time>2026-04-12T11:41:25Z</time></trkpt><trkpt lat="42.048949034201065" lon="11.88960489916508"><ele>21.0</ele><time>2026-04-12T11:41:26Z</time></trkpt><trkpt lat="42.0490557549303" lon="11.889587704765157"><ele>21.0</ele><time>2026-04-12T11:41:27Z</time></trkpt><trkpt lat="42.04917636051693" lon="11.88956737687513"><ele>21.0</ele><time>2026-04-12T11:41:28Z</time></trkpt><trkpt lat="42.04930139649829" lon="11.889556284177191"><ele>21.0</ele><time>2026-04-12T11:41:29Z</time></trkpt><trkpt lat="42.04942225698051" lon="11.889545025971618"><ele>22.5</ele><time>2026-04-12T11:41:30Z</time></trkpt><trkpt lat="42.049554114806995" lon="11.88953034791612"><ele>24.0</ele><time>2026-04-12T11:41:31Z</time></trkpt><trkpt lat="42.049689612853754" lon="11.889513593893486"><ele>25.5</ele><time>2026-04-12T11:41:32Z</time></trkpt><trkpt lat="42.049822825160135" lon="11.889502173075934"><ele>27.0</ele><time>2026-04-12T11:41:33Z</time></trkpt><trkpt lat="42.04995784953243" lon="11.889498955576402"><ele>28.5</ele><time>2026-04-12T11:41:34Z</time></trkpt><trkpt lat="42.05008595045467" lon="11.889457342485022"><ele>30.0</ele><time>2026-04-12T11:41:35Z</time></trkpt><trkpt lat="42.05021170629448" lon="11.88945969288507"><ele>31.5</ele><time>2026-04-12T11:41:36Z</time></trkpt><trkpt lat="42.05036639963757" lon="11.889413065579479"><ele>33.0</ele><time>2026-04-12T11:41:37Z</time></trkpt><trkpt lat="42.05049556401061" lon="11.889372944738154"><ele>33.0</ele><time>2026-04-12T11:41:38Z</time></trkpt><trkpt lat="42.05062038972483" lon="11.8893383802792"><ele>33.0</ele><time>2026-04-12T11:41:39Z</time></trkpt><trkpt lat="42.050742970707056" lon="11.889297772355077"><ele>33.0</ele><time>2026-04-12T11:41:40Z</time></trkpt><trkpt lat="42.05086133341645" lon="11.889276720379074"><ele>33.0</ele><time>2026-04-12T11:41:41Z</time></trkpt><trkpt lat="42.0509805112771" lon="11.88925351122115"><ele>33.5</ele><time>2026-04-12T11:41:42Z</time></trkpt><trkpt lat="42.051107240454805" lon="11.889260435010454"><ele>34.0</ele><time>2026-04-12T11:41:43Z</time></trkpt><trkpt lat="42.05123163026321" lon="11.889267187302494"><ele>34.5</ele><time>2026-04-12T11:41:44Z</time></trkpt><trkpt lat="42.051357219371184" lon="11.889284707233159"><ele>35.0</ele><time>2026-04-12T11:41:45Z</time></trkpt><trkpt lat="42.051483476194846" lon="11.889295713213757"><ele>35.0</ele><time>2026-04-12T11:41:46Z</time></trkpt><trkpt lat="42.05162032273612" lon="11.889303269301514"><ele>35.0</ele><time>2026-04-12T11:41:47Z</time></trkpt><trkpt lat="42.05175041264473" lon="11.889307690395162"><ele>35.0</ele><time>2026-04-12T11:41:48Z</time></trkpt><trkpt lat="42.05186192340436" lon="11.889331636172233"><ele>35.0</ele><time>2026-04-12T11:41:49Z</time></trkpt><trkpt lat="42.05198130732155" lon="11.889330990033757"><ele>35.0</ele><time>2026-04-12T11:41:50Z</time></trkpt><trkpt lat="42.052132433980596" lon="11.889311134782675"><ele>35.0</ele><time>2026-04-12T11:41:51Z</time></trkpt><trkpt lat="42.05225523994753" lon="11.889283650045579"><ele>35.0</ele><time>2026-04-12T11:41:52Z</time></trkpt><trkpt lat="42.05237214589913" lon="11.889241332934091"><ele>35.0</ele><time>2026-04-12T11:41:53Z</time></trkpt><trkpt lat="42.05249430376031" lon="11.889191989031861"><ele>37.5</ele><time>2026-04-12T11:41:54Z</time></trkpt><trkpt lat="42.05261175627471" lon="11.889131843585814"><ele>40.0</ele><time>2026-04-12T11:41:55Z</time></trkpt><trkpt lat="42.052730500176175" lon="11.889079198753592"><ele>42.5</ele><time>2026-04-12T11:41:56Z</time></trkpt><trkpt lat="42.0528427360952" lon="11.889029820439283"><ele>45.0</ele><time>2026-04-12T11:41:57Z</time></trkpt><trkpt lat="42.05294971129843" lon="11.88897649763575"><ele>45.0</ele><time>2026-04-12T11:41:58Z</time></trkpt><trkpt lat="42.053046065661945" lon="11.888926556808773"><ele>45.0</ele><time>2026-04-12T11:41:59Z</time></trkpt><trkpt lat="42.053152850553914" lon="11.888880303795808"><ele>45.0</ele><time>2026-04-12T11:42:00Z</time></trkpt><trkpt lat="42.05325511808294" lon="11.888833632206829"><ele>45.0</ele><time>2026-04-12T11:42:01Z</time></trkpt><trkpt lat="42.053350248609384" lon="11.888788842398634"><ele>45.0</ele><time>2026-04-12T11:42:02Z</time></trkpt><trkpt lat="42.053438084390315" lon="11.888761080307395"><ele>45.6</ele><time>2026-04-12T11:42:03Z</time></trkpt><trkpt lat="42.05353340059608" lon="11.888748604123604"><ele>46.2</ele><time>2026-04-12T11:42:04Z</time></trkpt><trkpt lat="42.053638023223094" lon="11.8887924977792"><ele>46.8</ele><time>2026-04-12T11:42:05Z</time></trkpt><trkpt lat="42.05373781114854" lon="11.888812364109956"><ele>47.4</ele><time>2026-04-12T11:42:06Z</time></trkpt><trkpt lat="42.05384487218347" lon="11.88883464350451"><ele>48.0</ele><time>2026-04-12T11:42:07Z</time></trkpt><trkpt lat="42.05395195238909" lon="11.888856956494376"><ele>48.0</ele><time>2026-04-12T11:42:08Z</time></trkpt><trkpt lat="42.05407553670412" lon="11.888881062895157"><ele>48.0</ele><time>2026-04-12T11:42:09Z</time></trkpt><trkpt lat="42.05418060495308" lon="11.888901557504346"><ele>48.0</ele><time>2026-04-12T11:42:10Z</time></trkpt><trkpt lat="42.05431687795142" lon="11.888928138939718"><ele>48.0</ele><time>2026-04-12T11:42:11Z</time></trkpt><trkpt lat="42.05442925089149" lon="11.888931929731058"><ele>51.0</ele><time>2026-04-12T11:42:12Z</time></trkpt><trkpt lat="42.054551493716524" lon="11.888971224019341"><ele>54.0</ele><time>2026-04-12T11:42:13Z</time></trkpt><trkpt lat="42.05465344528553" lon="11.888996297522805"><ele>57.0</ele><time>2026-04-12T11:42:14Z</time></trkpt><trkpt lat="42.05475511446954" lon="11.889031847270713"><ele>60.0</ele><time>2026-04-12T11:42:15Z</time></trkpt><trkpt lat="42.05486874424294" lon="11.889087284463388"><ele>61.75</ele><time>2026-04-12T11:42:16Z</time></trkpt><trkpt lat="42.05496600518484" lon="11.889140747991403"><ele>63.5</ele><time>2026-04-12T11:42:17Z</time></trkpt><trkpt lat="42.05507700786744" lon="11.889215503106689"><ele>65.25</ele><time>2026-04-12T11:42:18Z</time></trkpt><trkpt lat="42.055169349737504" lon="11.889298729597348"><ele>67.0</ele><time>2026-04-12T11:42:19Z</time></trkpt><trkpt lat="42.05526020014409" lon="11.889390991852228"><ele>68.4</ele><time>2026-04-12T11:42:20Z</time></trkpt><trkpt lat="42.055322580460064" lon="11.889505369355613"><ele>69.80000000000001</ele><time>2026-04-12T11:42:21Z</time></trkpt><trkpt lat="42.05539467893807" lon="11.889609466972649"><ele>71.2</ele><time>2026-04-12T11:42:22Z</time></trkpt><trkpt lat="42.05546062699298" lon="11.889692199293885"><ele>72.60000000000001</ele><time>2026-04-12T11:42:23Z</time></trkpt><trkpt lat="42.055559932231816" lon="11.889742419216043"><ele>74.0</ele><time>2026-04-12T11:42:24Z</time></trkpt><trkpt lat="42.05567428487365" lon="11.889756040104984"><ele>74.5</ele><time>2026-04-12T11:42:25Z</time></trkpt><trkpt lat="42.05582470950797" lon="11.889756775797027"><ele>75.0</ele><time>2026-04-12T11:42:26Z</time></trkpt><trkpt lat="42.05597957827099" lon="11.88976170803652"><ele>75.5</ele><time>2026-04-12T11:42:27Z</time></trkpt><trkpt lat="42.05610748534641" lon="11.88978464865832"><ele>76.0</ele><time>2026-04-12T11:42:28Z</time></trkpt><trkpt lat="42.05624031117454" lon="11.889814941783905"><ele>76.0</ele><time>2026-04-12T11:42:29Z</time></trkpt><trkpt lat="42.05635502520083" lon="11.889850126420047"><ele>76.0</ele><time>2026-04-12T11:42:30Z</time></trkpt><trkpt lat="42.0564555059287" lon="11.88989446461803"><ele>76.0</ele><time>2026-04-12T11:42:30.999Z</time></trkpt><trkpt lat="42.056540900143105" lon="11.889978179957525"><ele>76.0</ele><time>2026-04-12T11:42:31.999Z</time></trkpt><trkpt lat="42.05663047344488" lon="11.890080068289874"><ele>76.0</ele><time>2026-04-12T11:42:32.999Z</time></trkpt><trkpt lat="42.05671169731589" lon="11.890211067984835"><ele>78.75</ele><time>2026-04-12T11:42:33.999Z</time></trkpt><trkpt lat="42.05680117908161" lon="11.890324846422153"><ele>81.5</ele><time>2026-04-12T11:42:34.999Z</time></trkpt><trkpt lat="42.05688945961374" lon="11.890432953935225"><ele>84.25</ele><time>2026-04-12T11:42:35.999Z</time></trkpt><trkpt lat="42.056981373494594" lon="11.890544072020356"><ele>87.0</ele><time>2026-04-12T11:42:36.999Z</time></trkpt><trkpt lat="42.05706313250246" lon="11.890671423888552"><ele>87.0</ele><time>2026-04-12T11:42:37.999Z</time></trkpt><trkpt lat="42.05715453589327" lon="11.89075929107388"><ele>87.0</ele><time>2026-04-12T11:42:38.999Z</time></trkpt><trkpt lat="42.0572183410119" lon="11.89085888753462"><ele>87.0</ele><time>2026-04-12T11:42:39.999Z</time></trkpt><trkpt lat="42.05731577810116" lon="11.890908062250888"><ele>87.0</ele><time>2026-04-12T11:42:40.999Z</time></trkpt><trkpt lat="42.057409095304344" lon="11.890943202828975"><ele>87.0</ele><time>2026-04-12T11:42:41.999Z</time></trkpt><trkpt lat="42.05751218591276" lon="11.890970164572794"><ele>87.33333333333333</ele><time>2026-04-12T11:42:42.999Z</time></trkpt><trkpt lat="42.05762158630713" lon="11.891000447240776"><ele>87.66666666666666</ele><time>2026-04-12T11:42:43.999Z</time></trkpt><trkpt lat="42.05773057289141" lon="11.891011922119597"><ele>88.0</ele><time>2026-04-12T11:42:44.999Z</time></trkpt><trkpt lat="42.05799643655901" lon="11.891023422739377"><ele>88.0</ele><time>2026-04-12T11:42:46.999Z</time></trkpt><trkpt lat="42.058108493435796" lon="11.891037880696532"><ele>88.0</ele><time>2026-04-12T11:42:47.999Z</time></trkpt><trkpt lat="42.05822283730454" lon="11.89106763580628"><ele>88.0</ele><time>2026-04-12T11:42:48.999Z</time></trkpt><trkpt lat="42.05836358440334" lon="11.891091313100263"><ele>88.0</ele><time>2026-04-12T11:42:49.999Z</time></trkpt><trkpt lat="42.05849015866901" lon="11.891105733475744"><ele>90.75</ele><time>2026-04-12T11:42:50.999Z</time></trkpt><trkpt lat="42.05861534339972" lon="11.891108302608242"><ele>93.5</ele><time>2026-04-12T11:42:51.999Z</time></trkpt><trkpt lat="42.058739203782565" lon="11.891092586722024"><ele>96.25</ele><time>2026-04-12T11:42:52.999Z</time></trkpt><trkpt lat="42.05886524656791" lon="11.891070911803045"><ele>99.0</ele><time>2026-04-12T11:42:53.999Z</time></trkpt><trkpt lat="42.05898089081872" lon="11.8910218431083"><ele>99.0</ele><time>2026-04-12T11:42:54.999Z</time></trkpt><trkpt lat="42.05907716735109" lon="11.890980216432872"><ele>99.0</ele><time>2026-04-12T11:42:55.999Z</time></trkpt><trkpt lat="42.05920667061804" lon="11.890930678137567"><ele>99.0</ele><time>2026-04-12T11:42:56.999Z</time></trkpt><trkpt lat="42.05929040901669" lon="11.89091003868914"><ele>99.0</ele><time>2026-04-12T11:42:57.999Z</time></trkpt><trkpt lat="42.05938218459018" lon="11.890877474552088"><ele>99.0</ele><time>2026-04-12T11:42:59.999Z</time></trkpt><trkpt lat="42.05950127291247" lon="11.890917854322678"><ele>100.83333333333333</ele><time>2026-04-12T11:43:03.999Z</time></trkpt><trkpt lat="42.059550887353346" lon="11.891005356928124"><ele>102.66666666666666</ele><time>2026-04-12T11:43:04.999Z</time></trkpt><trkpt lat="42.05958225225992" lon="11.89111221736639"><ele>104.5</ele><time>2026-04-12T11:43:06.999Z</time></trkpt><trkpt lat="42.05962504009526" lon="11.891212583207697"><ele>106.33333333333333</ele><time>2026-04-12T11:43:08.999Z</time></trkpt><trkpt lat="42.059711526685724" lon="11.89133468617093"><ele>108.16666666666666</ele><time>2026-04-12T11:43:10.999Z</time></trkpt><trkpt lat="42.059751792311395" lon="11.891404199818986"><ele>110.0</ele><time>2026-04-12T11:43:11.999Z</time></trkpt><trkpt lat="42.0597964274612" lon="11.891474930816527"><ele>110.0</ele><time>2026-04-12T11:43:12.999Z</time></trkpt><trkpt lat="42.05984010736992" lon="11.891554598103095"><ele>110.0</ele><time>2026-04-12T11:43:13.999Z</time></trkpt><trkpt lat="42.05993886180912" lon="11.891654088835283"><ele>110.0</ele><time>2026-04-12T11:43:15Z</time></trkpt><trkpt lat="42.06002055091519" lon="11.891757352193611"><ele>110.0</ele><time>2026-04-12T11:43:16Z</time></trkpt><trkpt lat="42.06014451372651" lon="11.891843181624663"><ele>110.0</ele><time>2026-04-12T11:43:17Z</time></trkpt><trkpt lat="42.06023231767412" lon="11.891956503329132"><ele>111.2</ele><time>2026-04-12T11:43:18Z</time></trkpt><trkpt lat="42.060332145054524" lon="11.892066759292561"><ele>112.4</ele><time>2026-04-12T11:43:19Z</time></trkpt><trkpt lat="42.06042019847618" lon="11.892141334164492"><ele>113.6</ele><time>2026-04-12T11:43:20Z</time></trkpt><trkpt lat="42.060492219834536" lon="11.89218370495446"><ele>114.8</ele><time>2026-04-12T11:43:21Z</time></trkpt><trkpt lat="42.060575986536726" lon="11.89223274118835"><ele>116.0</ele><time>2026-04-12T11:43:22Z</time></trkpt><trkpt lat="42.06064599466868" lon="11.892253268582985"><ele>116.0</ele><time>2026-04-12T11:43:23Z</time></trkpt><trkpt lat="42.06071914102289" lon="11.89224407604924"><ele>116.0</ele><time>2026-04-12T11:43:24Z</time></trkpt><trkpt lat="42.060785747940685" lon="11.892201424569746"><ele>116.0</ele><time>2026-04-12T11:43:25Z</time></trkpt><trkpt lat="42.060880481472665" lon="11.8921665823021"><ele>116.0</ele><time>2026-04-12T11:43:26Z</time></trkpt><trkpt lat="42.061002513107375" lon="11.892150824262345"><ele>116.0</ele><time>2026-04-12T11:43:27Z</time></trkpt><trkpt lat="42.06123811001544" lon="11.892170884869845"><ele>119.66666666666666</ele><time>2026-04-12T11:43:29Z</time></trkpt><trkpt lat="42.06136208782217" lon="11.892173281745697"><ele>123.33333333333334</ele><time>2026-04-12T11:43:30Z</time></trkpt><trkpt lat="42.06160112593674" lon="11.892188844867563"><ele>127.0</ele><time>2026-04-12T11:43:32Z</time></trkpt><trkpt lat="42.06189755148761" lon="11.892182238262128"><ele>128.4</ele><time>2026-04-12T11:43:34Z</time></trkpt><trkpt lat="42.06201440196629" lon="11.892206405123522"><ele>129.79999999999998</ele><time>2026-04-12T11:43:35Z</time></trkpt><trkpt lat="42.06215935063632" lon="11.892212690955253"><ele>131.2</ele><time>2026-04-12T11:43:36Z</time></trkpt><trkpt lat="42.062261931489516" lon="11.892198820571888"><ele>132.6</ele><time>2026-04-12T11:43:37Z</time></trkpt><trkpt lat="42.06234128134149" lon="11.892194806003879"><ele>134.0</ele><time>2026-04-12T11:43:38Z</time></trkpt><trkpt lat="42.06242893724848" lon="11.892210505970617"><ele>136.0</ele><time>2026-04-12T11:43:39Z</time></trkpt><trkpt lat="42.06253211548819" lon="11.892220639799769"><ele>138.0</ele><time>2026-04-12T11:43:40Z</time></trkpt><trkpt lat="42.062635056326975" lon="11.892242898902389"><ele>140.0</ele><time>2026-04-12T11:43:41Z</time></trkpt><trkpt lat="42.06273532887675" lon="11.892289548078917"><ele>142.0</ele><time>2026-04-12T11:43:42Z</time></trkpt><trkpt lat="42.062851110225424" lon="11.892307900995188"><ele>144.0</ele><time>2026-04-12T11:43:43Z</time></trkpt><trkpt lat="42.06298348940327" lon="11.89237220757494"><ele>144.0</ele><time>2026-04-12T11:43:44Z</time></trkpt><trkpt lat="42.063113004465926" lon="11.89240217944241"><ele>144.0</ele><time>2026-04-12T11:43:45Z</time></trkpt><trkpt lat="42.06323999014714" lon="11.892451127233672"><ele>144.0</ele><time>2026-04-12T11:43:46Z</time></trkpt><trkpt lat="42.063390877513804" lon="11.892515876346462"><ele>144.0</ele><time>2026-04-12T11:43:47Z</time></trkpt><trkpt lat="42.063494941466715" lon="11.89251998052956"><ele>145.25</ele><time>2026-04-12T11:43:48Z</time></trkpt><trkpt lat="42.06359724574884" lon="11.892503522501622"><ele>146.5</ele><time>2026-04-12T11:43:49Z</time></trkpt><trkpt lat="42.06372159804362" lon="11.892477005711589"><ele>147.75</ele><time>2026-04-12T11:43:50Z</time></trkpt><trkpt lat="42.06386401340144" lon="11.892475520947022"><ele>149.0</ele><time>2026-04-12T11:43:51Z</time></trkpt><trkpt lat="42.063995208456014" lon="11.892498856310405"><ele>149.0</ele><time>2026-04-12T11:43:52Z</time></trkpt><trkpt lat="42.06411277269752" lon="11.892533374622435"><ele>149.0</ele><time>2026-04-12T11:43:53Z</time></trkpt><trkpt lat="42.064220664989" lon="11.892591240481766"><ele>149.0</ele><time>2026-04-12T11:43:54Z</time></trkpt><trkpt lat="42.06433538601117" lon="11.892645617824693"><ele>149.0</ele><time>2026-04-12T11:43:55Z</time></trkpt><trkpt lat="42.06446365787339" lon="11.892722235907424"><ele>148.75</ele><time>2026-04-12T11:43:56Z</time></trkpt><trkpt lat="42.06459241590398" lon="11.892812684421434"><ele>148.5</ele><time>2026-04-12T11:43:57Z</time></trkpt><trkpt lat="42.064722489263474" lon="11.892888540678065"><ele>148.25</ele><time>2026-04-12T11:43:58Z</time></trkpt><trkpt lat="42.06484806868854" lon="11.892945219064035"><ele>148.0</ele><time>2026-04-12T11:43:59Z</time></trkpt><trkpt lat="42.06495610001577" lon="11.893007111840806"><ele>149.25</ele><time>2026-04-12T11:44:00Z</time></trkpt><trkpt lat="42.065072050902074" lon="11.893037285655328"><ele>150.5</ele><time>2026-04-12T11:44:01Z</time></trkpt><trkpt lat="42.065190546193904" lon="11.893071976826073"><ele>151.75</ele><time>2026-04-12T11:44:02Z</time></trkpt><trkpt lat="42.065308861370056" lon="11.893091948755867"><ele>153.0</ele><time>2026-04-12T11:44:03Z</time></trkpt><trkpt lat="42.0654347729033" lon="11.89312292201254"><ele>153.0</ele><time>2026-04-12T11:44:04Z</time></trkpt><trkpt lat="42.06555511164026" lon="11.893161022247448"><ele>153.0</ele><time>2026-04-12T11:44:05Z</time></trkpt><trkpt lat="42.065678499859885" lon="11.893196176367573"><ele>153.0</ele><time>2026-04-12T11:44:06Z</time></trkpt><trkpt lat="42.06580940549391" lon="11.893223880970826"><ele>153.0</ele><time>2026-04-12T11:44:07Z</time></trkpt><trkpt lat="42.0659371637914" lon="11.893241162535345"><ele>152.75</ele><time>2026-04-12T11:44:08Z</time></trkpt><trkpt lat="42.066056255046774" lon="11.893250765890444"><ele>152.5</ele><time>2026-04-12T11:44:09Z</time></trkpt><trkpt lat="42.066159772879146" lon="11.893267875015715"><ele>152.25</ele><time>2026-04-12T11:44:10Z</time></trkpt><trkpt lat="42.066275781202904" lon="11.89328925068343"><ele>152.0</ele><time>2026-04-12T11:44:11Z</time></trkpt><trkpt lat="42.066380569099586" lon="11.893247491207076"><ele>152.0</ele><time>2026-04-12T11:44:12Z</time></trkpt><trkpt lat="42.06648377426251" lon="11.893194588180965"><ele>152.0</ele><time>2026-04-12T11:44:13Z</time></trkpt><trkpt lat="42.06660492137871" lon="11.893127561255774"><ele>152.0</ele><time>2026-04-12T11:44:14Z</time></trkpt><trkpt lat="42.066734424089155" lon="11.893044848206225"><ele>152.0</ele><time>2026-04-12T11:44:15Z</time></trkpt><trkpt lat="42.06685982514656" lon="11.893017958964107"><ele>151.6</ele><time>2026-04-12T11:44:16Z</time></trkpt><trkpt lat="42.066961031963565" lon="11.892991976109434"><ele>151.2</ele><time>2026-04-12T11:44:17Z</time></trkpt><trkpt lat="42.06708145968822" lon="11.8930029581742"><ele>150.8</ele><time>2026-04-12T11:44:18Z</time></trkpt><trkpt lat="42.06718089881992" lon="11.893061275609998"><ele>150.4</ele><time>2026-04-12T11:44:19Z</time></trkpt><trkpt lat="42.067288393259275" lon="11.89310705583719"><ele>150.0</ele><time>2026-04-12T11:44:20Z</time></trkpt><trkpt lat="42.06742484469946" lon="11.893153356729826"><ele>150.5</ele><time>2026-04-12T11:44:21Z</time></trkpt><trkpt lat="42.06756635938198" lon="11.893209231534641"><ele>151.0</ele><time>2026-04-12T11:44:22Z</time></trkpt><trkpt lat="42.0676769356757" lon="11.893263460748326"><ele>151.5</ele><time>2026-04-12T11:44:23Z</time></trkpt><trkpt lat="42.06778715824829" lon="11.89332735149399"><ele>152.0</ele><time>2026-04-12T11:44:24Z</time></trkpt><trkpt lat="42.06787724165221" lon="11.893395272581634"><ele>150.79999999999998</ele><time>2026-04-12T11:44:25Z</time></trkpt><trkpt lat="42.06798445961445" lon="11.893448188238787"><ele>149.6</ele><time>2026-04-12T11:44:26Z</time></trkpt><trkpt lat="42.06808094503905" lon="11.893472434047945"><ele>148.39999999999998</ele><time>2026-04-12T11:44:27Z</time></trkpt><trkpt lat="42.068177839697505" lon="11.893485077562282"><ele>147.2</ele><time>2026-04-12T11:44:28Z</time></trkpt><trkpt lat="42.06827529400652" lon="11.893506973530478"><ele>146.0</ele><time>2026-04-12T11:44:29Z</time></trkpt><trkpt lat="42.06837105790618" lon="11.893529185637776"><ele>146.0</ele><time>2026-04-12T11:44:30Z</time></trkpt><trkpt lat="42.068455149958936" lon="11.893557651301355"><ele>146.0</ele><time>2026-04-12T11:44:31Z</time></trkpt><trkpt lat="42.068530370403614" lon="11.893606582255863"><ele>146.0</ele><time>2026-04-12T11:44:31.999Z</time></trkpt><trkpt lat="42.068622831085506" lon="11.893637441608615"><ele>146.0</ele><time>2026-04-12T11:44:32.999Z</time></trkpt><trkpt lat="42.06869583329909" lon="11.893673194329779"><ele>146.0</ele><time>2026-04-12T11:44:33.999Z</time></trkpt><trkpt lat="42.06877721009833" lon="11.893709936084516"><ele>146.0</ele><time>2026-04-12T11:44:34.999Z</time></trkpt><trkpt lat="42.06886609886286" lon="11.893743659532385"><ele>146.0</ele><time>2026-04-12T11:44:35.999Z</time></trkpt><trkpt lat="42.06896231163379" lon="11.893787125734276"><ele>146.0</ele><time>2026-04-12T11:44:36.999Z</time></trkpt><trkpt lat="42.06903181053225" lon="11.893827236504931"><ele>146.0</ele><time>2026-04-12T11:44:37.999Z</time></trkpt><trkpt lat="42.06911158161199" lon="11.893864563812613"><ele>146.0</ele><time>2026-04-12T11:44:38.999Z</time></trkpt><trkpt lat="42.06916095776092" lon="11.893927219026072"><ele>146.0</ele><time>2026-04-12T11:44:39.999Z</time></trkpt><trkpt lat="42.06922623965679" lon="11.89398091808947"><ele>146.0</ele><time>2026-04-12T11:44:40.999Z</time></trkpt><trkpt lat="42.069295523535054" lon="11.89403196247216"><ele>146.14285714285714</ele><time>2026-04-12T11:44:41.999Z</time></trkpt><trkpt lat="42.069368622085946" lon="11.894068334287747"><ele>146.28571428571428</ele><time>2026-04-12T11:44:42.999Z</time></trkpt><trkpt lat="42.06943591216962" lon="11.89408496580354"><ele>146.42857142857144</ele><time>2026-04-12T11:44:43.999Z</time></trkpt><trkpt lat="42.0694890394958" lon="11.894154328305369"><ele>146.57142857142856</ele><time>2026-04-12T11:44:44.999Z</time></trkpt><trkpt lat="42.069519714747415" lon="11.894244903909836"><ele>146.71428571428572</ele><time>2026-04-12T11:44:45.999Z</time></trkpt><trkpt lat="42.06952844666204" lon="11.894340361180028"><ele>146.85714285714286</ele><time>2026-04-12T11:44:46.999Z</time></trkpt><trkpt lat="42.06953015802634" lon="11.894432305690081"><ele>147.0</ele><time>2026-04-12T11:44:47.999Z</time></trkpt><trkpt lat="42.06956094705759" lon="11.89452950398265"><ele>145.5</ele><time>2026-04-12T11:44:48.999Z</time></trkpt><trkpt lat="42.06961636676463" lon="11.894607241824794"><ele>144.0</ele><time>2026-04-12T11:44:49.999Z</time></trkpt><trkpt lat="42.069653626294745" lon="11.894678662394124"><ele>142.5</ele><time>2026-04-12T11:44:50.999Z</time></trkpt><trkpt lat="42.06969148655212" lon="11.894768822974035"><ele>141.0</ele><time>2026-04-12T11:44:51.999Z</time></trkpt><trkpt lat="42.069723317289224" lon="11.894883190348041"><ele>139.5</ele><time>2026-04-12T11:44:52.999Z</time></trkpt><trkpt lat="42.06979260729667" lon="11.894994366949382"><ele>138.0</ele><time>2026-04-12T11:44:53.999Z</time></trkpt><trkpt lat="42.06986770025739" lon="11.895118561922125"><ele>138.66666666666666</ele><time>2026-04-12T11:44:54.999Z</time></trkpt><trkpt lat="42.06992232221053" lon="11.89521851303875"><ele>139.33333333333334</ele><time>2026-04-12T11:44:55.999Z</time></trkpt><trkpt lat="42.06997760990527" lon="11.895294698490583"><ele>140.0</ele><time>2026-04-12T11:44:56.999Z</time></trkpt><trkpt lat="42.07003237796079" lon="11.895384460045074"><ele>140.66666666666669</ele><time>2026-04-12T11:44:57.999Z</time></trkpt><trkpt lat="42.070070242614456" lon="11.895463975880055"><ele>141.33333333333334</ele><time>2026-04-12T11:44:58.999Z</time></trkpt><trkpt lat="42.07011014825023" lon="11.89554777775141"><ele>142.0</ele><time>2026-04-12T11:44:59.999Z</time></trkpt><trkpt lat="42.07008671627616" lon="11.895658834519214"><ele>142.0</ele><time>2026-04-12T11:45:00.999Z</time></trkpt><trkpt lat="42.07009527658045" lon="11.895848563941597"><ele>142.0</ele><time>2026-04-12T11:45:02.999Z</time></trkpt><trkpt lat="42.070088762410286" lon="11.895970422889741"><ele>142.0</ele><time>2026-04-12T11:45:03.999Z</time></trkpt><trkpt lat="42.07008086892372" lon="11.896096486845048"><ele>142.0</ele><time>2026-04-12T11:45:04.999Z</time></trkpt><trkpt lat="42.07007740622401" lon="11.896264778853665"><ele>141.79999999999998</ele><time>2026-04-12T11:45:05.999Z</time></trkpt><trkpt lat="42.07008028331772" lon="11.896443864595655"><ele>141.6</ele><time>2026-04-12T11:45:06.999Z</time></trkpt><trkpt lat="42.07007423251584" lon="11.896580157392354"><ele>141.39999999999998</ele><time>2026-04-12T11:45:07.999Z</time></trkpt><trkpt lat="42.07009675678117" lon="11.896685257395852"><ele>141.2</ele><time>2026-04-12T11:45:08.999Z</time></trkpt><trkpt lat="42.070117212982204" lon="11.8968012536665"><ele>141.0</ele><time>2026-04-12T11:45:09.999Z</time></trkpt><trkpt lat="42.07014983501008" lon="11.896907056808598"><ele>140.0</ele><time>2026-04-12T11:45:10.999Z</time></trkpt><trkpt lat="42.070185600356915" lon="11.89701516444593"><ele>139.0</ele><time>2026-04-12T11:45:11.999Z</time></trkpt><trkpt lat="42.070238945639105" lon="11.897123314998067"><ele>138.0</ele><time>2026-04-12T11:45:12.999Z</time></trkpt><trkpt lat="42.07028346844177" lon="11.89722755492615"><ele>137.0</ele><time>2026-04-12T11:45:13.999Z</time></trkpt><trkpt lat="42.070345634591824" lon="11.897304815313674"><ele>136.0</ele><time>2026-04-12T11:45:14.999Z</time></trkpt><trkpt lat="42.070413064106596" lon="11.897363817225635"><ele>135.0</ele><time>2026-04-12T11:45:15.999Z</time></trkpt><trkpt lat="42.07049800992076" lon="11.897415412767476"><ele>135.0</ele><time>2026-04-12T11:45:16.999Z</time></trkpt><trkpt lat="42.070569353715435" lon="11.897458608846406"><ele>135.0</ele><time>2026-04-12T11:45:17.999Z</time></trkpt><trkpt lat="42.07066648741344" lon="11.897481967401733"><ele>135.0</ele><time>2026-04-12T11:45:18.999Z</time></trkpt><trkpt lat="42.07078114128902" lon="11.89752054084416"><ele>135.0</ele><time>2026-04-12T11:45:19.999Z</time></trkpt><trkpt lat="42.07089014717942" lon="11.897561705583128"><ele>135.0</ele><time>2026-04-12T11:45:21Z</time></trkpt><trkpt lat="42.071009353579576" lon="11.897616622006808"><ele>135.2</ele><time>2026-04-12T11:45:22Z</time></trkpt><trkpt lat="42.071118594862526" lon="11.897649944624694"><ele>135.4</ele><time>2026-04-12T11:45:23Z</time></trkpt><trkpt lat="42.071225675539374" lon="11.89767416222927"><ele>135.6</ele><time>2026-04-12T11:45:24Z</time></trkpt><trkpt lat="42.071328097705944" lon="11.897742299645493"><ele>135.8</ele><time>2026-04-12T11:45:25Z</time></trkpt><trkpt lat="42.07142428835" lon="11.897809807454372"><ele>136.0</ele><time>2026-04-12T11:45:26Z</time></trkpt><trkpt lat="42.07151745540907" lon="11.897886250151835"><ele>137.0</ele><time>2026-04-12T11:45:27Z</time></trkpt><trkpt lat="42.071617937324206" lon="11.897968979367043"><ele>138.0</ele><time>2026-04-12T11:45:28Z</time></trkpt><trkpt lat="42.071698955902406" lon="11.89804372435776"><ele>139.0</ele><time>2026-04-12T11:45:29Z</time></trkpt><trkpt lat="42.071796172568575" lon="11.898116629857574"><ele>140.0</ele><time>2026-04-12T11:45:30Z</time></trkpt><trkpt lat="42.07189016341863" lon="11.898188112852457"><ele>141.0</ele><time>2026-04-12T11:45:31Z</time></trkpt><trkpt lat="42.07197504326797" lon="11.898264844132477"><ele>141.0</ele><time>2026-04-12T11:45:32Z</time></trkpt><trkpt lat="42.07206507723368" lon="11.8983238298379"><ele>141.0</ele><time>2026-04-12T11:45:33Z</time></trkpt><trkpt lat="42.07217364062359" lon="11.898355478177598"><ele>141.0</ele><time>2026-04-12T11:45:34Z</time></trkpt><trkpt lat="42.072265451293745" lon="11.898391057731121"><ele>141.0</ele><time>2026-04-12T11:45:35Z</time></trkpt><trkpt lat="42.072361888601655" lon="11.898410368088715"><ele>141.0</ele><time>2026-04-12T11:45:36Z</time></trkpt><trkpt lat="42.07248001383275" lon="11.898423852215611"><ele>141.0</ele><time>2026-04-12T11:45:37Z</time></trkpt><trkpt lat="42.07259372919403" lon="11.898459532689676"><ele>141.0</ele><time>2026-04-12T11:45:38Z</time></trkpt><trkpt lat="42.072917862764626" lon="11.898519913335408"><ele>141.0</ele><time>2026-04-12T11:45:41Z</time></trkpt><trkpt lat="42.0730187343745" lon="11.898527917449233"><ele>141.0</ele><time>2026-04-12T11:45:42Z</time></trkpt><trkpt lat="42.07311788314049" lon="11.898534261037163"><ele>141.0</ele><time>2026-04-12T11:45:43Z</time></trkpt><trkpt lat="42.07321520111532" lon="11.898558281963536"><ele>141.0</ele><time>2026-04-12T11:45:44Z</time></trkpt><trkpt lat="42.07329466665249" lon="11.898624741661486"><ele>141.0</ele><time>2026-04-12T11:45:45Z</time></trkpt><trkpt lat="42.073387067122425" lon="11.898786093636257"><ele>141.0</ele><time>2026-04-12T11:45:47Z</time></trkpt><trkpt lat="42.07345558068065" lon="11.898841988027854"><ele>143.8</ele><time>2026-04-12T11:45:48Z</time></trkpt><trkpt lat="42.073512793366014" lon="11.898892373846213"><ele>146.6</ele><time>2026-04-12T11:45:49Z</time></trkpt><trkpt lat="42.073587852973795" lon="11.898915080372099"><ele>149.4</ele><time>2026-04-12T11:45:50Z</time></trkpt><trkpt lat="42.07370053999622" lon="11.898919572470078"><ele>152.2</ele><time>2026-04-12T11:45:51Z</time></trkpt><trkpt lat="42.07381344056182" lon="11.898954245972144"><ele>155.0</ele><time>2026-04-12T11:45:52Z</time></trkpt><trkpt lat="42.073902828540724" lon="11.898970348553702"><ele>155.0</ele><time>2026-04-12T11:45:53Z</time></trkpt><trkpt lat="42.07407518161762" lon="11.898923312220793"><ele>155.0</ele><time>2026-04-12T11:45:55Z</time></trkpt><trkpt lat="42.07419083953231" lon="11.89889306273196"><ele>155.0</ele><time>2026-04-12T11:45:56Z</time></trkpt><trkpt lat="42.07429792441472" lon="11.898891917050667"><ele>155.0</ele><time>2026-04-12T11:45:57Z</time></trkpt><trkpt lat="42.0743930137974" lon="11.898873215878593"><ele>156.4</ele><time>2026-04-12T11:45:58Z</time></trkpt><trkpt lat="42.07448456808507" lon="11.898829260397711"><ele>157.8</ele><time>2026-04-12T11:45:59Z</time></trkpt><trkpt lat="42.07457818663327" lon="11.898792857176584"><ele>159.2</ele><time>2026-04-12T11:46:00Z</time></trkpt><trkpt lat="42.074678879710355" lon="11.89873582034981"><ele>160.6</ele><time>2026-04-12T11:46:01Z</time></trkpt><trkpt lat="42.07478484458411" lon="11.8986711180192"><ele>162.0</ele><time>2026-04-12T11:46:02Z</time></trkpt><trkpt lat="42.07489871554838" lon="11.898612775210367"><ele>161.25</ele><time>2026-04-12T11:46:03Z</time></trkpt><trkpt lat="42.074997913653554" lon="11.898567284510081"><ele>160.5</ele><time>2026-04-12T11:46:04Z</time></trkpt><trkpt lat="42.07522315351885" lon="11.898552712899807"><ele>159.75</ele><time>2026-04-12T11:46:06Z</time></trkpt><trkpt lat="42.0753273231432" lon="11.89849776588954"><ele>159.0</ele><time>2026-04-12T11:46:07Z</time></trkpt><trkpt lat="42.07544452201114" lon="11.89846253855401"><ele>161.0</ele><time>2026-04-12T11:46:08Z</time></trkpt><trkpt lat="42.075531674560786" lon="11.89838743245711"><ele>163.0</ele><time>2026-04-12T11:46:09Z</time></trkpt><trkpt lat="42.07561048128738" lon="11.89831552062467"><ele>165.0</ele><time>2026-04-12T11:46:10Z</time></trkpt><trkpt lat="42.075725996999" lon="11.898258784053423"><ele>167.0</ele><time>2026-04-12T11:46:12Z</time></trkpt><trkpt lat="42.07580201013481" lon="11.898251387849482"><ele>169.0</ele><time>2026-04-12T11:46:13Z</time></trkpt><trkpt lat="42.07590021574794" lon="11.898233971210685"><ele>169.0</ele><time>2026-04-12T11:46:14Z</time></trkpt><trkpt lat="42.07600281610936" lon="11.898210805933994"><ele>169.0</ele><time>2026-04-12T11:46:15Z</time></trkpt><trkpt lat="42.07609536502315" lon="11.898174365106179"><ele>169.0</ele><time>2026-04-12T11:46:16Z</time></trkpt><trkpt lat="42.07619562054562" lon="11.898109369967283"><ele>169.0</ele><time>2026-04-12T11:46:17Z</time></trkpt><trkpt lat="42.076269508246796" lon="11.898041046161358"><ele>169.0</ele><time>2026-04-12T11:46:18Z</time></trkpt><trkpt lat="42.07636571161641" lon="11.897915786930627"><ele>169.0</ele><time>2026-04-12T11:46:19Z</time></trkpt><trkpt lat="42.076451218390176" lon="11.897843486297132"><ele>169.0</ele><time>2026-04-12T11:46:20Z</time></trkpt><trkpt lat="42.07653793324654" lon="11.8977626376813"><ele>169.0</ele><time>2026-04-12T11:46:21Z</time></trkpt><trkpt lat="42.07664866292888" lon="11.897718111826807"><ele>169.0</ele><time>2026-04-12T11:46:22Z</time></trkpt><trkpt lat="42.07673505314582" lon="11.897636387336979"><ele>169.0</ele><time>2026-04-12T11:46:23Z</time></trkpt><trkpt lat="42.07678521855869" lon="11.897551821883816"><ele>170.39999999999998</ele><time>2026-04-12T11:46:24Z</time></trkpt><trkpt lat="42.07685096010112" lon="11.897457188927673"><ele>171.8</ele><time>2026-04-12T11:46:25Z</time></trkpt><trkpt lat="42.0769240506095" lon="11.897382107217975"><ele>173.2</ele><time>2026-04-12T11:46:26Z</time></trkpt><trkpt lat="42.07702342774709" lon="11.897311370130504"><ele>174.60000000000002</ele><time>2026-04-12T11:46:27Z</time></trkpt><trkpt lat="42.07714001100896" lon="11.89724066190379"><ele>176.0</ele><time>2026-04-12T11:46:28Z</time></trkpt><trkpt lat="42.07724156848802" lon="11.897184404893306"><ele>176.0</ele><time>2026-04-12T11:46:29Z</time></trkpt><trkpt lat="42.07733779758269" lon="11.897150414465754"><ele>176.0</ele><time>2026-04-12T11:46:30Z</time></trkpt><trkpt lat="42.077432928764246" lon="11.89714795577064"><ele>176.0</ele><time>2026-04-12T11:46:31Z</time></trkpt><trkpt lat="42.07751421699666" lon="11.897176738571138"><ele>176.0</ele><time>2026-04-12T11:46:32Z</time></trkpt><trkpt lat="42.07759285880021" lon="11.89723054547165"><ele>176.0</ele><time>2026-04-12T11:46:33Z</time></trkpt><trkpt lat="42.07764712988281" lon="11.897278401466432"><ele>176.0</ele><time>2026-04-12T11:46:34Z</time></trkpt><trkpt lat="42.07769530525622" lon="11.89734837889857"><ele>174.60000000000002</ele><time>2026-04-12T11:46:34.999Z</time></trkpt><trkpt lat="42.077743752264" lon="11.897430237910338"><ele>173.2</ele><time>2026-04-12T11:46:37.999Z</time></trkpt><trkpt lat="42.077800119709366" lon="11.897499724120365"><ele>171.8</ele><time>2026-04-12T11:46:46.999Z</time></trkpt><trkpt lat="42.0777905813061" lon="11.897583960976444"><ele>170.39999999999998</ele><time>2026-04-12T11:46:51.999Z</time></trkpt><trkpt lat="42.077897341856065" lon="11.89777462501824"><ele>169.0</ele><time>2026-04-12T11:48:53.999Z</time></trkpt><trkpt lat="42.07796871789537" lon="11.897910265370781"><ele>169.0</ele><time>2026-04-12T11:48:55.999Z</time></trkpt><trkpt lat="42.07801236723649" lon="11.89797849940822"><ele>169.0</ele><time>2026-04-12T11:48:56.999Z</time></trkpt><trkpt lat="42.078115629598564" lon="11.898057650992287"><ele>169.0</ele><time>2026-04-12T11:48:58.999Z</time></trkpt><trkpt lat="42.0781918043138" lon="11.898036879431347"><ele>169.0</ele><time>2026-04-12T11:48:59.999Z</time></trkpt><trkpt lat="42.07826373603487" lon="11.898010326442746"><ele>169.0</ele><time>2026-04-12T11:49:00.999Z</time></trkpt><trkpt lat="42.07838416454629" lon="11.897971965163212"><ele>170.66666666666669</ele><time>2026-04-12T11:49:01.999Z</time></trkpt><trkpt lat="42.078486229105536" lon="11.897939923917916"><ele>172.33333333333334</ele><time>2026-04-12T11:49:02.999Z</time></trkpt><trkpt lat="42.07854994741942" lon="11.897926696947334"><ele>174.0</ele><time>2026-04-12T11:49:03.999Z</time></trkpt><trkpt lat="42.07863189658468" lon="11.897940745251281"><ele>175.66666666666666</ele><time>2026-04-12T11:49:04.999Z</time></trkpt><trkpt lat="42.07870543968497" lon="11.897980947345596"><ele>177.33333333333331</ele><time>2026-04-12T11:49:05.999Z</time></trkpt><trkpt lat="42.07876121005023" lon="11.898044456558369"><ele>179.0</ele><time>2026-04-12T11:49:06.999Z</time></trkpt><trkpt lat="42.07880755991079" lon="11.898135207229178"><ele>179.0</ele><time>2026-04-12T11:49:07.999Z</time></trkpt><trkpt lat="42.0788623971161" lon="11.898218641250159"><ele>179.0</ele><time>2026-04-12T11:49:08.999Z</time></trkpt><trkpt lat="42.07889988269922" lon="11.898327228032635"><ele>179.0</ele><time>2026-04-12T11:49:09.999Z</time></trkpt><trkpt lat="42.07894477426812" lon="11.898410197433288"><ele>179.0</ele><time>2026-04-12T11:49:10.999Z</time></trkpt><trkpt lat="42.078983349244034" lon="11.89850486417841"><ele>179.0</ele><time>2026-04-12T11:49:11.999Z</time></trkpt><trkpt lat="42.07901548563255" lon="11.898618718341782"><ele>179.0</ele><time>2026-04-12T11:49:12.999Z</time></trkpt><trkpt lat="42.07905564751953" lon="11.89871841515204"><ele>181.75</ele><time>2026-04-12T11:49:13.999Z</time></trkpt><trkpt lat="42.07910465343651" lon="11.898830960326853"><ele>184.5</ele><time>2026-04-12T11:49:14.999Z</time></trkpt><trkpt lat="42.079185727394595" lon="11.898979159901698"><ele>187.25</ele><time>2026-04-12T11:49:15.999Z</time></trkpt><trkpt lat="42.07926471490069" lon="11.899134741947048"><ele>190.0</ele><time>2026-04-12T11:49:16.999Z</time></trkpt><trkpt lat="42.07931815436343" lon="11.899246932493229"><ele>190.2</ele><time>2026-04-12T11:49:17.999Z</time></trkpt><trkpt lat="42.07937136188685" lon="11.899326909336988"><ele>190.4</ele><time>2026-04-12T11:49:18.999Z</time></trkpt><trkpt lat="42.0794352626948" lon="11.899399526987114"><ele>190.60000000000002</ele><time>2026-04-12T11:49:19.999Z</time></trkpt><trkpt lat="42.079544213910786" lon="11.899441422191543"><ele>190.8</ele><time>2026-04-12T11:49:21.999Z</time></trkpt><trkpt lat="42.07970342043459" lon="11.899367480587879"><ele>191.0</ele><time>2026-04-12T11:49:23.999Z</time></trkpt><trkpt lat="42.07976850034909" lon="11.899295663550461"><ele>190.8</ele><time>2026-04-12T11:49:24.999Z</time></trkpt><trkpt lat="42.079837240958284" lon="11.89919093175353"><ele>190.60000000000002</ele><time>2026-04-12T11:49:25.999Z</time></trkpt><trkpt lat="42.079905780134524" lon="11.899086016526345"><ele>190.4</ele><time>2026-04-12T11:49:26.999Z</time></trkpt><trkpt lat="42.07998738655546" lon="11.89897286112668"><ele>190.2</ele><time>2026-04-12T11:49:27.999Z</time></trkpt><trkpt lat="42.08007130665703" lon="11.898868335767483"><ele>190.0</ele><time>2026-04-12T11:49:28.999Z</time></trkpt><trkpt lat="42.08015594887784" lon="11.89876482611092"><ele>192.8</ele><time>2026-04-12T11:49:29.999Z</time></trkpt><trkpt lat="42.08023728799168" lon="11.89865224892204"><ele>195.6</ele><time>2026-04-12T11:49:30.999Z</time></trkpt><trkpt lat="42.08033689420475" lon="11.89857625535008"><ele>198.39999999999998</ele><time>2026-04-12T11:49:31.999Z</time></trkpt><trkpt lat="42.080405500266515" lon="11.898505252775674"><ele>201.2</ele><time>2026-04-12T11:49:33Z</time></trkpt><trkpt lat="42.08048866370516" lon="11.898469306167184"><ele>204.0</ele><time>2026-04-12T11:49:34Z</time></trkpt><trkpt lat="42.0805587005982" lon="11.898439241500144"><ele>204.0</ele><time>2026-04-12T11:49:35Z</time></trkpt><trkpt lat="42.08061928267652" lon="11.898408220373685"><ele>204.0</ele><time>2026-04-12T11:49:36Z</time></trkpt><trkpt lat="42.08067443487441" lon="11.898496290534817"><ele>204.0</ele><time>2026-04-12T11:49:37Z</time></trkpt><trkpt lat="42.080747926539736" lon="11.898539321894278"><ele>204.0</ele><time>2026-04-12T11:49:38Z</time></trkpt><trkpt lat="42.08079658823716" lon="11.898617004935458"><ele>204.0</ele><time>2026-04-12T11:49:39Z</time></trkpt><trkpt lat="42.0808338118026" lon="11.898711926732426"><ele>204.0</ele><time>2026-04-12T11:49:40Z</time></trkpt><trkpt lat="42.08088743402216" lon="11.898809632374656"><ele>206.39999999999998</ele><time>2026-04-12T11:49:41Z</time></trkpt><trkpt lat="42.080932041478945" lon="11.898934894004935"><ele>208.8</ele><time>2026-04-12T11:49:42Z</time></trkpt><trkpt lat="42.08096630545342" lon="11.89904811107158"><ele>211.20000000000002</ele><time>2026-04-12T11:49:43Z</time></trkpt><trkpt lat="42.08100780281564" lon="11.899163510194596"><ele>213.60000000000002</ele><time>2026-04-12T11:49:44Z</time></trkpt><trkpt lat="42.08105682403053" lon="11.899284996998384"><ele>216.0</ele><time>2026-04-12T11:49:45Z</time></trkpt><trkpt lat="42.081109455433634" lon="11.899398789366389"><ele>216.60000000000002</ele><time>2026-04-12T11:49:46Z</time></trkpt><trkpt lat="42.08116036932792" lon="11.899489663007486"><ele>217.20000000000002</ele><time>2026-04-12T11:49:47Z</time></trkpt><trkpt lat="42.081217503216585" lon="11.89956178740834"><ele>217.79999999999998</ele><time>2026-04-12T11:49:48Z</time></trkpt><trkpt lat="42.0813003265455" lon="11.899626186248009"><ele>218.39999999999998</ele><time>2026-04-12T11:49:49Z</time></trkpt><trkpt lat="42.08139528991396" lon="11.899678863130104"><ele>219.0</ele><time>2026-04-12T11:49:50Z</time></trkpt><trkpt lat="42.08150137219004" lon="11.899733747306415"><ele>221.2</ele><time>2026-04-12T11:49:51Z</time></trkpt><trkpt lat="42.08163519301115" lon="11.899794555609395"><ele>223.39999999999998</ele><time>2026-04-12T11:49:52Z</time></trkpt><trkpt lat="42.081716384357335" lon="11.89985382938503"><ele>225.6</ele><time>2026-04-12T11:49:53Z</time></trkpt><trkpt lat="42.081774284265286" lon="11.899888489529715"><ele>227.8</ele><time>2026-04-12T11:49:54Z</time></trkpt><trkpt lat="42.0818312360691" lon="11.899934256824753"><ele>230.0</ele><time>2026-04-12T11:49:55Z</time></trkpt><trkpt lat="42.081845174478964" lon="11.900081752494163"><ele>231.2</ele><time>2026-04-12T11:49:57Z</time></trkpt><trkpt lat="42.081717497127975" lon="11.90021258622944"><ele>232.4</ele><time>2026-04-12T11:49:58Z</time></trkpt><trkpt lat="42.081692135452194" lon="11.900336688642989"><ele>233.60000000000002</ele><time>2026-04-12T11:49:59Z</time></trkpt><trkpt lat="42.08168604715193" lon="11.900439373927604"><ele>234.8</ele><time>2026-04-12T11:50:00Z</time></trkpt><trkpt lat="42.081681024537986" lon="11.900570171118924"><ele>236.0</ele><time>2026-04-12T11:50:01Z</time></trkpt><trkpt lat="42.08166297779036" lon="11.900714527276632"><ele>236.0</ele><time>2026-04-12T11:50:02Z</time></trkpt><trkpt lat="42.081684225883755" lon="11.900843178366559"><ele>236.00000000000003</ele><time>2026-04-12T11:50:03Z</time></trkpt><trkpt lat="42.08166767127048" lon="11.901021132475048"><ele>236.00000000000003</ele><time>2026-04-12T11:50:04Z</time></trkpt><trkpt lat="42.081663308386645" lon="11.901163010110215"><ele>236.0</ele><time>2026-04-12T11:50:05Z</time></trkpt><trkpt lat="42.08167258500137" lon="11.9012778837175"><ele>236.0</ele><time>2026-04-12T11:50:06Z</time></trkpt><trkpt lat="42.08168833363873" lon="11.901401592707977"><ele>236.20000000000002</ele><time>2026-04-12T11:50:07Z</time></trkpt><trkpt lat="42.08171839904518" lon="11.901492562848624"><ele>236.40000000000003</ele><time>2026-04-12T11:50:08Z</time></trkpt><trkpt lat="42.081766645368226" lon="11.901595394759026"><ele>236.6</ele><time>2026-04-12T11:50:09Z</time></trkpt><trkpt lat="42.08182448374934" lon="11.901698121312776"><ele>236.8</ele><time>2026-04-12T11:50:10Z</time></trkpt><trkpt lat="42.081910799893706" lon="11.901790542034359"><ele>237.0</ele><time>2026-04-12T11:50:11Z</time></trkpt><trkpt lat="42.0819798245035" lon="11.901866890277594"><ele>236.2</ele><time>2026-04-12T11:50:12Z</time></trkpt><trkpt lat="42.0820681443165" lon="11.901929184773929"><ele>235.39999999999998</ele><time>2026-04-12T11:50:13Z</time></trkpt><trkpt lat="42.08215201847013" lon="11.901984647641546"><ele>234.60000000000002</ele><time>2026-04-12T11:50:14Z</time></trkpt><trkpt lat="42.082239363746275" lon="11.902051092056032"><ele>233.8</ele><time>2026-04-12T11:50:15Z</time></trkpt><trkpt lat="42.082319645429145" lon="11.902139160551458"><ele>233.0</ele><time>2026-04-12T11:50:16Z</time></trkpt><trkpt lat="42.08239557621451" lon="11.902249031222487"><ele>235.50000000000003</ele><time>2026-04-12T11:50:17Z</time></trkpt><trkpt lat="42.08245545792109" lon="11.902348446222918"><ele>238.0</ele><time>2026-04-12T11:50:18Z</time></trkpt><trkpt lat="42.082515304688286" lon="11.90244714494255"><ele>240.5</ele><time>2026-04-12T11:50:19Z</time></trkpt><trkpt lat="42.08256024079831" lon="11.902538238312296"><ele>243.0</ele><time>2026-04-12T11:50:20Z</time></trkpt><trkpt lat="42.082586761115" lon="11.90263366581541"><ele>245.50000000000003</ele><time>2026-04-12T11:50:21Z</time></trkpt><trkpt lat="42.082612950065545" lon="11.902715020100311"><ele>248.0</ele><time>2026-04-12T11:50:22Z</time></trkpt><trkpt lat="42.08268291940384" lon="11.902844200241008"><ele>248.0</ele><time>2026-04-12T11:50:24Z</time></trkpt><trkpt lat="42.08271755643331" lon="11.902925147559296"><ele>248.0</ele><time>2026-04-12T11:50:25Z</time></trkpt><trkpt lat="42.08286328235556" lon="11.90298150244144"><ele>248.0</ele><time>2026-04-12T11:50:27Z</time></trkpt><trkpt lat="42.08297870260443" lon="11.902955630828146"><ele>248.0</ele><time>2026-04-12T11:50:29Z</time></trkpt><trkpt lat="42.08302460396479" lon="11.902879413765387"><ele>248.0</ele><time>2026-04-12T11:50:30Z</time></trkpt><trkpt lat="42.08305971450721" lon="11.902788562159179"><ele>248.0</ele><time>2026-04-12T11:50:31Z</time></trkpt><trkpt lat="42.08309474347192" lon="11.902696497788646"><ele>248.0</ele><time>2026-04-12T11:50:32Z</time></trkpt><trkpt lat="42.08313625094954" lon="11.902558450865696"><ele>248.0</ele><time>2026-04-12T11:50:33Z</time></trkpt><trkpt lat="42.08317363203953" lon="11.902390953495967"><ele>248.0</ele><time>2026-04-12T11:50:34Z</time></trkpt><trkpt lat="42.083202185412034" lon="11.902210130790001"><ele>249.0</ele><time>2026-04-12T11:50:35Z</time></trkpt><trkpt lat="42.083228385152324" lon="11.902044852335264"><ele>250.0</ele><time>2026-04-12T11:50:36Z</time></trkpt><trkpt lat="42.08325011809159" lon="11.90186460885532"><ele>251.0</ele><time>2026-04-12T11:50:37Z</time></trkpt><trkpt lat="42.08327403792103" lon="11.901719639350645"><ele>252.0</ele><time>2026-04-12T11:50:38Z</time></trkpt><trkpt lat="42.083292687176275" lon="11.901589990751416"><ele>256.2</ele><time>2026-04-12T11:50:38.999Z</time></trkpt><trkpt lat="42.08333381521918" lon="11.901460545077468"><ele>260.4</ele><time>2026-04-12T11:50:39.999Z</time></trkpt><trkpt lat="42.08338039809146" lon="11.90133563869262"><ele>264.6</ele><time>2026-04-12T11:50:40.999Z</time></trkpt><trkpt lat="42.08344234798612" lon="11.901225402879938"><ele>268.8</ele><time>2026-04-12T11:50:41.999Z</time></trkpt><trkpt lat="42.08349728278802" lon="11.901130565730348"><ele>273.0</ele><time>2026-04-12T11:50:42.999Z</time></trkpt><trkpt lat="42.08356073495508" lon="11.901035321345933"><ele>273.0</ele><time>2026-04-12T11:50:43.999Z</time></trkpt><trkpt lat="42.083637633748396" lon="11.900960585829587"><ele>273.0</ele><time>2026-04-12T11:50:44.999Z</time></trkpt><trkpt lat="42.08371657139611" lon="11.90089895797558"><ele>273.0</ele><time>2026-04-12T11:50:45.999Z</time></trkpt><trkpt lat="42.08378865186851" lon="11.900836255576651"><ele>273.0</ele><time>2026-04-12T11:50:46.999Z</time></trkpt><trkpt lat="42.08388099606011" lon="11.900799289198401"><ele>273.0</ele><time>2026-04-12T11:50:47.999Z</time></trkpt><trkpt lat="42.08397824387344" lon="11.900746903552887"><ele>272.3333333333333</ele><time>2026-04-12T11:50:48.999Z</time></trkpt><trkpt lat="42.0840494602756" lon="11.900686637009864"><ele>271.6666666666667</ele><time>2026-04-12T11:50:49.999Z</time></trkpt><trkpt lat="42.08411632559431" lon="11.900693122439822"><ele>271.0</ele><time>2026-04-12T11:50:50.999Z</time></trkpt><trkpt lat="42.08418121411914" lon="11.900711848837465"><ele>270.33333333333337</ele><time>2026-04-12T11:50:51.999Z</time></trkpt><trkpt lat="42.08425642907301" lon="11.900743171662434"><ele>269.6666666666667</ele><time>2026-04-12T11:50:52.999Z</time></trkpt><trkpt lat="42.08432449589335" lon="11.900809658757808"><ele>269.0</ele><time>2026-04-12T11:50:53.999Z</time></trkpt><trkpt lat="42.08437922042004" lon="11.900906599986039"><ele>273.59999999999997</ele><time>2026-04-12T11:50:54.999Z</time></trkpt><trkpt lat="42.08444363143255" lon="11.900982057514867"><ele>278.2</ele><time>2026-04-12T11:50:55.999Z</time></trkpt><trkpt lat="42.08445465504629" lon="11.901074773133224"><ele>282.79999999999995</ele><time>2026-04-12T11:50:56.999Z</time></trkpt><trkpt lat="42.08445028949925" lon="11.901217305720925"><ele>287.4</ele><time>2026-04-12T11:50:57.999Z</time></trkpt><trkpt lat="42.08451044732871" lon="11.901382234171171"><ele>292.0</ele><time>2026-04-12T11:50:58.999Z</time></trkpt><trkpt lat="42.084572415284384" lon="11.901459814196938"><ele>292.0</ele><time>2026-04-12T11:50:59.999Z</time></trkpt><trkpt lat="42.08463955420021" lon="11.901508189232807"><ele>292.0</ele><time>2026-04-12T11:51:00.999Z</time></trkpt><trkpt lat="42.08471554391605" lon="11.901539072106283"><ele>292.0</ele><time>2026-04-12T11:51:01.999Z</time></trkpt><trkpt lat="42.084808353787885" lon="11.90156115674827"><ele>292.0</ele><time>2026-04-12T11:51:02.999Z</time></trkpt><trkpt lat="42.08491990645133" lon="11.901543847619717"><ele>292.0</ele><time>2026-04-12T11:51:03.999Z</time></trkpt><trkpt lat="42.08501059076099" lon="11.90152554024344"><ele>292.8</ele><time>2026-04-12T11:51:04.999Z</time></trkpt><trkpt lat="42.08512456790379" lon="11.901492201122627"><ele>293.6</ele><time>2026-04-12T11:51:05.999Z</time></trkpt><trkpt lat="42.08522009915068" lon="11.901455601166116"><ele>294.40000000000003</ele><time>2026-04-12T11:51:06.999Z</time></trkpt><trkpt lat="42.085301375014595" lon="11.901416766272556"><ele>295.2</ele><time>2026-04-12T11:51:07.999Z</time></trkpt><trkpt lat="42.085397353442524" lon="11.901365162157308"><ele>296.0</ele><time>2026-04-12T11:51:08.999Z</time></trkpt><trkpt lat="42.085518151773876" lon="11.901317003653148"><ele>296.0</ele><time>2026-04-12T11:51:09.999Z</time></trkpt><trkpt lat="42.08563745764599" lon="11.901261488768665"><ele>296.0</ele><time>2026-04-12T11:51:10.999Z</time></trkpt><trkpt lat="42.08575625435131" lon="11.901213731905534"><ele>296.0</ele><time>2026-04-12T11:51:11.999Z</time></trkpt><trkpt lat="42.08585429439004" lon="11.901190261894401"><ele>296.0</ele><time>2026-04-12T11:51:12.999Z</time></trkpt><trkpt lat="42.08594988161962" lon="11.901171976648978"><ele>296.0</ele><time>2026-04-12T11:51:13.999Z</time></trkpt><trkpt lat="42.086044745505646" lon="11.901190450340795"><ele>297.5</ele><time>2026-04-12T11:51:14.999Z</time></trkpt><trkpt lat="42.08615343954771" lon="11.901273411181311"><ele>299.0</ele><time>2026-04-12T11:51:15.999Z</time></trkpt><trkpt lat="42.08626075153946" lon="11.901373713739165"><ele>300.5</ele><time>2026-04-12T11:51:16.999Z</time></trkpt><trkpt lat="42.08636886419779" lon="11.901484073992489"><ele>302.0</ele><time>2026-04-12T11:51:17.999Z</time></trkpt><trkpt lat="42.08648757133085" lon="11.901615082793628"><ele>302.0</ele><time>2026-04-12T11:51:18.999Z</time></trkpt><trkpt lat="42.08657998393099" lon="11.901724847598848"><ele>302.0</ele><time>2026-04-12T11:51:19.999Z</time></trkpt><trkpt lat="42.08667857038032" lon="11.901822010804661"><ele>302.0</ele><time>2026-04-12T11:51:20.999Z</time></trkpt><trkpt lat="42.08677495316518" lon="11.901922711267614"><ele>302.0</ele><time>2026-04-12T11:51:21.999Z</time></trkpt><trkpt lat="42.08687234062555" lon="11.90198049546475"><ele>301.6</ele><time>2026-04-12T11:51:22.999Z</time></trkpt><trkpt lat="42.08697136889448" lon="11.902028480135723"><ele>301.2</ele><time>2026-04-12T11:51:23.999Z</time></trkpt><trkpt lat="42.0870655692682" lon="11.902047076483083"><ele>300.8</ele><time>2026-04-12T11:51:24.999Z</time></trkpt><trkpt lat="42.08716588550714" lon="11.902041130491007"><ele>300.4</ele><time>2026-04-12T11:51:25.999Z</time></trkpt><trkpt lat="42.08727598010282" lon="11.902037854115498"><ele>300.0</ele><time>2026-04-12T11:51:26.999Z</time></trkpt><trkpt lat="42.087410390735805" lon="11.902041431724983"><ele>300.6666666666667</ele><time>2026-04-12T11:51:27.999Z</time></trkpt><trkpt lat="42.08751391618419" lon="11.902038523628617"><ele>301.3333333333333</ele><time>2026-04-12T11:51:28.999Z</time></trkpt><trkpt lat="42.08761366179113" lon="11.902034359316957"><ele>302.0</ele><time>2026-04-12T11:51:29.999Z</time></trkpt><trkpt lat="42.08769206676607" lon="11.90208322429478"><ele>302.66666666666663</ele><time>2026-04-12T11:51:30.999Z</time></trkpt><trkpt lat="42.08776465459287" lon="11.902130667595873"><ele>303.3333333333333</ele><time>2026-04-12T11:51:31.999Z</time></trkpt><trkpt lat="42.087829512868964" lon="11.902182583552745"><ele>304.0</ele><time>2026-04-12T11:51:32.999Z</time></trkpt><trkpt lat="42.087915809349795" lon="11.902263063752923"><ele>304.0</ele><time>2026-04-12T11:51:33.999Z</time></trkpt><trkpt lat="42.08800901508299" lon="11.90235362569614"><ele>304.0</ele><time>2026-04-12T11:51:34.999Z</time></trkpt><trkpt lat="42.088098249373594" lon="11.90246039361298"><ele>304.0</ele><time>2026-04-12T11:51:35.999Z</time></trkpt><trkpt lat="42.08820371559009" lon="11.902563115025602"><ele>304.0</ele><time>2026-04-12T11:51:36.999Z</time></trkpt><trkpt lat="42.088311525828836" lon="11.902680105910663"><ele>304.25</ele><time>2026-04-12T11:51:37.999Z</time></trkpt><trkpt lat="42.08844968733137" lon="11.902791285170125"><ele>304.5</ele><time>2026-04-12T11:51:39Z</time></trkpt><trkpt lat="42.08856071303799" lon="11.902907589026405"><ele>304.75</ele><time>2026-04-12T11:51:40Z</time></trkpt><trkpt lat="42.08867459800161" lon="11.902999575686081"><ele>305.0</ele><time>2026-04-12T11:51:41Z</time></trkpt><trkpt lat="42.08878069312289" lon="11.90306891605736"><ele>305.0</ele><time>2026-04-12T11:51:42Z</time></trkpt><trkpt lat="42.088877983587444" lon="11.903124413136076"><ele>305.0</ele><time>2026-04-12T11:51:43Z</time></trkpt><trkpt lat="42.08897459634249" lon="11.903185589521932"><ele>305.0</ele><time>2026-04-12T11:51:44Z</time></trkpt><trkpt lat="42.08907869836984" lon="11.90321847195567"><ele>305.0</ele><time>2026-04-12T11:51:45Z</time></trkpt><trkpt lat="42.08919447653617" lon="11.903243431622938"><ele>305.0</ele><time>2026-04-12T11:51:46Z</time></trkpt><trkpt lat="42.08931218990826" lon="11.903263855774895"><ele>307.25</ele><time>2026-04-12T11:51:47Z</time></trkpt><trkpt lat="42.08943037964111" lon="11.903252264800955"><ele>309.5</ele><time>2026-04-12T11:51:48Z</time></trkpt><trkpt lat="42.08953580280954" lon="11.90322229666399"><ele>311.75</ele><time>2026-04-12T11:51:49Z</time></trkpt><trkpt lat="42.08963734453612" lon="11.90316849866158"><ele>314.0</ele><time>2026-04-12T11:51:50Z</time></trkpt><trkpt lat="42.08976052071705" lon="11.903116505441574"><ele>314.0</ele><time>2026-04-12T11:51:51Z</time></trkpt><trkpt lat="42.08987141841898" lon="11.903071998141623"><ele>314.0</ele><time>2026-04-12T11:51:52Z</time></trkpt><trkpt lat="42.089977047387904" lon="11.903057103816755"><ele>314.0</ele><time>2026-04-12T11:51:53Z</time></trkpt><trkpt lat="42.09008951713115" lon="11.903075493944703"><ele>314.0</ele><time>2026-04-12T11:51:54Z</time></trkpt><trkpt lat="42.090221589536" lon="11.903115955420846"><ele>313.5</ele><time>2026-04-12T11:51:55Z</time></trkpt><trkpt lat="42.09032906759227" lon="11.903151472824087"><ele>313.0</ele><time>2026-04-12T11:51:56Z</time></trkpt><trkpt lat="42.090460837943226" lon="11.903198935340367"><ele>312.5</ele><time>2026-04-12T11:51:57Z</time></trkpt><trkpt lat="42.09060383803952" lon="11.903250802914078"><ele>312.0</ele><time>2026-04-12T11:51:58Z</time></trkpt><trkpt lat="42.09075369896544" lon="11.90330653013723"><ele>312.75</ele><time>2026-04-12T11:51:59Z</time></trkpt><trkpt lat="42.09092412465859" lon="11.903375031476667"><ele>313.5</ele><time>2026-04-12T11:52:00Z</time></trkpt><trkpt lat="42.09105120030424" lon="11.903422402371229"><ele>314.25</ele><time>2026-04-12T11:52:01Z</time></trkpt><trkpt lat="42.09115853838642" lon="11.903475764163746"><ele>315.0</ele><time>2026-04-12T11:52:02Z</time></trkpt><trkpt lat="42.09125931020679" lon="11.903547667479637"><ele>312.25</ele><time>2026-04-12T11:52:03Z</time></trkpt><trkpt lat="42.09134829009769" lon="11.903624583973881"><ele>309.5</ele><time>2026-04-12T11:52:04Z</time></trkpt><trkpt lat="42.09141757385911" lon="11.90376651302225"><ele>306.75</ele><time>2026-04-12T11:52:05Z</time></trkpt><trkpt lat="42.09150799122407" lon="11.903890782294875"><ele>304.0</ele><time>2026-04-12T11:52:06Z</time></trkpt><trkpt lat="42.09158171810263" lon="11.903987298678143"><ele>303.75</ele><time>2026-04-12T11:52:07Z</time></trkpt><trkpt lat="42.09165466736618" lon="11.904097871561461"><ele>303.5</ele><time>2026-04-12T11:52:08Z</time></trkpt><trkpt lat="42.09176565474513" lon="11.904251198238041"><ele>303.25</ele><time>2026-04-12T11:52:09Z</time></trkpt><trkpt lat="42.09185557312385" lon="11.90437816115202"><ele>303.0</ele><time>2026-04-12T11:52:10Z</time></trkpt><trkpt lat="42.091955830091756" lon="11.90449920447602"><ele>303.0</ele><time>2026-04-12T11:52:11Z</time></trkpt><trkpt lat="42.092046777988564" lon="11.90461189875195"><ele>303.0</ele><time>2026-04-12T11:52:12Z</time></trkpt><trkpt lat="42.09214086781728" lon="11.904745023366532"><ele>303.0</ele><time>2026-04-12T11:52:13Z</time></trkpt><trkpt lat="42.0922227158454" lon="11.904867199504897"><ele>303.0</ele><time>2026-04-12T11:52:14Z</time></trkpt><trkpt lat="42.09232932222488" lon="11.90498707382296"><ele>303.5</ele><time>2026-04-12T11:52:15Z</time></trkpt><trkpt lat="42.092422604028634" lon="11.905093075992374"><ele>304.0</ele><time>2026-04-12T11:52:16Z</time></trkpt><trkpt lat="42.092505283136276" lon="11.905184261644608"><ele>304.5</ele><time>2026-04-12T11:52:17Z</time></trkpt><trkpt lat="42.092594459720154" lon="11.905256020535306"><ele>305.0</ele><time>2026-04-12T11:52:18Z</time></trkpt><trkpt lat="42.092711406195455" lon="11.905315414423981"><ele>305.0</ele><time>2026-04-12T11:52:19Z</time></trkpt><trkpt lat="42.092832085643366" lon="11.905371036479764"><ele>305.0</ele><time>2026-04-12T11:52:20Z</time></trkpt><trkpt lat="42.09295624039887" lon="11.905418350601922"><ele>305.0</ele><time>2026-04-12T11:52:21Z</time></trkpt><trkpt lat="42.093087952612635" lon="11.905457174512755"><ele>305.0</ele><time>2026-04-12T11:52:22Z</time></trkpt><trkpt lat="42.093214686619255" lon="11.90548166745738"><ele>305.75</ele><time>2026-04-12T11:52:23Z</time></trkpt><trkpt lat="42.09332554725389" lon="11.905533740339918"><ele>306.5</ele><time>2026-04-12T11:52:24Z</time></trkpt><trkpt lat="42.093433287808146" lon="11.905588922351518"><ele>307.25</ele><time>2026-04-12T11:52:25Z</time></trkpt><trkpt lat="42.09354656787928" lon="11.905653471205518"><ele>308.0</ele><time>2026-04-12T11:52:26Z</time></trkpt><trkpt lat="42.09365998699392" lon="11.905703487029536"><ele>308.0</ele><time>2026-04-12T11:52:27Z</time></trkpt><trkpt lat="42.0937952849507" lon="11.905756841314762"><ele>308.0</ele><time>2026-04-12T11:52:28Z</time></trkpt><trkpt lat="42.09393860216717" lon="11.905788964664795"><ele>308.0</ele><time>2026-04-12T11:52:29Z</time></trkpt><trkpt lat="42.094050696008416" lon="11.905857889943233"><ele>308.0</ele><time>2026-04-12T11:52:30Z</time></trkpt><trkpt lat="42.09415789457933" lon="11.90593458388882"><ele>308.6</ele><time>2026-04-12T11:52:31Z</time></trkpt><trkpt lat="42.09425040571305" lon="11.90600714112674"><ele>309.20000000000005</ele><time>2026-04-12T11:52:32Z</time></trkpt><trkpt lat="42.09434707398377" lon="11.90607895490954"><ele>309.8</ele><time>2026-04-12T11:52:33Z</time></trkpt><trkpt lat="42.09443225624662" lon="11.906163604755916"><ele>310.40000000000003</ele><time>2026-04-12T11:52:34Z</time></trkpt><trkpt lat="42.09450521018525" lon="11.906260169046522"><ele>311.0</ele><time>2026-04-12T11:52:35Z</time></trkpt><trkpt lat="42.0945563320095" lon="11.90634719158067"><ele>311.0</ele><time>2026-04-12T11:52:36Z</time></trkpt><trkpt lat="42.09458874800362" lon="11.906432435321667"><ele>311.0</ele><time>2026-04-12T11:52:37Z</time></trkpt><trkpt lat="42.09465535885316" lon="11.906498049197786"><ele>311.0</ele><time>2026-04-12T11:52:38Z</time></trkpt><trkpt lat="42.094675846640996" lon="11.906616367775056"><ele>311.0</ele><time>2026-04-12T11:52:39Z</time></trkpt><trkpt lat="42.094714249678354" lon="11.906709029367844"><ele>311.0</ele><time>2026-04-12T11:52:40Z</time></trkpt><trkpt lat="42.09473402390792" lon="11.906813268203724"><ele>311.0</ele><time>2026-04-12T11:52:41Z</time></trkpt><trkpt lat="42.094751560108854" lon="11.906917583897643"><ele>311.0</ele><time>2026-04-12T11:52:42Z</time></trkpt><trkpt lat="42.094774842523115" lon="11.907012283795236"><ele>311.0</ele><time>2026-04-12T11:52:43Z</time></trkpt><trkpt lat="42.094809993258124" lon="11.907124747650553"><ele>311.0</ele><time>2026-04-12T11:52:44Z</time></trkpt><trkpt lat="42.09485094695386" lon="11.907246753636782"><ele>311.0</ele><time>2026-04-12T11:52:44.999Z</time></trkpt><trkpt lat="42.094895551948035" lon="11.90736221490245"><ele>311.0</ele><time>2026-04-12T11:52:45.999Z</time></trkpt><trkpt lat="42.09493714726668" lon="11.907452866220346"><ele>311.0</ele><time>2026-04-12T11:52:46.999Z</time></trkpt><trkpt lat="42.094972910400145" lon="11.907523496472521"><ele>313.6</ele><time>2026-04-12T11:52:47.999Z</time></trkpt><trkpt lat="42.095024931710256" lon="11.907615409255584"><ele>316.20000000000005</ele><time>2026-04-12T11:52:48.999Z</time></trkpt><trkpt lat="42.095098945883045" lon="11.907717509791308"><ele>318.79999999999995</ele><time>2026-04-12T11:52:49.999Z</time></trkpt><trkpt lat="42.095177313608986" lon="11.907837061417906"><ele>321.4</ele><time>2026-04-12T11:52:50.999Z</time></trkpt><trkpt lat="42.09525989604019" lon="11.907886013157032"><ele>324.0</ele><time>2026-04-12T11:52:51.999Z</time></trkpt><trkpt lat="42.095336287860135" lon="11.907961912721792"><ele>324.0</ele><time>2026-04-12T11:52:52.999Z</time></trkpt><trkpt lat="42.09540582063981" lon="11.908044159425144"><ele>324.0</ele><time>2026-04-12T11:52:53.999Z</time></trkpt><trkpt lat="42.09548412292653" lon="11.908107626737463"><ele>324.0</ele><time>2026-04-12T11:52:54.999Z</time></trkpt><trkpt lat="42.09553281918886" lon="11.908195260887222"><ele>324.0</ele><time>2026-04-12T11:52:55.999Z</time></trkpt><trkpt lat="42.095613546199345" lon="11.908305905661061"><ele>324.0</ele><time>2026-04-12T11:52:56.999Z</time></trkpt><trkpt lat="42.09568737504889" lon="11.908406930087265"><ele>326.0</ele><time>2026-04-12T11:52:57.999Z</time></trkpt><trkpt lat="42.09575970176498" lon="11.9085119410966"><ele>328.0</ele><time>2026-04-12T11:52:58.999Z</time></trkpt><trkpt lat="42.095808479620715" lon="11.908601897238775"><ele>330.0</ele><time>2026-04-12T11:52:59.999Z</time></trkpt><trkpt lat="42.09586471151134" lon="11.908670729620603"><ele>332.0</ele><time>2026-04-12T11:53:00.999Z</time></trkpt><trkpt lat="42.09591637135113" lon="11.9087520202322"><ele>334.0</ele><time>2026-04-12T11:53:01.999Z</time></trkpt><trkpt lat="42.095974439651364" lon="11.908844922199524"><ele>336.0</ele><time>2026-04-12T11:53:02.999Z</time></trkpt><trkpt lat="42.096025162507765" lon="11.908935415066027"><ele>336.0</ele><time>2026-04-12T11:53:03.999Z</time></trkpt><trkpt lat="42.096083386165" lon="11.909014190754773"><ele>336.0</ele><time>2026-04-12T11:53:04.999Z</time></trkpt><trkpt lat="42.096116209498334" lon="11.909096574291166"><ele>336.0</ele><time>2026-04-12T11:53:05.999Z</time></trkpt><trkpt lat="42.09615856134645" lon="11.909176980293175"><ele>336.0</ele><time>2026-04-12T11:53:06.999Z</time></trkpt><trkpt lat="42.09620061936239" lon="11.909274149036388"><ele>336.0</ele><time>2026-04-12T11:53:08.999Z</time></trkpt><trkpt lat="42.096134955182755" lon="11.909266166621462"><ele>336.0</ele><time>2026-04-12T11:53:23.999Z</time></trkpt><trkpt lat="42.09604107090252" lon="11.909291977824191"><ele>335.8333333333333</ele><time>2026-04-12T11:53:26.999Z</time></trkpt><trkpt lat="42.095987769277635" lon="11.909343254712933"><ele>335.6666666666667</ele><time>2026-04-12T11:53:34.999Z</time></trkpt><trkpt lat="42.095874900354346" lon="11.909314169852292"><ele>335.5</ele><time>2026-04-12T11:53:36.999Z</time></trkpt><trkpt lat="42.09581535757151" lon="11.90928079182624"><ele>335.33333333333337</ele><time>2026-04-12T11:53:37.999Z</time></trkpt><trkpt lat="42.09574235422864" lon="11.909273015385944"><ele>335.1666666666667</ele><time>2026-04-12T11:53:38.999Z</time></trkpt><trkpt lat="42.09567219103725" lon="11.90927295399588"><ele>335.0</ele><time>2026-04-12T11:53:39.999Z</time></trkpt><trkpt lat="42.09559629345196" lon="11.909296313838649"><ele>333.2</ele><time>2026-04-12T11:53:40.999Z</time></trkpt><trkpt lat="42.095523219864845" lon="11.909353600751666"><ele>331.4</ele><time>2026-04-12T11:53:41.999Z</time></trkpt><trkpt lat="42.095453353953964" lon="11.909433140028622"><ele>329.6</ele><time>2026-04-12T11:53:42.999Z</time></trkpt><trkpt lat="42.0953784949819" lon="11.909518156410417"><ele>327.8</ele><time>2026-04-12T11:53:43.999Z</time></trkpt><trkpt lat="42.09530155247636" lon="11.909629563826757"><ele>326.0</ele><time>2026-04-12T11:53:45Z</time></trkpt><trkpt lat="42.09520594054105" lon="11.909737999097299"><ele>326.0</ele><time>2026-04-12T11:53:46Z</time></trkpt><trkpt lat="42.09513362013128" lon="11.909834019720154"><ele>326.0</ele><time>2026-04-12T11:53:47Z</time></trkpt><trkpt lat="42.0950643602702" lon="11.909931592954463"><ele>326.0</ele><time>2026-04-12T11:53:48Z</time></trkpt><trkpt lat="42.09500982669492" lon="11.91003375374844"><ele>326.0</ele><time>2026-04-12T11:53:49Z</time></trkpt><trkpt lat="42.09493473279744" lon="11.910143804743603"><ele>326.0</ele><time>2026-04-12T11:53:50Z</time></trkpt><trkpt lat="42.094862079346406" lon="11.910232027859902"><ele>325.20000000000005</ele><time>2026-04-12T11:53:51Z</time></trkpt><trkpt lat="42.094800455971836" lon="11.91030710241021"><ele>324.40000000000003</ele><time>2026-04-12T11:53:52Z</time></trkpt><trkpt lat="42.09474651587127" lon="11.910381603185701"><ele>323.6</ele><time>2026-04-12T11:53:53Z</time></trkpt><trkpt lat="42.09465865293256" lon="11.910439016626665"><ele>322.8</ele><time>2026-04-12T11:53:54Z</time></trkpt><trkpt lat="42.09455726077746" lon="11.910445391967663"><ele>322.0</ele><time>2026-04-12T11:53:55Z</time></trkpt><trkpt lat="42.09445769279591" lon="11.910455346221262"><ele>322.0</ele><time>2026-04-12T11:53:56Z</time></trkpt><trkpt lat="42.09438435749641" lon="11.910480353811518"><ele>322.0</ele><time>2026-04-12T11:53:57Z</time></trkpt><trkpt lat="42.09430348766304" lon="11.910509545285532"><ele>322.0</ele><time>2026-04-12T11:53:58Z</time></trkpt><trkpt lat="42.09423160638243" lon="11.910521199122984"><ele>322.0</ele><time>2026-04-12T11:53:59Z</time></trkpt><trkpt lat="42.09416574026681" lon="11.910540117576645"><ele>322.0</ele><time>2026-04-12T11:54:00Z</time></trkpt><trkpt lat="42.09410380174143" lon="11.910584202285227"><ele>322.0</ele><time>2026-04-12T11:54:01Z</time></trkpt><trkpt lat="42.09406244070155" lon="11.910730829223041"><ele>322.0</ele><time>2026-04-12T11:54:03Z</time></trkpt><trkpt lat="42.094106595503355" lon="11.910895680738737"><ele>322.0</ele><time>2026-04-12T11:54:04Z</time></trkpt><trkpt lat="42.09408917356124" lon="11.911020810597702"><ele>322.0</ele><time>2026-04-12T11:54:05Z</time></trkpt><trkpt lat="42.09407228450631" lon="11.911157980977052"><ele>322.0</ele><time>2026-04-12T11:54:06Z</time></trkpt><trkpt lat="42.09403976654628" lon="11.911355201162174"><ele>322.5</ele><time>2026-04-12T11:54:08Z</time></trkpt><trkpt lat="42.093978995816855" lon="11.911438997722398"><ele>323.0</ele><time>2026-04-12T11:54:09Z</time></trkpt><trkpt lat="42.09388985293946" lon="11.911562948501887"><ele>323.5</ele><time>2026-04-12T11:54:10Z</time></trkpt><trkpt lat="42.09381730945869" lon="11.911670007369347"><ele>324.0</ele><time>2026-04-12T11:54:11Z</time></trkpt><trkpt lat="42.093729192123206" lon="11.911796572406875"><ele>324.0</ele><time>2026-04-12T11:54:12Z</time></trkpt><trkpt lat="42.09364787216259" lon="11.911891386514277"><ele>324.0</ele><time>2026-04-12T11:54:13Z</time></trkpt><trkpt lat="42.09356008732335" lon="11.912013676606945"><ele>324.0</ele><time>2026-04-12T11:54:14Z</time></trkpt><trkpt lat="42.09344261625809" lon="11.912049363852578"><ele>324.0</ele><time>2026-04-12T11:54:15Z</time></trkpt><trkpt lat="42.09335083127934" lon="11.912091049331515"><ele>324.0</ele><time>2026-04-12T11:54:16Z</time></trkpt><trkpt lat="42.09325589136775" lon="11.912101727286888"><ele>324.0</ele><time>2026-04-12T11:54:17Z</time></trkpt><trkpt lat="42.09314328695535" lon="11.912099336196976"><ele>324.0</ele><time>2026-04-12T11:54:18Z</time></trkpt><trkpt lat="42.093047745397435" lon="11.912111854261079"><ele>324.0</ele><time>2026-04-12T11:54:19Z</time></trkpt><trkpt lat="42.092955278234996" lon="11.912099019672908"><ele>324.0</ele><time>2026-04-12T11:54:20Z</time></trkpt><trkpt lat="42.092857667207085" lon="11.912076505338904"><ele>321.4</ele><time>2026-04-12T11:54:21Z</time></trkpt><trkpt lat="42.09278580405287" lon="11.91202653357298"><ele>318.79999999999995</ele><time>2026-04-12T11:54:22Z</time></trkpt><trkpt lat="42.09268079928496" lon="11.912010803132029"><ele>316.20000000000005</ele><time>2026-04-12T11:54:23Z</time></trkpt><trkpt lat="42.092585197396915" lon="11.912015382529951"><ele>313.6</ele><time>2026-04-12T11:54:24Z</time></trkpt><trkpt lat="42.092477306033736" lon="11.91203637341703"><ele>311.0</ele><time>2026-04-12T11:54:25Z</time></trkpt><trkpt lat="42.092375056384356" lon="11.912038420163318"><ele>309.0</ele><time>2026-04-12T11:54:26Z</time></trkpt><trkpt lat="42.092272063400266" lon="11.912040876555517"><ele>307.0</ele><time>2026-04-12T11:54:27Z</time></trkpt><trkpt lat="42.092175207765294" lon="11.912045444249408"><ele>305.0</ele><time>2026-04-12T11:54:28Z</time></trkpt><trkpt lat="42.0920663035721" lon="11.91204423779088"><ele>303.0</ele><time>2026-04-12T11:54:29Z</time></trkpt><trkpt lat="42.091954848900336" lon="11.912043416347993"><ele>301.0</ele><time>2026-04-12T11:54:30Z</time></trkpt><trkpt lat="42.09181211261417" lon="11.912050951039564"><ele>301.0</ele><time>2026-04-12T11:54:31Z</time></trkpt><trkpt lat="42.091653143866424" lon="11.91209090291952"><ele>301.0</ele><time>2026-04-12T11:54:32Z</time></trkpt><trkpt lat="42.091517878757294" lon="11.912153637685506"><ele>301.0</ele><time>2026-04-12T11:54:33Z</time></trkpt><trkpt lat="42.09141301448575" lon="11.91219496318268"><ele>301.0</ele><time>2026-04-12T11:54:34Z</time></trkpt><trkpt lat="42.091301672421444" lon="11.912253583330362"><ele>299.8</ele><time>2026-04-12T11:54:35Z</time></trkpt><trkpt lat="42.091202922806445" lon="11.912297109174592"><ele>298.6</ele><time>2026-04-12T11:54:36Z</time></trkpt><trkpt lat="42.09109685158082" lon="11.912333335098053"><ele>297.4</ele><time>2026-04-12T11:54:37Z</time></trkpt><trkpt lat="42.09096915845215" lon="11.912345662549727"><ele>296.2</ele><time>2026-04-12T11:54:38Z</time></trkpt><trkpt lat="42.090868041579064" lon="11.912362544605568"><ele>295.0</ele><time>2026-04-12T11:54:39Z</time></trkpt><trkpt lat="42.0907900049956" lon="11.91237135030352"><ele>295.4</ele><time>2026-04-12T11:54:40Z</time></trkpt><trkpt lat="42.09072276566456" lon="11.912437307457337"><ele>295.8</ele><time>2026-04-12T11:54:41Z</time></trkpt><trkpt lat="42.09064761873306" lon="11.912517141965036"><ele>296.2</ele><time>2026-04-12T11:54:42Z</time></trkpt><trkpt lat="42.0905793829579" lon="11.912609496410278"><ele>296.6</ele><time>2026-04-12T11:54:43Z</time></trkpt><trkpt lat="42.09051207133863" lon="11.912749859985173"><ele>297.0</ele><time>2026-04-12T11:54:44Z</time></trkpt><trkpt lat="42.09040242287978" lon="11.912862418562046"><ele>297.0</ele><time>2026-04-12T11:54:45Z</time></trkpt><trkpt lat="42.090316960645254" lon="11.913029065105633"><ele>297.0</ele><time>2026-04-12T11:54:46Z</time></trkpt><trkpt lat="42.090208551040014" lon="11.913137093274328"><ele>297.0</ele><time>2026-04-12T11:54:47Z</time></trkpt><trkpt lat="42.09010920507813" lon="11.9132366672691"><ele>297.0</ele><time>2026-04-12T11:54:48Z</time></trkpt><trkpt lat="42.090010151070736" lon="11.913332009752352"><ele>295.75</ele><time>2026-04-12T11:54:48.999Z</time></trkpt><trkpt lat="42.08989373485913" lon="11.913445268092879"><ele>294.5</ele><time>2026-04-12T11:54:49.999Z</time></trkpt><trkpt lat="42.08979431782207" lon="11.913559991229592"><ele>293.25</ele><time>2026-04-12T11:54:50.999Z</time></trkpt><trkpt lat="42.08971446172387" lon="11.913662912860714"><ele>292.0</ele><time>2026-04-12T11:54:51.999Z</time></trkpt><trkpt lat="42.08963127293222" lon="11.913752956442881"><ele>292.0</ele><time>2026-04-12T11:54:52.999Z</time></trkpt><trkpt lat="42.08954361050462" lon="11.91381350092569"><ele>292.0</ele><time>2026-04-12T11:54:53.999Z</time></trkpt><trkpt lat="42.0894371576401" lon="11.913885469255035"><ele>292.0</ele><time>2026-04-12T11:54:54.999Z</time></trkpt><trkpt lat="42.08931607959554" lon="11.913922195382131"><ele>292.0</ele><time>2026-04-12T11:54:55.999Z</time></trkpt><trkpt lat="42.089204475370096" lon="11.9139499399199"><ele>292.0</ele><time>2026-04-12T11:54:56.999Z</time></trkpt><trkpt lat="42.089119161532665" lon="11.91397619161492"><ele>292.0</ele><time>2026-04-12T11:54:57.999Z</time></trkpt><trkpt lat="42.08904700930604" lon="11.9140495652162"><ele>292.0</ele><time>2026-04-12T11:54:58.999Z</time></trkpt><trkpt lat="42.08897136861063" lon="11.914135503147604"><ele>292.0</ele><time>2026-04-12T11:54:59.999Z</time></trkpt><trkpt lat="42.08888902942026" lon="11.914247927717096"><ele>292.0</ele><time>2026-04-12T11:55:00.999Z</time></trkpt><trkpt lat="42.088798322028836" lon="11.914343949808288"><ele>290.5</ele><time>2026-04-12T11:55:01.999Z</time></trkpt><trkpt lat="42.08869786816323" lon="11.914387699911414"><ele>289.0</ele><time>2026-04-12T11:55:02.999Z</time></trkpt><trkpt lat="42.08856350881054" lon="11.914414402857604"><ele>287.5</ele><time>2026-04-12T11:55:03.999Z</time></trkpt><trkpt lat="42.08842145819847" lon="11.914425780280853"><ele>286.0</ele><time>2026-04-12T11:55:04.999Z</time></trkpt><trkpt lat="42.08830482006259" lon="11.914463252178917"><ele>286.0</ele><time>2026-04-12T11:55:05.999Z</time></trkpt><trkpt lat="42.08822246231415" lon="11.914515537339451"><ele>286.0</ele><time>2026-04-12T11:55:06.999Z</time></trkpt><trkpt lat="42.08817036391435" lon="11.914573497768309"><ele>286.0</ele><time>2026-04-12T11:55:07.999Z</time></trkpt><trkpt lat="42.088103819214254" lon="11.914659668291476"><ele>286.0</ele><time>2026-04-12T11:55:08.999Z</time></trkpt><trkpt lat="42.08803519265549" lon="11.914747566447947"><ele>286.0</ele><time>2026-04-12T11:55:09.999Z</time></trkpt><trkpt lat="42.08793646340345" lon="11.914791805966477"><ele>286.0</ele><time>2026-04-12T11:55:10.999Z</time></trkpt><trkpt lat="42.08782428981705" lon="11.9148303510674"><ele>286.0</ele><time>2026-04-12T11:55:11.999Z</time></trkpt><trkpt lat="42.08772760089222" lon="11.914887612577397"><ele>286.0</ele><time>2026-04-12T11:55:12.999Z</time></trkpt><trkpt lat="42.087635211405534" lon="11.914960041989232"><ele>286.0</ele><time>2026-04-12T11:55:13.999Z</time></trkpt><trkpt lat="42.08754818138936" lon="11.915062683651001"><ele>286.0</ele><time>2026-04-12T11:55:14.999Z</time></trkpt><trkpt lat="42.08744754258334" lon="11.915134566433194"><ele>284.25</ele><time>2026-04-12T11:55:15.999Z</time></trkpt><trkpt lat="42.087356539595405" lon="11.915225574711501"><ele>282.5</ele><time>2026-04-12T11:55:16.999Z</time></trkpt><trkpt lat="42.0872690769669" lon="11.915324119713791"><ele>280.75</ele><time>2026-04-12T11:55:17.999Z</time></trkpt><trkpt lat="42.087183386923094" lon="11.915394306589537"><ele>279.0</ele><time>2026-04-12T11:55:18.999Z</time></trkpt><trkpt lat="42.08706797973774" lon="11.915464371654759"><ele>279.0</ele><time>2026-04-12T11:55:19.999Z</time></trkpt><trkpt lat="42.086962236780565" lon="11.915566458964491"><ele>279.0</ele><time>2026-04-12T11:55:20.999Z</time></trkpt><trkpt lat="42.08687001285711" lon="11.915632196532473"><ele>279.0</ele><time>2026-04-12T11:55:21.999Z</time></trkpt><trkpt lat="42.08678265759089" lon="11.915695623878317"><ele>279.0</ele><time>2026-04-12T11:55:22.999Z</time></trkpt><trkpt lat="42.08669490123442" lon="11.915745847510388"><ele>279.0</ele><time>2026-04-12T11:55:23.999Z</time></trkpt><trkpt lat="42.08662846929018" lon="11.915776201841615"><ele>279.2</ele><time>2026-04-12T11:55:24.999Z</time></trkpt><trkpt lat="42.08656314651612" lon="11.915814044494248"><ele>279.4</ele><time>2026-04-12T11:55:25.999Z</time></trkpt><trkpt lat="42.086474410039344" lon="11.915896434715423"><ele>279.6</ele><time>2026-04-12T11:55:27.999Z</time></trkpt><trkpt lat="42.086413400319934" lon="11.915984864824036"><ele>279.8</ele><time>2026-04-12T11:55:28.999Z</time></trkpt><trkpt lat="42.08633750220942" lon="11.916062717118127"><ele>280.0</ele><time>2026-04-12T11:55:29.999Z</time></trkpt><trkpt lat="42.08624129365479" lon="11.916100088870708"><ele>278.0</ele><time>2026-04-12T11:55:30.999Z</time></trkpt><trkpt lat="42.08614102387961" lon="11.91618651099311"><ele>276.0</ele><time>2026-04-12T11:55:31.999Z</time></trkpt><trkpt lat="42.08606333374485" lon="11.91625877643077"><ele>274.0</ele><time>2026-04-12T11:55:32.999Z</time></trkpt><trkpt lat="42.0859886736937" lon="11.91633304061936"><ele>272.0</ele><time>2026-04-12T11:55:33.999Z</time></trkpt><trkpt lat="42.08591128665839" lon="11.916427446297757"><ele>270.0</ele><time>2026-04-12T11:55:34.999Z</time></trkpt><trkpt lat="42.085841202303875" lon="11.916518154156757"><ele>269.6</ele><time>2026-04-12T11:55:35.999Z</time></trkpt><trkpt lat="42.08575314278479" lon="11.916600477624845"><ele>269.2</ele><time>2026-04-12T11:55:36.999Z</time></trkpt><trkpt lat="42.08566719096502" lon="11.916681347503959"><ele>268.8</ele><time>2026-04-12T11:55:37.999Z</time></trkpt><trkpt lat="42.085579721875995" lon="11.916755352131386"><ele>268.4</ele><time>2026-04-12T11:55:38.999Z</time></trkpt><trkpt lat="42.08549059759407" lon="11.916800636176362"><ele>268.0</ele><time>2026-04-12T11:55:39.999Z</time></trkpt><trkpt lat="42.08539257553626" lon="11.916817391782002"><ele>268.0</ele><time>2026-04-12T11:55:40.999Z</time></trkpt><trkpt lat="42.085297945596814" lon="11.916817406213065"><ele>268.0</ele><time>2026-04-12T11:55:41.999Z</time></trkpt><trkpt lat="42.08521134863735" lon="11.91679813542229"><ele>268.0</ele><time>2026-04-12T11:55:42.999Z</time></trkpt><trkpt lat="42.085117826550615" lon="11.91678743981266"><ele>268.0</ele><time>2026-04-12T11:55:43.999Z</time></trkpt><trkpt lat="42.08502728276247" lon="11.916752665239342"><ele>268.0</ele><time>2026-04-12T11:55:44.999Z</time></trkpt><trkpt lat="42.084950555555324" lon="11.916733429958128"><ele>268.0</ele><time>2026-04-12T11:55:45.999Z</time></trkpt><trkpt lat="42.08487443579971" lon="11.916746995312865"><ele>268.5</ele><time>2026-04-12T11:55:46.999Z</time></trkpt><trkpt lat="42.08481108517664" lon="11.916787330120235"><ele>269.0</ele><time>2026-04-12T11:55:49.999Z</time></trkpt><trkpt lat="42.08474102937685" lon="11.916812453103239"><ele>269.5</ele><time>2026-04-12T11:55:53Z</time></trkpt><trkpt lat="42.08465941948721" lon="11.91684060111274"><ele>270.0</ele><time>2026-04-12T11:55:55Z</time></trkpt><trkpt lat="42.08460682823579" lon="11.91692771284809"><ele>270.5</ele><time>2026-04-12T11:55:58Z</time></trkpt><trkpt lat="42.084585608399095" lon="11.9170305596248"><ele>271.0</ele><time>2026-04-12T11:56:26Z</time></trkpt><trkpt lat="42.08450485475912" lon="11.91709456386838"><ele>271.0</ele><time>2026-04-12T11:56:28Z</time></trkpt><trkpt lat="42.08444048340891" lon="11.917090538109013"><ele>271.0</ele><time>2026-04-12T11:56:29Z</time></trkpt><trkpt lat="42.08432897426397" lon="11.917135227291958"><ele>271.0</ele><time>2026-04-12T11:56:31Z</time></trkpt><trkpt lat="42.08425065681568" lon="11.917187148062007"><ele>271.0</ele><time>2026-04-12T11:56:33Z</time></trkpt><trkpt lat="42.08417950343382" lon="11.917241097649542"><ele>271.0</ele><time>2026-04-12T11:56:35Z</time></trkpt><trkpt lat="42.08411445946048" lon="11.917293884779793"><ele>271.0</ele><time>2026-04-12T11:56:37Z</time></trkpt><trkpt lat="42.084032866537115" lon="11.917294271772997"><ele>272.6</ele><time>2026-04-12T11:56:39Z</time></trkpt><trkpt lat="42.08396011250997" lon="11.917328994662173"><ele>274.20000000000005</ele><time>2026-04-12T11:56:41Z</time></trkpt><trkpt lat="42.08387862721071" lon="11.91740393060264"><ele>275.79999999999995</ele><time>2026-04-12T11:56:43Z</time></trkpt><trkpt lat="42.083774585912664" lon="11.917492169227634"><ele>277.4</ele><time>2026-04-12T11:56:45Z</time></trkpt><trkpt lat="42.083680115779224" lon="11.9175473873579"><ele>279.0</ele><time>2026-04-12T11:56:47Z</time></trkpt><trkpt lat="42.08360906552858" lon="11.917558735561956"><ele>279.4</ele><time>2026-04-12T11:56:49Z</time></trkpt><trkpt lat="42.083532241046" lon="11.917702735257762"><ele>279.79999999999995</ele><time>2026-04-12T11:56:51Z</time></trkpt><trkpt lat="42.08345922236507" lon="11.917752351808474"><ele>280.20000000000005</ele><time>2026-04-12T11:56:52Z</time></trkpt><trkpt lat="42.08337667870157" lon="11.91782800982133"><ele>280.6</ele><time>2026-04-12T11:56:53.999Z</time></trkpt><trkpt lat="42.08326305826703" lon="11.917868330111551"><ele>281.0</ele><time>2026-04-12T11:56:55.999Z</time></trkpt><trkpt lat="42.08316603703673" lon="11.917939154050822"><ele>284.0</ele><time>2026-04-12T11:56:57.999Z</time></trkpt><trkpt lat="42.08306968372741" lon="11.917984418855433"><ele>287.0</ele><time>2026-04-12T11:57:00.999Z</time></trkpt><trkpt lat="42.08300996811818" lon="11.918031838358935"><ele>290.0</ele><time>2026-04-12T11:57:01.999Z</time></trkpt><trkpt lat="42.08292072340575" lon="11.918083380210557"><ele>293.0</ele><time>2026-04-12T11:57:03.999Z</time></trkpt><trkpt lat="42.082822087660404" lon="11.9181065162957"><ele>296.0</ele><time>2026-04-12T11:57:05.999Z</time></trkpt><trkpt lat="42.08290646667815" lon="11.918046353642074"><ele>296.0</ele><time>2026-04-12T11:57:06.999Z</time></trkpt><trkpt lat="42.082798921024896" lon="11.91812018768487"><ele>296.0</ele><time>2026-04-12T11:57:09.999Z</time></trkpt><trkpt lat="42.082698692873485" lon="11.918163978210435"><ele>296.0</ele><time>2026-04-12T11:57:12.999Z</time></trkpt><trkpt lat="42.082631840198296" lon="11.918211756567821"><ele>296.0</ele><time>2026-04-12T11:57:13.999Z</time></trkpt><trkpt lat="42.082561722580024" lon="11.9182531391529"><ele>296.0</ele><time>2026-04-12T11:57:14.999Z</time></trkpt><trkpt lat="42.08248908261439" lon="11.918293248482554"><ele>299.0</ele><time>2026-04-12T11:57:18.999Z</time></trkpt><trkpt lat="42.08240659029697" lon="11.918328471709094"><ele>302.0</ele><time>2026-04-12T11:57:21.999Z</time></trkpt><trkpt lat="42.08233998994708" lon="11.918373686768973"><ele>305.0</ele><time>2026-04-12T11:57:24.999Z</time></trkpt><trkpt lat="42.082278598544534" lon="11.918393835745087"><ele>308.0</ele><time>2026-04-12T11:57:30.999Z</time></trkpt><trkpt lat="42.08220497128851" lon="11.918362330496237"><ele>311.0</ele><time>2026-04-12T11:57:36.999Z</time></trkpt><trkpt lat="42.08214338197465" lon="11.918433180247803"><ele>314.0</ele><time>2026-04-12T11:57:40.999Z</time></trkpt><trkpt lat="42.08211008103207" lon="11.918536942287687"><ele>314.5</ele><time>2026-04-12T11:57:44.999Z</time></trkpt><trkpt lat="42.082052429301484" lon="11.918590600438433"><ele>315.0</ele><time>2026-04-12T11:57:48.999Z</time></trkpt><trkpt lat="42.08198130312671" lon="11.918650696681285"><ele>315.5</ele><time>2026-04-12T11:57:53.999Z</time></trkpt><trkpt lat="42.081921184312655" lon="11.918617468766637"><ele>316.0</ele><time>2026-04-12T11:57:57Z</time></trkpt><trkpt lat="42.08184042994595" lon="11.918595040876555"><ele>316.5</ele><time>2026-04-12T11:58:00Z</time></trkpt><trkpt lat="42.081752052740576" lon="11.918596622659718"><ele>317.0</ele><time>2026-04-12T11:58:04Z</time></trkpt><trkpt lat="42.0816788030835" lon="11.918658953769398"><ele>317.0</ele><time>2026-04-12T12:01:30.999Z</time></trkpt><trkpt lat="42.08162968350375" lon="11.918716728141394"><ele>317.0</ele><time>2026-04-12T12:01:32.999Z</time></trkpt><trkpt lat="42.08156748710636" lon="11.918778769679417"><ele>317.0</ele><time>2026-04-12T12:01:34.999Z</time></trkpt><trkpt lat="42.08152151578148" lon="11.918875632647673"><ele>317.0</ele><time>2026-04-12T12:01:36.999Z</time></trkpt><trkpt lat="42.08145686933737" lon="11.918929662900362"><ele>317.0</ele><time>2026-04-12T12:01:38.999Z</time></trkpt><trkpt lat="42.081387706282925" lon="11.918973598564174"><ele>317.0</ele><time>2026-04-12T12:01:40.999Z</time></trkpt><trkpt lat="42.08129378228903" lon="11.9189861584669"><ele>318.0</ele><time>2026-04-12T12:01:42.999Z</time></trkpt><trkpt lat="42.08123255598736" lon="11.919011579171972"><ele>319.0</ele><time>2026-04-12T12:01:43.999Z</time></trkpt><trkpt lat="42.081156069082844" lon="11.919052249191884"><ele>320.0</ele><time>2026-04-12T12:01:44.999Z</time></trkpt><trkpt lat="42.08106331288458" lon="11.919085055986677"><ele>321.0</ele><time>2026-04-12T12:01:46.999Z</time></trkpt><trkpt lat="42.080982944293595" lon="11.919132725835736"><ele>322.0</ele><time>2026-04-12T12:01:48.999Z</time></trkpt><trkpt lat="42.08091372047028" lon="11.919229985723106"><ele>323.0</ele><time>2026-04-12T12:01:51.999Z</time></trkpt><trkpt lat="42.080860471492194" lon="11.91927704562037"><ele>323.00000000000006</ele><time>2026-04-12T12:01:53.999Z</time></trkpt><trkpt lat="42.080807523848684" lon="11.919351466687601"><ele>323.0</ele><time>2026-04-12T12:01:54.999Z</time></trkpt><trkpt lat="42.08072902540741" lon="11.919309331962337"><ele>323.0</ele><time>2026-04-12T12:01:57.999Z</time></trkpt><trkpt lat="42.08065700872299" lon="11.91929403409322"><ele>323.0</ele><time>2026-04-12T12:02:02.999Z</time></trkpt><trkpt lat="42.08059366920985" lon="11.919302253317014"><ele>323.0</ele><time>2026-04-12T12:02:16Z</time></trkpt><trkpt lat="42.08051861865041" lon="11.91928198049984"><ele>323.00000000000006</ele><time>2026-04-12T12:02:19Z</time></trkpt><trkpt lat="42.0804629804936" lon="11.919323351638667"><ele>323.0</ele><time>2026-04-12T12:02:28Z</time></trkpt><trkpt lat="42.080372545945146" lon="11.919322701962479"><ele>323.1666666666667</ele><time>2026-04-12T12:02:31Z</time></trkpt><trkpt lat="42.08028516355003" lon="11.919360382100832"><ele>323.33333333333337</ele><time>2026-04-12T12:02:33Z</time></trkpt><trkpt lat="42.08021422132837" lon="11.919406646313183"><ele>323.5</ele><time>2026-04-12T12:02:35Z</time></trkpt><trkpt lat="42.080123062971055" lon="11.919431428882495"><ele>323.6666666666667</ele><time>2026-04-12T12:02:37Z</time></trkpt><trkpt lat="42.080053865698275" lon="11.919440714886788"><ele>323.8333333333333</ele><time>2026-04-12T12:02:39Z</time></trkpt><trkpt lat="42.07996787793258" lon="11.919426130850466"><ele>324.0</ele><time>2026-04-12T12:02:41Z</time></trkpt><trkpt lat="42.07989795974455" lon="11.91941622687793"><ele>323.6666666666667</ele><time>2026-04-12T12:02:42Z</time></trkpt><trkpt lat="42.07983195087744" lon="11.919437334019658"><ele>323.3333333333333</ele><time>2026-04-12T12:02:43Z</time></trkpt><trkpt lat="42.0797548635519" lon="11.91949371786719"><ele>323.0</ele><time>2026-04-12T12:02:44Z</time></trkpt><trkpt lat="42.079654413814026" lon="11.919532399488904"><ele>322.66666666666663</ele><time>2026-04-12T12:02:46Z</time></trkpt><trkpt lat="42.07959018198125" lon="11.919545604842268"><ele>322.3333333333333</ele><time>2026-04-12T12:02:47Z</time></trkpt><trkpt lat="42.07949084306312" lon="11.919545264736175"><ele>322.0</ele><time>2026-04-12T12:02:49Z</time></trkpt><trkpt lat="42.07939123293947" lon="11.919565142127386"><ele>322.0</ele><time>2026-04-12T12:02:51Z</time></trkpt><trkpt lat="42.07931898734235" lon="11.919547301994987"><ele>322.0</ele><time>2026-04-12T12:02:53Z</time></trkpt><trkpt lat="42.079241815315626" lon="11.919547690507267"><ele>322.0</ele><time>2026-04-12T12:02:55Z</time></trkpt><trkpt lat="42.07917041343954" lon="11.919521309885578"><ele>322.0</ele><time>2026-04-12T12:02:57Z</time></trkpt><trkpt lat="42.07912860161075" lon="11.919433084427451"><ele>322.0</ele><time>2026-04-12T12:02:59Z</time></trkpt><trkpt lat="42.07907446268333" lon="11.919384174717024"><ele>322.0</ele><time>2026-04-12T12:03:00Z</time></trkpt><trkpt lat="42.07900314516371" lon="11.919347999989064"><ele>322.0</ele><time>2026-04-12T12:03:01Z</time></trkpt><trkpt lat="42.07891911777141" lon="11.919300078722724"><ele>320.0</ele><time>2026-04-12T12:03:02Z</time></trkpt><trkpt lat="42.078836881726076" lon="11.919272284323528"><ele>318.0</ele><time>2026-04-12T12:03:04Z</time></trkpt><trkpt lat="42.07877395537242" lon="11.919286557199479"><ele>316.0</ele><time>2026-04-12T12:03:06Z</time></trkpt><trkpt lat="42.078631544173106" lon="11.919277831198354"><ele>314.0</ele><time>2026-04-12T12:03:08.999Z</time></trkpt><trkpt lat="42.07856552647595" lon="11.919277285764739"><ele>312.0</ele><time>2026-04-12T12:03:09.999Z</time></trkpt><trkpt lat="42.0784657025301" lon="11.919264201220992"><ele>312.1666666666667</ele><time>2026-04-12T12:03:11.999Z</time></trkpt><trkpt lat="42.078347586196244" lon="11.919226900146636"><ele>312.3333333333333</ele><time>2026-04-12T12:03:14.999Z</time></trkpt><trkpt lat="42.07828230673754" lon="11.919232696029336"><ele>312.5</ele><time>2026-04-12T12:03:16.999Z</time></trkpt><trkpt lat="42.07821846596416" lon="11.919220195973335"><ele>312.66666666666663</ele><time>2026-04-12T12:03:18.999Z</time></trkpt><trkpt lat="42.078137403049936" lon="11.919223193700681"><ele>312.8333333333333</ele><time>2026-04-12T12:03:20.999Z</time></trkpt><trkpt lat="42.07805340785071" lon="11.919209262061862"><ele>313.0</ele><time>2026-04-12T12:03:22.999Z</time></trkpt><trkpt lat="42.07797448254999" lon="11.919181464024847"><ele>313.0</ele><time>2026-04-12T12:03:24.999Z</time></trkpt><trkpt lat="42.077901345652194" lon="11.919110215562661"><ele>313.0</ele><time>2026-04-12T12:03:26.999Z</time></trkpt><trkpt lat="42.0777962815626" lon="11.919127543962025"><ele>313.0</ele><time>2026-04-12T12:03:27.999Z</time></trkpt><trkpt lat="42.07769916284119" lon="11.919095626441257"><ele>313.0</ele><time>2026-04-12T12:03:29.999Z</time></trkpt><trkpt lat="42.07762217056714" lon="11.919080767680025"><ele>313.0</ele><time>2026-04-12T12:03:31.999Z</time></trkpt><trkpt lat="42.07755417171221" lon="11.919105487917925"><ele>313.0</ele><time>2026-04-12T12:03:32.999Z</time></trkpt><trkpt lat="42.0775667534478" lon="11.919239722605555"><ele>312.16666666666663</ele><time>2026-04-12T12:04:32Z</time></trkpt><trkpt lat="42.0775480538432" lon="11.919345793696586"><ele>311.3333333333333</ele><time>2026-04-12T12:04:34Z</time></trkpt><trkpt lat="42.0775006088675" lon="11.919415394428588"><ele>310.5</ele><time>2026-04-12T12:04:36Z</time></trkpt><trkpt lat="42.07742368319151" lon="11.919457395323423"><ele>309.6666666666667</ele><time>2026-04-12T12:04:37Z</time></trkpt><trkpt lat="42.07734541418979" lon="11.919413702464977"><ele>308.83333333333337</ele><time>2026-04-12T12:04:39Z</time></trkpt><trkpt lat="42.07725428674075" lon="11.919350666497097"><ele>308.0</ele><time>2026-04-12T12:04:41Z</time></trkpt><trkpt lat="42.07714631920974" lon="11.919421323410429"><ele>305.8</ele><time>2026-04-12T12:04:43Z</time></trkpt><trkpt lat="42.07704398456718" lon="11.919516395196336"><ele>303.6</ele><time>2026-04-12T12:04:45Z</time></trkpt><trkpt lat="42.07699190508833" lon="11.919587655556281"><ele>301.4</ele><time>2026-04-12T12:04:47Z</time></trkpt><trkpt lat="42.0769727445386" lon="11.919693669846746"><ele>299.2</ele><time>2026-04-12T12:04:49Z</time></trkpt><trkpt lat="42.07697137226645" lon="11.919817236653"><ele>297.0</ele><time>2026-04-12T12:04:50Z</time></trkpt><trkpt lat="42.07691143284377" lon="11.919891298988091"><ele>297.0</ele><time>2026-04-12T12:04:52Z</time></trkpt><trkpt lat="42.076850840448834" lon="11.920011348466298"><ele>297.0</ele><time>2026-04-12T12:04:54Z</time></trkpt><trkpt lat="42.076792271846216" lon="11.920138874170824"><ele>297.0</ele><time>2026-04-12T12:04:56Z</time></trkpt><trkpt lat="42.07671336790752" lon="11.920248580042328"><ele>297.0</ele><time>2026-04-12T12:04:58Z</time></trkpt><trkpt lat="42.07659644472161" lon="11.920256054209897"><ele>297.0</ele><time>2026-04-12T12:05:00Z</time></trkpt><trkpt lat="42.076498346994455" lon="11.920320775359588"><ele>293.6</ele><time>2026-04-12T12:05:02Z</time></trkpt><trkpt lat="42.07641984876105" lon="11.920402440374515"><ele>290.2</ele><time>2026-04-12T12:05:03Z</time></trkpt><trkpt lat="42.07636389496062" lon="11.920456400390933"><ele>286.8</ele><time>2026-04-12T12:05:04Z</time></trkpt><trkpt lat="42.07628631711251" lon="11.920546268464077"><ele>283.4</ele><time>2026-04-12T12:05:06Z</time></trkpt><trkpt lat="42.07624311972551" lon="11.920693021304427"><ele>280.0</ele><time>2026-04-12T12:05:08Z</time></trkpt><trkpt lat="42.07618691440793" lon="11.920776974716503"><ele>279.0</ele><time>2026-04-12T12:05:09Z</time></trkpt><trkpt lat="42.07614591799283" lon="11.920932992825106"><ele>278.0</ele><time>2026-04-12T12:05:11Z</time></trkpt><trkpt lat="42.07612819581879" lon="11.921111470617564"><ele>277.0</ele><time>2026-04-12T12:05:12.999Z</time></trkpt><trkpt lat="42.07613846182265" lon="11.921209099428467"><ele>276.0</ele><time>2026-04-12T12:05:13.999Z</time></trkpt><trkpt lat="42.07610397315846" lon="11.92132495995489"><ele>275.0</ele><time>2026-04-12T12:05:15.999Z</time></trkpt><trkpt lat="42.076095971259974" lon="11.92142826384631"><ele>275.0</ele><time>2026-04-12T12:05:17.999Z</time></trkpt><trkpt lat="42.07615267740598" lon="11.921557972753478"><ele>275.0</ele><time>2026-04-12T12:05:21.999Z</time></trkpt><trkpt lat="42.07605002423719" lon="11.92165359492005"><ele>275.0</ele><time>2026-04-12T12:05:23.999Z</time></trkpt><trkpt lat="42.07597878080255" lon="11.921707536979916"><ele>275.0</ele><time>2026-04-12T12:05:24.999Z</time></trkpt><trkpt lat="42.07594633347576" lon="11.921799624615566"><ele>275.0</ele><time>2026-04-12T12:05:28.999Z</time></trkpt><trkpt lat="42.07588275789887" lon="11.921812406404424"><ele>275.2</ele><time>2026-04-12T12:05:29.999Z</time></trkpt><trkpt lat="42.075783390909436" lon="11.921768782040994"><ele>275.4</ele><time>2026-04-12T12:05:30.999Z</time></trkpt><trkpt lat="42.07571894844854" lon="11.921777065830707"><ele>275.6</ele><time>2026-04-12T12:05:31.999Z</time></trkpt><trkpt lat="42.07560572437657" lon="11.921821164897716"><ele>275.8</ele><time>2026-04-12T12:05:36.999Z</time></trkpt><trkpt lat="42.075538444480166" lon="11.921864342123103"><ele>276.0</ele><time>2026-04-12T12:05:38.999Z</time></trkpt><trkpt lat="42.07544471720005" lon="11.921842981370405"><ele>276.0</ele><time>2026-04-12T12:05:43.999Z</time></trkpt><trkpt lat="42.07538194200521" lon="11.921795567166328"><ele>276.0</ele><time>2026-04-12T12:05:45.999Z</time></trkpt><trkpt lat="42.075299578067934" lon="11.921730772145793"><ele>276.0</ele><time>2026-04-12T12:05:47.999Z</time></trkpt><trkpt lat="42.075200851131434" lon="11.92166604156248"><ele>276.0</ele><time>2026-04-12T12:05:49.999Z</time></trkpt><trkpt lat="42.07512214843904" lon="11.921573069030192"><ele>276.0</ele><time>2026-04-12T12:05:52.999Z</time></trkpt><trkpt lat="42.07505954553213" lon="11.921548005522494"><ele>276.0</ele><time>2026-04-12T12:05:54.999Z</time></trkpt><trkpt lat="42.075003139391825" lon="11.921487743410903"><ele>273.8</ele><time>2026-04-12T12:05:56.999Z</time></trkpt><trkpt lat="42.074930725108864" lon="11.921488191608052"><ele>271.6</ele><time>2026-04-12T12:05:57.999Z</time></trkpt><trkpt lat="42.07482802253454" lon="11.921394052523631"><ele>269.4</ele><time>2026-04-12T12:05:59.999Z</time></trkpt><trkpt lat="42.0747421133518" lon="11.921329696365019"><ele>267.2</ele><time>2026-04-12T12:06:01.999Z</time></trkpt><trkpt lat="42.074629176076854" lon="11.921327156176563"><ele>265.0</ele><time>2026-04-12T12:06:03.999Z</time></trkpt><trkpt lat="42.07455894376649" lon="11.921375889827072"><ele>265.0</ele><time>2026-04-12T12:06:04.999Z</time></trkpt><trkpt lat="42.074488317190266" lon="11.92141644625129"><ele>265.0</ele><time>2026-04-12T12:06:05.999Z</time></trkpt><trkpt lat="42.074417788971076" lon="11.9214288604819"><ele>265.0</ele><time>2026-04-12T12:06:06.999Z</time></trkpt><trkpt lat="42.07433808104345" lon="11.921387272524639"><ele>265.0</ele><time>2026-04-12T12:06:08.999Z</time></trkpt><trkpt lat="42.07434988984045" lon="11.921285814306827"><ele>265.0</ele><time>2026-04-12T12:06:09.999Z</time></trkpt><trkpt lat="42.07428901121888" lon="11.921193489374911"><ele>265.0</ele><time>2026-04-12T12:06:11.999Z</time></trkpt><trkpt lat="42.074229142121304" lon="11.92113249301119"><ele>265.0</ele><time>2026-04-12T12:06:13.999Z</time></trkpt><trkpt lat="42.074128802430096" lon="11.921072966538947"><ele>265.0</ele><time>2026-04-12T12:06:15.999Z</time></trkpt><trkpt lat="42.0740368330718" lon="11.92107570125184"><ele>265.0</ele><time>2026-04-12T12:06:17.999Z</time></trkpt><trkpt lat="42.07397070354374" lon="11.921066386303844"><ele>265.0</ele><time>2026-04-12T12:06:18.999Z</time></trkpt><trkpt lat="42.0738967934082" lon="11.921123158217691"><ele>265.0</ele><time>2026-04-12T12:06:21Z</time></trkpt><trkpt lat="42.07378946912954" lon="11.921173097904425"><ele>264.0</ele><time>2026-04-12T12:06:23Z</time></trkpt><trkpt lat="42.07370959933252" lon="11.921141931629936"><ele>263.0</ele><time>2026-04-12T12:06:25Z</time></trkpt><trkpt lat="42.07364951328386" lon="11.921197168725143"><ele>262.0</ele><time>2026-04-12T12:06:28Z</time></trkpt><trkpt lat="42.07357222391356" lon="11.92121779202206"><ele>261.0</ele><time>2026-04-12T12:06:30Z</time></trkpt><trkpt lat="42.0735071815519" lon="11.921202141650037"><ele>260.0</ele><time>2026-04-12T12:06:32Z</time></trkpt><trkpt lat="42.07348433202761" lon="11.921078804609134"><ele>259.0</ele><time>2026-04-12T12:06:34Z</time></trkpt><trkpt lat="42.073486442385956" lon="11.920973986355742"><ele>259.0</ele><time>2026-04-12T12:06:36Z</time></trkpt><trkpt lat="42.07341271925878" lon="11.920908635495747"><ele>259.0</ele><time>2026-04-12T12:06:38Z</time></trkpt><trkpt lat="42.07332644752585" lon="11.920898165833925"><ele>259.0</ele><time>2026-04-12T12:06:40Z</time></trkpt><trkpt lat="42.07326596437129" lon="11.920843532422046"><ele>259.0</ele><time>2026-04-12T12:06:42Z</time></trkpt><trkpt lat="42.07319971025035" lon="11.920855816122625"><ele>259.0</ele><time>2026-04-12T12:06:45Z</time></trkpt><trkpt lat="42.07308195234912" lon="11.92094122659917"><ele>259.0</ele><time>2026-04-12T12:06:49Z</time></trkpt><trkpt lat="42.07302641708187" lon="11.921049279181437"><ele>257.16666666666663</ele><time>2026-04-12T12:06:55Z</time></trkpt><trkpt lat="42.07294344373203" lon="11.921112818461365"><ele>255.33333333333331</ele><time>2026-04-12T12:06:57Z</time></trkpt><trkpt lat="42.07288249324306" lon="11.921069250809712"><ele>253.5</ele><time>2026-04-12T12:07:00Z</time></trkpt><trkpt lat="42.072817379894424" lon="11.921060852524283"><ele>251.66666666666669</ele><time>2026-04-12T12:07:05Z</time></trkpt><trkpt lat="42.07274993464327" lon="11.921026835263289"><ele>249.83333333333334</ele><time>2026-04-12T12:07:07Z</time></trkpt><trkpt lat="42.07266156135071" lon="11.920991630349262"><ele>248.0</ele><time>2026-04-12T12:07:09Z</time></trkpt><trkpt lat="42.07259808068104" lon="11.921039346617071"><ele>248.00000000000003</ele><time>2026-04-12T12:07:19Z</time></trkpt><trkpt lat="42.07253218662541" lon="11.921017055857458"><ele>248.0</ele><time>2026-04-12T12:07:27.999Z</time></trkpt><trkpt lat="42.07253005862659" lon="11.920921034634297"><ele>248.0</ele><time>2026-04-12T12:07:39.999Z</time></trkpt><trkpt lat="42.072529410622145" lon="11.920821386799732"><ele>248.0</ele><time>2026-04-12T12:07:47.999Z</time></trkpt><trkpt lat="42.07255720195528" lon="11.920902729494468"><ele>248.00000000000003</ele><time>2026-04-12T12:08:01.999Z</time></trkpt><trkpt lat="42.07258455552226" lon="11.920993000412025"><ele>248.0</ele><time>2026-04-12T12:08:08.999Z</time></trkpt><trkpt lat="42.07247573869134" lon="11.920956461656896"><ele>246.60000000000002</ele><time>2026-04-12T12:08:42Z</time></trkpt><trkpt lat="42.07240103194931" lon="11.920933570187662"><ele>245.20000000000002</ele><time>2026-04-12T12:08:45Z</time></trkpt><trkpt lat="42.0723032304707" lon="11.920981771409473"><ele>243.8</ele><time>2026-04-12T12:08:48Z</time></trkpt><trkpt lat="42.07216981278069" lon="11.921044846196622"><ele>242.4</ele><time>2026-04-12T12:08:50Z</time></trkpt><trkpt lat="42.07211130766587" lon="11.921141034738632"><ele>241.0</ele><time>2026-04-12T12:08:51Z</time></trkpt><trkpt lat="42.07201263826732" lon="11.921155752975208"><ele>241.0</ele><time>2026-04-12T12:08:53Z</time></trkpt><trkpt lat="42.071946670568" lon="11.921139825978253"><ele>241.00000000000003</ele><time>2026-04-12T12:08:55Z</time></trkpt><trkpt lat="42.071867012964695" lon="11.921125605992385"><ele>241.0</ele><time>2026-04-12T12:08:59Z</time></trkpt><trkpt lat="42.071784686402374" lon="11.921121597404534"><ele>241.0</ele><time>2026-04-12T12:09:02Z</time></trkpt><trkpt lat="42.071714977361985" lon="11.921084225649448"><ele>241.00000000000003</ele><time>2026-04-12T12:09:05Z</time></trkpt><trkpt lat="42.071670073970346" lon="11.921022848123965"><ele>241.0</ele><time>2026-04-12T12:09:07Z</time></trkpt><trkpt lat="42.071614721774175" lon="11.92094914381643"><ele>241.0</ele><time>2026-04-12T12:09:10Z</time></trkpt><trkpt lat="42.0715518502711" lon="11.920972484877312"><ele>240.16666666666666</ele><time>2026-04-12T12:09:12Z</time></trkpt><trkpt lat="42.07149443791267" lon="11.921042792468198"><ele>239.33333333333331</ele><time>2026-04-12T12:09:18Z</time></trkpt><trkpt lat="42.07142293652064" lon="11.92099664073438"><ele>238.5</ele><time>2026-04-12T12:09:32.999Z</time></trkpt><trkpt lat="42.07133894422091" lon="11.92099228034542"><ele>237.66666666666669</ele><time>2026-04-12T12:09:35.999Z</time></trkpt><trkpt lat="42.07127505014713" lon="11.92100848938446"><ele>236.83333333333334</ele><time>2026-04-12T12:09:37.999Z</time></trkpt><trkpt lat="42.07118878188826" lon="11.921017974005824"><ele>236.0</ele><time>2026-04-12T12:09:39.999Z</time></trkpt><trkpt lat="42.071127813031076" lon="11.921052828636505"><ele>236.00000000000003</ele><time>2026-04-12T12:09:41.999Z</time></trkpt><trkpt lat="42.07106583225562" lon="11.92109826056333"><ele>236.0</ele><time>2026-04-12T12:09:44.999Z</time></trkpt><trkpt lat="42.07099855198551" lon="11.921074521159266"><ele>236.0</ele><time>2026-04-12T12:09:49.999Z</time></trkpt><trkpt lat="42.070921682512065" lon="11.921115408910469"><ele>236.0</ele><time>2026-04-12T12:09:52.999Z</time></trkpt><trkpt lat="42.070858650816625" lon="11.921154465422312"><ele>236.00000000000003</ele><time>2026-04-12T12:09:54.999Z</time></trkpt><trkpt lat="42.07078606176316" lon="11.921170904361457"><ele>236.0</ele><time>2026-04-12T12:09:56.999Z</time></trkpt><trkpt lat="42.07058170600952" lon="11.921218108358813"><ele>233.20000000000002</ele><time>2026-04-12T12:09:58.999Z</time></trkpt><trkpt lat="42.07047106762644" lon="11.921199787810641"><ele>230.40000000000003</ele><time>2026-04-12T12:09:59.999Z</time></trkpt><trkpt lat="42.070357302389894" lon="11.921125926575183"><ele>227.6</ele><time>2026-04-12T12:10:01.999Z</time></trkpt><trkpt lat="42.07029218593661" lon="11.921125396204861"><ele>224.8</ele><time>2026-04-12T12:10:02.999Z</time></trkpt><trkpt lat="42.07021323408829" lon="11.921234825431098"><ele>222.0</ele><time>2026-04-12T12:10:04.999Z</time></trkpt><trkpt lat="42.07013266372156" lon="11.92128717751339"><ele>222.0</ele><time>2026-04-12T12:10:06.999Z</time></trkpt><trkpt lat="42.07002380667859" lon="11.921404730405051"><ele>222.0</ele><time>2026-04-12T12:10:08.999Z</time></trkpt><trkpt lat="42.06996931415863" lon="11.92153215348805"><ele>222.0</ele><time>2026-04-12T12:10:09.999Z</time></trkpt><trkpt lat="42.06989001124368" lon="11.92161711885427"><ele>222.0</ele><time>2026-04-12T12:10:10.999Z</time></trkpt><trkpt lat="42.06980021902458" lon="11.921669017434274"><ele>222.0</ele><time>2026-04-12T12:10:11.999Z</time></trkpt><trkpt lat="42.06971519501322" lon="11.921675609086169"><ele>221.5</ele><time>2026-04-12T12:10:13.999Z</time></trkpt><trkpt lat="42.06968249371889" lon="11.921758580333135"><ele>221.0</ele><time>2026-04-12T12:10:14.999Z</time></trkpt><trkpt lat="42.06961651312298" lon="11.921853004642653"><ele>220.5</ele><time>2026-04-12T12:10:16.999Z</time></trkpt><trkpt lat="42.069543671591425" lon="11.921872117619275"><ele>220.0</ele><time>2026-04-12T12:10:17.999Z</time></trkpt><trkpt lat="42.069425080409836" lon="11.921846597594126"><ele>219.5</ele><time>2026-04-12T12:10:18.999Z</time></trkpt><trkpt lat="42.06936186912735" lon="11.92184927096659"><ele>219.0</ele><time>2026-04-12T12:10:19.999Z</time></trkpt><trkpt lat="42.06927470401805" lon="11.921902465562196"><ele>219.0</ele><time>2026-04-12T12:10:21.999Z</time></trkpt><trkpt lat="42.069209863530766" lon="11.921937000749162"><ele>219.0</ele><time>2026-04-12T12:10:22.999Z</time></trkpt><trkpt lat="42.06915181628798" lon="11.921889266027327"><ele>219.0</ele><time>2026-04-12T12:10:23.999Z</time></trkpt><trkpt lat="42.06908205058917" lon="11.921868888128209"><ele>219.0</ele><time>2026-04-12T12:10:24.999Z</time></trkpt><trkpt lat="42.06898851760443" lon="11.921850588606024"><ele>219.0</ele><time>2026-04-12T12:10:26.999Z</time></trkpt><trkpt lat="42.06890787691087" lon="11.92192084223117"><ele>219.0</ele><time>2026-04-12T12:10:28.999Z</time></trkpt><trkpt lat="42.06881063006535" lon="11.921987685139802"><ele>215.0</ele><time>2026-04-12T12:10:30.999Z</time></trkpt><trkpt lat="42.06870881746823" lon="11.92210224790543"><ele>210.99999999999997</ele><time>2026-04-12T12:10:33Z</time></trkpt><trkpt lat="42.06863112272636" lon="11.922181037954497"><ele>207.0</ele><time>2026-04-12T12:10:34Z</time></trkpt><trkpt lat="42.06859510268106" lon="11.922279568532087"><ele>203.0</ele><time>2026-04-12T12:10:35Z</time></trkpt><trkpt lat="42.068511499509945" lon="11.92239598361218"><ele>199.0</ele><time>2026-04-12T12:10:37Z</time></trkpt><trkpt lat="42.06845726829962" lon="11.922477750946474"><ele>198.99999999999997</ele><time>2026-04-12T12:10:38Z</time></trkpt><trkpt lat="42.06838177422469" lon="11.922515836196393"><ele>199.0</ele><time>2026-04-12T12:10:40Z</time></trkpt><trkpt lat="42.06830889653722" lon="11.92256571790081"><ele>199.0</ele><time>2026-04-12T12:10:42Z</time></trkpt><trkpt lat="42.06825864503336" lon="11.922650570105976"><ele>199.0</ele><time>2026-04-12T12:10:44Z</time></trkpt><trkpt lat="42.06820519461433" lon="11.922729861229458"><ele>198.99999999999997</ele><time>2026-04-12T12:10:46Z</time></trkpt><trkpt lat="42.06814580348248" lon="11.922830179017765"><ele>199.0</ele><time>2026-04-12T12:10:48Z</time></trkpt><trkpt lat="42.06803631446526" lon="11.922893633918616"><ele>196.49999999999997</ele><time>2026-04-12T12:10:50Z</time></trkpt><trkpt lat="42.06797011723807" lon="11.922897096687555"><ele>194.0</ele><time>2026-04-12T12:10:51Z</time></trkpt><trkpt lat="42.06788179079685" lon="11.922921261088023"><ele>191.5</ele><time>2026-04-12T12:10:54Z</time></trkpt><trkpt lat="42.067815255661" lon="11.922894351611562"><ele>189.0</ele><time>2026-04-12T12:11:28Z</time></trkpt><trkpt lat="42.067748950645985" lon="11.922964776458949"><ele>186.5</ele><time>2026-04-12T12:11:30Z</time></trkpt><trkpt lat="42.06769429353389" lon="11.923055273578015"><ele>184.0</ele><time>2026-04-12T12:11:32.999Z</time></trkpt><trkpt lat="42.06761064045091" lon="11.923148777931774"><ele>184.0</ele><time>2026-04-12T12:11:34.999Z</time></trkpt><trkpt lat="42.06760424180466" lon="11.923298468106474"><ele>184.0</ele><time>2026-04-12T12:11:36.999Z</time></trkpt><trkpt lat="42.067621553449044" lon="11.923384372634908"><ele>184.0</ele><time>2026-04-12T12:11:38.999Z</time></trkpt><trkpt lat="42.067563837903464" lon="11.9234321079194"><ele>184.0</ele><time>2026-04-12T12:11:45.999Z</time></trkpt><trkpt lat="42.06749184558472" lon="11.923503760977214"><ele>184.0</ele><time>2026-04-12T12:11:48.999Z</time></trkpt><trkpt lat="42.06743922982046" lon="11.923556473732196"><ele>184.0</ele><time>2026-04-12T12:11:52.999Z</time></trkpt><trkpt lat="42.06735150017845" lon="11.923520720770057"><ele>181.6</ele><time>2026-04-12T12:11:55.999Z</time></trkpt><trkpt lat="42.067282257403846" lon="11.923486329987789"><ele>179.2</ele><time>2026-04-12T12:11:57.999Z</time></trkpt><trkpt lat="42.06722334145951" lon="11.923385892907845"><ele>176.79999999999998</ele><time>2026-04-12T12:11:59.999Z</time></trkpt><trkpt lat="42.0671535166447" lon="11.923298053100401"><ele>174.39999999999998</ele><time>2026-04-12T12:12:02.999Z</time></trkpt><trkpt lat="42.06703425401048" lon="11.923211547318513"><ele>172.0</ele><time>2026-04-12T12:12:04.999Z</time></trkpt><trkpt lat="42.06697623092996" lon="11.923146023874246"><ele>172.0</ele><time>2026-04-12T12:12:05.999Z</time></trkpt><trkpt lat="42.066922893284264" lon="11.923091238948206"><ele>172.0</ele><time>2026-04-12T12:12:06.999Z</time></trkpt><trkpt lat="42.06680656997465" lon="11.923023232724884"><ele>172.0</ele><time>2026-04-12T12:12:08.999Z</time></trkpt><trkpt lat="42.066690441125886" lon="11.92300619920415"><ele>172.0</ele><time>2026-04-12T12:12:10.999Z</time></trkpt><trkpt lat="42.066579734751265" lon="11.923001126942053"><ele>172.0</ele><time>2026-04-12T12:12:12.999Z</time></trkpt><trkpt lat="42.06648838823481" lon="11.923030753331606"><ele>172.66666666666669</ele><time>2026-04-12T12:12:14.999Z</time></trkpt><trkpt lat="42.06639981615161" lon="11.923069401204998"><ele>173.33333333333334</ele><time>2026-04-12T12:12:16.999Z</time></trkpt><trkpt lat="42.066344955481576" lon="11.923116116780713"><ele>174.0</ele><time>2026-04-12T12:12:19.999Z</time></trkpt><trkpt lat="42.06627726968286" lon="11.923114992883237"><ele>174.66666666666666</ele><time>2026-04-12T12:12:22.999Z</time></trkpt><trkpt lat="42.06621073646173" lon="11.923131304740343"><ele>175.33333333333331</ele><time>2026-04-12T12:12:27.999Z</time></trkpt><trkpt lat="42.06613471038562" lon="11.923150767553176"><ele>176.0</ele><time>2026-04-12T12:12:29.999Z</time></trkpt><trkpt lat="42.06604767369398" lon="11.923198450633537"><ele>176.0</ele><time>2026-04-12T12:12:31.999Z</time></trkpt><trkpt lat="42.06597679616578" lon="11.923224814807682"><ele>176.0</ele><time>2026-04-12T12:12:32.999Z</time></trkpt><trkpt lat="42.065873454532394" lon="11.923242676184579"><ele>176.0</ele><time>2026-04-12T12:12:33.999Z</time></trkpt><trkpt lat="42.06581689050388" lon="11.923282947094645"><ele>176.0</ele><time>2026-04-12T12:12:40Z</time></trkpt><trkpt lat="42.06573697324191" lon="11.923341164266597"><ele>176.0</ele><time>2026-04-12T12:12:43Z</time></trkpt><trkpt lat="42.06567996890046" lon="11.923420430317627"><ele>176.0</ele><time>2026-04-12T12:12:45Z</time></trkpt><trkpt lat="42.06561406416674" lon="11.923467598994351"><ele>175.33333333333331</ele><time>2026-04-12T12:12:47Z</time></trkpt><trkpt lat="42.065536684714516" lon="11.923512000605145"><ele>174.66666666666666</ele><time>2026-04-12T12:12:49Z</time></trkpt><trkpt lat="42.06545363598427" lon="11.923573036988898"><ele>174.0</ele><time>2026-04-12T12:12:51Z</time></trkpt><trkpt lat="42.065359501087094" lon="11.923618206078615"><ele>173.33333333333334</ele><time>2026-04-12T12:12:53Z</time></trkpt><trkpt lat="42.0652884905411" lon="11.923655546873889"><ele>172.66666666666669</ele><time>2026-04-12T12:12:54Z</time></trkpt><trkpt lat="42.06523793786981" lon="11.923719299384189"><ele>172.0</ele><time>2026-04-12T12:12:55Z</time></trkpt><trkpt lat="42.06518326417525" lon="11.923768501122426"><ele>172.00000000000003</ele><time>2026-04-12T12:12:56Z</time></trkpt><trkpt lat="42.06512470743337" lon="11.923802056266572"><ele>172.0</ele><time>2026-04-12T12:12:57Z</time></trkpt><trkpt lat="42.06507160671332" lon="11.923859905360269"><ele>172.0</ele><time>2026-04-12T12:12:58Z</time></trkpt><trkpt lat="42.06502356885922" lon="11.923935278806765"><ele>172.0</ele><time>2026-04-12T12:12:59Z</time></trkpt><trkpt lat="42.064978856629224" lon="11.923996186586557"><ele>172.0</ele><time>2026-04-12T12:13:00Z</time></trkpt><trkpt lat="42.06489337990544" lon="11.924028522817158"><ele>172.00000000000003</ele><time>2026-04-12T12:13:01Z</time></trkpt><trkpt lat="42.06482158027207" lon="11.924080187577749"><ele>172.0</ele><time>2026-04-12T12:13:02Z</time></trkpt><trkpt lat="42.06475937967919" lon="11.924116678683038"><ele>172.33333333333334</ele><time>2026-04-12T12:13:03Z</time></trkpt><trkpt lat="42.06466100164491" lon="11.924159197266992"><ele>172.66666666666669</ele><time>2026-04-12T12:13:05Z</time></trkpt><trkpt lat="42.06459300727625" lon="11.924146085943313"><ele>173.0</ele><time>2026-04-12T12:13:07Z</time></trkpt><trkpt lat="42.064523138715444" lon="11.92416535037319"><ele>173.33333333333334</ele><time>2026-04-12T12:13:10Z</time></trkpt><trkpt lat="42.06446173621381" lon="11.92419839081525"><ele>173.66666666666666</ele><time>2026-04-12T12:13:12Z</time></trkpt><trkpt lat="42.06437262103103" lon="11.924238940392023"><ele>174.0</ele><time>2026-04-12T12:13:14Z</time></trkpt><trkpt lat="42.064376724247104" lon="11.924150931203163"><ele>174.0</ele><time>2026-04-12T12:13:16Z</time></trkpt><trkpt lat="42.06430241765228" lon="11.924232871904616"><ele>174.0</ele><time>2026-04-12T12:13:18Z</time></trkpt><trkpt lat="42.06422584359217" lon="11.924218462131119"><ele>174.0</ele><time>2026-04-12T12:13:21Z</time></trkpt><trkpt lat="42.064144713153645" lon="11.924244322286746"><ele>174.0</ele><time>2026-04-12T12:13:22Z</time></trkpt><trkpt lat="42.06407629117947" lon="11.924382556510029"><ele>174.0</ele><time>2026-04-12T12:13:26Z</time></trkpt><trkpt lat="42.06403708245968" lon="11.924459040035332"><ele>174.0</ele><time>2026-04-12T12:13:27Z</time></trkpt><trkpt lat="42.063840211735574" lon="11.924343685363558"><ele>175.2</ele><time>2026-04-12T12:13:28Z</time></trkpt><trkpt lat="42.063710215445056" lon="11.92441296010933"><ele>176.39999999999998</ele><time>2026-04-12T12:13:29Z</time></trkpt><trkpt lat="42.06360390828606" lon="11.92445419409697"><ele>177.6</ele><time>2026-04-12T12:13:30Z</time></trkpt><trkpt lat="42.06350955543525" lon="11.924478857928133"><ele>178.8</ele><time>2026-04-12T12:13:31Z</time></trkpt><trkpt lat="42.06341193423853" lon="11.924484355648211"><ele>180.0</ele><time>2026-04-12T12:13:32Z</time></trkpt><trkpt lat="42.06332392990792" lon="11.924493182201298"><ele>180.0</ele><time>2026-04-12T12:13:33Z</time></trkpt><trkpt lat="42.06319847037446" lon="11.924481677739577"><ele>180.0</ele><time>2026-04-12T12:13:34Z</time></trkpt><trkpt lat="42.063081989746976" lon="11.924472663548066"><ele>180.0</ele><time>2026-04-12T12:13:35Z</time></trkpt><trkpt lat="42.06300750210459" lon="11.924484354867499"><ele>180.0</ele><time>2026-04-12T12:13:36Z</time></trkpt><trkpt lat="42.06293013134942" lon="11.924524377540239"><ele>180.0</ele><time>2026-04-12T12:13:36.999Z</time></trkpt><trkpt lat="42.062828082881246" lon="11.9245124442611"><ele>180.0</ele><time>2026-04-12T12:13:37.999Z</time></trkpt><trkpt lat="42.06276218504005" lon="11.924485406134615"><ele>180.0</ele><time>2026-04-12T12:13:38.999Z</time></trkpt><trkpt lat="42.06269939708537" lon="11.924491733501304"><ele>180.0</ele><time>2026-04-12T12:13:39.999Z</time></trkpt><trkpt lat="42.06253750620687" lon="11.92448467017913"><ele>180.0</ele><time>2026-04-12T12:13:41.999Z</time></trkpt><trkpt lat="42.06246479867074" lon="11.924459386281566"><ele>180.0</ele><time>2026-04-12T12:13:42.999Z</time></trkpt><trkpt lat="42.062388440878394" lon="11.924443102118207"><ele>180.0</ele><time>2026-04-12T12:13:43.999Z</time></trkpt><trkpt lat="42.062301970416236" lon="11.924476318557737"><ele>180.2</ele><time>2026-04-12T12:13:44.999Z</time></trkpt><trkpt lat="42.06217843218986" lon="11.92448886815412"><ele>180.4</ele><time>2026-04-12T12:13:46.999Z</time></trkpt><trkpt lat="42.06210125935449" lon="11.924475946588425"><ele>180.60000000000002</ele><time>2026-04-12T12:13:47.999Z</time></trkpt><trkpt lat="42.06202558390905" lon="11.924481286348813"><ele>180.8</ele><time>2026-04-12T12:13:48.999Z</time></trkpt><trkpt lat="42.06192322392589" lon="11.924433084255318"><ele>181.0</ele><time>2026-04-12T12:13:49.999Z</time></trkpt><trkpt lat="42.06184301677768" lon="11.924430631898826"><ele>181.0</ele><time>2026-04-12T12:13:50.999Z</time></trkpt><trkpt lat="42.06176494611827" lon="11.92441928607654"><ele>181.0</ele><time>2026-04-12T12:13:51.999Z</time></trkpt><trkpt lat="42.0616938052382" lon="11.92440412615878"><ele>181.0</ele><time>2026-04-12T12:13:52.999Z</time></trkpt><trkpt lat="42.06162817433875" lon="11.92439500714313"><ele>181.0</ele><time>2026-04-12T12:13:53.999Z</time></trkpt><trkpt lat="42.06159051776456" lon="11.924268967467865"><ele>181.0</ele><time>2026-04-12T12:13:54.999Z</time></trkpt><trkpt lat="42.06152586412978" lon="11.924195238476164"><ele>181.0</ele><time>2026-04-12T12:13:55.999Z</time></trkpt><trkpt lat="42.06145445278804" lon="11.924177589334006"><ele>178.85714285714286</ele><time>2026-04-12T12:13:56.999Z</time></trkpt><trkpt lat="42.06138582891139" lon="11.924130633887383"><ele>176.71428571428572</ele><time>2026-04-12T12:13:57.999Z</time></trkpt><trkpt lat="42.06132232904784" lon="11.92411262414013"><ele>174.57142857142856</ele><time>2026-04-12T12:13:58.999Z</time></trkpt><trkpt lat="42.06125143228872" lon="11.924087908267282"><ele>172.42857142857144</ele><time>2026-04-12T12:13:59.999Z</time></trkpt><trkpt lat="42.061185139911586" lon="11.92403878230055"><ele>170.2857142857143</ele><time>2026-04-12T12:14:01.999Z</time></trkpt><trkpt lat="42.061122082372144" lon="11.924022903441953"><ele>168.14285714285714</ele><time>2026-04-12T12:14:02.999Z</time></trkpt><trkpt lat="42.061044212705525" lon="11.923996971743698"><ele>166.0</ele><time>2026-04-12T12:14:03.999Z</time></trkpt><trkpt lat="42.06095007334004" lon="11.923981932039617"><ele>166.0</ele><time>2026-04-12T12:14:05.999Z</time></trkpt><trkpt lat="42.06082997998477" lon="11.924056410417466"><ele>166.0</ele><time>2026-04-12T12:14:07.999Z</time></trkpt><trkpt lat="42.060759087163795" lon="11.924102628613028"><ele>166.0</ele><time>2026-04-12T12:14:08.999Z</time></trkpt><trkpt lat="42.060699935729744" lon="11.924144542564262"><ele>166.0</ele><time>2026-04-12T12:14:09.999Z</time></trkpt><trkpt lat="42.060593813313744" lon="11.924209134075332"><ele>166.0</ele><time>2026-04-12T12:14:11.999Z</time></trkpt><trkpt lat="42.060496939523716" lon="11.924322674294858"><ele>168.4</ele><time>2026-04-12T12:14:13.999Z</time></trkpt><trkpt lat="42.06039639477312" lon="11.924370473069054"><ele>170.8</ele><time>2026-04-12T12:14:15.999Z</time></trkpt><trkpt lat="42.06029471103367" lon="11.924415104219099"><ele>173.20000000000002</ele><time>2026-04-12T12:14:17.999Z</time></trkpt><trkpt lat="42.06021264704732" lon="11.92440502509733"><ele>175.60000000000002</ele><time>2026-04-12T12:14:18.999Z</time></trkpt><trkpt lat="42.06010881534238" lon="11.924347211677777"><ele>178.0</ele><time>2026-04-12T12:14:19.999Z</time></trkpt><trkpt lat="42.05997207012796" lon="11.924327227788584"><ele>178.75</ele><time>2026-04-12T12:14:21.999Z</time></trkpt><trkpt lat="42.059867858119254" lon="11.924233320041633"><ele>179.5</ele><time>2026-04-12T12:14:22.999Z</time></trkpt><trkpt lat="42.059753484628516" lon="11.924140009812051"><ele>180.25</ele><time>2026-04-12T12:14:23.999Z</time></trkpt><trkpt lat="42.059654221702466" lon="11.924094247044152"><ele>181.0</ele><time>2026-04-12T12:14:24.999Z</time></trkpt><trkpt lat="42.05955906118829" lon="11.924033780864411"><ele>178.4</ele><time>2026-04-12T12:14:26.999Z</time></trkpt><trkpt lat="42.05949419284368" lon="11.923896138209182"><ele>175.8</ele><time>2026-04-12T12:14:28.999Z</time></trkpt><trkpt lat="42.05946690693116" lon="11.92381394331626"><ele>173.20000000000002</ele><time>2026-04-12T12:14:29.999Z</time></trkpt><trkpt lat="42.05940532649008" lon="11.923739759505109"><ele>170.60000000000002</ele><time>2026-04-12T12:14:30.999Z</time></trkpt><trkpt lat="42.05931544182868" lon="11.92360451297673"><ele>168.0</ele><time>2026-04-12T12:14:32.999Z</time></trkpt><trkpt lat="42.05926911808467" lon="11.92353375112729"><ele>168.0</ele><time>2026-04-12T12:14:33.999Z</time></trkpt><trkpt lat="42.05923549181241" lon="11.923440056657531"><ele>168.0</ele><time>2026-04-12T12:14:34.999Z</time></trkpt><trkpt lat="42.059187968079414" lon="11.923345267949509"><ele>168.0</ele><time>2026-04-12T12:14:36.999Z</time></trkpt><trkpt lat="42.05908222926531" lon="11.923279285765979"><ele>168.0</ele><time>2026-04-12T12:14:38.999Z</time></trkpt><trkpt lat="42.05897931422691" lon="11.92322238520565"><ele>168.0</ele><time>2026-04-12T12:14:40.999Z</time></trkpt><trkpt lat="42.05892219908768" lon="11.923185864980988"><ele>165.5</ele><time>2026-04-12T12:14:41.999Z</time></trkpt><trkpt lat="42.05884726910989" lon="11.923167560738332"><ele>163.0</ele><time>2026-04-12T12:14:42.999Z</time></trkpt><trkpt lat="42.05875324060657" lon="11.923220460845037"><ele>160.5</ele><time>2026-04-12T12:14:43.999Z</time></trkpt><trkpt lat="42.05866533774465" lon="11.923309851082282"><ele>158.0</ele><time>2026-04-12T12:14:45Z</time></trkpt><trkpt lat="42.058598784789204" lon="11.923278439006483"><ele>155.5</ele><time>2026-04-12T12:14:46Z</time></trkpt><trkpt lat="42.05854098996001" lon="11.923235196135856"><ele>153.0</ele><time>2026-04-12T12:14:47Z</time></trkpt><trkpt lat="42.058469318563695" lon="11.923295946436976"><ele>153.8</ele><time>2026-04-12T12:14:48Z</time></trkpt><trkpt lat="42.058386004711984" lon="11.923410989254279"><ele>154.60000000000002</ele><time>2026-04-12T12:14:49Z</time></trkpt><trkpt lat="42.05830921346781" lon="11.923420008999795"><ele>155.39999999999998</ele><time>2026-04-12T12:14:50Z</time></trkpt><trkpt lat="42.058227287359934" lon="11.923429228996925"><ele>156.2</ele><time>2026-04-12T12:14:51Z</time></trkpt><trkpt lat="42.05811500654254" lon="11.92342832595682"><ele>157.0</ele><time>2026-04-12T12:14:52Z</time></trkpt><trkpt lat="42.058054999947494" lon="11.923477244925056"><ele>157.0</ele><time>2026-04-12T12:14:53Z</time></trkpt><trkpt lat="42.05795833463599" lon="11.923509150022506"><ele>157.0</ele><time>2026-04-12T12:14:54Z</time></trkpt><trkpt lat="42.05788449621221" lon="11.923544589419365"><ele>157.0</ele><time>2026-04-12T12:14:55Z</time></trkpt><trkpt lat="42.05781107711259" lon="11.92355081721308"><ele>157.0</ele><time>2026-04-12T12:14:56Z</time></trkpt><trkpt lat="42.05774779459447" lon="11.923551612106024"><ele>157.0</ele><time>2026-04-12T12:14:57Z</time></trkpt><trkpt lat="42.057677727940536" lon="11.923528090607343"><ele>157.0</ele><time>2026-04-12T12:14:58Z</time></trkpt><trkpt lat="42.05758657650501" lon="11.923636723727265"><ele>157.0</ele><time>2026-04-12T12:15:00Z</time></trkpt><trkpt lat="42.05752391850484" lon="11.92360069567587"><ele>157.0</ele><time>2026-04-12T12:15:02Z</time></trkpt><trkpt lat="42.05740141487882" lon="11.923621245145004"><ele>157.0</ele><time>2026-04-12T12:15:04Z</time></trkpt><trkpt lat="42.05731046874379" lon="11.923639954318785"><ele>157.0</ele><time>2026-04-12T12:15:05Z</time></trkpt><trkpt lat="42.057159241272686" lon="11.923665981332013"><ele>157.0</ele><time>2026-04-12T12:15:07Z</time></trkpt><trkpt lat="42.05726021006707" lon="11.923572904049088"><ele>155.4</ele><time>2026-04-12T12:15:09Z</time></trkpt><trkpt lat="42.05719492894542" lon="11.92363850757422"><ele>153.79999999999998</ele><time>2026-04-12T12:15:13Z</time></trkpt><trkpt lat="42.05711570158641" lon="11.923670371781787"><ele>152.2</ele><time>2026-04-12T12:15:16Z</time></trkpt><trkpt lat="42.05703934412564" lon="11.923604082829662"><ele>150.6</ele><time>2026-04-12T12:15:19Z</time></trkpt><trkpt lat="42.05695747609184" lon="11.923577154091733"><ele>149.0</ele><time>2026-04-12T12:15:21Z</time></trkpt><trkpt lat="42.05684218634483" lon="11.923535509678159"><ele>149.0</ele><time>2026-04-12T12:15:23Z</time></trkpt><trkpt lat="42.05672904297789" lon="11.923440638730362"><ele>149.0</ele><time>2026-04-12T12:15:24Z</time></trkpt><trkpt lat="42.056555519370555" lon="11.92346497805424"><ele>149.0</ele><time>2026-04-12T12:15:25Z</time></trkpt><trkpt lat="42.05629767279139" lon="11.923383837868354"><ele>147.8</ele><time>2026-04-12T12:15:26Z</time></trkpt><trkpt lat="42.05614783377936" lon="11.923407629775177"><ele>146.60000000000002</ele><time>2026-04-12T12:15:27Z</time></trkpt><trkpt lat="42.05608428471962" lon="11.92336834225496"><ele>145.4</ele><time>2026-04-12T12:15:28Z</time></trkpt><trkpt lat="42.056001270888736" lon="11.923337902308537"><ele>144.20000000000002</ele><time>2026-04-12T12:15:29Z</time></trkpt><trkpt lat="42.0559328258959" lon="11.923291278467948"><ele>143.0</ele><time>2026-04-12T12:15:30Z</time></trkpt><trkpt lat="42.05583356482341" lon="11.923266894481053"><ele>140.33333333333331</ele><time>2026-04-12T12:15:31Z</time></trkpt><trkpt lat="42.05574662652917" lon="11.92323818784592"><ele>137.66666666666666</ele><time>2026-04-12T12:15:32Z</time></trkpt><trkpt lat="42.05567178266087" lon="11.923230403639177"><ele>135.0</ele><time>2026-04-12T12:15:33Z</time></trkpt><trkpt lat="42.05559933691386" lon="11.923203375501192"><ele>132.33333333333334</ele><time>2026-04-12T12:15:34Z</time></trkpt><trkpt lat="42.05552372760328" lon="11.923177311775492"><ele>129.66666666666669</ele><time>2026-04-12T12:15:35Z</time></trkpt><trkpt lat="42.055443262047774" lon="11.92319694925367"><ele>127.0</ele><time>2026-04-12T12:15:36Z</time></trkpt><trkpt lat="42.05537928541458" lon="11.923157620795553"><ele>127.0</ele><time>2026-04-12T12:15:37Z</time></trkpt><trkpt lat="42.055318382623504" lon="11.923121651170828"><ele>126.99999999999999</ele><time>2026-04-12T12:15:38Z</time></trkpt><trkpt lat="42.05525784365367" lon="11.923014388492481"><ele>126.99999999999999</ele><time>2026-04-12T12:15:39Z</time></trkpt><trkpt lat="42.05515997651572" lon="11.923015739785749"><ele>127.0</ele><time>2026-04-12T12:15:41Z</time></trkpt><trkpt lat="42.05512604269071" lon="11.923091498366013"><ele>127.0</ele><time>2026-04-12T12:15:42Z</time></trkpt><trkpt lat="42.05499906556909" lon="11.92307472137311"><ele>127.0</ele><time>2026-04-12T12:15:43.999Z</time></trkpt><trkpt lat="42.05506686709531" lon="11.923032145903822"><ele>127.0</ele><time>2026-04-12T12:15:44.999Z</time></trkpt><trkpt lat="42.05485816166991" lon="11.922893934448703"><ele>127.0</ele><time>2026-04-12T12:15:48.999Z</time></trkpt><trkpt lat="42.05479701005349" lon="11.922835410550636"><ele>127.0</ele><time>2026-04-12T12:15:49.999Z</time></trkpt><trkpt lat="42.054703350733476" lon="11.92275673975482"><ele>124.6</ele><time>2026-04-12T12:15:51.999Z</time></trkpt><trkpt lat="42.05465168687573" lon="11.92269687734773"><ele>122.19999999999999</ele><time>2026-04-12T12:15:52.999Z</time></trkpt><trkpt lat="42.05454220469412" lon="11.922615883931254"><ele>119.8</ele><time>2026-04-12T12:15:54.999Z</time></trkpt><trkpt lat="42.05448256161493" lon="11.922513960824235"><ele>117.4</ele><time>2026-04-12T12:15:55.999Z</time></trkpt><trkpt lat="42.054364149239895" lon="11.922465559434645"><ele>115.0</ele><time>2026-04-12T12:15:57.999Z</time></trkpt><trkpt lat="42.05429639025813" lon="11.922515902154007"><ele>114.00000000000001</ele><time>2026-04-12T12:15:59.999Z</time></trkpt><trkpt lat="42.05430685061407" lon="11.922612974904572"><ele>113.0</ele><time>2026-04-12T12:17:51.999Z</time></trkpt><trkpt lat="42.0543333004175" lon="11.922701719662907"><ele>112.0</ele><time>2026-04-12T12:17:53.999Z</time></trkpt><trkpt lat="42.05431291991397" lon="11.9228024908828"><ele>111.0</ele><time>2026-04-12T12:17:55.999Z</time></trkpt><trkpt lat="42.05427936279585" lon="11.922889073447257"><ele>110.00000000000001</ele><time>2026-04-12T12:17:57.999Z</time></trkpt><trkpt lat="42.05429981841153" lon="11.923057805942122"><ele>109.0</ele><time>2026-04-12T12:17:59.999Z</time></trkpt><trkpt lat="42.05432853630249" lon="11.92314422528691"><ele>109.00000000000001</ele><time>2026-04-12T12:18:00.999Z</time></trkpt><trkpt lat="42.05434740600909" lon="11.92322627214279"><ele>109.0</ele><time>2026-04-12T12:18:01.999Z</time></trkpt><trkpt lat="42.05436825802899" lon="11.923317478942907"><ele>109.0</ele><time>2026-04-12T12:18:02.999Z</time></trkpt><trkpt lat="42.05437242763896" lon="11.923417768752678"><ele>109.0</ele><time>2026-04-12T12:18:03.999Z</time></trkpt><trkpt lat="42.05438708457" lon="11.923509492583582"><ele>109.00000000000001</ele><time>2026-04-12T12:18:04.999Z</time></trkpt><trkpt lat="42.05441767227332" lon="11.923658185608362"><ele>109.0</ele><time>2026-04-12T12:18:06.999Z</time></trkpt><trkpt lat="42.054349937507595" lon="11.923747830290127"><ele>107.80000000000001</ele><time>2026-04-12T12:18:07.999Z</time></trkpt><trkpt lat="42.05425265185926" lon="11.923820870366946"><ele>106.60000000000001</ele><time>2026-04-12T12:18:08.999Z</time></trkpt><trkpt lat="42.0541929851601" lon="11.923937615183"><ele>105.4</ele><time>2026-04-12T12:18:10.999Z</time></trkpt><trkpt lat="42.05412563109104" lon="11.924057441005786"><ele>104.2</ele><time>2026-04-12T12:18:12.999Z</time></trkpt><trkpt lat="42.05407839261804" lon="11.924131350751708"><ele>103.0</ele><time>2026-04-12T12:18:13.999Z</time></trkpt><trkpt lat="42.054019974291116" lon="11.92420557690874"><ele>99.16666666666667</ele><time>2026-04-12T12:18:14.999Z</time></trkpt><trkpt lat="42.05397671195721" lon="11.924282082000355"><ele>95.33333333333334</ele><time>2026-04-12T12:18:15.999Z</time></trkpt><trkpt lat="42.053941977801266" lon="11.924371585578138"><ele>91.5</ele><time>2026-04-12T12:18:16.999Z</time></trkpt><trkpt lat="42.053917604969804" lon="11.924488925970431"><ele>87.66666666666667</ele><time>2026-04-12T12:18:17.999Z</time></trkpt><trkpt lat="42.053872847588394" lon="11.92457230401807"><ele>83.83333333333334</ele><time>2026-04-12T12:18:18.999Z</time></trkpt><trkpt lat="42.05382396423688" lon="11.924669303907297"><ele>80.0</ele><time>2026-04-12T12:18:19.999Z</time></trkpt><trkpt lat="42.053740774413775" lon="11.924789932414662"><ele>80.0</ele><time>2026-04-12T12:18:21.999Z</time></trkpt><trkpt lat="42.05367943407589" lon="11.924810261087476"><ele>80.0</ele><time>2026-04-12T12:18:22.999Z</time></trkpt><trkpt lat="42.05364463272178" lon="11.92492434135423"><ele>80.0</ele><time>2026-04-12T12:18:24.999Z</time></trkpt><trkpt lat="42.05366437572135" lon="11.925096106728699"><ele>80.0</ele><time>2026-04-12T12:18:26.999Z</time></trkpt><trkpt lat="42.053667803353086" lon="11.925191956793267"><ele>80.0</ele><time>2026-04-12T12:18:27.999Z</time></trkpt><trkpt lat="42.05364788158481" lon="11.925308186734348"><ele>80.0</ele><time>2026-04-12T12:18:28.999Z</time></trkpt><trkpt lat="42.05364852478511" lon="11.925397230666213"><ele>79.83333333333334</ele><time>2026-04-12T12:18:29.999Z</time></trkpt><trkpt lat="42.05364357496651" lon="11.925544459147241"><ele>79.66666666666667</ele><time>2026-04-12T12:18:31.999Z</time></trkpt><trkpt lat="42.053606837402604" lon="11.925614086801824"><ele>79.5</ele><time>2026-04-12T12:18:32.999Z</time></trkpt><trkpt lat="42.053554670943264" lon="11.925681451707147"><ele>79.33333333333333</ele><time>2026-04-12T12:18:33.999Z</time></trkpt><trkpt lat="42.05349766633274" lon="11.925761710130306"><ele>79.16666666666666</ele><time>2026-04-12T12:18:34.999Z</time></trkpt><trkpt lat="42.05344090867521" lon="11.925839447740422"><ele>79.0</ele><time>2026-04-12T12:18:35.999Z</time></trkpt><trkpt lat="42.053389721263486" lon="11.925898427873861"><ele>76.8</ele><time>2026-04-12T12:18:36.999Z</time></trkpt><trkpt lat="42.05328859895359" lon="11.925969803925446"><ele>74.60000000000001</ele><time>2026-04-12T12:18:38.999Z</time></trkpt><trkpt lat="42.053208811789474" lon="11.926031598569647"><ele>72.4</ele><time>2026-04-12T12:18:40.999Z</time></trkpt><trkpt lat="42.053162339838295" lon="11.925963542587429"><ele>70.2</ele><time>2026-04-12T12:18:42.999Z</time></trkpt><trkpt lat="42.05299695909799" lon="11.9260081050507"><ele>68.0</ele><time>2026-04-12T12:19:24Z</time></trkpt><trkpt lat="42.05286432644732" lon="11.926021662032015"><ele>68.0</ele><time>2026-04-12T12:19:26Z</time></trkpt><trkpt lat="42.05279900842949" lon="11.926030344614308"><ele>68.0</ele><time>2026-04-12T12:19:27Z</time></trkpt><trkpt lat="42.052732687356006" lon="11.926041728894807"><ele>68.0</ele><time>2026-04-12T12:19:28Z</time></trkpt><trkpt lat="42.05263128498497" lon="11.926057288116596"><ele>68.0</ele><time>2026-04-12T12:19:29Z</time></trkpt><trkpt lat="42.05254977002262" lon="11.926063492922506"><ele>68.0</ele><time>2026-04-12T12:19:30Z</time></trkpt><trkpt lat="42.052471821831965" lon="11.92605896582203"><ele>68.0</ele><time>2026-04-12T12:19:31Z</time></trkpt><trkpt lat="42.05238503769853" lon="11.926073529522826"><ele>66.5</ele><time>2026-04-12T12:19:32Z</time></trkpt><trkpt lat="42.05230584253518" lon="11.926056680731145"><ele>65.0</ele><time>2026-04-12T12:19:33Z</time></trkpt><trkpt lat="42.052215160122586" lon="11.926060035166806"><ele>63.5</ele><time>2026-04-12T12:19:34Z</time></trkpt><trkpt lat="42.05211916424346" lon="11.926060030040817"><ele>62.0</ele><time>2026-04-12T12:19:35Z</time></trkpt><trkpt lat="42.05203211135806" lon="11.926042091536775"><ele>60.50000000000001</ele><time>2026-04-12T12:19:36Z</time></trkpt><trkpt lat="42.05194477902851" lon="11.926032428450187"><ele>59.0</ele><time>2026-04-12T12:19:37Z</time></trkpt><trkpt lat="42.05186018232097" lon="11.92602179538158"><ele>59.00000000000001</ele><time>2026-04-12T12:19:38Z</time></trkpt><trkpt lat="42.05178348373899" lon="11.92601329213749"><ele>59.0</ele><time>2026-04-12T12:19:39Z</time></trkpt><trkpt lat="42.051703457883946" lon="11.926008312588724"><ele>59.0</ele><time>2026-04-12T12:19:40Z</time></trkpt><trkpt lat="42.05160932558688" lon="11.926006107798623"><ele>59.0</ele><time>2026-04-12T12:19:41Z</time></trkpt><trkpt lat="42.0515178550649" lon="11.92601122775064"><ele>59.00000000000001</ele><time>2026-04-12T12:19:42Z</time></trkpt><trkpt lat="42.05143294045923" lon="11.925998763921694"><ele>59.0</ele><time>2026-04-12T12:19:43Z</time></trkpt><trkpt lat="42.051328400641644" lon="11.92600800081462"><ele>57.6</ele><time>2026-04-12T12:19:44Z</time></trkpt><trkpt lat="42.051227882770675" lon="11.926001177062501"><ele>56.2</ele><time>2026-04-12T12:19:45Z</time></trkpt><trkpt lat="42.05112567268725" lon="11.925999002993825"><ele>54.800000000000004</ele><time>2026-04-12T12:19:46Z</time></trkpt><trkpt lat="42.051019206943934" lon="11.925980747060098"><ele>53.400000000000006</ele><time>2026-04-12T12:19:47Z</time></trkpt><trkpt lat="42.05090813964168" lon="11.925960049115455"><ele>52.0</ele><time>2026-04-12T12:19:48Z</time></trkpt><trkpt lat="42.05080319218538" lon="11.925943171721183"><ele>49.75</ele><time>2026-04-12T12:19:49Z</time></trkpt><trkpt lat="42.05069249776719" lon="11.925934813176356"><ele>47.5</ele><time>2026-04-12T12:19:50Z</time></trkpt><trkpt lat="42.05056618431971" lon="11.92593035697728"><ele>45.25</ele><time>2026-04-12T12:19:51Z</time></trkpt><trkpt lat="42.050439738891356" lon="11.925924557786232"><ele>43.0</ele><time>2026-04-12T12:19:52Z</time></trkpt><trkpt lat="42.05032357295218" lon="11.925913800221476"><ele>43.0</ele><time>2026-04-12T12:19:53Z</time></trkpt><trkpt lat="42.05021759143717" lon="11.925909613553998"><ele>43.0</ele><time>2026-04-12T12:19:54Z</time></trkpt><trkpt lat="42.050105504496415" lon="11.925895783521531"><ele>43.0</ele><time>2026-04-12T12:19:54.999Z</time></trkpt><trkpt lat="42.05000279268112" lon="11.92587309328248"><ele>43.0</ele><time>2026-04-12T12:19:55.999Z</time></trkpt><trkpt lat="42.04989596910218" lon="11.92585149476695"><ele>43.0</ele><time>2026-04-12T12:19:56.999Z</time></trkpt><trkpt lat="42.04978352794455" lon="11.925831720161652"><ele>42.25</ele><time>2026-04-12T12:19:57.999Z</time></trkpt><trkpt lat="42.04967011319935" lon="11.925809375089804"><ele>41.5</ele><time>2026-04-12T12:19:58.999Z</time></trkpt><trkpt lat="42.0495495241192" lon="11.925796711719768"><ele>40.75</ele><time>2026-04-12T12:19:59.999Z</time></trkpt><trkpt lat="42.04942861543352" lon="11.925799429045721"><ele>40.0</ele><time>2026-04-12T12:20:00.999Z</time></trkpt><trkpt lat="42.04931349200099" lon="11.925797344740555"><ele>40.0</ele><time>2026-04-12T12:20:01.999Z</time></trkpt><trkpt lat="42.04920387694103" lon="11.925786194674037"><ele>40.0</ele><time>2026-04-12T12:20:02.999Z</time></trkpt><trkpt lat="42.04909724982889" lon="11.925775076377272"><ele>40.0</ele><time>2026-04-12T12:20:03.999Z</time></trkpt><trkpt lat="42.04899939813392" lon="11.925770407029365"><ele>40.0</ele><time>2026-04-12T12:20:04.999Z</time></trkpt><trkpt lat="42.04890530711935" lon="11.925763900684723"><ele>40.0</ele><time>2026-04-12T12:20:05.999Z</time></trkpt><trkpt lat="42.04881492841681" lon="11.925768901041751"><ele>39.4</ele><time>2026-04-12T12:20:06.999Z</time></trkpt><trkpt lat="42.04872422951364" lon="11.925751220429719"><ele>38.8</ele><time>2026-04-12T12:20:07.999Z</time></trkpt><trkpt lat="42.04863210839672" lon="11.925748153311018"><ele>38.2</ele><time>2026-04-12T12:20:08.999Z</time></trkpt><trkpt lat="42.04854421281333" lon="11.925736568143265"><ele>37.6</ele><time>2026-04-12T12:20:09.999Z</time></trkpt><trkpt lat="42.04843695855765" lon="11.92573940952938"><ele>37.0</ele><time>2026-04-12T12:20:10.999Z</time></trkpt><trkpt lat="42.04833917798917" lon="11.925734197970783"><ele>35.6</ele><time>2026-04-12T12:20:11.999Z</time></trkpt><trkpt lat="42.048246190327895" lon="11.925737185161399"><ele>34.2</ele><time>2026-04-12T12:20:12.999Z</time></trkpt><trkpt lat="42.048150066291036" lon="11.925747841910352"><ele>32.8</ele><time>2026-04-12T12:20:13.999Z</time></trkpt><trkpt lat="42.048048690339066" lon="11.9257267754797"><ele>31.4</ele><time>2026-04-12T12:20:14.999Z</time></trkpt><trkpt lat="42.04795138461639" lon="11.925710067589955"><ele>30.0</ele><time>2026-04-12T12:20:15.999Z</time></trkpt><trkpt lat="42.047835774290284" lon="11.92569600497772"><ele>30.0</ele><time>2026-04-12T12:20:16.999Z</time></trkpt><trkpt lat="42.04770993075616" lon="11.925687902006777"><ele>30.0</ele><time>2026-04-12T12:20:17.999Z</time></trkpt><trkpt lat="42.04758164465974" lon="11.925695972003215"><ele>30.0</ele><time>2026-04-12T12:20:18.999Z</time></trkpt><trkpt lat="42.0474641946226" lon="11.925695822277445"><ele>30.0</ele><time>2026-04-12T12:20:19.999Z</time></trkpt><trkpt lat="42.04735549559152" lon="11.925680069801817"><ele>29.6</ele><time>2026-04-12T12:20:20.999Z</time></trkpt><trkpt lat="42.04726156817512" lon="11.925656480359118"><ele>29.2</ele><time>2026-04-12T12:20:21.999Z</time></trkpt><trkpt lat="42.04716391829716" lon="11.925642541054517"><ele>28.799999999999997</ele><time>2026-04-12T12:20:22.999Z</time></trkpt><trkpt lat="42.0470516935943" lon="11.925637593461872"><ele>28.4</ele><time>2026-04-12T12:20:23.999Z</time></trkpt><trkpt lat="42.04693973584011" lon="11.925631701399585"><ele>28.0</ele><time>2026-04-12T12:20:24.999Z</time></trkpt><trkpt lat="42.04683284884765" lon="11.925628013963872"><ele>28.0</ele><time>2026-04-12T12:20:25.999Z</time></trkpt><trkpt lat="42.04672356125161" lon="11.925612642504687"><ele>27.999999999999996</ele><time>2026-04-12T12:20:26.999Z</time></trkpt><trkpt lat="42.04661953432191" lon="11.92559091138886"><ele>27.999999999999996</ele><time>2026-04-12T12:20:27.999Z</time></trkpt><trkpt lat="42.046510095435785" lon="11.925575316122746"><ele>28.0</ele><time>2026-04-12T12:20:28.999Z</time></trkpt><trkpt lat="42.046416751923715" lon="11.925557937283452"><ele>28.0</ele><time>2026-04-12T12:20:29.999Z</time></trkpt><trkpt lat="42.046310326857956" lon="11.925559448635614"><ele>28.0</ele><time>2026-04-12T12:20:30.999Z</time></trkpt><trkpt lat="42.04621396639801" lon="11.92557257251635"><ele>27.999999999999996</ele><time>2026-04-12T12:20:31.999Z</time></trkpt><trkpt lat="42.04611204870819" lon="11.925591546315506"><ele>27.999999999999996</ele><time>2026-04-12T12:20:32.999Z</time></trkpt><trkpt lat="42.04601973092369" lon="11.92559545404115"><ele>28.0</ele><time>2026-04-12T12:20:33.999Z</time></trkpt><trkpt lat="42.04593982979789" lon="11.925592711110571"><ele>28.0</ele><time>2026-04-12T12:20:34.999Z</time></trkpt><trkpt lat="42.04583941465164" lon="11.92556485382142"><ele>27.4</ele><time>2026-04-12T12:20:35.999Z</time></trkpt><trkpt lat="42.04573606089977" lon="11.925527894085802"><ele>26.799999999999997</ele><time>2026-04-12T12:20:36.999Z</time></trkpt><trkpt lat="42.04561475909173" lon="11.925508684732648"><ele>26.2</ele><time>2026-04-12T12:20:37.999Z</time></trkpt><trkpt lat="42.04551976151444" lon="11.925487432472023"><ele>25.6</ele><time>2026-04-12T12:20:38.999Z</time></trkpt><trkpt lat="42.04542907678704" lon="11.925477681860569"><ele>25.0</ele><time>2026-04-12T12:20:39.999Z</time></trkpt><trkpt lat="42.045348741433145" lon="11.92546017477413"><ele>25.000000000000004</ele><time>2026-04-12T12:20:40.999Z</time></trkpt><trkpt lat="42.04527289370368" lon="11.92545466492246"><ele>25.0</ele><time>2026-04-12T12:20:41.999Z</time></trkpt><trkpt lat="42.04521003475061" lon="11.92544805554777"><ele>25.0</ele><time>2026-04-12T12:20:42.999Z</time></trkpt><trkpt lat="42.04511401628778" lon="11.925433205152522"><ele>25.0</ele><time>2026-04-12T12:20:44.999Z</time></trkpt><trkpt lat="42.04504183755116" lon="11.925424039888515"><ele>25.000000000000004</ele><time>2026-04-12T12:20:48.999Z</time></trkpt><trkpt lat="42.04497586932113" lon="11.925406995834608"><ele>25.0</ele><time>2026-04-12T12:20:52.999Z</time></trkpt><trkpt lat="42.04487430840667" lon="11.925400833333308"><ele>24.833333333333336</ele><time>2026-04-12T12:20:56.999Z</time></trkpt><trkpt lat="42.04480997761696" lon="11.925405709694216"><ele>24.666666666666668</ele><time>2026-04-12T12:20:57.999Z</time></trkpt><trkpt lat="42.04473992148488" lon="11.92539213528196"><ele>24.5</ele><time>2026-04-12T12:20:58.999Z</time></trkpt><trkpt lat="42.04465624630779" lon="11.925382204280917"><ele>24.333333333333336</ele><time>2026-04-12T12:20:59.999Z</time></trkpt><trkpt lat="42.04456706638561" lon="11.925376373034299"><ele>24.166666666666668</ele><time>2026-04-12T12:21:00.999Z</time></trkpt><trkpt lat="42.044461866987" lon="11.925391627437337"><ele>24.0</ele><time>2026-04-12T12:21:01.999Z</time></trkpt><trkpt lat="42.0443571503288" lon="11.92540614947749"><ele>24.0</ele><time>2026-04-12T12:21:03Z</time></trkpt><trkpt lat="42.04426270467583" lon="11.925427233162678"><ele>24.0</ele><time>2026-04-12T12:21:04Z</time></trkpt><trkpt lat="42.04414860548165" lon="11.925479928982918"><ele>24.0</ele><time>2026-04-12T12:21:05Z</time></trkpt><trkpt lat="42.044057739983565" lon="11.925510238510665"><ele>24.0</ele><time>2026-04-12T12:21:06Z</time></trkpt><trkpt lat="42.043977333355855" lon="11.925532369194169"><ele>24.0</ele><time>2026-04-12T12:21:07Z</time></trkpt><trkpt lat="42.04387206665704" lon="11.925573753250857"><ele>23.333333333333332</ele><time>2026-04-12T12:21:09Z</time></trkpt><trkpt lat="42.043786435525384" lon="11.925545036620797"><ele>22.666666666666668</ele><time>2026-04-12T12:21:12Z</time></trkpt><trkpt lat="42.04367888276358" lon="11.925507780991763"><ele>22.0</ele><time>2026-04-12T12:21:14Z</time></trkpt><trkpt lat="42.04361153061387" lon="11.925484133161044"><ele>21.333333333333336</ele><time>2026-04-12T12:21:15Z</time></trkpt><trkpt lat="42.043543739303146" lon="11.925456950630972"><ele>20.666666666666668</ele><time>2026-04-12T12:21:16Z</time></trkpt><trkpt lat="42.04346792418002" lon="11.925428169539899"><ele>20.0</ele><time>2026-04-12T12:21:17Z</time></trkpt><trkpt lat="42.043390150689646" lon="11.92540095742482"><ele>20.0</ele><time>2026-04-12T12:21:18Z</time></trkpt><trkpt lat="42.043311879974894" lon="11.925364768997504"><ele>20.0</ele><time>2026-04-12T12:21:19Z</time></trkpt><trkpt lat="42.04322783784663" lon="11.92533662120783"><ele>20.0</ele><time>2026-04-12T12:21:20Z</time></trkpt><trkpt lat="42.04314271398497" lon="11.925305802944319"><ele>20.0</ele><time>2026-04-12T12:21:21Z</time></trkpt><trkpt lat="42.043063695720306" lon="11.925279481177807"><ele>20.0</ele><time>2026-04-12T12:21:22Z</time></trkpt><trkpt lat="42.04297684227018" lon="11.925258761427731"><ele>20.0</ele><time>2026-04-12T12:21:23Z</time></trkpt><trkpt lat="42.04288557230108" lon="11.925239280791608"><ele>19.6</ele><time>2026-04-12T12:21:24Z</time></trkpt><trkpt lat="42.042785824061085" lon="11.925228594457018"><ele>19.2</ele><time>2026-04-12T12:21:25Z</time></trkpt><trkpt lat="42.042679604629896" lon="11.925217347396835"><ele>18.8</ele><time>2026-04-12T12:21:26Z</time></trkpt><trkpt lat="42.04256953911007" lon="11.925195660728743"><ele>18.4</ele><time>2026-04-12T12:21:27Z</time></trkpt><trkpt lat="42.04246696955456" lon="11.925169489471552"><ele>18.0</ele><time>2026-04-12T12:21:28Z</time></trkpt><trkpt lat="42.04236760484101" lon="11.925144233510999"><ele>17.0</ele><time>2026-04-12T12:21:29Z</time></trkpt><trkpt lat="42.042263104919584" lon="11.925144406854574"><ele>16.0</ele><time>2026-04-12T12:21:30Z</time></trkpt><trkpt lat="42.042154713735705" lon="11.925146817597533"><ele>15.0</ele><time>2026-04-12T12:21:31Z</time></trkpt><trkpt lat="42.04204396963064" lon="11.925138699563526"><ele>14.0</ele><time>2026-04-12T12:21:32Z</time></trkpt><trkpt lat="42.04192625471188" lon="11.92513042856591"><ele>13.0</ele><time>2026-04-12T12:21:33Z</time></trkpt><trkpt lat="42.041808701329224" lon="11.925112718769775"><ele>13.0</ele><time>2026-04-12T12:21:34Z</time></trkpt><trkpt lat="42.041686540537114" lon="11.925098625527871"><ele>13.0</ele><time>2026-04-12T12:21:35Z</time></trkpt><trkpt lat="42.041561435842056" lon="11.92507857721691"><ele>13.0</ele><time>2026-04-12T12:21:36Z</time></trkpt><trkpt lat="42.041429904254855" lon="11.925070365062188"><ele>13.0</ele><time>2026-04-12T12:21:37Z</time></trkpt><trkpt lat="42.041273581498814" lon="11.92505032435803"><ele>12.666666666666666</ele><time>2026-04-12T12:21:38Z</time></trkpt><trkpt lat="42.04110388305078" lon="11.92501291215841"><ele>12.333333333333332</ele><time>2026-04-12T12:21:39Z</time></trkpt><trkpt lat="42.040947880529465" lon="11.925001461131332"><ele>12.0</ele><time>2026-04-12T12:21:40Z</time></trkpt><trkpt lat="42.040803761626485" lon="11.924990882386139"><ele>11.0</ele><time>2026-04-12T12:21:41Z</time></trkpt><trkpt lat="42.04067376036135" lon="11.924981339915776"><ele>10.0</ele><time>2026-04-12T12:21:42Z</time></trkpt><trkpt lat="42.04053331527237" lon="11.924971030841288"><ele>9.0</ele><time>2026-04-12T12:21:43Z</time></trkpt><trkpt lat="42.04041254357291" lon="11.924962165849069"><ele>8.0</ele><time>2026-04-12T12:21:44Z</time></trkpt><trkpt lat="42.04032359662574" lon="11.924954435739203"><ele>8.0</ele><time>2026-04-12T12:21:45Z</time></trkpt><trkpt lat="42.04021982307236" lon="11.924943996158015"><ele>8.0</ele><time>2026-04-12T12:21:46Z</time></trkpt><trkpt lat="42.0401356112271" lon="11.924956413006473"><ele>8.0</ele><time>2026-04-12T12:21:47Z</time></trkpt><trkpt lat="42.0400677663098" lon="11.924983660369705"><ele>8.0</ele><time>2026-04-12T12:21:48Z</time></trkpt><trkpt lat="42.04000157239292" lon="11.925044902803617"><ele>8.0</ele><time>2026-04-12T12:21:49Z</time></trkpt><trkpt lat="42.0399444936333" lon="11.925172291709792"><ele>7.25</ele><time>2026-04-12T12:21:50Z</time></trkpt><trkpt lat="42.03990008417543" lon="11.925312843421738"><ele>6.5</ele><time>2026-04-12T12:21:51Z</time></trkpt><trkpt lat="42.03984383394253" lon="11.925449863582958"><ele>5.75</ele><time>2026-04-12T12:21:52Z</time></trkpt><trkpt lat="42.039778301128145" lon="11.925628794071786"><ele>5.0</ele><time>2026-04-12T12:21:53Z</time></trkpt><trkpt lat="42.03973117867945" lon="11.925797302426552"><ele>5.0</ele><time>2026-04-12T12:21:54Z</time></trkpt><trkpt lat="42.03966030632262" lon="11.92595826419926"><ele>5.0</ele><time>2026-04-12T12:21:55Z</time></trkpt><trkpt lat="42.03961258482101" lon="11.926139118706718"><ele>5.0</ele><time>2026-04-12T12:21:56Z</time></trkpt><trkpt lat="42.039562561753186" lon="11.926287527342923"><ele>5.0</ele><time>2026-04-12T12:21:57Z</time></trkpt><trkpt lat="42.0395095825123" lon="11.926435089768141"><ele>5.0</ele><time>2026-04-12T12:21:58Z</time></trkpt><trkpt lat="42.03946083880217" lon="11.92658449947106"><ele>5.0</ele><time>2026-04-12T12:21:59Z</time></trkpt><trkpt lat="42.039417562211824" lon="11.926715582620249"><ele>5.0</ele><time>2026-04-12T12:22:00Z</time></trkpt><trkpt lat="42.03937918747918" lon="11.926839788817203"><ele>5.0</ele><time>2026-04-12T12:22:01Z</time></trkpt><trkpt lat="42.03934361556407" lon="11.926958242507899"><ele>5.0</ele><time>2026-04-12T12:22:02Z</time></trkpt><trkpt lat="42.03929771443959" lon="11.927082487525217"><ele>5.0</ele><time>2026-04-12T12:22:02.999Z</time></trkpt><trkpt lat="42.03925550677929" lon="11.927221422454824"><ele>5.0</ele><time>2026-04-12T12:22:03.999Z</time></trkpt><trkpt lat="42.03921621519192" lon="11.927336546458301"><ele>5.0</ele><time>2026-04-12T12:22:04.999Z</time></trkpt><trkpt lat="42.03919060493182" lon="11.927440839925234"><ele>5.0</ele><time>2026-04-12T12:22:05.999Z</time></trkpt><trkpt lat="42.039160440235555" lon="11.927556389270652"><ele>5.0</ele><time>2026-04-12T12:22:06.999Z</time></trkpt><trkpt lat="42.03913262639667" lon="11.927658675448072"><ele>5.0</ele><time>2026-04-12T12:22:07.999Z</time></trkpt><trkpt lat="42.03909547516497" lon="11.927789279396489"><ele>5.0</ele><time>2026-04-12T12:22:09.999Z</time></trkpt><trkpt lat="42.03906429371945" lon="11.927872359302134"><ele>5.0</ele><time>2026-04-12T12:22:24.999Z</time></trkpt><trkpt lat="42.03905025791355" lon="11.927960382662226"><ele>5.0</ele><time>2026-04-12T12:23:23Z</time></trkpt><trkpt lat="42.038989334725805" lon="11.92803300897883"><ele>5.0</ele><time>2026-04-12T12:23:26Z</time></trkpt><trkpt lat="42.03889358360009" lon="11.928155887142932"><ele>5.0</ele><time>2026-04-12T12:23:28Z</time></trkpt><trkpt lat="42.03884275767745" lon="11.928251670309981"><ele>5.0</ele><time>2026-04-12T12:23:29Z</time></trkpt><trkpt lat="42.03878943934947" lon="11.928370893352552"><ele>5.0</ele><time>2026-04-12T12:23:30Z</time></trkpt><trkpt lat="42.03874074404404" lon="11.928470090164687"><ele>5.0</ele><time>2026-04-12T12:23:31Z</time></trkpt><trkpt lat="42.03866719575214" lon="11.928612578365605"><ele>5.0</ele><time>2026-04-12T12:23:32Z</time></trkpt><trkpt lat="42.03858867973195" lon="11.928759960154371"><ele>5.4</ele><time>2026-04-12T12:23:33Z</time></trkpt><trkpt lat="42.038526974109935" lon="11.928891183220772"><ele>5.8</ele><time>2026-04-12T12:23:34Z</time></trkpt><trkpt lat="42.038467503689986" lon="11.929006164836487"><ele>6.199999999999999</ele><time>2026-04-12T12:23:35Z</time></trkpt><trkpt lat="42.038410268543096" lon="11.929120137071664"><ele>6.6</ele><time>2026-04-12T12:23:36Z</time></trkpt><trkpt lat="42.03835271622801" lon="11.929229543332207"><ele>7.0</ele><time>2026-04-12T12:23:37Z</time></trkpt><trkpt lat="42.0383018278408" lon="11.92932084605095"><ele>6.8</ele><time>2026-04-12T12:23:38Z</time></trkpt><trkpt lat="42.03826812881717" lon="11.929426289246026"><ele>6.6</ele><time>2026-04-12T12:23:39Z</time></trkpt><trkpt lat="42.03824396720842" lon="11.929514759920718"><ele>6.3999999999999995</ele><time>2026-04-12T12:23:40Z</time></trkpt><trkpt lat="42.03821468154897" lon="11.92965703353845"><ele>6.199999999999999</ele><time>2026-04-12T12:23:42Z</time></trkpt><trkpt lat="42.038192850341304" lon="11.929742983599398"><ele>6.0</ele><time>2026-04-12T12:23:43Z</time></trkpt><trkpt lat="42.0381350149752" lon="11.92991276192112"><ele>6.0</ele><time>2026-04-12T12:23:45Z</time></trkpt><trkpt lat="42.03810933158706" lon="11.930007918797463"><ele>6.0</ele><time>2026-04-12T12:23:46Z</time></trkpt><trkpt lat="42.03810562565894" lon="11.93010260587825"><ele>6.0</ele><time>2026-04-12T12:23:47Z</time></trkpt><trkpt lat="42.03806356976343" lon="11.930191402960919"><ele>6.0</ele><time>2026-04-12T12:23:48Z</time></trkpt><trkpt lat="42.03802561696076" lon="11.930338066068488"><ele>6.0</ele><time>2026-04-12T12:23:49Z</time></trkpt><trkpt lat="42.03799756446589" lon="11.93048328711768"><ele>6.25</ele><time>2026-04-12T12:23:50Z</time></trkpt><trkpt lat="42.037960672301125" lon="11.930681346703748"><ele>6.5</ele><time>2026-04-12T12:23:51Z</time></trkpt><trkpt lat="42.03792932839232" lon="11.930868901072499"><ele>6.75</ele><time>2026-04-12T12:23:52Z</time></trkpt><trkpt lat="42.03789316569111" lon="11.931030731123062"><ele>7.0</ele><time>2026-04-12T12:23:53Z</time></trkpt><trkpt lat="42.037862047431716" lon="11.931183132761722"><ele>8.0</ele><time>2026-04-12T12:23:54Z</time></trkpt><trkpt lat="42.03781913092533" lon="11.931353099073453"><ele>9.0</ele><time>2026-04-12T12:23:55Z</time></trkpt><trkpt lat="42.03778823067096" lon="11.931546399379744"><ele>10.0</ele><time>2026-04-12T12:23:56Z</time></trkpt><trkpt lat="42.03776206615048" lon="11.93171459868439"><ele>11.0</ele><time>2026-04-12T12:23:57Z</time></trkpt><trkpt lat="42.03772363342111" lon="11.931869978698403"><ele>11.25</ele><time>2026-04-12T12:23:58Z</time></trkpt><trkpt lat="42.03769785491796" lon="11.93201623050539"><ele>11.5</ele><time>2026-04-12T12:23:59Z</time></trkpt><trkpt lat="42.03767674993487" lon="11.932167989204595"><ele>11.75</ele><time>2026-04-12T12:24:00Z</time></trkpt><trkpt lat="42.03764660750112" lon="11.93232449242343"><ele>12.0</ele><time>2026-04-12T12:24:01Z</time></trkpt><trkpt lat="42.03761716604066" lon="11.932473622297348"><ele>12.25</ele><time>2026-04-12T12:24:02Z</time></trkpt><trkpt lat="42.03758090923014" lon="11.932592835272189"><ele>12.5</ele><time>2026-04-12T12:24:03Z</time></trkpt><trkpt lat="42.037521909490096" lon="11.9327329314633"><ele>12.75</ele><time>2026-04-12T12:24:04Z</time></trkpt><trkpt lat="42.03747461469159" lon="11.932876289977425"><ele>13.0</ele><time>2026-04-12T12:24:05Z</time></trkpt><trkpt lat="42.037402002096194" lon="11.933049056310944"><ele>13.0</ele><time>2026-04-12T12:24:06Z</time></trkpt><trkpt lat="42.03735102022575" lon="11.933185819103327"><ele>13.0</ele><time>2026-04-12T12:24:07Z</time></trkpt><trkpt lat="42.03729384493474" lon="11.933310020017728"><ele>13.0</ele><time>2026-04-12T12:24:07.999Z</time></trkpt><trkpt lat="42.03724259643813" lon="11.933441061869281"><ele>13.0</ele><time>2026-04-12T12:24:08.999Z</time></trkpt><trkpt lat="42.0371867255255" lon="11.933596448737081"><ele>13.4</ele><time>2026-04-12T12:24:09.999Z</time></trkpt><trkpt lat="42.0371314810142" lon="11.933712628930328"><ele>13.8</ele><time>2026-04-12T12:24:10.999Z</time></trkpt><trkpt lat="42.03709047825672" lon="11.933834111680737"><ele>14.2</ele><time>2026-04-12T12:24:11.999Z</time></trkpt><trkpt lat="42.03703271778636" lon="11.933972562437004"><ele>14.6</ele><time>2026-04-12T12:24:12.999Z</time></trkpt><trkpt lat="42.03697728486152" lon="11.934105293155186"><ele>15.0</ele><time>2026-04-12T12:24:13.999Z</time></trkpt><trkpt lat="42.03692865953307" lon="11.934237595571055"><ele>15.2</ele><time>2026-04-12T12:24:14.999Z</time></trkpt><trkpt lat="42.03687561109279" lon="11.934349646726465"><ele>15.4</ele><time>2026-04-12T12:24:15.999Z</time></trkpt><trkpt lat="42.03684911204038" lon="11.93450028677579"><ele>15.600000000000001</ele><time>2026-04-12T12:24:16.999Z</time></trkpt><trkpt lat="42.03680818253208" lon="11.934648326870159"><ele>15.8</ele><time>2026-04-12T12:24:17.999Z</time></trkpt><trkpt lat="42.03677022354409" lon="11.934787178366998"><ele>16.0</ele><time>2026-04-12T12:24:18.999Z</time></trkpt><trkpt lat="42.03672630129661" lon="11.934942316996043"><ele>16.400000000000002</ele><time>2026-04-12T12:24:19.999Z</time></trkpt><trkpt lat="42.036682352020925" lon="11.935071649291052"><ele>16.8</ele><time>2026-04-12T12:24:20.999Z</time></trkpt><trkpt lat="42.03664690035126" lon="11.935208534382973"><ele>17.200000000000003</ele><time>2026-04-12T12:24:21.999Z</time></trkpt><trkpt lat="42.03660127756777" lon="11.935347134206394"><ele>17.6</ele><time>2026-04-12T12:24:22.999Z</time></trkpt><trkpt lat="42.0365424053617" lon="11.93548818574336"><ele>18.0</ele><time>2026-04-12T12:24:23.999Z</time></trkpt><trkpt lat="42.03650021263887" lon="11.93561284264899"><ele>17.2</ele><time>2026-04-12T12:24:24.999Z</time></trkpt><trkpt lat="42.03646904856967" lon="11.935758705579149"><ele>16.4</ele><time>2026-04-12T12:24:25.999Z</time></trkpt><trkpt lat="42.03643178875051" lon="11.935864515079714"><ele>15.599999999999998</ele><time>2026-04-12T12:24:26.999Z</time></trkpt><trkpt lat="42.03641008656587" lon="11.936009003949684"><ele>14.799999999999999</ele><time>2026-04-12T12:24:27.999Z</time></trkpt><trkpt lat="42.03636312208012" lon="11.936144505162087"><ele>14.0</ele><time>2026-04-12T12:24:28.999Z</time></trkpt><trkpt lat="42.036322328703825" lon="11.936270546136678"><ele>14.0</ele><time>2026-04-12T12:24:29.999Z</time></trkpt><trkpt lat="42.0362918492442" lon="11.936373996893993"><ele>14.0</ele><time>2026-04-12T12:24:30.999Z</time></trkpt><trkpt lat="42.03625484741528" lon="11.936449607048166"><ele>14.0</ele><time>2026-04-12T12:24:31.999Z</time></trkpt><trkpt lat="42.03622530600485" lon="11.936542591651817"><ele>14.0</ele><time>2026-04-12T12:24:32.999Z</time></trkpt><trkpt lat="42.03619933089933" lon="11.936652847452626"><ele>14.0</ele><time>2026-04-12T12:24:34.999Z</time></trkpt><trkpt lat="42.036162031019" lon="11.936730733732878"><ele>14.0</ele><time>2026-04-12T12:24:37.999Z</time></trkpt><trkpt lat="42.03617990317394" lon="11.93682096220106"><ele>14.0</ele><time>2026-04-12T12:24:56.999Z</time></trkpt><trkpt lat="42.03614664650108" lon="11.936903896385965"><ele>14.399999999999999</ele><time>2026-04-12T12:25:01.999Z</time></trkpt><trkpt lat="42.03609999403027" lon="11.936995683626225"><ele>14.799999999999999</ele><time>2026-04-12T12:25:03.999Z</time></trkpt><trkpt lat="42.03605689180304" lon="11.937108751889957"><ele>15.200000000000001</ele><time>2026-04-12T12:25:04.999Z</time></trkpt><trkpt lat="42.036013796805975" lon="11.937204526820171"><ele>15.600000000000001</ele><time>2026-04-12T12:25:05.999Z</time></trkpt><trkpt lat="42.035968662313365" lon="11.937314716319671"><ele>16.0</ele><time>2026-04-12T12:25:06.999Z</time></trkpt><trkpt lat="42.0358985171643" lon="11.937450226075434"><ele>16.5</ele><time>2026-04-12T12:25:07.999Z</time></trkpt><trkpt lat="42.03585083423279" lon="11.93759404442445"><ele>17.0</ele><time>2026-04-12T12:25:08.999Z</time></trkpt><trkpt lat="42.03580070184306" lon="11.937743347874875"><ele>17.5</ele><time>2026-04-12T12:25:09.999Z</time></trkpt><trkpt lat="42.0357477197417" lon="11.937892293750641"><ele>18.0</ele><time>2026-04-12T12:25:10.999Z</time></trkpt><trkpt lat="42.03568236873677" lon="11.93804380241437"><ele>18.0</ele><time>2026-04-12T12:25:11.999Z</time></trkpt><trkpt lat="42.03563550335303" lon="11.938159298324727"><ele>18.0</ele><time>2026-04-12T12:25:12.999Z</time></trkpt><trkpt lat="42.03558175082011" lon="11.938243429544416"><ele>18.0</ele><time>2026-04-12T12:25:13.999Z</time></trkpt><trkpt lat="42.035536746926724" lon="11.93830771789353"><ele>18.0</ele><time>2026-04-12T12:25:15Z</time></trkpt><trkpt lat="42.035499977636086" lon="11.938393551057969"><ele>18.0</ele><time>2026-04-12T12:25:16Z</time></trkpt><trkpt lat="42.035461835644256" lon="11.938511765776427"><ele>18.0</ele><time>2026-04-12T12:25:18Z</time></trkpt><trkpt lat="42.03543086623186" lon="11.938614753675381"><ele>18.666666666666668</ele><time>2026-04-12T12:25:20Z</time></trkpt><trkpt lat="42.0354184850819" lon="11.938706780627433"><ele>19.333333333333332</ele><time>2026-04-12T12:25:23Z</time></trkpt><trkpt lat="42.03547022418001" lon="11.938804802030223"><ele>20.0</ele><time>2026-04-12T12:26:19.999Z</time></trkpt><trkpt lat="42.035550135444836" lon="11.938870565056586"><ele>20.666666666666664</ele><time>2026-04-12T12:26:21.999Z</time></trkpt><trkpt lat="42.035639355797706" lon="11.938913662427677"><ele>21.333333333333332</ele><time>2026-04-12T12:26:22.999Z</time></trkpt><trkpt lat="42.03571302724782" lon="11.938950187215987"><ele>22.0</ele><time>2026-04-12T12:26:23.999Z</time></trkpt><trkpt lat="42.035844290667555" lon="11.93895377206281"><ele>22.75</ele><time>2026-04-12T12:26:24.999Z</time></trkpt><trkpt lat="42.035946320063225" lon="11.938983139376496"><ele>23.5</ele><time>2026-04-12T12:26:25.999Z</time></trkpt><trkpt lat="42.03607740581825" lon="11.939051935897801"><ele>24.25</ele><time>2026-04-12T12:26:26.999Z</time></trkpt><trkpt lat="42.03619719331536" lon="11.939106639215428"><ele>25.0</ele><time>2026-04-12T12:26:27.999Z</time></trkpt><trkpt lat="42.036322743552574" lon="11.939166159901122"><ele>25.5</ele><time>2026-04-12T12:26:28.999Z</time></trkpt><trkpt lat="42.036435564761604" lon="11.939249043865212"><ele>26.0</ele><time>2026-04-12T12:26:29.999Z</time></trkpt><trkpt lat="42.036555857269555" lon="11.939333118988198"><ele>26.5</ele><time>2026-04-12T12:26:30.999Z</time></trkpt><trkpt lat="42.036686368254045" lon="11.939431418204553"><ele>27.0</ele><time>2026-04-12T12:26:31.999Z</time></trkpt><trkpt lat="42.036812288292055" lon="11.939517355475328"><ele>27.0</ele><time>2026-04-12T12:26:32.999Z</time></trkpt><trkpt lat="42.03693173363466" lon="11.939611828501613"><ele>27.0</ele><time>2026-04-12T12:26:33.999Z</time></trkpt><trkpt lat="42.03706755443952" lon="11.939690008587379"><ele>27.0</ele><time>2026-04-12T12:26:34.999Z</time></trkpt><trkpt lat="42.037191462999594" lon="11.93978329576895"><ele>27.0</ele><time>2026-04-12T12:26:35.999Z</time></trkpt><trkpt lat="42.037314055013375" lon="11.939875522005858"><ele>27.0</ele><time>2026-04-12T12:26:36.999Z</time></trkpt><trkpt lat="42.03743366484084" lon="11.93997623605826"><ele>27.0</ele><time>2026-04-12T12:26:37.999Z</time></trkpt><trkpt lat="42.03755087712163" lon="11.9400689263454"><ele>27.0</ele><time>2026-04-12T12:26:38.999Z</time></trkpt><trkpt lat="42.03766004332519" lon="11.94015458813199"><ele>27.0</ele><time>2026-04-12T12:26:39.999Z</time></trkpt><trkpt lat="42.03776193625193" lon="11.940235037907936"><ele>27.200000000000003</ele><time>2026-04-12T12:26:40.999Z</time></trkpt><trkpt lat="42.037863371084626" lon="11.940306369454746"><ele>27.400000000000002</ele><time>2026-04-12T12:26:41.999Z</time></trkpt><trkpt lat="42.03796317134805" lon="11.940357590831416"><ele>27.599999999999998</ele><time>2026-04-12T12:26:42.999Z</time></trkpt><trkpt lat="42.03805873701963" lon="11.940391841308333"><ele>27.799999999999997</ele><time>2026-04-12T12:26:43.999Z</time></trkpt><trkpt lat="42.038146319640155" lon="11.94040328516892"><ele>28.0</ele><time>2026-04-12T12:26:44.999Z</time></trkpt><trkpt lat="42.03822620254053" lon="11.940433842714429"><ele>28.0</ele><time>2026-04-12T12:26:45.999Z</time></trkpt><trkpt lat="42.038292740262634" lon="11.940449529495705"><ele>27.999999999999996</ele><time>2026-04-12T12:26:46.999Z</time></trkpt><trkpt lat="42.03835761410483" lon="11.94066681308842"><ele>27.999999999999996</ele><time>2026-04-12T12:26:50.999Z</time></trkpt><trkpt lat="42.03833385197173" lon="11.940768064176279"><ele>28.0</ele><time>2026-04-12T12:26:51.999Z</time></trkpt><trkpt lat="42.03832618476509" lon="11.940876236698625"><ele>28.0</ele><time>2026-04-12T12:26:52.999Z</time></trkpt><trkpt lat="42.0383210206052" lon="11.9409924234471"><ele>28.2</ele><time>2026-04-12T12:26:53.999Z</time></trkpt><trkpt lat="42.0383084395034" lon="11.941106975980908"><ele>28.4</ele><time>2026-04-12T12:26:54.999Z</time></trkpt><trkpt lat="42.038306615323876" lon="11.941250007613624"><ele>28.599999999999998</ele><time>2026-04-12T12:26:55.999Z</time></trkpt><trkpt lat="42.03830869232827" lon="11.94139132887555"><ele>28.799999999999997</ele><time>2026-04-12T12:26:56.999Z</time></trkpt><trkpt lat="42.03828522623493" lon="11.94154366332056"><ele>29.0</ele><time>2026-04-12T12:26:57.999Z</time></trkpt><trkpt lat="42.038274518420536" lon="11.941681892690113"><ele>29.2</ele><time>2026-04-12T12:26:58.999Z</time></trkpt><trkpt lat="42.03826897475916" lon="11.941850594833435"><ele>29.4</ele><time>2026-04-12T12:26:59.999Z</time></trkpt><trkpt lat="42.038266857143945" lon="11.941993590371258"><ele>29.6</ele><time>2026-04-12T12:27:00.999Z</time></trkpt><trkpt lat="42.038240257207015" lon="11.942127901866218"><ele>29.8</ele><time>2026-04-12T12:27:01.999Z</time></trkpt><trkpt lat="42.03823052138215" lon="11.942265647195997"><ele>30.0</ele><time>2026-04-12T12:27:02.999Z</time></trkpt><trkpt lat="42.03822201192871" lon="11.942386361228708"><ele>30.0</ele><time>2026-04-12T12:27:03.999Z</time></trkpt><trkpt lat="42.038212547417075" lon="11.9425206236185"><ele>30.0</ele><time>2026-04-12T12:27:04.999Z</time></trkpt><trkpt lat="42.03820287232217" lon="11.942657873285809"><ele>30.0</ele><time>2026-04-12T12:27:05.999Z</time></trkpt><trkpt lat="42.03819419178453" lon="11.942781014193374"><ele>30.0</ele><time>2026-04-12T12:27:06.999Z</time></trkpt><trkpt lat="42.03818460513299" lon="11.942918558391113"><ele>30.0</ele><time>2026-04-12T12:27:07.999Z</time></trkpt><trkpt lat="42.03817769805424" lon="11.943025404126178"><ele>29.8</ele><time>2026-04-12T12:27:08.999Z</time></trkpt><trkpt lat="42.038169370528024" lon="11.943154222937867"><ele>29.6</ele><time>2026-04-12T12:27:09.999Z</time></trkpt><trkpt lat="42.038161155882975" lon="11.943281295508596"><ele>29.4</ele><time>2026-04-12T12:27:10.999Z</time></trkpt><trkpt lat="42.03816265132315" lon="11.943424985325182"><ele>29.2</ele><time>2026-04-12T12:27:11.999Z</time></trkpt><trkpt lat="42.03813350787929" lon="11.943581105609713"><ele>29.0</ele><time>2026-04-12T12:27:12.999Z</time></trkpt><trkpt lat="42.038112598619435" lon="11.943747210042584"><ele>29.0</ele><time>2026-04-12T12:27:13.999Z</time></trkpt><trkpt lat="42.03810628717028" lon="11.943917218697178"><ele>29.0</ele><time>2026-04-12T12:27:14.999Z</time></trkpt><trkpt lat="42.03809698880221" lon="11.944086248768649"><ele>29.0</ele><time>2026-04-12T12:27:15.999Z</time></trkpt><trkpt lat="42.038086334899845" lon="11.944263846271767"><ele>29.0</ele><time>2026-04-12T12:27:16.999Z</time></trkpt><trkpt lat="42.03807170398552" lon="11.944430362690946"><ele>29.75</ele><time>2026-04-12T12:27:17.999Z</time></trkpt><trkpt lat="42.03805886214112" lon="11.944594587628309"><ele>30.5</ele><time>2026-04-12T12:27:18.999Z</time></trkpt><trkpt lat="42.03804960419734" lon="11.944755360602583"><ele>31.25</ele><time>2026-04-12T12:27:19.999Z</time></trkpt><trkpt lat="42.03803360347789" lon="11.944931694584563"><ele>32.0</ele><time>2026-04-12T12:27:21Z</time></trkpt><trkpt lat="42.0380153782406" lon="11.945105527907828"><ele>32.0</ele><time>2026-04-12T12:27:22Z</time></trkpt><trkpt lat="42.038005146151605" lon="11.945279329100767"><ele>32.0</ele><time>2026-04-12T12:27:23Z</time></trkpt><trkpt lat="42.037990846781845" lon="11.945448371962245"><ele>32.0</ele><time>2026-04-12T12:27:24Z</time></trkpt><trkpt lat="42.03797741040044" lon="11.945614344617743"><ele>32.0</ele><time>2026-04-12T12:27:25Z</time></trkpt><trkpt lat="42.03796166454808" lon="11.945781024188463"><ele>32.25</ele><time>2026-04-12T12:27:26Z</time></trkpt><trkpt lat="42.03795258822049" lon="11.945934289460336"><ele>32.5</ele><time>2026-04-12T12:27:27Z</time></trkpt><trkpt lat="42.037958042133525" lon="11.946101482368453"><ele>32.75</ele><time>2026-04-12T12:27:28Z</time></trkpt><trkpt lat="42.03794852445432" lon="11.946257706225932"><ele>33.0</ele><time>2026-04-12T12:27:29Z</time></trkpt><trkpt lat="42.03793740136077" lon="11.9464402814851"><ele>33.0</ele><time>2026-04-12T12:27:30Z</time></trkpt><trkpt lat="42.037924776114515" lon="11.94662879737569"><ele>33.0</ele><time>2026-04-12T12:27:31Z</time></trkpt><trkpt lat="42.03791309395407" lon="11.946790760929938"><ele>33.0</ele><time>2026-04-12T12:27:32Z</time></trkpt><trkpt lat="42.03788249981351" lon="11.946962673478149"><ele>33.0</ele><time>2026-04-12T12:27:33Z</time></trkpt><trkpt lat="42.03787156549189" lon="11.947129685930845"><ele>33.5</ele><time>2026-04-12T12:27:34Z</time></trkpt><trkpt lat="42.03786998777586" lon="11.947315929317273"><ele>34.0</ele><time>2026-04-12T12:27:35Z</time></trkpt><trkpt lat="42.03785988886176" lon="11.947482506487244"><ele>34.5</ele><time>2026-04-12T12:27:36Z</time></trkpt><trkpt lat="42.03784831954466" lon="11.947659680267789"><ele>35.0</ele><time>2026-04-12T12:27:37Z</time></trkpt><trkpt lat="42.03783382151072" lon="11.94783197586167"><ele>35.25</ele><time>2026-04-12T12:27:38Z</time></trkpt><trkpt lat="42.03782026453215" lon="11.947995996383499"><ele>35.5</ele><time>2026-04-12T12:27:39Z</time></trkpt><trkpt lat="42.03780695971436" lon="11.948160102218866"><ele>35.75</ele><time>2026-04-12T12:27:40Z</time></trkpt><trkpt lat="42.03778481937324" lon="11.948320333952822"><ele>36.0</ele><time>2026-04-12T12:27:41Z</time></trkpt><trkpt lat="42.03776524268906" lon="11.948499980263401"><ele>36.25</ele><time>2026-04-12T12:27:42Z</time></trkpt><trkpt lat="42.03774380579772" lon="11.948681482308784"><ele>36.5</ele><time>2026-04-12T12:27:43Z</time></trkpt><trkpt lat="42.03772793941077" lon="11.948844331408427"><ele>36.75</ele><time>2026-04-12T12:27:44Z</time></trkpt><trkpt lat="42.03770618489517" lon="11.948981664869441"><ele>37.0</ele><time>2026-04-12T12:27:45Z</time></trkpt><trkpt lat="42.03769612028497" lon="11.949127582833581"><ele>37.4</ele><time>2026-04-12T12:27:46Z</time></trkpt><trkpt lat="42.037681313622535" lon="11.949259048917842"><ele>37.800000000000004</ele><time>2026-04-12T12:27:47Z</time></trkpt><trkpt lat="42.03765940924024" lon="11.949397032128195"><ele>38.2</ele><time>2026-04-12T12:27:48Z</time></trkpt><trkpt lat="42.037639418202154" lon="11.949530782561023"><ele>38.6</ele><time>2026-04-12T12:27:49Z</time></trkpt><trkpt lat="42.037607475243966" lon="11.94967573989758"><ele>39.0</ele><time>2026-04-12T12:27:50Z</time></trkpt><trkpt lat="42.037598248828566" lon="11.949830527167757"><ele>39.0</ele><time>2026-04-12T12:27:51Z</time></trkpt><trkpt lat="42.03758009910356" lon="11.950007934062963"><ele>39.0</ele><time>2026-04-12T12:27:52Z</time></trkpt><trkpt lat="42.037530709598684" lon="11.950199078670844"><ele>39.0</ele><time>2026-04-12T12:27:53Z</time></trkpt><trkpt lat="42.037514690459474" lon="11.950379232955221"><ele>39.0</ele><time>2026-04-12T12:27:54Z</time></trkpt><trkpt lat="42.037499442788864" lon="11.950562946235047"><ele>39.0</ele><time>2026-04-12T12:27:55Z</time></trkpt><trkpt lat="42.03747975623188" lon="11.950724892986752"><ele>39.0</ele><time>2026-04-12T12:27:56Z</time></trkpt><trkpt lat="42.03745980028602" lon="11.950890558488789"><ele>39.0</ele><time>2026-04-12T12:27:57Z</time></trkpt><trkpt lat="42.03743988644494" lon="11.95104453501856"><ele>39.0</ele><time>2026-04-12T12:27:58Z</time></trkpt><trkpt lat="42.03742253968282" lon="11.951219114191053"><ele>37.5</ele><time>2026-04-12T12:27:59Z</time></trkpt><trkpt lat="42.037405433410065" lon="11.951389548681899"><ele>36.0</ele><time>2026-04-12T12:28:00Z</time></trkpt><trkpt lat="42.03739170676813" lon="11.951553583064335"><ele>34.5</ele><time>2026-04-12T12:28:01Z</time></trkpt><trkpt lat="42.03737173961014" lon="11.951718412778371"><ele>33.0</ele><time>2026-04-12T12:28:02Z</time></trkpt><trkpt lat="42.03736856313186" lon="11.951880010490306"><ele>33.0</ele><time>2026-04-12T12:28:03Z</time></trkpt><trkpt lat="42.037354240733784" lon="11.952055269749785"><ele>33.0</ele><time>2026-04-12T12:28:04Z</time></trkpt><trkpt lat="42.037331471446244" lon="11.952233171576921"><ele>33.0</ele><time>2026-04-12T12:28:05Z</time></trkpt><trkpt lat="42.03731355284243" lon="11.952405851875115"><ele>33.0</ele><time>2026-04-12T12:28:06Z</time></trkpt><trkpt lat="42.037287008912024" lon="11.952598242689126"><ele>33.25</ele><time>2026-04-12T12:28:07Z</time></trkpt><trkpt lat="42.03726195532211" lon="11.952788388505592"><ele>33.5</ele><time>2026-04-12T12:28:08Z</time></trkpt><trkpt lat="42.037238216124884" lon="11.952961630774151"><ele>33.75</ele><time>2026-04-12T12:28:09Z</time></trkpt><trkpt lat="42.03722288711995" lon="11.953133191162815"><ele>34.0</ele><time>2026-04-12T12:28:10Z</time></trkpt><trkpt lat="42.03719726151502" lon="11.95329573529012"><ele>34.5</ele><time>2026-04-12T12:28:11Z</time></trkpt><trkpt lat="42.037173932023464" lon="11.95346319038521"><ele>35.0</ele><time>2026-04-12T12:28:12Z</time></trkpt><trkpt lat="42.03715550884556" lon="11.95365417400862"><ele>35.5</ele><time>2026-04-12T12:28:13Z</time></trkpt><trkpt lat="42.03713860035054" lon="11.953826996206955"><ele>36.0</ele><time>2026-04-12T12:28:14Z</time></trkpt><trkpt lat="42.03712527999006" lon="11.954024544410498"><ele>36.0</ele><time>2026-04-12T12:28:15Z</time></trkpt><trkpt lat="42.03708478289474" lon="11.95420751976833"><ele>36.0</ele><time>2026-04-12T12:28:16Z</time></trkpt><trkpt lat="42.03705210778561" lon="11.954377775229377"><ele>36.0</ele><time>2026-04-12T12:28:17Z</time></trkpt><trkpt lat="42.037031173266655" lon="11.954534673996005"><ele>36.0</ele><time>2026-04-12T12:28:18Z</time></trkpt><trkpt lat="42.03701509321089" lon="11.954697970805634"><ele>36.0</ele><time>2026-04-12T12:28:19Z</time></trkpt><trkpt lat="42.0370123547089" lon="11.954845378340133"><ele>36.0</ele><time>2026-04-12T12:28:19.999Z</time></trkpt><trkpt lat="42.03702194072732" lon="11.954988103761284"><ele>36.0</ele><time>2026-04-12T12:28:20.999Z</time></trkpt><trkpt lat="42.03701123673988" lon="11.955135305160667"><ele>36.0</ele><time>2026-04-12T12:28:21.999Z</time></trkpt><trkpt lat="42.03699375114664" lon="11.955287606964218"><ele>36.0</ele><time>2026-04-12T12:28:22.999Z</time></trkpt><trkpt lat="42.03697164928846" lon="11.955423012923774"><ele>35.75</ele><time>2026-04-12T12:28:23.999Z</time></trkpt><trkpt lat="42.03694433383589" lon="11.955555937333946"><ele>35.5</ele><time>2026-04-12T12:28:24.999Z</time></trkpt><trkpt lat="42.03693969240677" lon="11.95571216118333"><ele>35.25</ele><time>2026-04-12T12:28:25.999Z</time></trkpt><trkpt lat="42.03693023781956" lon="11.955878742365941"><ele>35.0</ele><time>2026-04-12T12:28:26.999Z</time></trkpt><trkpt lat="42.036910118965764" lon="11.95602326706514"><ele>35.0</ele><time>2026-04-12T12:28:27.999Z</time></trkpt><trkpt lat="42.03687073215235" lon="11.956190365360069"><ele>35.0</ele><time>2026-04-12T12:28:28.999Z</time></trkpt><trkpt lat="42.03682212709462" lon="11.95634466051628"><ele>35.0</ele><time>2026-04-12T12:28:29.999Z</time></trkpt><trkpt lat="42.03681485211742" lon="11.956531186152253"><ele>35.0</ele><time>2026-04-12T12:28:30.999Z</time></trkpt><trkpt lat="42.036833914428634" lon="11.95669727321536"><ele>35.0</ele><time>2026-04-12T12:28:31.999Z</time></trkpt><trkpt lat="42.03683442869417" lon="11.95683662418157"><ele>35.0</ele><time>2026-04-12T12:28:32.999Z</time></trkpt><trkpt lat="42.03684574560423" lon="11.956948580140647"><ele>35.0</ele><time>2026-04-12T12:28:33.999Z</time></trkpt><trkpt lat="42.03683719002451" lon="11.957052043616025"><ele>35.0</ele><time>2026-04-12T12:28:34.999Z</time></trkpt><trkpt lat="42.03680815970413" lon="11.95714339602289"><ele>35.0</ele><time>2026-04-12T12:28:35.999Z</time></trkpt><trkpt lat="42.036734378709696" lon="11.957237732815981"><ele>35.0</ele><time>2026-04-12T12:28:36.999Z</time></trkpt><trkpt lat="42.036661882561695" lon="11.957343300479113"><ele>34.4</ele><time>2026-04-12T12:28:37.999Z</time></trkpt><trkpt lat="42.03657590670986" lon="11.957443994677586"><ele>33.8</ele><time>2026-04-12T12:28:38.999Z</time></trkpt><trkpt lat="42.036478606449414" lon="11.957533646839215"><ele>33.2</ele><time>2026-04-12T12:28:39.999Z</time></trkpt><trkpt lat="42.03638796406062" lon="11.957595166177759"><ele>32.6</ele><time>2026-04-12T12:28:40.999Z</time></trkpt><trkpt lat="42.03629059768222" lon="11.95762287784465"><ele>32.0</ele><time>2026-04-12T12:28:41.999Z</time></trkpt><trkpt lat="42.03619504307709" lon="11.957620719730675"><ele>32.0</ele><time>2026-04-12T12:28:42.999Z</time></trkpt><trkpt lat="42.03610230569511" lon="11.957618851966894"><ele>32.0</ele><time>2026-04-12T12:28:43.999Z</time></trkpt><trkpt lat="42.03600509127526" lon="11.957594506768967"><ele>32.0</ele><time>2026-04-12T12:28:44.999Z</time></trkpt><trkpt lat="42.035905689220066" lon="11.957540668309466"><ele>32.0</ele><time>2026-04-12T12:28:45.999Z</time></trkpt><trkpt lat="42.03581384087462" lon="11.957453720072625"><ele>32.0</ele><time>2026-04-12T12:28:46.999Z</time></trkpt><trkpt lat="42.035736355496844" lon="11.957371061690338"><ele>31.200000000000003</ele><time>2026-04-12T12:28:47.999Z</time></trkpt><trkpt lat="42.03564891509005" lon="11.957317346956962"><ele>30.400000000000002</ele><time>2026-04-12T12:28:48.999Z</time></trkpt><trkpt lat="42.03553818084282" lon="11.95728715875103"><ele>29.599999999999998</ele><time>2026-04-12T12:28:49.999Z</time></trkpt><trkpt lat="42.03542869438531" lon="11.95724565220226"><ele>28.799999999999997</ele><time>2026-04-12T12:28:50.999Z</time></trkpt><trkpt lat="42.03531094807554" lon="11.957198713024576"><ele>28.0</ele><time>2026-04-12T12:28:51.999Z</time></trkpt><trkpt lat="42.0351901293169" lon="11.957139516917913"><ele>28.0</ele><time>2026-04-12T12:28:52.999Z</time></trkpt><trkpt lat="42.035059423655355" lon="11.95708045363749"><ele>28.0</ele><time>2026-04-12T12:28:53.999Z</time></trkpt><trkpt lat="42.034936274259756" lon="11.957029381778122"><ele>28.0</ele><time>2026-04-12T12:28:54.999Z</time></trkpt><trkpt lat="42.03481905506342" lon="11.956965171195451"><ele>28.0</ele><time>2026-04-12T12:28:55.999Z</time></trkpt><trkpt lat="42.034701998824815" lon="11.956913052728497"><ele>27.5</ele><time>2026-04-12T12:28:56.999Z</time></trkpt><trkpt lat="42.034574139149754" lon="11.956861927718048"><ele>27.0</ele><time>2026-04-12T12:28:57.999Z</time></trkpt><trkpt lat="42.03445062716019" lon="11.956819644180916"><ele>26.5</ele><time>2026-04-12T12:28:58.999Z</time></trkpt><trkpt lat="42.03432980973594" lon="11.956744221576136"><ele>26.0</ele><time>2026-04-12T12:28:59.999Z</time></trkpt><trkpt lat="42.034205023164866" lon="11.956697640050528"><ele>26.0</ele><time>2026-04-12T12:29:00.999Z</time></trkpt><trkpt lat="42.034069762191685" lon="11.956687862408865"><ele>26.0</ele><time>2026-04-12T12:29:01.999Z</time></trkpt><trkpt lat="42.03395563366083" lon="11.956642428092389"><ele>26.0</ele><time>2026-04-12T12:29:02.999Z</time></trkpt><trkpt lat="42.03384675160745" lon="11.956597677175937"><ele>26.0</ele><time>2026-04-12T12:29:03.999Z</time></trkpt><trkpt lat="42.033730037064245" lon="11.956551747461248"><ele>26.0</ele><time>2026-04-12T12:29:04.999Z</time></trkpt><trkpt lat="42.03360719342447" lon="11.956502842804467"><ele>26.0</ele><time>2026-04-12T12:29:05.999Z</time></trkpt><trkpt lat="42.033493115035284" lon="11.956428958382942"><ele>26.0</ele><time>2026-04-12T12:29:06.999Z</time></trkpt><trkpt lat="42.03337024810027" lon="11.956365190190317"><ele>26.0</ele><time>2026-04-12T12:29:07.999Z</time></trkpt><trkpt lat="42.03324645335756" lon="11.956316114335591"><ele>25.75</ele><time>2026-04-12T12:29:08.999Z</time></trkpt><trkpt lat="42.033133225520615" lon="11.956255160563504"><ele>25.5</ele><time>2026-04-12T12:29:09.999Z</time></trkpt><trkpt lat="42.03301649967207" lon="11.956201258352364"><ele>25.25</ele><time>2026-04-12T12:29:10.999Z</time></trkpt><trkpt lat="42.03289980433173" lon="11.956154649515092"><ele>25.0</ele><time>2026-04-12T12:29:11.999Z</time></trkpt><trkpt lat="42.03278044394348" lon="11.956098252456364"><ele>25.0</ele><time>2026-04-12T12:29:12.999Z</time></trkpt><trkpt lat="42.03266435570997" lon="11.95604788690914"><ele>25.0</ele><time>2026-04-12T12:29:13.999Z</time></trkpt><trkpt lat="42.0325372958005" lon="11.95600307188452"><ele>25.0</ele><time>2026-04-12T12:29:14.999Z</time></trkpt><trkpt lat="42.03242622320424" lon="11.95594791585645"><ele>25.0</ele><time>2026-04-12T12:29:15.999Z</time></trkpt><trkpt lat="42.03231725669379" lon="11.955883913097859"><ele>24.75</ele><time>2026-04-12T12:29:16.999Z</time></trkpt><trkpt lat="42.032207117156176" lon="11.955828726886192"><ele>24.5</ele><time>2026-04-12T12:29:17.999Z</time></trkpt><trkpt lat="42.032099081494316" lon="11.955779858052674"><ele>24.25</ele><time>2026-04-12T12:29:18.999Z</time></trkpt><trkpt lat="42.03198257639973" lon="11.955757516005757"><ele>24.0</ele><time>2026-04-12T12:29:19.999Z</time></trkpt><trkpt lat="42.031865623952406" lon="11.955720634716503"><ele>24.0</ele><time>2026-04-12T12:29:20.999Z</time></trkpt><trkpt lat="42.03174623712658" lon="11.955703237547697"><ele>24.0</ele><time>2026-04-12T12:29:21.999Z</time></trkpt><trkpt lat="42.031632828569435" lon="11.955682825836277"><ele>24.0</ele><time>2026-04-12T12:29:22.999Z</time></trkpt><trkpt lat="42.03152581590715" lon="11.955636611792858"><ele>24.0</ele><time>2026-04-12T12:29:23.999Z</time></trkpt><trkpt lat="42.03141711894219" lon="11.955601676370174"><ele>23.0</ele><time>2026-04-12T12:29:24.999Z</time></trkpt><trkpt lat="42.03130623963151" lon="11.955541284332417"><ele>22.0</ele><time>2026-04-12T12:29:25.999Z</time></trkpt><trkpt lat="42.03118970704948" lon="11.955480613659168"><ele>21.0</ele><time>2026-04-12T12:29:27Z</time></trkpt><trkpt lat="42.03108879428237" lon="11.955423889214288"><ele>20.0</ele><time>2026-04-12T12:29:28Z</time></trkpt><trkpt lat="42.03097846230662" lon="11.955369088003833"><ele>20.0</ele><time>2026-04-12T12:29:29Z</time></trkpt><trkpt lat="42.030868167369" lon="11.955316126967388"><ele>20.0</ele><time>2026-04-12T12:29:30Z</time></trkpt><trkpt lat="42.03074309105549" lon="11.95525926375711"><ele>20.0</ele><time>2026-04-12T12:29:31Z</time></trkpt><trkpt lat="42.03063417170971" lon="11.955217997093175"><ele>20.0</ele><time>2026-04-12T12:29:32Z</time></trkpt><trkpt lat="42.030536483087864" lon="11.955172493518706"><ele>19.6</ele><time>2026-04-12T12:29:33Z</time></trkpt><trkpt lat="42.030441133573866" lon="11.95513227771759"><ele>19.2</ele><time>2026-04-12T12:29:34Z</time></trkpt><trkpt lat="42.0303470424343" lon="11.955083912225032"><ele>18.8</ele><time>2026-04-12T12:29:35Z</time></trkpt><trkpt lat="42.03025520018489" lon="11.95502609767942"><ele>18.4</ele><time>2026-04-12T12:29:36Z</time></trkpt><trkpt lat="42.030163920699636" lon="11.954964201496116"><ele>18.0</ele><time>2026-04-12T12:29:37Z</time></trkpt><trkpt lat="42.03007957546958" lon="11.954909308020289"><ele>17.8</ele><time>2026-04-12T12:29:38Z</time></trkpt><trkpt lat="42.02999410829837" lon="11.954876484953166"><ele>17.6</ele><time>2026-04-12T12:29:39Z</time></trkpt><trkpt lat="42.029891935574156" lon="11.954861144171614"><ele>17.4</ele><time>2026-04-12T12:29:41Z</time></trkpt><trkpt lat="42.02982095434288" lon="11.954986275440724"><ele>17.2</ele><time>2026-04-12T12:29:43Z</time></trkpt><trkpt lat="42.02980357518791" lon="11.95511657831226"><ele>17.0</ele><time>2026-04-12T12:29:44Z</time></trkpt><trkpt lat="42.029769197039506" lon="11.95522382433418"><ele>16.0</ele><time>2026-04-12T12:29:45Z</time></trkpt><trkpt lat="42.02972467055255" lon="11.955338716541037"><ele>15.0</ele><time>2026-04-12T12:29:46Z</time></trkpt><trkpt lat="42.029675276330806" lon="11.955467938300275"><ele>14.0</ele><time>2026-04-12T12:29:47Z</time></trkpt><trkpt lat="42.02962762588973" lon="11.955620287634831"><ele>13.0</ele><time>2026-04-12T12:29:48Z</time></trkpt><trkpt lat="42.029567601707605" lon="11.95577180955858"><ele>13.2</ele><time>2026-04-12T12:29:49Z</time></trkpt><trkpt lat="42.02952564417811" lon="11.955891927609407"><ele>13.4</ele><time>2026-04-12T12:29:50Z</time></trkpt><trkpt lat="42.029477856988706" lon="11.956013645385653"><ele>13.599999999999998</ele><time>2026-04-12T12:29:51Z</time></trkpt><trkpt lat="42.02944790715388" lon="11.956112235267748"><ele>13.799999999999999</ele><time>2026-04-12T12:29:52Z</time></trkpt><trkpt lat="42.02947926683485" lon="11.956256943184457"><ele>14.0</ele><time>2026-04-12T12:29:53Z</time></trkpt><trkpt lat="42.02951304896423" lon="11.956374662644487"><ele>14.0</ele><time>2026-04-12T12:29:54Z</time></trkpt><trkpt lat="42.02953010375194" lon="11.956512254004776"><ele>13.999999999999998</ele><time>2026-04-12T12:29:55Z</time></trkpt><trkpt lat="42.029538418827144" lon="11.95663441387087"><ele>13.999999999999998</ele><time>2026-04-12T12:29:56Z</time></trkpt><trkpt lat="42.02951798740856" lon="11.956768695690265"><ele>14.0</ele><time>2026-04-12T12:29:57Z</time></trkpt><trkpt lat="42.029488607384806" lon="11.956916552361456"><ele>14.0</ele><time>2026-04-12T12:29:58Z</time></trkpt><trkpt lat="42.02946400783105" lon="11.957065926536867"><ele>14.0</ele><time>2026-04-12T12:29:59Z</time></trkpt><trkpt lat="42.02944581327308" lon="11.957208740312332"><ele>13.999999999999998</ele><time>2026-04-12T12:30:00Z</time></trkpt><trkpt lat="42.02941008992771" lon="11.957365287128374"><ele>13.999999999999998</ele><time>2026-04-12T12:30:01Z</time></trkpt><trkpt lat="42.02937377299473" lon="11.957499443822345"><ele>14.0</ele><time>2026-04-12T12:30:02Z</time></trkpt><trkpt lat="42.02933846629925" lon="11.957643364494357"><ele>14.0</ele><time>2026-04-12T12:30:03Z</time></trkpt><trkpt lat="42.02929316432661" lon="11.957787395165914"><ele>14.0</ele><time>2026-04-12T12:30:04Z</time></trkpt><trkpt lat="42.029243585917804" lon="11.957915728251603"><ele>13.999999999999998</ele><time>2026-04-12T12:30:05Z</time></trkpt><trkpt lat="42.02918472977323" lon="11.958031459221164"><ele>13.999999999999998</ele><time>2026-04-12T12:30:06Z</time></trkpt><trkpt lat="42.02913826866618" lon="11.958165005815465"><ele>14.0</ele><time>2026-04-12T12:30:07Z</time></trkpt><trkpt lat="42.029080554669946" lon="11.958290926948496"><ele>14.0</ele><time>2026-04-12T12:30:08Z</time></trkpt><trkpt lat="42.029006084601825" lon="11.958418412598041"><ele>13.5</ele><time>2026-04-12T12:30:09Z</time></trkpt><trkpt lat="42.028915250244054" lon="11.958528330118714"><ele>13.0</ele><time>2026-04-12T12:30:10Z</time></trkpt><trkpt lat="42.02883544113987" lon="11.958639207838049"><ele>12.5</ele><time>2026-04-12T12:30:11Z</time></trkpt><trkpt lat="42.028753510725785" lon="11.958763545028788"><ele>12.0</ele><time>2026-04-12T12:30:12Z</time></trkpt><trkpt lat="42.02868797937535" lon="11.95886505101384"><ele>12.0</ele><time>2026-04-12T12:30:13Z</time></trkpt><trkpt lat="42.02860418314833" lon="11.958993738178485"><ele>12.0</ele><time>2026-04-12T12:30:14Z</time></trkpt><trkpt lat="42.02852965578557" lon="11.959132971100715"><ele>12.0</ele><time>2026-04-12T12:30:15Z</time></trkpt><trkpt lat="42.028444477060766" lon="11.959306067009297"><ele>12.0</ele><time>2026-04-12T12:30:16Z</time></trkpt><trkpt lat="42.02834557459834" lon="11.959450856589513"><ele>12.25</ele><time>2026-04-12T12:30:17Z</time></trkpt><trkpt lat="42.02825670138345" lon="11.959605394487653"><ele>12.5</ele><time>2026-04-12T12:30:18Z</time></trkpt><trkpt lat="42.02816744082913" lon="11.959747841090387"><ele>12.75</ele><time>2026-04-12T12:30:19Z</time></trkpt><trkpt lat="42.02809177731065" lon="11.959887204985446"><ele>13.0</ele><time>2026-04-12T12:30:20Z</time></trkpt><trkpt lat="42.02799892564086" lon="11.960048903756611"><ele>13.0</ele><time>2026-04-12T12:30:21Z</time></trkpt><trkpt lat="42.02791093834307" lon="11.960187044306902"><ele>13.0</ele><time>2026-04-12T12:30:22Z</time></trkpt><trkpt lat="42.027822001636785" lon="11.960334870407149"><ele>13.0</ele><time>2026-04-12T12:30:23Z</time></trkpt><trkpt lat="42.02774787754938" lon="11.960464000770894"><ele>13.0</ele><time>2026-04-12T12:30:24Z</time></trkpt><trkpt lat="42.02766335755654" lon="11.96059626632523"><ele>13.0</ele><time>2026-04-12T12:30:24.999Z</time></trkpt><trkpt lat="42.0275868770496" lon="11.96072849835856"><ele>13.0</ele><time>2026-04-12T12:30:25.999Z</time></trkpt><trkpt lat="42.02752713391932" lon="11.960839717668913"><ele>13.0</ele><time>2026-04-12T12:30:26.999Z</time></trkpt><trkpt lat="42.027462237432964" lon="11.960960383282421"><ele>13.0</ele><time>2026-04-12T12:30:27.999Z</time></trkpt><trkpt lat="42.0273858239192" lon="11.96106253302697"><ele>13.0</ele><time>2026-04-12T12:30:28.999Z</time></trkpt><trkpt lat="42.02731931327915" lon="11.961180289183407"><ele>13.0</ele><time>2026-04-12T12:30:29.999Z</time></trkpt><trkpt lat="42.0272527117798" lon="11.961296674738954"><ele>13.0</ele><time>2026-04-12T12:30:30.999Z</time></trkpt><trkpt lat="42.02716829173481" lon="11.961449655242724"><ele>13.0</ele><time>2026-04-12T12:30:31.999Z</time></trkpt><trkpt lat="42.02707160371036" lon="11.961586072159037"><ele>13.0</ele><time>2026-04-12T12:30:32.999Z</time></trkpt><trkpt lat="42.0269934064957" lon="11.961717003078363"><ele>12.75</ele><time>2026-04-12T12:30:33.999Z</time></trkpt><trkpt lat="42.02690781321824" lon="11.961859174230126"><ele>12.5</ele><time>2026-04-12T12:30:34.999Z</time></trkpt><trkpt lat="42.02682114724072" lon="11.962004146559515"><ele>12.25</ele><time>2026-04-12T12:30:35.999Z</time></trkpt><trkpt lat="42.02673773163822" lon="11.962116271935379"><ele>12.0</ele><time>2026-04-12T12:30:36.999Z</time></trkpt><trkpt lat="42.026637667669895" lon="11.962280922355236"><ele>12.0</ele><time>2026-04-12T12:30:37.999Z</time></trkpt><trkpt lat="42.02655120635093" lon="11.962430223407376"><ele>12.0</ele><time>2026-04-12T12:30:38.999Z</time></trkpt><trkpt lat="42.026458717132" lon="11.962569843641438"><ele>12.0</ele><time>2026-04-12T12:30:39.999Z</time></trkpt><trkpt lat="42.02638139960118" lon="11.96272866478204"><ele>12.0</ele><time>2026-04-12T12:30:40.999Z</time></trkpt><trkpt lat="42.02630551927276" lon="11.962858395251843"><ele>12.5</ele><time>2026-04-12T12:30:41.999Z</time></trkpt><trkpt lat="42.02621626620006" lon="11.963001839019153"><ele>13.0</ele><time>2026-04-12T12:30:42.999Z</time></trkpt><trkpt lat="42.02613250029123" lon="11.963134669130236"><ele>13.5</ele><time>2026-04-12T12:30:43.999Z</time></trkpt><trkpt lat="42.026048668171505" lon="11.96327036188275"><ele>14.0</ele><time>2026-04-12T12:30:44.999Z</time></trkpt><trkpt lat="42.025945438287025" lon="11.963431797108887"><ele>14.0</ele><time>2026-04-12T12:30:45.999Z</time></trkpt><trkpt lat="42.02586930409941" lon="11.963579212664042"><ele>14.0</ele><time>2026-04-12T12:30:46.999Z</time></trkpt><trkpt lat="42.025777396720855" lon="11.963735732505652"><ele>14.0</ele><time>2026-04-12T12:30:47.999Z</time></trkpt><trkpt lat="42.02568849510732" lon="11.963881905581857"><ele>14.0</ele><time>2026-04-12T12:30:48.999Z</time></trkpt><trkpt lat="42.02559782358181" lon="11.964030255329892"><ele>13.75</ele><time>2026-04-12T12:30:49.999Z</time></trkpt><trkpt lat="42.02551993723198" lon="11.964179668475055"><ele>13.5</ele><time>2026-04-12T12:30:50.999Z</time></trkpt><trkpt lat="42.025414523937286" lon="11.964320836242223"><ele>13.25</ele><time>2026-04-12T12:30:51.999Z</time></trkpt><trkpt lat="42.0253362687642" lon="11.964461147368986"><ele>13.0</ele><time>2026-04-12T12:30:52.999Z</time></trkpt><trkpt lat="42.02525121502246" lon="11.96458990307948"><ele>13.5</ele><time>2026-04-12T12:30:53.999Z</time></trkpt><trkpt lat="42.0251727444967" lon="11.964745447937203"><ele>14.0</ele><time>2026-04-12T12:30:54.999Z</time></trkpt><trkpt lat="42.02509036897299" lon="11.964897006520806"><ele>14.5</ele><time>2026-04-12T12:30:55.999Z</time></trkpt><trkpt lat="42.02502908219708" lon="11.96504080787676"><ele>15.0</ele><time>2026-04-12T12:30:56.999Z</time></trkpt><trkpt lat="42.02496501899406" lon="11.96517471194794"><ele>15.5</ele><time>2026-04-12T12:30:57.999Z</time></trkpt><trkpt lat="42.02488743080122" lon="11.965285653443143"><ele>16.0</ele><time>2026-04-12T12:30:58.999Z</time></trkpt><trkpt lat="42.02481007090083" lon="11.965400409095247"><ele>16.5</ele><time>2026-04-12T12:30:59.999Z</time></trkpt><trkpt lat="42.024733184322244" lon="11.965516185055574"><ele>17.0</ele><time>2026-04-12T12:31:00.999Z</time></trkpt><trkpt lat="42.02466220131826" lon="11.965637691893438"><ele>17.0</ele><time>2026-04-12T12:31:01.999Z</time></trkpt><trkpt lat="42.02458594155594" lon="11.965792851161728"><ele>17.0</ele><time>2026-04-12T12:31:02.999Z</time></trkpt><trkpt lat="42.024493142687014" lon="11.965873845956722"><ele>17.0</ele><time>2026-04-12T12:31:03.999Z</time></trkpt><trkpt lat="42.024419424398026" lon="11.96599941040697"><ele>17.0</ele><time>2026-04-12T12:31:04.999Z</time></trkpt><trkpt lat="42.02435675008871" lon="11.966108863454188"><ele>16.75</ele><time>2026-04-12T12:31:05.999Z</time></trkpt><trkpt lat="42.024297845514575" lon="11.966238978469462"><ele>16.5</ele><time>2026-04-12T12:31:06.999Z</time></trkpt><trkpt lat="42.024210936729276" lon="11.966344457480117"><ele>16.25</ele><time>2026-04-12T12:31:07.999Z</time></trkpt><trkpt lat="42.02414257754437" lon="11.966454798649602"><ele>16.0</ele><time>2026-04-12T12:31:08.999Z</time></trkpt><trkpt lat="42.02407741060776" lon="11.966590051942914"><ele>16.0</ele><time>2026-04-12T12:31:09.999Z</time></trkpt><trkpt lat="42.0239990475555" lon="11.966714006885468"><ele>16.0</ele><time>2026-04-12T12:31:10.999Z</time></trkpt><trkpt lat="42.023931631729255" lon="11.966824853570563"><ele>16.0</ele><time>2026-04-12T12:31:11.999Z</time></trkpt><trkpt lat="42.02384959074841" lon="11.966923141176137"><ele>16.0</ele><time>2026-04-12T12:31:12.999Z</time></trkpt><trkpt lat="42.02375554162596" lon="11.967034243246973"><ele>16.0</ele><time>2026-04-12T12:31:13.999Z</time></trkpt><trkpt lat="42.023656906519285" lon="11.967131436972684"><ele>16.0</ele><time>2026-04-12T12:31:14.999Z</time></trkpt><trkpt lat="42.02354436304787" lon="11.967219031418372"><ele>16.0</ele><time>2026-04-12T12:31:15.999Z</time></trkpt><trkpt lat="42.02342956551548" lon="11.967333285304585"><ele>16.0</ele><time>2026-04-12T12:31:16.999Z</time></trkpt><trkpt lat="42.02331298954601" lon="11.96744871671045"><ele>15.5</ele><time>2026-04-12T12:31:17.999Z</time></trkpt><trkpt lat="42.02319213535393" lon="11.967569007588967"><ele>15.0</ele><time>2026-04-12T12:31:18.999Z</time></trkpt><trkpt lat="42.023084552643425" lon="11.967677615755068"><ele>14.5</ele><time>2026-04-12T12:31:19.999Z</time></trkpt><trkpt lat="42.022982514927286" lon="11.967780626077985"><ele>14.0</ele><time>2026-04-12T12:31:20.999Z</time></trkpt><trkpt lat="42.022889991717875" lon="11.967894096097206"><ele>14.0</ele><time>2026-04-12T12:31:21.999Z</time></trkpt><trkpt lat="42.02280501662222" lon="11.967972790473993"><ele>13.999999999999998</ele><time>2026-04-12T12:31:22.999Z</time></trkpt><trkpt lat="42.02271478578808" lon="11.968070965767428"><ele>13.999999999999998</ele><time>2026-04-12T12:31:23.999Z</time></trkpt><trkpt lat="42.022644269293814" lon="11.968150013952624"><ele>14.0</ele><time>2026-04-12T12:31:24.999Z</time></trkpt><trkpt lat="42.02258122327613" lon="11.968185742761689"><ele>14.0</ele><time>2026-04-12T12:31:25.999Z</time></trkpt><trkpt lat="42.0225342372756" lon="11.968261102934113"><ele>14.000000000000002</ele><time>2026-04-12T12:31:27.999Z</time></trkpt><trkpt lat="42.02242968720575" lon="11.968180987246985"><ele>14.0</ele><time>2026-04-12T12:31:30.999Z</time></trkpt><trkpt lat="42.02236733757393" lon="11.968122126464747"><ele>14.0</ele><time>2026-04-12T12:31:31.999Z</time></trkpt><trkpt lat="42.02230985329067" lon="11.96806949455527"><ele>14.0</ele><time>2026-04-12T12:31:33Z</time></trkpt><trkpt lat="42.02226605153353" lon="11.9679949520884"><ele>14.000000000000002</ele><time>2026-04-12T12:31:34Z</time></trkpt><trkpt lat="42.02221710600143" lon="11.967915179540586"><ele>14.0</ele><time>2026-04-12T12:31:35Z</time></trkpt><trkpt lat="42.022175109880855" lon="11.967777353178343"><ele>14.0</ele><time>2026-04-12T12:31:36Z</time></trkpt><trkpt lat="42.0220021549825" lon="11.96781280890985"><ele>14.0</ele><time>2026-04-12T12:31:37Z</time></trkpt><trkpt lat="42.02190615687468" lon="11.967729878449944"><ele>14.0</ele><time>2026-04-12T12:31:38Z</time></trkpt><trkpt lat="42.02182957517642" lon="11.967663812964659"><ele>14.0</ele><time>2026-04-12T12:31:39Z</time></trkpt><trkpt lat="42.02175270566931" lon="11.967594409666003"><ele>14.000000000000002</ele><time>2026-04-12T12:31:40Z</time></trkpt><trkpt lat="42.021697423221944" lon="11.967541947985767"><ele>14.0</ele><time>2026-04-12T12:31:41Z</time></trkpt><trkpt lat="42.02162729131236" lon="11.967525470098925"><ele>14.0</ele><time>2026-04-12T12:31:42Z</time></trkpt><trkpt lat="42.02157213550365" lon="11.967569244811559"><ele>14.0</ele><time>2026-04-12T12:31:43Z</time></trkpt><trkpt lat="42.021532662257506" lon="11.967660589915722"><ele>14.000000000000002</ele><time>2026-04-12T12:31:44Z</time></trkpt><trkpt lat="42.02151414959332" lon="11.967776186435877"><ele>14.0</ele><time>2026-04-12T12:31:45Z</time></trkpt><trkpt lat="42.02149480925096" lon="11.967893313186797"><ele>13.799999999999999</ele><time>2026-04-12T12:31:46Z</time></trkpt><trkpt lat="42.02152699055608" lon="11.968032591045631"><ele>13.599999999999998</ele><time>2026-04-12T12:31:47Z</time></trkpt><trkpt lat="42.021541409001" lon="11.968162165428149"><ele>13.4</ele><time>2026-04-12T12:31:48Z</time></trkpt><trkpt lat="42.02155922349144" lon="11.968293288230498"><ele>13.2</ele><time>2026-04-12T12:31:49Z</time></trkpt><trkpt lat="42.02158022911868" lon="11.968446338016308"><ele>13.0</ele><time>2026-04-12T12:31:50Z</time></trkpt><trkpt lat="42.0216161163186" lon="11.968567271274798"><ele>13.0</ele><time>2026-04-12T12:31:51Z</time></trkpt><trkpt lat="42.02163414913252" lon="11.968707514992282"><ele>13.0</ele><time>2026-04-12T12:31:52Z</time></trkpt><trkpt lat="42.02166138043499" lon="11.96884852840844"><ele>13.0</ele><time>2026-04-12T12:31:53Z</time></trkpt><trkpt lat="42.02169202699422" lon="11.968994472185901"><ele>13.0</ele><time>2026-04-12T12:31:54Z</time></trkpt><trkpt lat="42.02170888463583" lon="11.969157354615735"><ele>13.0</ele><time>2026-04-12T12:31:55Z</time></trkpt><trkpt lat="42.021738412495246" lon="11.969332068449749"><ele>13.5</ele><time>2026-04-12T12:31:56Z</time></trkpt><trkpt lat="42.02176896326483" lon="11.969486991611241"><ele>14.0</ele><time>2026-04-12T12:31:57Z</time></trkpt><trkpt lat="42.02180504676543" lon="11.969657122746682"><ele>14.5</ele><time>2026-04-12T12:31:58Z</time></trkpt><trkpt lat="42.021841714912675" lon="11.969817896802509"><ele>15.0</ele><time>2026-04-12T12:31:59Z</time></trkpt><trkpt lat="42.02187183200915" lon="11.969982507058102"><ele>15.0</ele><time>2026-04-12T12:32:00Z</time></trkpt><trkpt lat="42.02188930256194" lon="11.970154288084816"><ele>15.0</ele><time>2026-04-12T12:32:01Z</time></trkpt><trkpt lat="42.02192121351264" lon="11.970327579147154"><ele>15.0</ele><time>2026-04-12T12:32:02Z</time></trkpt><trkpt lat="42.02196314005123" lon="11.97047812052115"><ele>15.0</ele><time>2026-04-12T12:32:03Z</time></trkpt><trkpt lat="42.02197505423371" lon="11.970616099550726"><ele>15.0</ele><time>2026-04-12T12:32:04Z</time></trkpt><trkpt lat="42.02200504076362" lon="11.970738089548954"><ele>15.0</ele><time>2026-04-12T12:32:05Z</time></trkpt><trkpt lat="42.0220348602722" lon="11.970881849037529"><ele>15.0</ele><time>2026-04-12T12:32:06Z</time></trkpt><trkpt lat="42.02206720924715" lon="11.971067236629324"><ele>15.0</ele><time>2026-04-12T12:32:07Z</time></trkpt><trkpt lat="42.02210392191253" lon="11.971280258633382"><ele>15.333333333333332</ele><time>2026-04-12T12:32:08Z</time></trkpt><trkpt lat="42.02212162175862" lon="11.971503464474225"><ele>15.666666666666666</ele><time>2026-04-12T12:32:09Z</time></trkpt><trkpt lat="42.022155820409616" lon="11.97171681204487"><ele>16.0</ele><time>2026-04-12T12:32:10Z</time></trkpt><trkpt lat="42.022186983579346" lon="11.971917845876924"><ele>15.333333333333332</ele><time>2026-04-12T12:32:11Z</time></trkpt><trkpt lat="42.02222023868109" lon="11.972112830707667"><ele>14.666666666666668</ele><time>2026-04-12T12:32:12Z</time></trkpt><trkpt lat="42.0222588874207" lon="11.972296055798108"><ele>14.0</ele><time>2026-04-12T12:32:13Z</time></trkpt><trkpt lat="42.022296814107406" lon="11.972506502196039"><ele>14.0</ele><time>2026-04-12T12:32:14Z</time></trkpt><trkpt lat="42.02234319411635" lon="11.972731585146471"><ele>14.0</ele><time>2026-04-12T12:32:15Z</time></trkpt><trkpt lat="42.0223964726596" lon="11.972953096061511"><ele>14.0</ele><time>2026-04-12T12:32:16Z</time></trkpt><trkpt lat="42.022446653206195" lon="11.973153638400053"><ele>15.666666666666668</ele><time>2026-04-12T12:32:17Z</time></trkpt><trkpt lat="42.02249299364373" lon="11.973374670126375"><ele>17.333333333333332</ele><time>2026-04-12T12:32:18Z</time></trkpt><trkpt lat="42.02253971659477" lon="11.973582171820787"><ele>19.0</ele><time>2026-04-12T12:32:19Z</time></trkpt><trkpt lat="42.02256858905397" lon="11.973792215854441"><ele>19.0</ele><time>2026-04-12T12:32:20Z</time></trkpt><trkpt lat="42.02260348380811" lon="11.973977709310683"><ele>19.0</ele><time>2026-04-12T12:32:21Z</time></trkpt><trkpt lat="42.022644057756885" lon="11.97417350951647"><ele>19.0</ele><time>2026-04-12T12:32:22Z</time></trkpt><trkpt lat="42.02268255637016" lon="11.974376223603699"><ele>19.0</ele><time>2026-04-12T12:32:23Z</time></trkpt><trkpt lat="42.02271817589796" lon="11.974573404635732"><ele>19.333333333333332</ele><time>2026-04-12T12:32:24Z</time></trkpt><trkpt lat="42.022753680826575" lon="11.974769244749883"><ele>19.666666666666668</ele><time>2026-04-12T12:32:25Z</time></trkpt><trkpt lat="42.02278901132457" lon="11.974989909758845"><ele>20.0</ele><time>2026-04-12T12:32:26Z</time></trkpt><trkpt lat="42.022824046984795" lon="11.975203079576824"><ele>20.0</ele><time>2026-04-12T12:32:27Z</time></trkpt><trkpt lat="42.02286569043774" lon="11.975407896345814"><ele>20.0</ele><time>2026-04-12T12:32:28Z</time></trkpt><trkpt lat="42.02290138245951" lon="11.97563563391475"><ele>20.0</ele><time>2026-04-12T12:32:29Z</time></trkpt><trkpt lat="42.0229391166736" lon="11.975864325353506"><ele>20.0</ele><time>2026-04-12T12:32:29.999Z</time></trkpt><trkpt lat="42.02297915910259" lon="11.976067233143219"><ele>20.0</ele><time>2026-04-12T12:32:30.999Z</time></trkpt><trkpt lat="42.023009514403185" lon="11.976262208469452"><ele>20.0</ele><time>2026-04-12T12:32:31.999Z</time></trkpt><trkpt lat="42.02305533964174" lon="11.97645978164905"><ele>20.0</ele><time>2026-04-12T12:32:32.999Z</time></trkpt><trkpt lat="42.023089042048184" lon="11.9766599916055"><ele>20.0</ele><time>2026-04-12T12:32:33.999Z</time></trkpt><trkpt lat="42.02313423206712" lon="11.97686761605797"><ele>20.0</ele><time>2026-04-12T12:32:34.999Z</time></trkpt><trkpt lat="42.023173320887416" lon="11.977068042695597"><ele>19.666666666666668</ele><time>2026-04-12T12:32:35.999Z</time></trkpt><trkpt lat="42.02320980734326" lon="11.977272825743292"><ele>19.333333333333332</ele><time>2026-04-12T12:32:36.999Z</time></trkpt><trkpt lat="42.023237537754156" lon="11.977483740665523"><ele>19.0</ele><time>2026-04-12T12:32:37.999Z</time></trkpt><trkpt lat="42.023268483340836" lon="11.977689573652938"><ele>19.0</ele><time>2026-04-12T12:32:38.999Z</time></trkpt><trkpt lat="42.02329523454107" lon="11.977903117219158"><ele>19.0</ele><time>2026-04-12T12:32:39.999Z</time></trkpt><trkpt lat="42.02332384549993" lon="11.978087090242411"><ele>19.0</ele><time>2026-04-12T12:32:40.999Z</time></trkpt><trkpt lat="42.02337004252705" lon="11.978234431513012"><ele>19.0</ele><time>2026-04-12T12:32:41.999Z</time></trkpt><trkpt lat="42.02340044060111" lon="11.978391686423244"><ele>19.5</ele><time>2026-04-12T12:32:42.999Z</time></trkpt><trkpt lat="42.02344871499892" lon="11.978553120290902"><ele>20.0</ele><time>2026-04-12T12:32:43.999Z</time></trkpt><trkpt lat="42.02350726572353" lon="11.978726389951659"><ele>20.5</ele><time>2026-04-12T12:32:44.999Z</time></trkpt><trkpt lat="42.023559220370835" lon="11.97892003074809"><ele>21.0</ele><time>2026-04-12T12:32:45.999Z</time></trkpt><trkpt lat="42.023622273479724" lon="11.97909747763151"><ele>20.666666666666668</ele><time>2026-04-12T12:32:46.999Z</time></trkpt><trkpt lat="42.023684963435976" lon="11.979284232705217"><ele>20.333333333333336</ele><time>2026-04-12T12:32:47.999Z</time></trkpt><trkpt lat="42.023741882124604" lon="11.979475891429379"><ele>20.0</ele><time>2026-04-12T12:32:48.999Z</time></trkpt><trkpt lat="42.02379599639614" lon="11.979677925519137"><ele>20.0</ele><time>2026-04-12T12:32:49.999Z</time></trkpt><trkpt lat="42.02385166112902" lon="11.97988835509282"><ele>20.0</ele><time>2026-04-12T12:32:50.999Z</time></trkpt><trkpt lat="42.02390015852719" lon="11.980099054103137"><ele>20.0</ele><time>2026-04-12T12:32:51.999Z</time></trkpt><trkpt lat="42.02394887551933" lon="11.980302930234021"><ele>20.0</ele><time>2026-04-12T12:32:52.999Z</time></trkpt><trkpt lat="42.02399034813019" lon="11.980516965768745"><ele>20.0</ele><time>2026-04-12T12:32:53.999Z</time></trkpt><trkpt lat="42.024037426941526" lon="11.980722840282255"><ele>20.0</ele><time>2026-04-12T12:32:54.999Z</time></trkpt><trkpt lat="42.02406996619843" lon="11.98094063068968"><ele>20.333333333333336</ele><time>2026-04-12T12:32:55.999Z</time></trkpt><trkpt lat="42.02408766154345" lon="11.981156881888818"><ele>20.666666666666668</ele><time>2026-04-12T12:32:56.999Z</time></trkpt><trkpt lat="42.0241173518002" lon="11.981375312768735"><ele>21.0</ele><time>2026-04-12T12:32:57.999Z</time></trkpt><trkpt lat="42.024138137741595" lon="11.981608134715346"><ele>21.333333333333332</ele><time>2026-04-12T12:32:58.999Z</time></trkpt><trkpt lat="42.02415121057905" lon="11.98183830429453"><ele>21.666666666666664</ele><time>2026-04-12T12:32:59.999Z</time></trkpt><trkpt lat="42.02418078280725" lon="11.98204473035978"><ele>22.0</ele><time>2026-04-12T12:33:00.999Z</time></trkpt><trkpt lat="42.024207378423164" lon="11.982235130091603"><ele>22.0</ele><time>2026-04-12T12:33:01.999Z</time></trkpt><trkpt lat="42.024245592982496" lon="11.982411520268533"><ele>22.0</ele><time>2026-04-12T12:33:02.999Z</time></trkpt><trkpt lat="42.024285069921035" lon="11.982592959218692"><ele>22.0</ele><time>2026-04-12T12:33:03.999Z</time></trkpt><trkpt lat="42.024323937675724" lon="11.982793376419433"><ele>22.0</ele><time>2026-04-12T12:33:04.999Z</time></trkpt><trkpt lat="42.02435964030291" lon="11.98301843020134"><ele>22.5</ele><time>2026-04-12T12:33:05.999Z</time></trkpt><trkpt lat="42.02438849672703" lon="11.983250548731704"><ele>23.0</ele><time>2026-04-12T12:33:06.999Z</time></trkpt><trkpt lat="42.024420732311725" lon="11.983448886163984"><ele>23.5</ele><time>2026-04-12T12:33:07.999Z</time></trkpt><trkpt lat="42.024454452306685" lon="11.983587540383498"><ele>24.0</ele><time>2026-04-12T12:33:08.999Z</time></trkpt><trkpt lat="42.024485453845784" lon="11.983791680652065"><ele>24.5</ele><time>2026-04-12T12:33:09.999Z</time></trkpt><trkpt lat="42.02451352609779" lon="11.98401245946522"><ele>25.0</ele><time>2026-04-12T12:33:10.999Z</time></trkpt><trkpt lat="42.02453802667937" lon="11.984207090796287"><ele>25.5</ele><time>2026-04-12T12:33:11.999Z</time></trkpt><trkpt lat="42.024557665892004" lon="11.984387299819028"><ele>26.0</ele><time>2026-04-12T12:33:12.999Z</time></trkpt><trkpt lat="42.02457499399902" lon="11.984540503449319"><ele>25.999999999999996</ele><time>2026-04-12T12:33:13.999Z</time></trkpt><trkpt lat="42.02457853690261" lon="11.984685348975663"><ele>26.0</ele><time>2026-04-12T12:33:14.999Z</time></trkpt><trkpt lat="42.02458614334964" lon="11.984804036731244"><ele>26.0</ele><time>2026-04-12T12:33:15.999Z</time></trkpt><trkpt lat="42.024584738294166" lon="11.984892938936769"><ele>26.0</ele><time>2026-04-12T12:33:16.999Z</time></trkpt><trkpt lat="42.02457806721716" lon="11.985009000420188"><ele>25.999999999999996</ele><time>2026-04-12T12:33:18.999Z</time></trkpt><trkpt lat="42.024560422623665" lon="11.98511646932043"><ele>26.0</ele><time>2026-04-12T12:33:20.999Z</time></trkpt><trkpt lat="42.024561500012474" lon="11.985239732040078"><ele>25.999999999999996</ele><time>2026-04-12T12:33:22.999Z</time></trkpt><trkpt lat="42.02453138530913" lon="11.985418979061441"><ele>26.0</ele><time>2026-04-12T12:33:24.999Z</time></trkpt><trkpt lat="42.0245129472925" lon="11.985501326850912"><ele>26.0</ele><time>2026-04-12T12:33:25.999Z</time></trkpt><trkpt lat="42.024500633812494" lon="11.985589015368369"><ele>26.0</ele><time>2026-04-12T12:33:26.999Z</time></trkpt><trkpt lat="42.02449762951047" lon="11.98568984209241"><ele>25.999999999999996</ele><time>2026-04-12T12:33:27.999Z</time></trkpt><trkpt lat="42.02452515754915" lon="11.985783250572482"><ele>26.0</ele><time>2026-04-12T12:33:28.999Z</time></trkpt><trkpt lat="42.02456708649133" lon="11.985876746923733"><ele>25.8</ele><time>2026-04-12T12:33:29.999Z</time></trkpt><trkpt lat="42.02462495552316" lon="11.985968367032891"><ele>25.6</ele><time>2026-04-12T12:33:30.999Z</time></trkpt><trkpt lat="42.024698631548155" lon="11.986058559875787"><ele>25.4</ele><time>2026-04-12T12:33:31.999Z</time></trkpt><trkpt lat="42.02478889086013" lon="11.986123790652861"><ele>25.2</ele><time>2026-04-12T12:33:32.999Z</time></trkpt><trkpt lat="42.024870125648036" lon="11.986185494773094"><ele>25.0</ele><time>2026-04-12T12:33:33.999Z</time></trkpt><trkpt lat="42.02495544388546" lon="11.986257012661195"><ele>25.500000000000004</ele><time>2026-04-12T12:33:34.999Z</time></trkpt><trkpt lat="42.02504165144276" lon="11.986307009837848"><ele>26.0</ele><time>2026-04-12T12:33:35.999Z</time></trkpt><trkpt lat="42.02512035352261" lon="11.986362654040605"><ele>26.5</ele><time>2026-04-12T12:33:36.999Z</time></trkpt><trkpt lat="42.025187632799806" lon="11.986437673969167"><ele>27.0</ele><time>2026-04-12T12:33:37.999Z</time></trkpt><trkpt lat="42.02524374623287" lon="11.986525007696372"><ele>27.500000000000004</ele><time>2026-04-12T12:33:39Z</time></trkpt><trkpt lat="42.02529186866508" lon="11.986615556857563"><ele>28.0</ele><time>2026-04-12T12:33:40Z</time></trkpt><trkpt lat="42.0253245975403" lon="11.986727444614093"><ele>28.0</ele><time>2026-04-12T12:33:41Z</time></trkpt><trkpt lat="42.02533750062046" lon="11.986862164865595"><ele>28.0</ele><time>2026-04-12T12:33:42Z</time></trkpt><trkpt lat="42.02531657455345" lon="11.98701376146138"><ele>28.0</ele><time>2026-04-12T12:33:43Z</time></trkpt><trkpt lat="42.025288837914424" lon="11.987164713707834"><ele>28.0</ele><time>2026-04-12T12:33:44Z</time></trkpt><trkpt lat="42.02525523528378" lon="11.98731817806254"><ele>28.0</ele><time>2026-04-12T12:33:45Z</time></trkpt><trkpt lat="42.025218837333824" lon="11.987477112238908"><ele>27.999999999999996</ele><time>2026-04-12T12:33:46Z</time></trkpt><trkpt lat="42.0251967496264" lon="11.987627620160145"><ele>27.999999999999996</ele><time>2026-04-12T12:33:47Z</time></trkpt><trkpt lat="42.02516866251433" lon="11.987771782445389"><ele>28.0</ele><time>2026-04-12T12:33:48Z</time></trkpt><trkpt lat="42.025158199098705" lon="11.987902794654804"><ele>28.0</ele><time>2026-04-12T12:33:49Z</time></trkpt><trkpt lat="42.02517076322937" lon="11.988045835931512"><ele>28.0</ele><time>2026-04-12T12:33:50Z</time></trkpt><trkpt lat="42.02519673681198" lon="11.988201159398825"><ele>28.0</ele><time>2026-04-12T12:33:51Z</time></trkpt><trkpt lat="42.0252164709038" lon="11.988368624881824"><ele>28.0</ele><time>2026-04-12T12:33:52Z</time></trkpt><trkpt lat="42.025242747228184" lon="11.988522196366773"><ele>28.0</ele><time>2026-04-12T12:33:53Z</time></trkpt><trkpt lat="42.025272787799494" lon="11.98867420383982"><ele>28.25</ele><time>2026-04-12T12:33:54Z</time></trkpt><trkpt lat="42.02530295677905" lon="11.98883386622828"><ele>28.5</ele><time>2026-04-12T12:33:55Z</time></trkpt><trkpt lat="42.02534592789937" lon="11.989000792206886"><ele>28.75</ele><time>2026-04-12T12:33:56Z</time></trkpt><trkpt lat="42.02538344707932" lon="11.989183054875188"><ele>29.0</ele><time>2026-04-12T12:33:57Z</time></trkpt><trkpt lat="42.02541377987837" lon="11.989379165490716"><ele>28.5</ele><time>2026-04-12T12:33:58Z</time></trkpt><trkpt lat="42.02543708680338" lon="11.989566860561098"><ele>28.0</ele><time>2026-04-12T12:33:59Z</time></trkpt><trkpt lat="42.02545856046501" lon="11.989757276472133"><ele>27.5</ele><time>2026-04-12T12:34:00Z</time></trkpt><trkpt lat="42.025488057441414" lon="11.989938472015503"><ele>27.0</ele><time>2026-04-12T12:34:01Z</time></trkpt><trkpt lat="42.02551608301562" lon="11.990125431877134"><ele>27.0</ele><time>2026-04-12T12:34:02Z</time></trkpt><trkpt lat="42.025546302070396" lon="11.990315051950722"><ele>27.0</ele><time>2026-04-12T12:34:03Z</time></trkpt><trkpt lat="42.02557901387075" lon="11.990508113222146"><ele>27.0</ele><time>2026-04-12T12:34:04Z</time></trkpt><trkpt lat="42.02561288234477" lon="11.99069808046391"><ele>27.0</ele><time>2026-04-12T12:34:05Z</time></trkpt><trkpt lat="42.025646854521575" lon="11.990897289195859"><ele>27.75</ele><time>2026-04-12T12:34:06Z</time></trkpt><trkpt lat="42.02567175685138" lon="11.991089324768978"><ele>28.5</ele><time>2026-04-12T12:34:07Z</time></trkpt><trkpt lat="42.02570130543255" lon="11.991273148114626"><ele>29.25</ele><time>2026-04-12T12:34:08Z</time></trkpt><trkpt lat="42.02573757281943" lon="11.991459039617414"><ele>30.0</ele><time>2026-04-12T12:34:09Z</time></trkpt><trkpt lat="42.02577111642734" lon="11.991640407745178"><ele>29.75</ele><time>2026-04-12T12:34:10Z</time></trkpt><trkpt lat="42.025799008779444" lon="11.991822548773886"><ele>29.5</ele><time>2026-04-12T12:34:11Z</time></trkpt><trkpt lat="42.025826698025014" lon="11.992009485509058"><ele>29.25</ele><time>2026-04-12T12:34:12Z</time></trkpt><trkpt lat="42.02586345681725" lon="11.992194403238885"><ele>29.0</ele><time>2026-04-12T12:34:13Z</time></trkpt><trkpt lat="42.02590768681056" lon="11.992381502010295"><ele>29.75</ele><time>2026-04-12T12:34:14Z</time></trkpt><trkpt lat="42.0259466271352" lon="11.992578393460727"><ele>30.5</ele><time>2026-04-12T12:34:15Z</time></trkpt><trkpt lat="42.02599257463629" lon="11.992762403070971"><ele>31.25</ele><time>2026-04-12T12:34:16Z</time></trkpt><trkpt lat="42.02604157853456" lon="11.992953237559705"><ele>32.0</ele><time>2026-04-12T12:34:17Z</time></trkpt><trkpt lat="42.02610014325885" lon="11.993154594701478"><ele>32.0</ele><time>2026-04-12T12:34:18Z</time></trkpt><trkpt lat="42.02615298521932" lon="11.99335028634712"><ele>32.0</ele><time>2026-04-12T12:34:19Z</time></trkpt><trkpt lat="42.026197077823525" lon="11.993553102495062"><ele>32.0</ele><time>2026-04-12T12:34:20Z</time></trkpt><trkpt lat="42.02623847261297" lon="11.993742696487825"><ele>32.0</ele><time>2026-04-12T12:34:21Z</time></trkpt><trkpt lat="42.02627706946638" lon="11.993936511416477"><ele>32.0</ele><time>2026-04-12T12:34:22Z</time></trkpt><trkpt lat="42.026317678876154" lon="11.994127619152138"><ele>32.0</ele><time>2026-04-12T12:34:23Z</time></trkpt><trkpt lat="42.026361656040734" lon="11.99431079057594"><ele>32.0</ele><time>2026-04-12T12:34:24Z</time></trkpt><trkpt lat="42.02640821121741" lon="11.994491036844995"><ele>32.5</ele><time>2026-04-12T12:34:25Z</time></trkpt><trkpt lat="42.02645697919043" lon="11.994672930768404"><ele>33.0</ele><time>2026-04-12T12:34:26Z</time></trkpt><trkpt lat="42.026509383199794" lon="11.99486733766837"><ele>33.5</ele><time>2026-04-12T12:34:27Z</time></trkpt><trkpt lat="42.02655506859335" lon="11.99506006119774"><ele>34.0</ele><time>2026-04-12T12:34:28Z</time></trkpt><trkpt lat="42.02660223852559" lon="11.995246640646984"><ele>35.66666666666667</ele><time>2026-04-12T12:34:29Z</time></trkpt><trkpt lat="42.02665009794464" lon="11.995432345829652"><ele>37.333333333333336</ele><time>2026-04-12T12:34:30Z</time></trkpt><trkpt lat="42.02671997441749" lon="11.995628172813493"><ele>39.0</ele><time>2026-04-12T12:34:31Z</time></trkpt><trkpt lat="42.02676961303666" lon="11.995830325371523"><ele>39.0</ele><time>2026-04-12T12:34:32Z</time></trkpt><trkpt lat="42.026817911895584" lon="11.996028309887247"><ele>39.0</ele><time>2026-04-12T12:34:33Z</time></trkpt><trkpt lat="42.02684527528196" lon="11.996218216919669"><ele>39.0</ele><time>2026-04-12T12:34:34Z</time></trkpt><trkpt lat="42.0269050372825" lon="11.99640522654488"><ele>39.0</ele><time>2026-04-12T12:34:35Z</time></trkpt><trkpt lat="42.02695173704013" lon="11.996606699030847"><ele>39.0</ele><time>2026-04-12T12:34:36Z</time></trkpt><trkpt lat="42.02699414326337" lon="11.996790836110682"><ele>39.0</ele><time>2026-04-12T12:34:37Z</time></trkpt><trkpt lat="42.027034122689685" lon="11.996998295176825"><ele>39.0</ele><time>2026-04-12T12:34:38Z</time></trkpt><trkpt lat="42.02706768904013" lon="11.997179290282556"><ele>39.0</ele><time>2026-04-12T12:34:38.999Z</time></trkpt><trkpt lat="42.02710383501703" lon="11.997367490334751"><ele>39.0</ele><time>2026-04-12T12:34:39.999Z</time></trkpt><trkpt lat="42.02713799469183" lon="11.997531417309057"><ele>39.0</ele><time>2026-04-12T12:34:40.999Z</time></trkpt><trkpt lat="42.027177255680506" lon="11.997689918649305"><ele>38.75</ele><time>2026-04-12T12:34:41.999Z</time></trkpt><trkpt lat="42.027220657733565" lon="11.997839958248116"><ele>38.5</ele><time>2026-04-12T12:34:42.999Z</time></trkpt><trkpt lat="42.02729126367681" lon="11.997991212730925"><ele>38.25</ele><time>2026-04-12T12:34:43.999Z</time></trkpt><trkpt lat="42.027363487102335" lon="11.998139134475032"><ele>38.0</ele><time>2026-04-12T12:34:44.999Z</time></trkpt><trkpt lat="42.02744208209978" lon="11.998260594734603"><ele>38.75</ele><time>2026-04-12T12:34:45.999Z</time></trkpt><trkpt lat="42.02753925526169" lon="11.99838311997463"><ele>39.5</ele><time>2026-04-12T12:34:46.999Z</time></trkpt><trkpt lat="42.027638014434416" lon="11.998511761460007"><ele>40.25</ele><time>2026-04-12T12:34:47.999Z</time></trkpt><trkpt lat="42.02772513923814" lon="11.99863472346663"><ele>41.0</ele><time>2026-04-12T12:34:48.999Z</time></trkpt><trkpt lat="42.02781993738465" lon="11.998760204607903"><ele>41.0</ele><time>2026-04-12T12:34:49.999Z</time></trkpt><trkpt lat="42.02791582802207" lon="11.998894722235073"><ele>41.0</ele><time>2026-04-12T12:34:50.999Z</time></trkpt><trkpt lat="42.02800452100026" lon="11.9990174081749"><ele>41.0</ele><time>2026-04-12T12:34:51.999Z</time></trkpt><trkpt lat="42.0280769666655" lon="11.999121197302424"><ele>41.0</ele><time>2026-04-12T12:34:52.999Z</time></trkpt><trkpt lat="42.02812468509199" lon="11.999214750807731"><ele>41.4</ele><time>2026-04-12T12:34:53.999Z</time></trkpt><trkpt lat="42.02817963162427" lon="11.999305331964004"><ele>41.8</ele><time>2026-04-12T12:34:54.999Z</time></trkpt><trkpt lat="42.028186472341375" lon="11.999415795507202"><ele>42.199999999999996</ele><time>2026-04-12T12:34:55.999Z</time></trkpt><trkpt lat="42.02816084051241" lon="11.99954984335258"><ele>42.599999999999994</ele><time>2026-04-12T12:34:56.999Z</time></trkpt><trkpt lat="42.0281162512538" lon="11.999700747936377"><ele>43.0</ele><time>2026-04-12T12:34:57.999Z</time></trkpt><trkpt lat="42.02807810740058" lon="11.99982417279711"><ele>43.0</ele><time>2026-04-12T12:34:58.999Z</time></trkpt><trkpt lat="42.02806674782956" lon="11.999932727150371"><ele>43.0</ele><time>2026-04-12T12:34:59.999Z</time></trkpt><trkpt lat="42.028100504670604" lon="12.000064388426157"><ele>43.0</ele><time>2026-04-12T12:35:00.999Z</time></trkpt><trkpt lat="42.02816175828164" lon="12.000186058278661"><ele>43.0</ele><time>2026-04-12T12:35:01.999Z</time></trkpt><trkpt lat="42.02825778220637" lon="12.000242178306962"><ele>43.0</ele><time>2026-04-12T12:35:02.999Z</time></trkpt><trkpt lat="42.0283654002442" lon="12.000302376526497"><ele>43.599999999999994</ele><time>2026-04-12T12:35:03.999Z</time></trkpt><trkpt lat="42.028496598261924" lon="12.00032504870228"><ele>44.199999999999996</ele><time>2026-04-12T12:35:04.999Z</time></trkpt><trkpt lat="42.028614302839884" lon="12.000340496868045"><ele>44.8</ele><time>2026-04-12T12:35:05.999Z</time></trkpt><trkpt lat="42.028699473850054" lon="12.000351377278706"><ele>45.4</ele><time>2026-04-12T12:35:06.999Z</time></trkpt><trkpt lat="42.02880009003081" lon="12.000359740105344"><ele>46.0</ele><time>2026-04-12T12:35:08.999Z</time></trkpt><trkpt lat="42.028747589277266" lon="12.000540244314092"><ele>46.0</ele><time>2026-04-12T12:35:10.999Z</time></trkpt><trkpt lat="42.028687939943374" lon="12.00069395831049"><ele>46.0</ele><time>2026-04-12T12:35:12.999Z</time></trkpt><trkpt lat="42.02865671901148" lon="12.000780275213273"><ele>46.0</ele><time>2026-04-12T12:35:13.999Z</time></trkpt><trkpt lat="42.02861677750089" lon="12.000855204796697"><ele>46.0</ele><time>2026-04-12T12:35:14.999Z</time></trkpt><trkpt lat="42.02851101308417" lon="12.000832594847248"><ele>46.0</ele><time>2026-04-12T12:35:15.999Z</time></trkpt><trkpt lat="42.02840564992078" lon="12.000922351189757"><ele>46.4</ele><time>2026-04-12T12:35:17.999Z</time></trkpt><trkpt lat="42.02836096981008" lon="12.000990372272044"><ele>46.8</ele><time>2026-04-12T12:35:18.999Z</time></trkpt><trkpt lat="42.02832944681474" lon="12.001084292269473"><ele>47.199999999999996</ele><time>2026-04-12T12:35:19.999Z</time></trkpt><trkpt lat="42.02830669049902" lon="12.001169628817802"><ele>47.599999999999994</ele><time>2026-04-12T12:35:20.999Z</time></trkpt><trkpt lat="42.02828363805498" lon="12.001256075856771"><ele>48.0</ele><time>2026-04-12T12:35:21.999Z</time></trkpt><trkpt lat="42.02842540176882" lon="12.001425717487908"><ele>48.99999999999999</ele><time>2026-04-12T12:35:22.999Z</time></trkpt><trkpt lat="42.0284568934115" lon="12.00150027689456"><ele>50.0</ele><time>2026-04-12T12:35:23.999Z</time></trkpt><trkpt lat="42.02849235656699" lon="12.001576446519922"><ele>51.0</ele><time>2026-04-12T12:35:24.999Z</time></trkpt><trkpt lat="42.0285384371664" lon="12.001667214356093"><ele>52.0</ele><time>2026-04-12T12:35:25.999Z</time></trkpt><trkpt lat="42.028584342865514" lon="12.001756990523686"><ele>53.0</ele><time>2026-04-12T12:35:26.999Z</time></trkpt><trkpt lat="42.028626616186976" lon="12.00183697143893"><ele>53.99999999999999</ele><time>2026-04-12T12:35:27.999Z</time></trkpt><trkpt lat="42.028680344640996" lon="12.001902673063627"><ele>55.0</ele><time>2026-04-12T12:35:28.999Z</time></trkpt><trkpt lat="42.02871815115091" lon="12.001970738099898"><ele>55.166666666666664</ele><time>2026-04-12T12:35:29.999Z</time></trkpt><trkpt lat="42.02875245930545" lon="12.00206224784041"><ele>55.33333333333333</ele><time>2026-04-12T12:35:30.999Z</time></trkpt><trkpt lat="42.02880059261836" lon="12.002144279660167"><ele>55.5</ele><time>2026-04-12T12:35:31.999Z</time></trkpt><trkpt lat="42.028847640659855" lon="12.002209541903333"><ele>55.66666666666667</ele><time>2026-04-12T12:35:32.999Z</time></trkpt><trkpt lat="42.028897343332716" lon="12.00230000410871"><ele>55.833333333333336</ele><time>2026-04-12T12:35:33.999Z</time></trkpt><trkpt lat="42.02895944206249" lon="12.002384350986185"><ele>56.0</ele><time>2026-04-12T12:35:34.999Z</time></trkpt><trkpt lat="42.02899303347894" lon="12.0024649642989"><ele>56.00000000000001</ele><time>2026-04-12T12:35:35.999Z</time></trkpt><trkpt lat="42.02903877111622" lon="12.002541085890208"><ele>56.0</ele><time>2026-04-12T12:35:36.999Z</time></trkpt><trkpt lat="42.0291026812311" lon="12.002617868104126"><ele>56.0</ele><time>2026-04-12T12:35:37.999Z</time></trkpt><trkpt lat="42.02915773563915" lon="12.002708032883426"><ele>56.0</ele><time>2026-04-12T12:35:38.999Z</time></trkpt><trkpt lat="42.02921222470687" lon="12.002799183778304"><ele>56.00000000000001</ele><time>2026-04-12T12:35:39.999Z</time></trkpt><trkpt lat="42.029258240018734" lon="12.00289508663647"><ele>56.0</ele><time>2026-04-12T12:35:40.999Z</time></trkpt><trkpt lat="42.02930978259688" lon="12.002983494089921"><ele>56.00000000000001</ele><time>2026-04-12T12:35:41.999Z</time></trkpt><trkpt lat="42.02934254106797" lon="12.003075675957216"><ele>56.0</ele><time>2026-04-12T12:35:42.999Z</time></trkpt><trkpt lat="42.02938672153393" lon="12.003160418866326"><ele>56.0</ele><time>2026-04-12T12:35:43.999Z</time></trkpt><trkpt lat="42.02944452463013" lon="12.003233489664138"><ele>56.0</ele><time>2026-04-12T12:35:45Z</time></trkpt><trkpt lat="42.02948348434191" lon="12.003329946908435"><ele>56.00000000000001</ele><time>2026-04-12T12:35:46Z</time></trkpt><trkpt lat="42.02952343603921" lon="12.003412905399301"><ele>56.0</ele><time>2026-04-12T12:35:47Z</time></trkpt><trkpt lat="42.029569199704895" lon="12.003477027732282"><ele>55.0</ele><time>2026-04-12T12:35:48Z</time></trkpt><trkpt lat="42.029635095213884" lon="12.003616254766897"><ele>53.99999999999999</ele><time>2026-04-12T12:35:50Z</time></trkpt><trkpt lat="42.02972854984972" lon="12.003757082528569"><ele>53.0</ele><time>2026-04-12T12:35:52Z</time></trkpt><trkpt lat="42.029781078688885" lon="12.003854248811761"><ele>52.0</ele><time>2026-04-12T12:35:53Z</time></trkpt><trkpt lat="42.02983961432233" lon="12.003944507984535"><ele>51.0</ele><time>2026-04-12T12:35:54Z</time></trkpt><trkpt lat="42.02987643035603" lon="12.004035543337618"><ele>51.0</ele><time>2026-04-12T12:35:55Z</time></trkpt><trkpt lat="42.02991840901825" lon="12.00410797066166"><ele>51.0</ele><time>2026-04-12T12:35:56Z</time></trkpt><trkpt lat="42.02996114773248" lon="12.004181709350721"><ele>51.0</ele><time>2026-04-12T12:35:57Z</time></trkpt><trkpt lat="42.030006218073154" lon="12.004259470855699"><ele>51.0</ele><time>2026-04-12T12:35:58Z</time></trkpt><trkpt lat="42.03006811440246" lon="12.004330117716993"><ele>51.0</ele><time>2026-04-12T12:35:59Z</time></trkpt><trkpt lat="42.03010812687372" lon="12.004414007402405"><ele>51.0</ele><time>2026-04-12T12:36:00Z</time></trkpt><trkpt lat="42.03014732081428" lon="12.0044881804227"><ele>51.0</ele><time>2026-04-12T12:36:01Z</time></trkpt><trkpt lat="42.03019293476558" lon="12.004548507751984"><ele>51.833333333333336</ele><time>2026-04-12T12:36:02Z</time></trkpt><trkpt lat="42.03024101049224" lon="12.004628389983871"><ele>52.66666666666667</ele><time>2026-04-12T12:36:03Z</time></trkpt><trkpt lat="42.03028919258353" lon="12.004712217864693"><ele>53.5</ele><time>2026-04-12T12:36:04Z</time></trkpt><trkpt lat="42.03033275030329" lon="12.004782605311556"><ele>54.333333333333336</ele><time>2026-04-12T12:36:05Z</time></trkpt><trkpt lat="42.03041128604784" lon="12.004905056864919"><ele>55.16666666666667</ele><time>2026-04-12T12:36:07Z</time></trkpt><trkpt lat="42.03045252091862" lon="12.004970374180564"><ele>56.0</ele><time>2026-04-12T12:36:08Z</time></trkpt><trkpt lat="42.03049496598898" lon="12.005036720062211"><ele>56.00000000000001</ele><time>2026-04-12T12:36:09Z</time></trkpt><trkpt lat="42.03054498651923" lon="12.005115942183187"><ele>56.0</ele><time>2026-04-12T12:36:10Z</time></trkpt><trkpt lat="42.030599045707476" lon="12.005205648893087"><ele>56.0</ele><time>2026-04-12T12:36:11Z</time></trkpt><trkpt lat="42.030646359782644" lon="12.0052881081544"><ele>56.0</ele><time>2026-04-12T12:36:12Z</time></trkpt><trkpt lat="42.03067049785334" lon="12.00537361045895"><ele>56.00000000000001</ele><time>2026-04-12T12:36:13Z</time></trkpt><trkpt lat="42.03073653811384" lon="12.005508756018576"><ele>56.0</ele><time>2026-04-12T12:36:15Z</time></trkpt><trkpt lat="42.03079662208826" lon="12.005614939173258"><ele>57.16666666666667</ele><time>2026-04-12T12:36:17Z</time></trkpt><trkpt lat="42.030835999351325" lon="12.005688946429864"><ele>58.333333333333336</ele><time>2026-04-12T12:36:18Z</time></trkpt><trkpt lat="42.03088716444959" lon="12.005780135070218"><ele>59.5</ele><time>2026-04-12T12:36:19Z</time></trkpt><trkpt lat="42.030956132760345" lon="12.005919609367064"><ele>60.66666666666667</ele><time>2026-04-12T12:36:21Z</time></trkpt><trkpt lat="42.03099806586772" lon="12.005994902900834"><ele>61.833333333333336</ele><time>2026-04-12T12:36:22Z</time></trkpt><trkpt lat="42.03103754149296" lon="12.00606934281971"><ele>63.0</ele><time>2026-04-12T12:36:23Z</time></trkpt><trkpt lat="42.03107498174537" lon="12.006139447178914"><ele>63.0</ele><time>2026-04-12T12:36:24Z</time></trkpt><trkpt lat="42.03114303270802" lon="12.006296204724306"><ele>63.0</ele><time>2026-04-12T12:36:26Z</time></trkpt><trkpt lat="42.03120502083907" lon="12.006369756184476"><ele>63.0</ele><time>2026-04-12T12:36:27Z</time></trkpt><trkpt lat="42.03125114158462" lon="12.006453658985604"><ele>63.0</ele><time>2026-04-12T12:36:28Z</time></trkpt><trkpt lat="42.03130003147652" lon="12.006551025155616"><ele>63.0</ele><time>2026-04-12T12:36:29Z</time></trkpt><trkpt lat="42.03134069506145" lon="12.006631472584342"><ele>63.0</ele><time>2026-04-12T12:36:30Z</time></trkpt><trkpt lat="42.031378324659954" lon="12.006707224918065"><ele>63.0</ele><time>2026-04-12T12:36:31Z</time></trkpt><trkpt lat="42.031425707341015" lon="12.006795222118562"><ele>63.0</ele><time>2026-04-12T12:36:32Z</time></trkpt><trkpt lat="42.031464275452926" lon="12.006902146647631"><ele>63.0</ele><time>2026-04-12T12:36:33Z</time></trkpt><trkpt lat="42.03152262047062" lon="12.006987281527284"><ele>63.0</ele><time>2026-04-12T12:36:34Z</time></trkpt><trkpt lat="42.031567528511694" lon="12.007087008923826"><ele>63.0</ele><time>2026-04-12T12:36:35Z</time></trkpt><trkpt lat="42.03160562540961" lon="12.007163819872693"><ele>63.42857142857143</ele><time>2026-04-12T12:36:36Z</time></trkpt><trkpt lat="42.031640437857256" lon="12.007234915947324"><ele>63.85714285714286</ele><time>2026-04-12T12:36:37Z</time></trkpt><trkpt lat="42.03166549876913" lon="12.007319140647185"><ele>64.28571428571428</ele><time>2026-04-12T12:36:38Z</time></trkpt><trkpt lat="42.031701885843916" lon="12.007395612345475"><ele>64.71428571428572</ele><time>2026-04-12T12:36:39Z</time></trkpt><trkpt lat="42.031752612229106" lon="12.007461671879142"><ele>65.14285714285714</ele><time>2026-04-12T12:36:40Z</time></trkpt><trkpt lat="42.031787703301575" lon="12.007539407224236"><ele>65.57142857142857</ele><time>2026-04-12T12:36:41Z</time></trkpt><trkpt lat="42.03182945535848" lon="12.007628859638844"><ele>66.0</ele><time>2026-04-12T12:36:42Z</time></trkpt><trkpt lat="42.03187795433351" lon="12.007720231077624"><ele>66.33333333333333</ele><time>2026-04-12T12:36:42.999Z</time></trkpt><trkpt lat="42.031924851724774" lon="12.00781363800839"><ele>66.66666666666667</ele><time>2026-04-12T12:36:43.999Z</time></trkpt><trkpt lat="42.03197411522144" lon="12.007907175258154"><ele>67.0</ele><time>2026-04-12T12:36:44.999Z</time></trkpt><trkpt lat="42.03202345615839" lon="12.007996332126103"><ele>67.33333333333334</ele><time>2026-04-12T12:36:45.999Z</time></trkpt><trkpt lat="42.03207016284945" lon="12.008092235287496"><ele>67.66666666666667</ele><time>2026-04-12T12:36:46.999Z</time></trkpt><trkpt lat="42.03211528495803" lon="12.008183314043215"><ele>68.0</ele><time>2026-04-12T12:36:47.999Z</time></trkpt><trkpt lat="42.03216781796296" lon="12.008284827540185"><ele>68.8</ele><time>2026-04-12T12:36:48.999Z</time></trkpt><trkpt lat="42.03221287140009" lon="12.008399727359494"><ele>69.6</ele><time>2026-04-12T12:36:49.999Z</time></trkpt><trkpt lat="42.03227920778069" lon="12.008490029606495"><ele>70.4</ele><time>2026-04-12T12:36:50.999Z</time></trkpt><trkpt lat="42.032329097570404" lon="12.008596702827854"><ele>71.2</ele><time>2026-04-12T12:36:51.999Z</time></trkpt><trkpt lat="42.03238117193149" lon="12.008693298582953"><ele>72.0</ele><time>2026-04-12T12:36:52.999Z</time></trkpt><trkpt lat="42.03242903617229" lon="12.00878308636458"><ele>72.4</ele><time>2026-04-12T12:36:53.999Z</time></trkpt><trkpt lat="42.03248203636772" lon="12.008920960968604"><ele>72.80000000000001</ele><time>2026-04-12T12:36:55.999Z</time></trkpt><trkpt lat="42.032567815143466" lon="12.009073368394615"><ele>73.2</ele><time>2026-04-12T12:36:57.999Z</time></trkpt><trkpt lat="42.03261335027829" lon="12.009167346288939"><ele>73.60000000000001</ele><time>2026-04-12T12:36:58.999Z</time></trkpt><trkpt lat="42.03264424488336" lon="12.009265372879849"><ele>74.0</ele><time>2026-04-12T12:36:59.999Z</time></trkpt><trkpt lat="42.032697360905" lon="12.009356432613755"><ele>74.16666666666667</ele><time>2026-04-12T12:37:00.999Z</time></trkpt><trkpt lat="42.03274303313996" lon="12.009442973164925"><ele>74.33333333333334</ele><time>2026-04-12T12:37:01.999Z</time></trkpt><trkpt lat="42.032784716995145" lon="12.00952542188383"><ele>74.5</ele><time>2026-04-12T12:37:02.999Z</time></trkpt><trkpt lat="42.03281841956512" lon="12.009614862749672"><ele>74.66666666666667</ele><time>2026-04-12T12:37:03.999Z</time></trkpt><trkpt lat="42.03286811347654" lon="12.009705405388043"><ele>74.83333333333333</ele><time>2026-04-12T12:37:04.999Z</time></trkpt><trkpt lat="42.0329302724169" lon="12.009794777000284"><ele>75.0</ele><time>2026-04-12T12:37:05.999Z</time></trkpt><trkpt lat="42.03298193470068" lon="12.00988394900646"><ele>75.0</ele><time>2026-04-12T12:37:06.999Z</time></trkpt><trkpt lat="42.03303735103635" lon="12.00997496595637"><ele>75.0</ele><time>2026-04-12T12:37:07.999Z</time></trkpt><trkpt lat="42.03308855874802" lon="12.010061130833785"><ele>75.0</ele><time>2026-04-12T12:37:08.999Z</time></trkpt><trkpt lat="42.033140991093354" lon="12.010144372643554"><ele>75.0</ele><time>2026-04-12T12:37:09.999Z</time></trkpt><trkpt lat="42.03317636587507" lon="12.01024163830134"><ele>75.0</ele><time>2026-04-12T12:37:10.999Z</time></trkpt><trkpt lat="42.033229751986156" lon="12.010309516620957"><ele>75.0</ele><time>2026-04-12T12:37:11.999Z</time></trkpt><trkpt lat="42.03328543589421" lon="12.010402128604817"><ele>75.83333333333333</ele><time>2026-04-12T12:37:12.999Z</time></trkpt><trkpt lat="42.0333354817059" lon="12.010494017362054"><ele>76.66666666666667</ele><time>2026-04-12T12:37:13.999Z</time></trkpt><trkpt lat="42.03338327982379" lon="12.010588537004617"><ele>77.5</ele><time>2026-04-12T12:37:14.999Z</time></trkpt><trkpt lat="42.03343285347975" lon="12.010679277836136"><ele>78.33333333333334</ele><time>2026-04-12T12:37:15.999Z</time></trkpt><trkpt lat="42.033486310752856" lon="12.010775002007254"><ele>79.16666666666667</ele><time>2026-04-12T12:37:16.999Z</time></trkpt><trkpt lat="42.033537025036864" lon="12.01086914832623"><ele>80.0</ele><time>2026-04-12T12:37:17.999Z</time></trkpt><trkpt lat="42.033577398896945" lon="12.010978065742997"><ele>80.0</ele><time>2026-04-12T12:37:18.999Z</time></trkpt><trkpt lat="42.03362999352418" lon="12.011076100580954"><ele>80.0</ele><time>2026-04-12T12:37:19.999Z</time></trkpt><trkpt lat="42.03368504445305" lon="12.011175098549195"><ele>80.0</ele><time>2026-04-12T12:37:20.999Z</time></trkpt><trkpt lat="42.03374320591857" lon="12.011274462342179"><ele>80.0</ele><time>2026-04-12T12:37:21.999Z</time></trkpt><trkpt lat="42.033792796007646" lon="12.011364941073575"><ele>80.0</ele><time>2026-04-12T12:37:22.999Z</time></trkpt><trkpt lat="42.03382130358456" lon="12.011461033923652"><ele>80.0</ele><time>2026-04-12T12:37:23.999Z</time></trkpt><trkpt lat="42.03385741843343" lon="12.011571442375883"><ele>80.0</ele><time>2026-04-12T12:37:24.999Z</time></trkpt><trkpt lat="42.03383712792178" lon="12.01165311849325"><ele>80.0</ele><time>2026-04-12T12:37:25.999Z</time></trkpt><trkpt lat="42.034001657356015" lon="12.011774877963514"><ele>80.0</ele><time>2026-04-12T12:37:27.999Z</time></trkpt><trkpt lat="42.03406143675387" lon="12.011914942642546"><ele>80.0</ele><time>2026-04-12T12:37:29.999Z</time></trkpt><trkpt lat="42.03408716512438" lon="12.012024635224327"><ele>80.2</ele><time>2026-04-12T12:37:31.999Z</time></trkpt><trkpt lat="42.03409617383723" lon="12.012147294681455"><ele>80.4</ele><time>2026-04-12T12:37:33.999Z</time></trkpt><trkpt lat="42.03410187007065" lon="12.012281912228518"><ele>80.6</ele><time>2026-04-12T12:37:35.999Z</time></trkpt><trkpt lat="42.03414098443834" lon="12.012437077001376"><ele>80.8</ele><time>2026-04-12T12:37:37.999Z</time></trkpt><trkpt lat="42.03417877935502" lon="12.012573903176715"><ele>81.0</ele><time>2026-04-12T12:37:39.999Z</time></trkpt><trkpt lat="42.034234651810266" lon="12.012686709896583"><ele>79.2</ele><time>2026-04-12T12:37:41.999Z</time></trkpt><trkpt lat="42.03430552289697" lon="12.0128205830884"><ele>77.39999999999999</ele><time>2026-04-12T12:37:43.999Z</time></trkpt><trkpt lat="42.034375190824" lon="12.01288746975703"><ele>75.6</ele><time>2026-04-12T12:37:44.999Z</time></trkpt><trkpt lat="42.03443138162777" lon="12.012992458428899"><ele>73.8</ele><time>2026-04-12T12:37:46.999Z</time></trkpt><trkpt lat="42.03449009632057" lon="12.013082437754178"><ele>72.0</ele><time>2026-04-12T12:37:48.999Z</time></trkpt><trkpt lat="42.034568550711505" lon="12.013177721433488"><ele>72.0</ele><time>2026-04-12T12:37:51Z</time></trkpt><trkpt lat="42.03461901849017" lon="12.013243471096132"><ele>72.0</ele><time>2026-04-12T12:37:54Z</time></trkpt><trkpt lat="42.03468445006838" lon="12.013314613089657"><ele>72.0</ele><time>2026-04-12T12:37:56Z</time></trkpt><trkpt lat="42.034779048514636" lon="12.013405647910654"><ele>72.0</ele><time>2026-04-12T12:37:58Z</time></trkpt><trkpt lat="42.03484166716499" lon="12.013465824015926"><ele>72.0</ele><time>2026-04-12T12:38:00Z</time></trkpt><trkpt lat="42.03491854010457" lon="12.013520865599776"><ele>72.0</ele><time>2026-04-12T12:38:02Z</time></trkpt><trkpt lat="42.03499478642018" lon="12.013576427865484"><ele>69.83333333333333</ele><time>2026-04-12T12:38:04Z</time></trkpt><trkpt lat="42.035088681001135" lon="12.013610634102902"><ele>67.66666666666667</ele><time>2026-04-12T12:38:06Z</time></trkpt><trkpt lat="42.03518703216121" lon="12.013593332966803"><ele>65.5</ele><time>2026-04-12T12:38:08Z</time></trkpt><trkpt lat="42.03527458769357" lon="12.013582306972399"><ele>63.333333333333336</ele><time>2026-04-12T12:38:10Z</time></trkpt><trkpt lat="42.03535573644644" lon="12.013574862788472"><ele>61.16666666666667</ele><time>2026-04-12T12:38:13Z</time></trkpt><trkpt lat="42.035415681182464" lon="12.0136023103057"><ele>59.0</ele><time>2026-04-12T12:38:15Z</time></trkpt><trkpt lat="42.03549722015191" lon="12.013651141123852"><ele>59.0</ele><time>2026-04-12T12:38:17Z</time></trkpt><trkpt lat="42.035505738253896" lon="12.013750933714874"><ele>59.00000000000001</ele><time>2026-04-12T12:38:20Z</time></trkpt><trkpt lat="42.0355061298581" lon="12.01388502347306"><ele>59.00000000000001</ele><time>2026-04-12T12:38:23Z</time></trkpt><trkpt lat="42.03550123572133" lon="12.014016971811667"><ele>59.0</ele><time>2026-04-12T12:38:25Z</time></trkpt><trkpt lat="42.035535916290584" lon="12.014185330127201"><ele>59.0</ele><time>2026-04-12T12:38:27Z</time></trkpt><trkpt lat="42.03555822857208" lon="12.014281470056826"><ele>58.50000000000001</ele><time>2026-04-12T12:38:28Z</time></trkpt><trkpt lat="42.035565885556764" lon="12.01439980543057"><ele>58.0</ele><time>2026-04-12T12:38:29Z</time></trkpt><trkpt lat="42.03558883986728" lon="12.01449979137117"><ele>57.5</ele><time>2026-04-12T12:38:30Z</time></trkpt><trkpt lat="42.035611962975565" lon="12.014618879632131"><ele>57.0</ele><time>2026-04-12T12:38:31Z</time></trkpt><trkpt lat="42.03564442711602" lon="12.014732558733654"><ele>56.50000000000001</ele><time>2026-04-12T12:38:32Z</time></trkpt><trkpt lat="42.035675653216316" lon="12.014842217279003"><ele>56.0</ele><time>2026-04-12T12:38:33Z</time></trkpt><trkpt lat="42.03570444965567" lon="12.014960086964564"><ele>56.50000000000001</ele><time>2026-04-12T12:38:34Z</time></trkpt><trkpt lat="42.03571774717741" lon="12.01505695866204"><ele>57.0</ele><time>2026-04-12T12:38:35Z</time></trkpt><trkpt lat="42.035726062375545" lon="12.015157798994803"><ele>57.5</ele><time>2026-04-12T12:38:36Z</time></trkpt><trkpt lat="42.035727494082266" lon="12.015270632785494"><ele>58.0</ele><time>2026-04-12T12:38:38Z</time></trkpt><trkpt lat="42.03565949017459" lon="12.015320846352571"><ele>58.50000000000001</ele><time>2026-04-12T12:38:41Z</time></trkpt><trkpt lat="42.035577642270866" lon="12.015293381568876"><ele>59.0</ele><time>2026-04-12T12:38:44Z</time></trkpt><trkpt lat="42.03550991812214" lon="12.015304508878133"><ele>59.0</ele><time>2026-04-12T12:38:46Z</time></trkpt><trkpt lat="42.035425724092605" lon="12.015304346369021"><ele>59.00000000000001</ele><time>2026-04-12T12:38:48Z</time></trkpt><trkpt lat="42.03533671220894" lon="12.015278888748869"><ele>59.00000000000001</ele><time>2026-04-12T12:38:49.999Z</time></trkpt><trkpt lat="42.035242098287725" lon="12.015269292330608"><ele>59.0</ele><time>2026-04-12T12:38:52.999Z</time></trkpt><trkpt lat="42.03515305093769" lon="12.015267283369667"><ele>59.0</ele><time>2026-04-12T12:38:54.999Z</time></trkpt><trkpt lat="42.03505710908014" lon="12.015280061577153"><ele>59.00000000000001</ele><time>2026-04-12T12:38:56.999Z</time></trkpt><trkpt lat="42.03497172516912" lon="12.015318372101355"><ele>59.0</ele><time>2026-04-12T12:38:57.999Z</time></trkpt><trkpt lat="42.03489473629326" lon="12.01535493288844"><ele>59.0</ele><time>2026-04-12T12:38:58.999Z</time></trkpt><trkpt lat="42.034822344101656" lon="12.015379000405265"><ele>59.0</ele><time>2026-04-12T12:38:59.999Z</time></trkpt><trkpt lat="42.03475029065275" lon="12.015395751352282"><ele>59.00000000000001</ele><time>2026-04-12T12:39:00.999Z</time></trkpt><trkpt lat="42.03468164309026" lon="12.015404518663335"><ele>59.0</ele><time>2026-04-12T12:39:01.999Z</time></trkpt><trkpt lat="42.03461241970462" lon="12.015422296972943"><ele>58.333333333333336</ele><time>2026-04-12T12:39:02.999Z</time></trkpt><trkpt lat="42.034546254872495" lon="12.0154329493786"><ele>57.66666666666667</ele><time>2026-04-12T12:39:03.999Z</time></trkpt><trkpt lat="42.03446872350617" lon="12.01545540263141"><ele>57.0</ele><time>2026-04-12T12:39:04.999Z</time></trkpt><trkpt lat="42.03432609351373" lon="12.015462316342495"><ele>56.33333333333333</ele><time>2026-04-12T12:39:06.999Z</time></trkpt><trkpt lat="42.034249512869366" lon="12.015473800321125"><ele>55.666666666666664</ele><time>2026-04-12T12:39:07.999Z</time></trkpt><trkpt lat="42.03418403958681" lon="12.01549340752904"><ele>55.0</ele><time>2026-04-12T12:39:08.999Z</time></trkpt><trkpt lat="42.034115295505636" lon="12.015517524408697"><ele>54.83333333333333</ele><time>2026-04-12T12:39:09.999Z</time></trkpt><trkpt lat="42.03404449590057" lon="12.015530173366484"><ele>54.666666666666664</ele><time>2026-04-12T12:39:10.999Z</time></trkpt><trkpt lat="42.03397279486352" lon="12.01554806352889"><ele>54.5</ele><time>2026-04-12T12:39:11.999Z</time></trkpt><trkpt lat="42.03387855612199" lon="12.015629972208059"><ele>54.33333333333333</ele><time>2026-04-12T12:39:13.999Z</time></trkpt><trkpt lat="42.033825404334294" lon="12.01570050066131"><ele>54.166666666666664</ele><time>2026-04-12T12:39:14.999Z</time></trkpt><trkpt lat="42.03378967591268" lon="12.015771935645507"><ele>54.0</ele><time>2026-04-12T12:39:15.999Z</time></trkpt><trkpt lat="42.03378219608491" lon="12.015869212184528"><ele>54.0</ele><time>2026-04-12T12:39:17.999Z</time></trkpt><trkpt lat="42.03372683675646" lon="12.015909809978085"><ele>54.0</ele><time>2026-04-12T12:39:18.999Z</time></trkpt><trkpt lat="42.033645346632746" lon="12.015953539865444"><ele>54.0</ele><time>2026-04-12T12:39:19.999Z</time></trkpt><trkpt lat="42.03359068226812" lon="12.016005935740226"><ele>54.0</ele><time>2026-04-12T12:39:20.999Z</time></trkpt><trkpt lat="42.03354329968923" lon="12.016090677101577"><ele>54.0</ele><time>2026-04-12T12:39:21.999Z</time></trkpt><trkpt lat="42.03351404704612" lon="12.016192760041612"><ele>54.0</ele><time>2026-04-12T12:39:22.999Z</time></trkpt><trkpt lat="42.033476477835436" lon="12.016281753322469"><ele>54.0</ele><time>2026-04-12T12:39:23.999Z</time></trkpt><trkpt lat="42.03344219628441" lon="12.016376140118972"><ele>54.00000000000001</ele><time>2026-04-12T12:39:24.999Z</time></trkpt><trkpt lat="42.03339430926206" lon="12.016483319826914"><ele>54.00000000000001</ele><time>2026-04-12T12:39:26.999Z</time></trkpt><trkpt lat="42.033298806122" lon="12.016534126322401"><ele>54.0</ele><time>2026-04-12T12:39:29.999Z</time></trkpt><trkpt lat="42.033202936145216" lon="12.01656954816875"><ele>54.0</ele><time>2026-04-12T12:39:31.999Z</time></trkpt><trkpt lat="42.03310682741974" lon="12.016697050141437"><ele>54.0</ele><time>2026-04-12T12:39:33.999Z</time></trkpt><trkpt lat="42.03306127347627" lon="12.016794383740645"><ele>54.0</ele><time>2026-04-12T12:39:34.999Z</time></trkpt><trkpt lat="42.03299771582168" lon="12.01686220511503"><ele>54.0</ele><time>2026-04-12T12:39:35.999Z</time></trkpt><trkpt lat="42.03294098814681" lon="12.016902437184124"><ele>54.0</ele><time>2026-04-12T12:39:36.999Z</time></trkpt><trkpt lat="42.0328758867393" lon="12.016932766361972"><ele>54.0</ele><time>2026-04-12T12:39:37.999Z</time></trkpt><trkpt lat="42.03280791704472" lon="12.016976217210422"><ele>54.0</ele><time>2026-04-12T12:39:38.999Z</time></trkpt><trkpt lat="42.03274990020558" lon="12.01702997305941"><ele>54.0</ele><time>2026-04-12T12:39:39.999Z</time></trkpt><trkpt lat="42.03269682041021" lon="12.017094724921705"><ele>54.0</ele><time>2026-04-12T12:39:40.999Z</time></trkpt><trkpt lat="42.03264898095539" lon="12.017150619403825"><ele>54.00000000000001</ele><time>2026-04-12T12:39:41.999Z</time></trkpt><trkpt lat="42.03256160065879" lon="12.017251284119524"><ele>54.00000000000001</ele><time>2026-04-12T12:39:43.999Z</time></trkpt><trkpt lat="42.032473733263295" lon="12.017309491407751"><ele>54.0</ele><time>2026-04-12T12:39:45.999Z</time></trkpt><trkpt lat="42.03236812463117" lon="12.01736118758067"><ele>54.0</ele><time>2026-04-12T12:39:47.999Z</time></trkpt><trkpt lat="42.032309336898926" lon="12.017420150714232"><ele>52.833333333333336</ele><time>2026-04-12T12:39:48.999Z</time></trkpt><trkpt lat="42.03225220217465" lon="12.017460077179695"><ele>51.666666666666664</ele><time>2026-04-12T12:39:49.999Z</time></trkpt><trkpt lat="42.03219969769423" lon="12.01750986753369"><ele>50.5</ele><time>2026-04-12T12:39:50.999Z</time></trkpt><trkpt lat="42.03211395470762" lon="12.017585310124677"><ele>49.33333333333333</ele><time>2026-04-12T12:39:52.999Z</time></trkpt><trkpt lat="42.032056046865605" lon="12.017621777017835"><ele>48.166666666666664</ele><time>2026-04-12T12:39:54.999Z</time></trkpt><trkpt lat="42.03198309172986" lon="12.017688748674177"><ele>47.0</ele><time>2026-04-12T12:39:57Z</time></trkpt><trkpt lat="42.031890016683356" lon="12.017798797288847"><ele>47.0</ele><time>2026-04-12T12:39:59Z</time></trkpt><trkpt lat="42.031808029142915" lon="12.017905957886436"><ele>47.0</ele><time>2026-04-12T12:40:01Z</time></trkpt><trkpt lat="42.03172661009795" lon="12.018012497255151"><ele>47.0</ele><time>2026-04-12T12:40:03Z</time></trkpt><trkpt lat="42.0316556414201" lon="12.018089779225761"><ele>47.0</ele><time>2026-04-12T12:40:05Z</time></trkpt><trkpt lat="42.03159941989701" lon="12.018153900210692"><ele>47.0</ele><time>2026-04-12T12:40:07Z</time></trkpt><trkpt lat="42.03154506893759" lon="12.018079097025003"><ele>46.5</ele><time>2026-04-12T12:40:10Z</time></trkpt><trkpt lat="42.031479730889416" lon="12.018094307424702"><ele>46.0</ele><time>2026-04-12T12:40:13Z</time></trkpt><trkpt lat="42.03141095564636" lon="12.01815286845369"><ele>45.5</ele><time>2026-04-12T12:40:17Z</time></trkpt><trkpt lat="42.03133691153998" lon="12.018180732193567"><ele>45.0</ele><time>2026-04-12T12:40:20Z</time></trkpt><trkpt lat="42.03126516741313" lon="12.018279118666655"><ele>44.5</ele><time>2026-04-12T12:40:22Z</time></trkpt><trkpt lat="42.031185835620484" lon="12.018365116217103"><ele>44.0</ele><time>2026-04-12T12:40:23Z</time></trkpt><trkpt lat="42.03106717478048" lon="12.018476104386728"><ele>44.0</ele><time>2026-04-12T12:40:24Z</time></trkpt><trkpt lat="42.03097705462114" lon="12.018582603102939"><ele>44.0</ele><time>2026-04-12T12:40:25Z</time></trkpt><trkpt lat="42.03088287248753" lon="12.018727935122692"><ele>44.0</ele><time>2026-04-12T12:40:26Z</time></trkpt><trkpt lat="42.03078770027905" lon="12.018823149076638"><ele>44.0</ele><time>2026-04-12T12:40:27Z</time></trkpt><trkpt lat="42.03067966756369" lon="12.018954138094413"><ele>43.75</ele><time>2026-04-12T12:40:28Z</time></trkpt><trkpt lat="42.03057184526768" lon="12.019083098004277"><ele>43.5</ele><time>2026-04-12T12:40:29Z</time></trkpt><trkpt lat="42.030467284795535" lon="12.019207101851295"><ele>43.25</ele><time>2026-04-12T12:40:30Z</time></trkpt><trkpt lat="42.03039386882022" lon="12.019292025028376"><ele>43.0</ele><time>2026-04-12T12:40:31Z</time></trkpt><trkpt lat="42.030302039013876" lon="12.019395505492716"><ele>43.0</ele><time>2026-04-12T12:40:32Z</time></trkpt><trkpt lat="42.03020002577038" lon="12.019509883081678"><ele>43.0</ele><time>2026-04-12T12:40:33Z</time></trkpt><trkpt lat="42.03011511039478" lon="12.019621065276947"><ele>43.0</ele><time>2026-04-12T12:40:34Z</time></trkpt><trkpt lat="42.03003365092802" lon="12.019707563357008"><ele>43.0</ele><time>2026-04-12T12:40:35Z</time></trkpt><trkpt lat="42.029952607555316" lon="12.019802865625739"><ele>42.599999999999994</ele><time>2026-04-12T12:40:36Z</time></trkpt><trkpt lat="42.02986153653736" lon="12.019904807962405"><ele>42.199999999999996</ele><time>2026-04-12T12:40:37Z</time></trkpt><trkpt lat="42.029763728878585" lon="12.020018080321826"><ele>41.8</ele><time>2026-04-12T12:40:38Z</time></trkpt><trkpt lat="42.029693038841515" lon="12.020105279647543"><ele>41.4</ele><time>2026-04-12T12:40:39Z</time></trkpt><trkpt lat="42.029637256089764" lon="12.020166112240496"><ele>41.0</ele><time>2026-04-12T12:40:40Z</time></trkpt><trkpt lat="42.02959846444917" lon="12.020265188702295"><ele>41.0</ele><time>2026-04-12T12:40:41Z</time></trkpt><trkpt lat="42.02957668930393" lon="12.020414226971747"><ele>41.0</ele><time>2026-04-12T12:40:42Z</time></trkpt><trkpt lat="42.02956570603559" lon="12.020581393105408"><ele>41.0</ele><time>2026-04-12T12:40:43Z</time></trkpt><trkpt lat="42.02955515402181" lon="12.020754007742967"><ele>41.0</ele><time>2026-04-12T12:40:44Z</time></trkpt><trkpt lat="42.02954421818221" lon="12.02085561525859"><ele>41.0</ele><time>2026-04-12T12:40:45Z</time></trkpt><trkpt lat="42.02952805161932" lon="12.020980426988803"><ele>41.8</ele><time>2026-04-12T12:40:46Z</time></trkpt><trkpt lat="42.029523603990526" lon="12.02112239730765"><ele>42.599999999999994</ele><time>2026-04-12T12:40:47Z</time></trkpt><trkpt lat="42.029505835570255" lon="12.021252939417273"><ele>43.4</ele><time>2026-04-12T12:40:48Z</time></trkpt><trkpt lat="42.029476403956" lon="12.021374701544623"><ele>44.2</ele><time>2026-04-12T12:40:49Z</time></trkpt><trkpt lat="42.029474601359055" lon="12.02151274851139"><ele>45.0</ele><time>2026-04-12T12:40:50Z</time></trkpt><trkpt lat="42.02945735097058" lon="12.02164387604839"><ele>45.833333333333336</ele><time>2026-04-12T12:40:51Z</time></trkpt><trkpt lat="42.029442550754204" lon="12.021751570753645"><ele>46.66666666666667</ele><time>2026-04-12T12:40:52Z</time></trkpt><trkpt lat="42.02942923142018" lon="12.021878697537241"><ele>47.5</ele><time>2026-04-12T12:40:53Z</time></trkpt><trkpt lat="42.0293982988664" lon="12.021997056157359"><ele>48.333333333333336</ele><time>2026-04-12T12:40:54Z</time></trkpt><trkpt lat="42.0293839588675" lon="12.022113552821944"><ele>49.16666666666667</ele><time>2026-04-12T12:40:55Z</time></trkpt><trkpt lat="42.02938242078827" lon="12.022224534213478"><ele>50.0</ele><time>2026-04-12T12:40:55.999Z</time></trkpt><trkpt lat="42.02937557873608" lon="12.022323805331148"><ele>50.0</ele><time>2026-04-12T12:40:56.999Z</time></trkpt><trkpt lat="42.02936265763797" lon="12.02240798437716"><ele>50.0</ele><time>2026-04-12T12:40:57.999Z</time></trkpt><trkpt lat="42.029345203129644" lon="12.022549100887803"><ele>50.0</ele><time>2026-04-12T12:40:59.999Z</time></trkpt><trkpt lat="42.02934508361321" lon="12.02270208698381"><ele>50.0</ele><time>2026-04-12T12:41:01.999Z</time></trkpt><trkpt lat="42.029294489503" lon="12.022868387096375"><ele>50.0</ele><time>2026-04-12T12:41:03.999Z</time></trkpt><trkpt lat="42.02928726400996" lon="12.022991884694584"><ele>50.4</ele><time>2026-04-12T12:41:04.999Z</time></trkpt><trkpt lat="42.029277800872045" lon="12.023093272742086"><ele>50.8</ele><time>2026-04-12T12:41:05.999Z</time></trkpt><trkpt lat="42.0292757050085" lon="12.023201083901224"><ele>51.2</ele><time>2026-04-12T12:41:06.999Z</time></trkpt><trkpt lat="42.029254365594625" lon="12.023331637511946"><ele>51.6</ele><time>2026-04-12T12:41:07.999Z</time></trkpt><trkpt lat="42.02924796896537" lon="12.023466548206331"><ele>52.0</ele><time>2026-04-12T12:41:08.999Z</time></trkpt><trkpt lat="42.02924135238339" lon="12.023606098237357"><ele>52.0</ele><time>2026-04-12T12:41:09.999Z</time></trkpt><trkpt lat="42.02925323322293" lon="12.023743789291345"><ele>52.0</ele><time>2026-04-12T12:41:10.999Z</time></trkpt><trkpt lat="42.0292493841497" lon="12.023883804861836"><ele>52.0</ele><time>2026-04-12T12:41:11.999Z</time></trkpt><trkpt lat="42.02922915961569" lon="12.024029801666158"><ele>52.0</ele><time>2026-04-12T12:41:12.999Z</time></trkpt><trkpt lat="42.029217695193246" lon="12.02418448383591"><ele>52.0</ele><time>2026-04-12T12:41:13.999Z</time></trkpt><trkpt lat="42.029197042490935" lon="12.024363313123594"><ele>51.0</ele><time>2026-04-12T12:41:14.999Z</time></trkpt><trkpt lat="42.02917640686664" lon="12.024508025117994"><ele>50.0</ele><time>2026-04-12T12:41:15.999Z</time></trkpt><trkpt lat="42.02915454652906" lon="12.02465782505611"><ele>49.0</ele><time>2026-04-12T12:41:16.999Z</time></trkpt><trkpt lat="42.02912525084417" lon="12.024797937175736"><ele>48.0</ele><time>2026-04-12T12:41:17.999Z</time></trkpt><trkpt lat="42.02908868720582" lon="12.024930252570773"><ele>47.0</ele><time>2026-04-12T12:41:18.999Z</time></trkpt><trkpt lat="42.02904624994243" lon="12.02504907120701"><ele>45.8</ele><time>2026-04-12T12:41:19.999Z</time></trkpt><trkpt lat="42.028998453565535" lon="12.025169073758116"><ele>44.6</ele><time>2026-04-12T12:41:20.999Z</time></trkpt><trkpt lat="42.02894963004802" lon="12.02527197482836"><ele>43.4</ele><time>2026-04-12T12:41:21.999Z</time></trkpt><trkpt lat="42.02889075799117" lon="12.02535454361954"><ele>42.199999999999996</ele><time>2026-04-12T12:41:22.999Z</time></trkpt><trkpt lat="42.02882794519134" lon="12.025445324284357"><ele>41.0</ele><time>2026-04-12T12:41:23.999Z</time></trkpt><trkpt lat="42.02875513953423" lon="12.025530309682733"><ele>41.0</ele><time>2026-04-12T12:41:24.999Z</time></trkpt><trkpt lat="42.02866546010395" lon="12.025607054488864"><ele>41.0</ele><time>2026-04-12T12:41:25.999Z</time></trkpt><trkpt lat="42.028557373163395" lon="12.025671326969746"><ele>41.0</ele><time>2026-04-12T12:41:26.999Z</time></trkpt><trkpt lat="42.02843656181202" lon="12.02572322161618"><ele>41.0</ele><time>2026-04-12T12:41:27.999Z</time></trkpt><trkpt lat="42.02830240814325" lon="12.025756089985858"><ele>41.25</ele><time>2026-04-12T12:41:28.999Z</time></trkpt><trkpt lat="42.02816526604376" lon="12.025775097590726"><ele>41.5</ele><time>2026-04-12T12:41:29.999Z</time></trkpt><trkpt lat="42.028029513556646" lon="12.025799912139222"><ele>41.75</ele><time>2026-04-12T12:41:30.999Z</time></trkpt><trkpt lat="42.027894982547906" lon="12.025827735814577"><ele>42.0</ele><time>2026-04-12T12:41:31.999Z</time></trkpt><trkpt lat="42.027766502825436" lon="12.025839019330924"><ele>42.75</ele><time>2026-04-12T12:41:32.999Z</time></trkpt><trkpt lat="42.027630081217964" lon="12.025845128479002"><ele>43.5</ele><time>2026-04-12T12:41:33.999Z</time></trkpt><trkpt lat="42.0274978898082" lon="12.025840267304309"><ele>44.25</ele><time>2026-04-12T12:41:34.999Z</time></trkpt><trkpt lat="42.027373518364904" lon="12.025826092283555"><ele>45.0</ele><time>2026-04-12T12:41:35.999Z</time></trkpt><trkpt lat="42.02723589842051" lon="12.025837226531142"><ele>45.5</ele><time>2026-04-12T12:41:36.999Z</time></trkpt><trkpt lat="42.027094246952366" lon="12.025860763912167"><ele>46.0</ele><time>2026-04-12T12:41:37.999Z</time></trkpt><trkpt lat="42.02696422160319" lon="12.025875192837779"><ele>46.5</ele><time>2026-04-12T12:41:38.999Z</time></trkpt><trkpt lat="42.02683656618944" lon="12.025892417922725"><ele>47.0</ele><time>2026-04-12T12:41:39.999Z</time></trkpt><trkpt lat="42.02669517958005" lon="12.025904518513581"><ele>47.0</ele><time>2026-04-12T12:41:40.999Z</time></trkpt><trkpt lat="42.026569225206245" lon="12.025921997720294"><ele>47.0</ele><time>2026-04-12T12:41:41.999Z</time></trkpt><trkpt lat="42.02645323039276" lon="12.025930070713596"><ele>47.0</ele><time>2026-04-12T12:41:42.999Z</time></trkpt><trkpt lat="42.02633121709661" lon="12.025949111905453"><ele>47.0</ele><time>2026-04-12T12:41:43.999Z</time></trkpt><trkpt lat="42.02621462248885" lon="12.025960308775595"><ele>47.0</ele><time>2026-04-12T12:41:44.999Z</time></trkpt><trkpt lat="42.02609223006611" lon="12.025971335770164"><ele>47.0</ele><time>2026-04-12T12:41:45.999Z</time></trkpt><trkpt lat="42.02597853560145" lon="12.0259622114778"><ele>47.0</ele><time>2026-04-12T12:41:46.999Z</time></trkpt><trkpt lat="42.025856577240575" lon="12.02597591659913"><ele>47.0</ele><time>2026-04-12T12:41:47.999Z</time></trkpt><trkpt lat="42.02572796782676" lon="12.025994485259696"><ele>46.6</ele><time>2026-04-12T12:41:48.999Z</time></trkpt><trkpt lat="42.02561029793545" lon="12.02601295797233"><ele>46.2</ele><time>2026-04-12T12:41:49.999Z</time></trkpt><trkpt lat="42.02550480375075" lon="12.026024898028572"><ele>45.8</ele><time>2026-04-12T12:41:50.999Z</time></trkpt><trkpt lat="42.02541140317825" lon="12.026035982615209"><ele>45.4</ele><time>2026-04-12T12:41:51.999Z</time></trkpt><trkpt lat="42.02532019371639" lon="12.02605376210796"><ele>45.0</ele><time>2026-04-12T12:41:52.999Z</time></trkpt><trkpt lat="42.02522850712452" lon="12.026077563759603"><ele>45.0</ele><time>2026-04-12T12:41:53.999Z</time></trkpt><trkpt lat="42.02515994674054" lon="12.026128341964892"><ele>45.0</ele><time>2026-04-12T12:41:54.999Z</time></trkpt><trkpt lat="42.02510375764836" lon="12.026200105741434"><ele>45.0</ele><time>2026-04-12T12:41:55.999Z</time></trkpt><trkpt lat="42.02507667734589" lon="12.026316259013665"><ele>45.0</ele><time>2026-04-12T12:41:56.999Z</time></trkpt><trkpt lat="42.02506706435432" lon="12.026442108657474"><ele>45.0</ele><time>2026-04-12T12:41:57.999Z</time></trkpt><trkpt lat="42.02503728080815" lon="12.026582388589521"><ele>45.0</ele><time>2026-04-12T12:41:58.999Z</time></trkpt><trkpt lat="42.0250057315141" lon="12.026737683237085"><ele>45.75</ele><time>2026-04-12T12:41:59.999Z</time></trkpt><trkpt lat="42.02497155793489" lon="12.026899993737032"><ele>46.5</ele><time>2026-04-12T12:42:00.999Z</time></trkpt><trkpt lat="42.02494356046299" lon="12.027054149436701"><ele>47.25</ele><time>2026-04-12T12:42:01.999Z</time></trkpt><trkpt lat="42.02491967252695" lon="12.02720482403302"><ele>48.0</ele><time>2026-04-12T12:42:03Z</time></trkpt><trkpt lat="42.024890596541596" lon="12.027356868276973"><ele>48.4</ele><time>2026-04-12T12:42:04Z</time></trkpt><trkpt lat="42.02486692302653" lon="12.027497761967005"><ele>48.8</ele><time>2026-04-12T12:42:05Z</time></trkpt><trkpt lat="42.02482874333935" lon="12.027630004613538"><ele>49.2</ele><time>2026-04-12T12:42:06Z</time></trkpt><trkpt lat="42.02480306625611" lon="12.027773834360454"><ele>49.6</ele><time>2026-04-12T12:42:07Z</time></trkpt><trkpt lat="42.024782093728625" lon="12.027896285921441"><ele>50.0</ele><time>2026-04-12T12:42:08Z</time></trkpt><trkpt lat="42.024756944844135" lon="12.02804297278372"><ele>50.00000000000001</ele><time>2026-04-12T12:42:09Z</time></trkpt><trkpt lat="42.024738340205026" lon="12.028151488769556"><ele>50.0</ele><time>2026-04-12T12:42:10Z</time></trkpt><trkpt lat="42.024717306734615" lon="12.028274171502815"><ele>50.0</ele><time>2026-04-12T12:42:11Z</time></trkpt><trkpt lat="42.024695658621276" lon="12.028400439288657"><ele>50.0</ele><time>2026-04-12T12:42:12Z</time></trkpt><trkpt lat="42.024675695195995" lon="12.02851688072249"><ele>50.00000000000001</ele><time>2026-04-12T12:42:13Z</time></trkpt><trkpt lat="42.02465625244195" lon="12.028630285217503"><ele>50.0</ele><time>2026-04-12T12:42:14Z</time></trkpt><trkpt lat="42.02463879349264" lon="12.028732118697269"><ele>50.00000000000001</ele><time>2026-04-12T12:42:15Z</time></trkpt><trkpt lat="42.02462124649315" lon="12.028834465758065"><ele>50.0</ele><time>2026-04-12T12:42:16Z</time></trkpt><trkpt lat="42.02460187865717" lon="12.028947433276205"><ele>50.0</ele><time>2026-04-12T12:42:17Z</time></trkpt><trkpt lat="42.02458401688554" lon="12.02905161631137"><ele>50.0</ele><time>2026-04-12T12:42:18Z</time></trkpt><trkpt lat="42.02456753722765" lon="12.029148644655754"><ele>50.00000000000001</ele><time>2026-04-12T12:42:19Z</time></trkpt><trkpt lat="42.02455048739648" lon="12.029250842951113"><ele>50.0</ele><time>2026-04-12T12:42:20Z</time></trkpt><trkpt lat="42.02452664885703" lon="12.02938894882819"><ele>50.0</ele><time>2026-04-12T12:42:22Z</time></trkpt><trkpt lat="42.02450917636124" lon="12.029472184259902"><ele>50.0</ele><time>2026-04-12T12:42:28Z</time></trkpt></trkseg></trk></gpx>